<?xml version="1.0" encoding="UTF-8" standalone="no" ?>
<gpx xmlns="http://www.topografix.com/GPX/1/1" xmlns:xsi="http://www.w3.org/2001/XMLSchema-instance" xsi:schemaLocation="http://www.topografix.com/GPX/1/1 http://www.topografix.com/GPX/1/1/gpx.xsd" version="1.1" creator="VisuGPX - https://www.visugpx.com">
  <metadata>
    <name>Champagnat Cyclisme sur route</name>
  </metadata>
  <trk>
    <name><![CDATA[Champagnat Cyclisme sur route_1]]></name>
    <trkseg>
      <trkpt lat="46.48273" lon="5.36839">
        <ele>274.4</ele>
        <time>2022-04-19T12:14:27Z</time>
      </trkpt>
      <trkpt lat="46.48257" lon="5.36818">
        <ele>273.2</ele>
        <time>2022-04-19T12:14:29Z</time>
      </trkpt>
      <trkpt lat="46.48244" lon="5.36806">
        <ele>271.8</ele>
        <time>2022-04-19T12:14:30Z</time>
      </trkpt>
      <trkpt lat="46.48225" lon="5.3679">
        <ele>270.6</ele>
        <time>2022-04-19T12:14:32Z</time>
      </trkpt>
      <trkpt lat="46.48215" lon="5.36782">
        <ele>270</ele>
        <time>2022-04-19T12:14:33Z</time>
      </trkpt>
      <trkpt lat="46.48204" lon="5.36773">
        <ele>269</ele>
        <time>2022-04-19T12:14:34Z</time>
      </trkpt>
      <trkpt lat="46.48182" lon="5.36757">
        <ele>267.4</ele>
        <time>2022-04-19T12:14:36Z</time>
      </trkpt>
      <trkpt lat="46.48171" lon="5.36748">
        <ele>266</ele>
        <time>2022-04-19T12:14:37Z</time>
      </trkpt>
      <trkpt lat="46.4815" lon="5.36731">
        <ele>264.6</ele>
        <time>2022-04-19T12:14:39Z</time>
      </trkpt>
      <trkpt lat="46.48139" lon="5.36722">
        <ele>264.2</ele>
        <time>2022-04-19T12:14:40Z</time>
      </trkpt>
      <trkpt lat="46.48129" lon="5.36714">
        <ele>263.4</ele>
        <time>2022-04-19T12:14:41Z</time>
      </trkpt>
      <trkpt lat="46.48113" lon="5.36701">
        <ele>262.4</ele>
        <time>2022-04-19T12:14:43Z</time>
      </trkpt>
      <trkpt lat="46.48109" lon="5.36693">
        <ele>261.6</ele>
        <time>2022-04-19T12:14:44Z</time>
      </trkpt>
      <trkpt lat="46.48108" lon="5.36683">
        <ele>261.2</ele>
        <time>2022-04-19T12:14:45Z</time>
      </trkpt>
      <trkpt lat="46.48112" lon="5.36664">
        <ele>260.2</ele>
        <time>2022-04-19T12:14:47Z</time>
      </trkpt>
      <trkpt lat="46.4812" lon="5.36656">
        <ele>259.2</ele>
        <time>2022-04-19T12:14:48Z</time>
      </trkpt>
      <trkpt lat="46.48134" lon="5.36644">
        <ele>258</ele>
        <time>2022-04-19T12:14:50Z</time>
      </trkpt>
      <trkpt lat="46.48168" lon="5.36619">
        <ele>256.2</ele>
        <time>2022-04-19T12:14:54Z</time>
      </trkpt>
      <trkpt lat="46.48175" lon="5.36613">
        <ele>256</ele>
        <time>2022-04-19T12:14:55Z</time>
      </trkpt>
      <trkpt lat="46.48182" lon="5.36607">
        <ele>256</ele>
        <time>2022-04-19T12:14:56Z</time>
      </trkpt>
      <trkpt lat="46.48191" lon="5.36604">
        <ele>256</ele>
        <time>2022-04-19T12:14:57Z</time>
      </trkpt>
      <trkpt lat="46.48198" lon="5.36602">
        <ele>256</ele>
        <time>2022-04-19T12:14:58Z</time>
      </trkpt>
      <trkpt lat="46.48206" lon="5.366">
        <ele>256</ele>
        <time>2022-04-19T12:14:59Z</time>
      </trkpt>
      <trkpt lat="46.48219" lon="5.36587">
        <ele>255.6</ele>
        <time>2022-04-19T12:15:01Z</time>
      </trkpt>
      <trkpt lat="46.48226" lon="5.36567">
        <ele>255.2</ele>
        <time>2022-04-19T12:15:03Z</time>
      </trkpt>
      <trkpt lat="46.4823" lon="5.36557">
        <ele>255</ele>
        <time>2022-04-19T12:15:04Z</time>
      </trkpt>
      <trkpt lat="46.48256" lon="5.36526">
        <ele>254.6</ele>
        <time>2022-04-19T12:15:08Z</time>
      </trkpt>
      <trkpt lat="46.48269" lon="5.36512">
        <ele>254.4</ele>
        <time>2022-04-19T12:15:10Z</time>
      </trkpt>
      <trkpt lat="46.483" lon="5.36476">
        <ele>253.4</ele>
        <time>2022-04-19T12:15:15Z</time>
      </trkpt>
      <trkpt lat="46.4834" lon="5.3643">
        <ele>252</ele>
        <time>2022-04-19T12:15:21Z</time>
      </trkpt>
      <trkpt lat="46.48354" lon="5.36414">
        <ele>251.4</ele>
        <time>2022-04-19T12:15:23Z</time>
      </trkpt>
      <trkpt lat="46.48375" lon="5.36393">
        <ele>250.8</ele>
        <time>2022-04-19T12:15:26Z</time>
      </trkpt>
      <trkpt lat="46.48397" lon="5.36372">
        <ele>250.2</ele>
        <time>2022-04-19T12:15:29Z</time>
      </trkpt>
      <trkpt lat="46.48404" lon="5.36366">
        <ele>249.8</ele>
        <time>2022-04-19T12:15:30Z</time>
      </trkpt>
      <trkpt lat="46.48419" lon="5.36356">
        <ele>249.6</ele>
        <time>2022-04-19T12:15:32Z</time>
      </trkpt>
      <trkpt lat="46.48434" lon="5.3635">
        <ele>249.2</ele>
        <time>2022-04-19T12:15:34Z</time>
      </trkpt>
      <trkpt lat="46.48442" lon="5.36348">
        <ele>249</ele>
        <time>2022-04-19T12:15:35Z</time>
      </trkpt>
      <trkpt lat="46.48479" lon="5.36342">
        <ele>248.6</ele>
        <time>2022-04-19T12:15:40Z</time>
      </trkpt>
      <trkpt lat="46.48535" lon="5.36333">
        <ele>248.2</ele>
        <time>2022-04-19T12:15:48Z</time>
      </trkpt>
      <trkpt lat="46.48542" lon="5.36332">
        <ele>248</ele>
        <time>2022-04-19T12:15:49Z</time>
      </trkpt>
      <trkpt lat="46.48563" lon="5.36329">
        <ele>247.8</ele>
        <time>2022-04-19T12:15:52Z</time>
      </trkpt>
      <trkpt lat="46.48601" lon="5.36323">
        <ele>247.2</ele>
        <time>2022-04-19T12:15:57Z</time>
      </trkpt>
      <trkpt lat="46.48609" lon="5.36321">
        <ele>247</ele>
        <time>2022-04-19T12:15:58Z</time>
      </trkpt>
      <trkpt lat="46.48624" lon="5.36311">
        <ele>246.6</ele>
        <time>2022-04-19T12:16:00Z</time>
      </trkpt>
      <trkpt lat="46.48633" lon="5.3629">
        <ele>245.8</ele>
        <time>2022-04-19T12:16:02Z</time>
      </trkpt>
      <trkpt lat="46.48638" lon="5.36265">
        <ele>244.6</ele>
        <time>2022-04-19T12:16:04Z</time>
      </trkpt>
      <trkpt lat="46.4864" lon="5.36239">
        <ele>243.6</ele>
        <time>2022-04-19T12:16:06Z</time>
      </trkpt>
      <trkpt lat="46.48643" lon="5.36187">
        <ele>242.4</ele>
        <time>2022-04-19T12:16:10Z</time>
      </trkpt>
      <trkpt lat="46.48646" lon="5.36149">
        <ele>241.6</ele>
        <time>2022-04-19T12:16:13Z</time>
      </trkpt>
      <trkpt lat="46.48648" lon="5.36137">
        <ele>241.2</ele>
        <time>2022-04-19T12:16:14Z</time>
      </trkpt>
      <trkpt lat="46.48662" lon="5.36068">
        <ele>240.6</ele>
        <time>2022-04-19T12:16:20Z</time>
      </trkpt>
      <trkpt lat="46.48664" lon="5.36058">
        <ele>240.6</ele>
        <time>2022-04-19T12:16:21Z</time>
      </trkpt>
      <trkpt lat="46.4867" lon="5.3603">
        <ele>240.6</ele>
        <time>2022-04-19T12:16:24Z</time>
      </trkpt>
      <trkpt lat="46.48671" lon="5.36023">
        <ele>240.6</ele>
        <time>2022-04-19T12:16:25Z</time>
      </trkpt>
      <trkpt lat="46.48673" lon="5.36013">
        <ele>240.6</ele>
        <time>2022-04-19T12:16:26Z</time>
      </trkpt>
      <trkpt lat="46.48676" lon="5.35989">
        <ele>241</ele>
        <time>2022-04-19T12:16:29Z</time>
      </trkpt>
      <trkpt lat="46.48679" lon="5.35965">
        <ele>241.8</ele>
        <time>2022-04-19T12:16:32Z</time>
      </trkpt>
      <trkpt lat="46.48681" lon="5.35947">
        <ele>242</ele>
        <time>2022-04-19T12:16:34Z</time>
      </trkpt>
      <trkpt lat="46.48694" lon="5.35892">
        <ele>242.6</ele>
        <time>2022-04-19T12:16:40Z</time>
      </trkpt>
      <trkpt lat="46.48705" lon="5.35866">
        <ele>242.4</ele>
        <time>2022-04-19T12:16:43Z</time>
      </trkpt>
      <trkpt lat="46.48732" lon="5.358">
        <ele>241.2</ele>
        <time>2022-04-19T12:16:49Z</time>
      </trkpt>
      <trkpt lat="46.48753" lon="5.35756">
        <ele>240.6</ele>
        <time>2022-04-19T12:16:54Z</time>
      </trkpt>
      <trkpt lat="46.48762" lon="5.35738">
        <ele>240.4</ele>
        <time>2022-04-19T12:16:56Z</time>
      </trkpt>
      <trkpt lat="46.48789" lon="5.35676">
        <ele>239.6</ele>
        <time>2022-04-19T12:17:03Z</time>
      </trkpt>
      <trkpt lat="46.48793" lon="5.35667">
        <ele>239.6</ele>
        <time>2022-04-19T12:17:04Z</time>
      </trkpt>
      <trkpt lat="46.48818" lon="5.35609">
        <ele>239.6</ele>
        <time>2022-04-19T12:17:11Z</time>
      </trkpt>
      <trkpt lat="46.48837" lon="5.35571">
        <ele>239.6</ele>
        <time>2022-04-19T12:17:16Z</time>
      </trkpt>
      <trkpt lat="46.48837" lon="5.35571">
        <ele>239.6</ele>
        <time>2022-04-19T12:17:17Z</time>
      </trkpt>
      <trkpt lat="46.48848" lon="5.35563">
        <ele>239.6</ele>
        <time>2022-04-19T12:17:18Z</time>
      </trkpt>
      <trkpt lat="46.48848" lon="5.35563">
        <ele>239.6</ele>
        <time>2022-04-19T12:17:19Z</time>
      </trkpt>
      <trkpt lat="46.48862" lon="5.3556">
        <ele>239.6</ele>
        <time>2022-04-19T12:17:20Z</time>
      </trkpt>
      <trkpt lat="46.48884" lon="5.3556">
        <ele>239.6</ele>
        <time>2022-04-19T12:17:23Z</time>
      </trkpt>
      <trkpt lat="46.48938" lon="5.35558">
        <ele>239</ele>
        <time>2022-04-19T12:17:30Z</time>
      </trkpt>
      <trkpt lat="46.48963" lon="5.35556">
        <ele>238.4</ele>
        <time>2022-04-19T12:17:33Z</time>
      </trkpt>
      <trkpt lat="46.49004" lon="5.35554">
        <ele>237.2</ele>
        <time>2022-04-19T12:17:38Z</time>
      </trkpt>
      <trkpt lat="46.49065" lon="5.3555">
        <ele>236.6</ele>
        <time>2022-04-19T12:17:46Z</time>
      </trkpt>
      <trkpt lat="46.49073" lon="5.3555">
        <ele>236.6</ele>
        <time>2022-04-19T12:17:47Z</time>
      </trkpt>
      <trkpt lat="46.49099" lon="5.35549">
        <ele>237.2</ele>
        <time>2022-04-19T12:17:52Z</time>
      </trkpt>
      <trkpt lat="46.49143" lon="5.35547">
        <ele>238</ele>
        <time>2022-04-19T12:17:58Z</time>
      </trkpt>
      <trkpt lat="46.49155" lon="5.35547">
        <ele>238.4</ele>
        <time>2022-04-19T12:18:00Z</time>
      </trkpt>
      <trkpt lat="46.49171" lon="5.35546">
        <ele>238.6</ele>
        <time>2022-04-19T12:18:03Z</time>
      </trkpt>
      <trkpt lat="46.49176" lon="5.35545">
        <ele>238.6</ele>
        <time>2022-04-19T12:18:04Z</time>
      </trkpt>
      <trkpt lat="46.49194" lon="5.35544">
        <ele>239.6</ele>
        <time>2022-04-19T12:18:08Z</time>
      </trkpt>
      <trkpt lat="46.49207" lon="5.35544">
        <ele>240</ele>
        <time>2022-04-19T12:18:10Z</time>
      </trkpt>
      <trkpt lat="46.49253" lon="5.3554">
        <ele>240.6</ele>
        <time>2022-04-19T12:18:17Z</time>
      </trkpt>
      <trkpt lat="46.49312" lon="5.35536">
        <ele>240.4</ele>
        <time>2022-04-19T12:18:26Z</time>
      </trkpt>
      <trkpt lat="46.49367" lon="5.35533">
        <ele>239.8</ele>
        <time>2022-04-19T12:18:34Z</time>
      </trkpt>
      <trkpt lat="46.49374" lon="5.35534">
        <ele>239.6</ele>
        <time>2022-04-19T12:18:35Z</time>
      </trkpt>
      <trkpt lat="46.49382" lon="5.35535">
        <ele>239.6</ele>
        <time>2022-04-19T12:18:36Z</time>
      </trkpt>
      <trkpt lat="46.49418" lon="5.35546">
        <ele>239.2</ele>
        <time>2022-04-19T12:18:41Z</time>
      </trkpt>
      <trkpt lat="46.49447" lon="5.35558">
        <ele>238.8</ele>
        <time>2022-04-19T12:18:45Z</time>
      </trkpt>
      <trkpt lat="46.49468" lon="5.35567">
        <ele>238.4</ele>
        <time>2022-04-19T12:18:48Z</time>
      </trkpt>
      <trkpt lat="46.49495" lon="5.35578">
        <ele>238.2</ele>
        <time>2022-04-19T12:18:52Z</time>
      </trkpt>
      <trkpt lat="46.49516" lon="5.35586">
        <ele>238.2</ele>
        <time>2022-04-19T12:18:55Z</time>
      </trkpt>
      <trkpt lat="46.49572" lon="5.35607">
        <ele>237.6</ele>
        <time>2022-04-19T12:19:03Z</time>
      </trkpt>
      <trkpt lat="46.49601" lon="5.35617">
        <ele>237</ele>
        <time>2022-04-19T12:19:07Z</time>
      </trkpt>
      <trkpt lat="46.49631" lon="5.35626">
        <ele>236.6</ele>
        <time>2022-04-19T12:19:11Z</time>
      </trkpt>
      <trkpt lat="46.49667" lon="5.35636">
        <ele>235.8</ele>
        <time>2022-04-19T12:19:16Z</time>
      </trkpt>
      <trkpt lat="46.4968" lon="5.35641">
        <ele>235.4</ele>
        <time>2022-04-19T12:19:18Z</time>
      </trkpt>
      <trkpt lat="46.49691" lon="5.35645">
        <ele>234.8</ele>
        <time>2022-04-19T12:19:20Z</time>
      </trkpt>
      <trkpt lat="46.49694" lon="5.35645">
        <ele>234.6</ele>
        <time>2022-04-19T12:19:21Z</time>
      </trkpt>
      <trkpt lat="46.49698" lon="5.35643">
        <ele>234.6</ele>
        <time>2022-04-19T12:19:22Z</time>
      </trkpt>
      <trkpt lat="46.49702" lon="5.35634">
        <ele>234</ele>
        <time>2022-04-19T12:19:24Z</time>
      </trkpt>
      <trkpt lat="46.49707" lon="5.35609">
        <ele>233.4</ele>
        <time>2022-04-19T12:19:28Z</time>
      </trkpt>
      <trkpt lat="46.4971" lon="5.35591">
        <ele>233.2</ele>
        <time>2022-04-19T12:19:29Z</time>
      </trkpt>
      <trkpt lat="46.49715" lon="5.35549">
        <ele>232.8</ele>
        <time>2022-04-19T12:19:33Z</time>
      </trkpt>
      <trkpt lat="46.49719" lon="5.3551">
        <ele>232.4</ele>
        <time>2022-04-19T12:19:37Z</time>
      </trkpt>
      <trkpt lat="46.49728" lon="5.35431">
        <ele>232.4</ele>
        <time>2022-04-19T12:19:44Z</time>
      </trkpt>
      <trkpt lat="46.49732" lon="5.35397">
        <ele>232</ele>
        <time>2022-04-19T12:19:47Z</time>
      </trkpt>
      <trkpt lat="46.49734" lon="5.35339">
        <ele>231.4</ele>
        <time>2022-04-19T12:19:52Z</time>
      </trkpt>
      <trkpt lat="46.49732" lon="5.35319">
        <ele>231</ele>
        <time>2022-04-19T12:19:54Z</time>
      </trkpt>
      <trkpt lat="46.49727" lon="5.35287">
        <ele>231</ele>
        <time>2022-04-19T12:19:57Z</time>
      </trkpt>
      <trkpt lat="46.49712" lon="5.35223">
        <ele>230.8</ele>
        <time>2022-04-19T12:20:04Z</time>
      </trkpt>
      <trkpt lat="46.49696" lon="5.35143">
        <ele>231.6</ele>
        <time>2022-04-19T12:20:12Z</time>
      </trkpt>
      <trkpt lat="46.49679" lon="5.35058">
        <ele>231.6</ele>
        <time>2022-04-19T12:20:20Z</time>
      </trkpt>
      <trkpt lat="46.49668" lon="5.35002">
        <ele>231.6</ele>
        <time>2022-04-19T12:20:26Z</time>
      </trkpt>
      <trkpt lat="46.49659" lon="5.3495">
        <ele>232.2</ele>
        <time>2022-04-19T12:20:32Z</time>
      </trkpt>
      <trkpt lat="46.49657" lon="5.34942">
        <ele>232.4</ele>
        <time>2022-04-19T12:20:33Z</time>
      </trkpt>
      <trkpt lat="46.49644" lon="5.34873">
        <ele>233.2</ele>
        <time>2022-04-19T12:20:41Z</time>
      </trkpt>
      <trkpt lat="46.49642" lon="5.34864">
        <ele>233.2</ele>
        <time>2022-04-19T12:20:42Z</time>
      </trkpt>
      <trkpt lat="46.49629" lon="5.34796">
        <ele>233.2</ele>
        <time>2022-04-19T12:20:49Z</time>
      </trkpt>
      <trkpt lat="46.49626" lon="5.3476">
        <ele>233</ele>
        <time>2022-04-19T12:20:52Z</time>
      </trkpt>
      <trkpt lat="46.49626" lon="5.34723">
        <ele>232.4</ele>
        <time>2022-04-19T12:20:55Z</time>
      </trkpt>
      <trkpt lat="46.49627" lon="5.3471">
        <ele>232.2</ele>
        <time>2022-04-19T12:20:56Z</time>
      </trkpt>
      <trkpt lat="46.4963" lon="5.3467">
        <ele>231.2</ele>
        <time>2022-04-19T12:20:59Z</time>
      </trkpt>
      <trkpt lat="46.49633" lon="5.34643">
        <ele>230.2</ele>
        <time>2022-04-19T12:21:01Z</time>
      </trkpt>
      <trkpt lat="46.49635" lon="5.34629">
        <ele>230</ele>
        <time>2022-04-19T12:21:02Z</time>
      </trkpt>
      <trkpt lat="46.4964" lon="5.34586">
        <ele>228.8</ele>
        <time>2022-04-19T12:21:05Z</time>
      </trkpt>
      <trkpt lat="46.49644" lon="5.34559">
        <ele>227.8</ele>
        <time>2022-04-19T12:21:07Z</time>
      </trkpt>
      <trkpt lat="46.49647" lon="5.34546">
        <ele>227.4</ele>
        <time>2022-04-19T12:21:08Z</time>
      </trkpt>
      <trkpt lat="46.49658" lon="5.34499">
        <ele>226.2</ele>
        <time>2022-04-19T12:21:12Z</time>
      </trkpt>
      <trkpt lat="46.4966" lon="5.34489">
        <ele>226.2</ele>
        <time>2022-04-19T12:21:13Z</time>
      </trkpt>
      <trkpt lat="46.49677" lon="5.34432">
        <ele>226</ele>
        <time>2022-04-19T12:21:19Z</time>
      </trkpt>
      <trkpt lat="46.4969" lon="5.34383">
        <ele>227.6</ele>
        <time>2022-04-19T12:21:25Z</time>
      </trkpt>
      <trkpt lat="46.49701" lon="5.34347">
        <ele>228.4</ele>
        <time>2022-04-19T12:21:30Z</time>
      </trkpt>
      <trkpt lat="46.49704" lon="5.3434">
        <ele>228.6</ele>
        <time>2022-04-19T12:21:31Z</time>
      </trkpt>
      <trkpt lat="46.49708" lon="5.34327">
        <ele>228.8</ele>
        <time>2022-04-19T12:21:33Z</time>
      </trkpt>
      <trkpt lat="46.49717" lon="5.34309">
        <ele>229.8</ele>
        <time>2022-04-19T12:21:36Z</time>
      </trkpt>
      <trkpt lat="46.49721" lon="5.34302">
        <ele>229.8</ele>
        <time>2022-04-19T12:21:37Z</time>
      </trkpt>
      <trkpt lat="46.49741" lon="5.34266">
        <ele>230.2</ele>
        <time>2022-04-19T12:21:42Z</time>
      </trkpt>
      <trkpt lat="46.49763" lon="5.34228">
        <ele>230.2</ele>
        <time>2022-04-19T12:21:47Z</time>
      </trkpt>
      <trkpt lat="46.49792" lon="5.34178">
        <ele>230.4</ele>
        <time>2022-04-19T12:21:54Z</time>
      </trkpt>
      <trkpt lat="46.49819" lon="5.34129">
        <ele>230.8</ele>
        <time>2022-04-19T12:22:01Z</time>
      </trkpt>
      <trkpt lat="46.49827" lon="5.34115">
        <ele>231</ele>
        <time>2022-04-19T12:22:03Z</time>
      </trkpt>
      <trkpt lat="46.49835" lon="5.34102">
        <ele>231</ele>
        <time>2022-04-19T12:22:05Z</time>
      </trkpt>
      <trkpt lat="46.49853" lon="5.34076">
        <ele>231</ele>
        <time>2022-04-19T12:22:09Z</time>
      </trkpt>
      <trkpt lat="46.49889" lon="5.34031">
        <ele>231</ele>
        <time>2022-04-19T12:22:16Z</time>
      </trkpt>
      <trkpt lat="46.49918" lon="5.33999">
        <ele>231</ele>
        <time>2022-04-19T12:22:22Z</time>
      </trkpt>
      <trkpt lat="46.49948" lon="5.33965">
        <ele>231.8</ele>
        <time>2022-04-19T12:22:29Z</time>
      </trkpt>
      <trkpt lat="46.49953" lon="5.3396">
        <ele>231.8</ele>
        <time>2022-04-19T12:22:30Z</time>
      </trkpt>
      <trkpt lat="46.49962" lon="5.33952">
        <ele>232.2</ele>
        <time>2022-04-19T12:22:32Z</time>
      </trkpt>
      <trkpt lat="46.49966" lon="5.33947">
        <ele>232.4</ele>
        <time>2022-04-19T12:22:33Z</time>
      </trkpt>
      <trkpt lat="46.4997" lon="5.33943">
        <ele>232.4</ele>
        <time>2022-04-19T12:22:34Z</time>
      </trkpt>
      <trkpt lat="46.49978" lon="5.33933">
        <ele>233</ele>
        <time>2022-04-19T12:22:36Z</time>
      </trkpt>
      <trkpt lat="46.49983" lon="5.33927">
        <ele>233</ele>
        <time>2022-04-19T12:22:37Z</time>
      </trkpt>
      <trkpt lat="46.50021" lon="5.33887">
        <ele>233.4</ele>
        <time>2022-04-19T12:22:44Z</time>
      </trkpt>
      <trkpt lat="46.50069" lon="5.33834">
        <ele>233</ele>
        <time>2022-04-19T12:22:52Z</time>
      </trkpt>
      <trkpt lat="46.50108" lon="5.33791">
        <ele>232</ele>
        <time>2022-04-19T12:22:58Z</time>
      </trkpt>
      <trkpt lat="46.50115" lon="5.33784">
        <ele>231.8</ele>
        <time>2022-04-19T12:22:59Z</time>
      </trkpt>
      <trkpt lat="46.50152" lon="5.33744">
        <ele>231</ele>
        <time>2022-04-19T12:23:05Z</time>
      </trkpt>
      <trkpt lat="46.50158" lon="5.33738">
        <ele>231</ele>
        <time>2022-04-19T12:23:06Z</time>
      </trkpt>
      <trkpt lat="46.5018" lon="5.33715">
        <ele>231</ele>
        <time>2022-04-19T12:23:10Z</time>
      </trkpt>
      <trkpt lat="46.50207" lon="5.33686">
        <ele>231.4</ele>
        <time>2022-04-19T12:23:15Z</time>
      </trkpt>
      <trkpt lat="46.50234" lon="5.33654">
        <ele>231.6</ele>
        <time>2022-04-19T12:23:20Z</time>
      </trkpt>
      <trkpt lat="46.50276" lon="5.3361">
        <ele>231.6</ele>
        <time>2022-04-19T12:23:27Z</time>
      </trkpt>
      <trkpt lat="46.50322" lon="5.33559">
        <ele>230.8</ele>
        <time>2022-04-19T12:23:35Z</time>
      </trkpt>
      <trkpt lat="46.50328" lon="5.33553">
        <ele>230.8</ele>
        <time>2022-04-19T12:23:36Z</time>
      </trkpt>
      <trkpt lat="46.50334" lon="5.33547">
        <ele>230.6</ele>
        <time>2022-04-19T12:23:37Z</time>
      </trkpt>
      <trkpt lat="46.50376" lon="5.33504">
        <ele>230.2</ele>
        <time>2022-04-19T12:23:44Z</time>
      </trkpt>
      <trkpt lat="46.50411" lon="5.33466">
        <ele>229.8</ele>
        <time>2022-04-19T12:23:50Z</time>
      </trkpt>
      <trkpt lat="46.50423" lon="5.33453">
        <ele>229.2</ele>
        <time>2022-04-19T12:23:52Z</time>
      </trkpt>
      <trkpt lat="46.50435" lon="5.33439">
        <ele>228.8</ele>
        <time>2022-04-19T12:23:54Z</time>
      </trkpt>
      <trkpt lat="46.50445" lon="5.33423">
        <ele>228.6</ele>
        <time>2022-04-19T12:23:56Z</time>
      </trkpt>
      <trkpt lat="46.50457" lon="5.33394">
        <ele>228</ele>
        <time>2022-04-19T12:23:59Z</time>
      </trkpt>
      <trkpt lat="46.5046" lon="5.33383">
        <ele>228</ele>
        <time>2022-04-19T12:24:00Z</time>
      </trkpt>
      <trkpt lat="46.50466" lon="5.33328">
        <ele>227.8</ele>
        <time>2022-04-19T12:24:05Z</time>
      </trkpt>
      <trkpt lat="46.50467" lon="5.33276">
        <ele>227.4</ele>
        <time>2022-04-19T12:24:10Z</time>
      </trkpt>
      <trkpt lat="46.50468" lon="5.33207">
        <ele>227.6</ele>
        <time>2022-04-19T12:24:17Z</time>
      </trkpt>
      <trkpt lat="46.50469" lon="5.33186">
        <ele>227.8</ele>
        <time>2022-04-19T12:24:19Z</time>
      </trkpt>
      <trkpt lat="46.50469" lon="5.33144">
        <ele>227.8</ele>
        <time>2022-04-19T12:24:23Z</time>
      </trkpt>
      <trkpt lat="46.5047" lon="5.33084">
        <ele>227.6</ele>
        <time>2022-04-19T12:24:28Z</time>
      </trkpt>
      <trkpt lat="46.5047" lon="5.33018">
        <ele>226.4</ele>
        <time>2022-04-19T12:24:33Z</time>
      </trkpt>
      <trkpt lat="46.50471" lon="5.3299">
        <ele>225.4</ele>
        <time>2022-04-19T12:24:35Z</time>
      </trkpt>
      <trkpt lat="46.50471" lon="5.32948">
        <ele>224</ele>
        <time>2022-04-19T12:24:38Z</time>
      </trkpt>
      <trkpt lat="46.50472" lon="5.32918">
        <ele>222.8</ele>
        <time>2022-04-19T12:24:40Z</time>
      </trkpt>
      <trkpt lat="46.50472" lon="5.32876">
        <ele>221.4</ele>
        <time>2022-04-19T12:24:43Z</time>
      </trkpt>
      <trkpt lat="46.50473" lon="5.32843">
        <ele>219.8</ele>
        <time>2022-04-19T12:24:45Z</time>
      </trkpt>
      <trkpt lat="46.50474" lon="5.32787">
        <ele>218.4</ele>
        <time>2022-04-19T12:24:49Z</time>
      </trkpt>
      <trkpt lat="46.50475" lon="5.32756">
        <ele>217.4</ele>
        <time>2022-04-19T12:24:51Z</time>
      </trkpt>
      <trkpt lat="46.50475" lon="5.32742">
        <ele>217</ele>
        <time>2022-04-19T12:24:52Z</time>
      </trkpt>
      <trkpt lat="46.50475" lon="5.32717">
        <ele>216.2</ele>
        <time>2022-04-19T12:24:54Z</time>
      </trkpt>
      <trkpt lat="46.50477" lon="5.32634">
        <ele>215.2</ele>
        <time>2022-04-19T12:25:00Z</time>
      </trkpt>
      <trkpt lat="46.50475" lon="5.32555">
        <ele>214.6</ele>
        <time>2022-04-19T12:25:06Z</time>
      </trkpt>
      <trkpt lat="46.50472" lon="5.32517">
        <ele>214.2</ele>
        <time>2022-04-19T12:25:09Z</time>
      </trkpt>
      <trkpt lat="46.50468" lon="5.32455">
        <ele>213.2</ele>
        <time>2022-04-19T12:25:14Z</time>
      </trkpt>
      <trkpt lat="46.50466" lon="5.32443">
        <ele>213</ele>
        <time>2022-04-19T12:25:15Z</time>
      </trkpt>
      <trkpt lat="46.50456" lon="5.32384">
        <ele>212.4</ele>
        <time>2022-04-19T12:25:20Z</time>
      </trkpt>
      <trkpt lat="46.50451" lon="5.32362">
        <ele>212</ele>
        <time>2022-04-19T12:25:22Z</time>
      </trkpt>
      <trkpt lat="46.50437" lon="5.323">
        <ele>212</ele>
        <time>2022-04-19T12:25:28Z</time>
      </trkpt>
      <trkpt lat="46.50431" lon="5.32239">
        <ele>212</ele>
        <time>2022-04-19T12:25:34Z</time>
      </trkpt>
      <trkpt lat="46.50431" lon="5.32209">
        <ele>211.8</ele>
        <time>2022-04-19T12:25:37Z</time>
      </trkpt>
      <trkpt lat="46.50437" lon="5.32192">
        <ele>211.6</ele>
        <time>2022-04-19T12:25:39Z</time>
      </trkpt>
      <trkpt lat="46.50447" lon="5.32183">
        <ele>211.6</ele>
        <time>2022-04-19T12:25:41Z</time>
      </trkpt>
      <trkpt lat="46.50452" lon="5.32178">
        <ele>211.4</ele>
        <time>2022-04-19T12:25:42Z</time>
      </trkpt>
      <trkpt lat="46.50456" lon="5.32173">
        <ele>211.4</ele>
        <time>2022-04-19T12:25:43Z</time>
      </trkpt>
      <trkpt lat="46.50464" lon="5.32158">
        <ele>211.2</ele>
        <time>2022-04-19T12:25:45Z</time>
      </trkpt>
      <trkpt lat="46.50467" lon="5.32148">
        <ele>211.2</ele>
        <time>2022-04-19T12:25:46Z</time>
      </trkpt>
      <trkpt lat="46.50485" lon="5.32096">
        <ele>211.2</ele>
        <time>2022-04-19T12:25:52Z</time>
      </trkpt>
      <trkpt lat="46.50521" lon="5.32029">
        <ele>211.2</ele>
        <time>2022-04-19T12:26:01Z</time>
      </trkpt>
      <trkpt lat="46.50551" lon="5.31985">
        <ele>211.8</ele>
        <time>2022-04-19T12:26:08Z</time>
      </trkpt>
      <trkpt lat="46.50554" lon="5.31979">
        <ele>211.8</ele>
        <time>2022-04-19T12:26:09Z</time>
      </trkpt>
      <trkpt lat="46.50559" lon="5.31966">
        <ele>212.6</ele>
        <time>2022-04-19T12:26:11Z</time>
      </trkpt>
      <trkpt lat="46.50562" lon="5.31954">
        <ele>212.8</ele>
        <time>2022-04-19T12:26:13Z</time>
      </trkpt>
      <trkpt lat="46.5057" lon="5.31932">
        <ele>213.6</ele>
        <time>2022-04-19T12:26:17Z</time>
      </trkpt>
      <trkpt lat="46.50574" lon="5.31921">
        <ele>213.8</ele>
        <time>2022-04-19T12:26:19Z</time>
      </trkpt>
      <trkpt lat="46.50576" lon="5.31915">
        <ele>213.8</ele>
        <time>2022-04-19T12:26:20Z</time>
      </trkpt>
      <trkpt lat="46.50582" lon="5.31899">
        <ele>214.6</ele>
        <time>2022-04-19T12:26:23Z</time>
      </trkpt>
      <trkpt lat="46.50586" lon="5.3189">
        <ele>215.2</ele>
        <time>2022-04-19T12:26:25Z</time>
      </trkpt>
      <trkpt lat="46.50588" lon="5.31886">
        <ele>215.4</ele>
        <time>2022-04-19T12:26:26Z</time>
      </trkpt>
      <trkpt lat="46.5059" lon="5.3188">
        <ele>215.6</ele>
        <time>2022-04-19T12:26:27Z</time>
      </trkpt>
      <trkpt lat="46.50598" lon="5.31859">
        <ele>216.6</ele>
        <time>2022-04-19T12:26:31Z</time>
      </trkpt>
      <trkpt lat="46.50599" lon="5.31855">
        <ele>216.8</ele>
        <time>2022-04-19T12:26:32Z</time>
      </trkpt>
      <trkpt lat="46.50607" lon="5.31832">
        <ele>217.4</ele>
        <time>2022-04-19T12:26:36Z</time>
      </trkpt>
      <trkpt lat="46.50609" lon="5.31826">
        <ele>217.6</ele>
        <time>2022-04-19T12:26:37Z</time>
      </trkpt>
      <trkpt lat="46.50611" lon="5.31821">
        <ele>217.8</ele>
        <time>2022-04-19T12:26:38Z</time>
      </trkpt>
      <trkpt lat="46.50622" lon="5.31791">
        <ele>219</ele>
        <time>2022-04-19T12:26:43Z</time>
      </trkpt>
      <trkpt lat="46.50632" lon="5.31765">
        <ele>219.6</ele>
        <time>2022-04-19T12:26:47Z</time>
      </trkpt>
      <trkpt lat="46.50637" lon="5.31752">
        <ele>220</ele>
        <time>2022-04-19T12:26:49Z</time>
      </trkpt>
      <trkpt lat="46.50646" lon="5.31734">
        <ele>220.2</ele>
        <time>2022-04-19T12:26:52Z</time>
      </trkpt>
      <trkpt lat="46.50649" lon="5.31728">
        <ele>220.2</ele>
        <time>2022-04-19T12:26:53Z</time>
      </trkpt>
      <trkpt lat="46.50653" lon="5.31724">
        <ele>220.4</ele>
        <time>2022-04-19T12:26:54Z</time>
      </trkpt>
      <trkpt lat="46.50658" lon="5.3172">
        <ele>220.4</ele>
        <time>2022-04-19T12:26:55Z</time>
      </trkpt>
      <trkpt lat="46.50668" lon="5.31713">
        <ele>220.4</ele>
        <time>2022-04-19T12:26:57Z</time>
      </trkpt>
      <trkpt lat="46.50679" lon="5.3171">
        <ele>220.2</ele>
        <time>2022-04-19T12:26:59Z</time>
      </trkpt>
      <trkpt lat="46.50722" lon="5.31706">
        <ele>220</ele>
        <time>2022-04-19T12:27:06Z</time>
      </trkpt>
      <trkpt lat="46.50735" lon="5.31704">
        <ele>220</ele>
        <time>2022-04-19T12:27:08Z</time>
      </trkpt>
      <trkpt lat="46.50754" lon="5.31702">
        <ele>220.2</ele>
        <time>2022-04-19T12:27:11Z</time>
      </trkpt>
      <trkpt lat="46.50767" lon="5.31704">
        <ele>220.4</ele>
        <time>2022-04-19T12:27:13Z</time>
      </trkpt>
      <trkpt lat="46.5078" lon="5.31709">
        <ele>220.6</ele>
        <time>2022-04-19T12:27:15Z</time>
      </trkpt>
      <trkpt lat="46.50792" lon="5.31718">
        <ele>220.6</ele>
        <time>2022-04-19T12:27:17Z</time>
      </trkpt>
      <trkpt lat="46.50832" lon="5.31746">
        <ele>220.8</ele>
        <time>2022-04-19T12:27:24Z</time>
      </trkpt>
      <trkpt lat="46.50843" lon="5.31745">
        <ele>221</ele>
        <time>2022-04-19T12:27:26Z</time>
      </trkpt>
      <trkpt lat="46.50848" lon="5.31743">
        <ele>221</ele>
        <time>2022-04-19T12:27:27Z</time>
      </trkpt>
      <trkpt lat="46.50863" lon="5.31729">
        <ele>221.2</ele>
        <time>2022-04-19T12:27:30Z</time>
      </trkpt>
      <trkpt lat="46.50873" lon="5.31719">
        <ele>221.4</ele>
        <time>2022-04-19T12:27:32Z</time>
      </trkpt>
      <trkpt lat="46.5092" lon="5.31668">
        <ele>222.2</ele>
        <time>2022-04-19T12:27:41Z</time>
      </trkpt>
      <trkpt lat="46.50959" lon="5.31628">
        <ele>221.6</ele>
        <time>2022-04-19T12:27:47Z</time>
      </trkpt>
      <trkpt lat="46.51001" lon="5.31585">
        <ele>220.6</ele>
        <time>2022-04-19T12:27:54Z</time>
      </trkpt>
      <trkpt lat="46.51027" lon="5.31556">
        <ele>220.6</ele>
        <time>2022-04-19T12:27:59Z</time>
      </trkpt>
      <trkpt lat="46.51036" lon="5.3154">
        <ele>221</ele>
        <time>2022-04-19T12:28:01Z</time>
      </trkpt>
      <trkpt lat="46.51042" lon="5.31522">
        <ele>220.8</ele>
        <time>2022-04-19T12:28:03Z</time>
      </trkpt>
      <trkpt lat="46.51056" lon="5.31453">
        <ele>220.4</ele>
        <time>2022-04-19T12:28:09Z</time>
      </trkpt>
      <trkpt lat="46.51061" lon="5.31429">
        <ele>220.2</ele>
        <time>2022-04-19T12:28:11Z</time>
      </trkpt>
      <trkpt lat="46.5107" lon="5.3138">
        <ele>219.4</ele>
        <time>2022-04-19T12:28:15Z</time>
      </trkpt>
      <trkpt lat="46.51069" lon="5.31343">
        <ele>218.6</ele>
        <time>2022-04-19T12:28:18Z</time>
      </trkpt>
      <trkpt lat="46.51068" lon="5.31329">
        <ele>218.2</ele>
        <time>2022-04-19T12:28:19Z</time>
      </trkpt>
      <trkpt lat="46.51069" lon="5.31316">
        <ele>217.8</ele>
        <time>2022-04-19T12:28:20Z</time>
      </trkpt>
      <trkpt lat="46.51074" lon="5.3129">
        <ele>217</ele>
        <time>2022-04-19T12:28:22Z</time>
      </trkpt>
      <trkpt lat="46.51079" lon="5.3128">
        <ele>216.8</ele>
        <time>2022-04-19T12:28:23Z</time>
      </trkpt>
      <trkpt lat="46.51093" lon="5.31261">
        <ele>216.2</ele>
        <time>2022-04-19T12:28:25Z</time>
      </trkpt>
      <trkpt lat="46.51099" lon="5.31252">
        <ele>216</ele>
        <time>2022-04-19T12:28:26Z</time>
      </trkpt>
      <trkpt lat="46.5112" lon="5.31228">
        <ele>214.6</ele>
        <time>2022-04-19T12:28:29Z</time>
      </trkpt>
      <trkpt lat="46.51127" lon="5.3122">
        <ele>214.4</ele>
        <time>2022-04-19T12:28:30Z</time>
      </trkpt>
      <trkpt lat="46.51134" lon="5.31211">
        <ele>214</ele>
        <time>2022-04-19T12:28:31Z</time>
      </trkpt>
      <trkpt lat="46.51149" lon="5.31195">
        <ele>213.6</ele>
        <time>2022-04-19T12:28:33Z</time>
      </trkpt>
      <trkpt lat="46.51156" lon="5.31186">
        <ele>213.4</ele>
        <time>2022-04-19T12:28:34Z</time>
      </trkpt>
      <trkpt lat="46.5117" lon="5.3117">
        <ele>212.6</ele>
        <time>2022-04-19T12:28:36Z</time>
      </trkpt>
      <trkpt lat="46.51203" lon="5.31132">
        <ele>211.6</ele>
        <time>2022-04-19T12:28:41Z</time>
      </trkpt>
      <trkpt lat="46.51216" lon="5.31116">
        <ele>211.4</ele>
        <time>2022-04-19T12:28:43Z</time>
      </trkpt>
      <trkpt lat="46.51223" lon="5.31108">
        <ele>211.2</ele>
        <time>2022-04-19T12:28:44Z</time>
      </trkpt>
      <trkpt lat="46.51238" lon="5.31094">
        <ele>211</ele>
        <time>2022-04-19T12:28:46Z</time>
      </trkpt>
      <trkpt lat="46.51245" lon="5.31087">
        <ele>210.8</ele>
        <time>2022-04-19T12:28:47Z</time>
      </trkpt>
      <trkpt lat="46.51262" lon="5.31078">
        <ele>210.6</ele>
        <time>2022-04-19T12:28:49Z</time>
      </trkpt>
      <trkpt lat="46.51289" lon="5.31078">
        <ele>210.2</ele>
        <time>2022-04-19T12:28:52Z</time>
      </trkpt>
      <trkpt lat="46.51315" lon="5.31076">
        <ele>209.4</ele>
        <time>2022-04-19T12:28:55Z</time>
      </trkpt>
      <trkpt lat="46.51331" lon="5.31075">
        <ele>209.2</ele>
        <time>2022-04-19T12:28:57Z</time>
      </trkpt>
      <trkpt lat="46.51361" lon="5.31074">
        <ele>209.2</ele>
        <time>2022-04-19T12:29:01Z</time>
      </trkpt>
      <trkpt lat="46.5142" lon="5.31071">
        <ele>209.2</ele>
        <time>2022-04-19T12:29:09Z</time>
      </trkpt>
      <trkpt lat="46.51434" lon="5.3107">
        <ele>209.2</ele>
        <time>2022-04-19T12:29:11Z</time>
      </trkpt>
      <trkpt lat="46.51492" lon="5.31071">
        <ele>209</ele>
        <time>2022-04-19T12:29:19Z</time>
      </trkpt>
      <trkpt lat="46.51539" lon="5.31074">
        <ele>209.4</ele>
        <time>2022-04-19T12:29:26Z</time>
      </trkpt>
      <trkpt lat="46.51589" lon="5.31082">
        <ele>209.2</ele>
        <time>2022-04-19T12:29:34Z</time>
      </trkpt>
      <trkpt lat="46.51623" lon="5.31097">
        <ele>209.6</ele>
        <time>2022-04-19T12:29:40Z</time>
      </trkpt>
      <trkpt lat="46.51629" lon="5.311">
        <ele>209.8</ele>
        <time>2022-04-19T12:29:41Z</time>
      </trkpt>
      <trkpt lat="46.51646" lon="5.31103">
        <ele>210</ele>
        <time>2022-04-19T12:29:44Z</time>
      </trkpt>
      <trkpt lat="46.5166" lon="5.31101">
        <ele>210.4</ele>
        <time>2022-04-19T12:29:47Z</time>
      </trkpt>
      <trkpt lat="46.51669" lon="5.31103">
        <ele>211.2</ele>
        <time>2022-04-19T12:29:49Z</time>
      </trkpt>
      <trkpt lat="46.51677" lon="5.31113">
        <ele>211.6</ele>
        <time>2022-04-19T12:29:51Z</time>
      </trkpt>
      <trkpt lat="46.5168" lon="5.3112">
        <ele>211.6</ele>
        <time>2022-04-19T12:29:52Z</time>
      </trkpt>
      <trkpt lat="46.51687" lon="5.31135">
        <ele>211.6</ele>
        <time>2022-04-19T12:29:54Z</time>
      </trkpt>
      <trkpt lat="46.51696" lon="5.31148">
        <ele>212</ele>
        <time>2022-04-19T12:29:56Z</time>
      </trkpt>
      <trkpt lat="46.51713" lon="5.31165">
        <ele>211.6</ele>
        <time>2022-04-19T12:29:59Z</time>
      </trkpt>
      <trkpt lat="46.51726" lon="5.31173">
        <ele>211.6</ele>
        <time>2022-04-19T12:30:01Z</time>
      </trkpt>
      <trkpt lat="46.51741" lon="5.31178">
        <ele>211.6</ele>
        <time>2022-04-19T12:30:03Z</time>
      </trkpt>
      <trkpt lat="46.51757" lon="5.31179">
        <ele>211.4</ele>
        <time>2022-04-19T12:30:05Z</time>
      </trkpt>
      <trkpt lat="46.51782" lon="5.3118">
        <ele>210.4</ele>
        <time>2022-04-19T12:30:08Z</time>
      </trkpt>
      <trkpt lat="46.51809" lon="5.31181">
        <ele>209</ele>
        <time>2022-04-19T12:30:11Z</time>
      </trkpt>
      <trkpt lat="46.51818" lon="5.31182">
        <ele>208.8</ele>
        <time>2022-04-19T12:30:12Z</time>
      </trkpt>
      <trkpt lat="46.51844" lon="5.31192">
        <ele>207.6</ele>
        <time>2022-04-19T12:30:15Z</time>
      </trkpt>
      <trkpt lat="46.51859" lon="5.31204">
        <ele>206.6</ele>
        <time>2022-04-19T12:30:17Z</time>
      </trkpt>
      <trkpt lat="46.51866" lon="5.31212">
        <ele>206</ele>
        <time>2022-04-19T12:30:18Z</time>
      </trkpt>
      <trkpt lat="46.51873" lon="5.3122">
        <ele>205.8</ele>
        <time>2022-04-19T12:30:19Z</time>
      </trkpt>
      <trkpt lat="46.51885" lon="5.31238">
        <ele>205.6</ele>
        <time>2022-04-19T12:30:21Z</time>
      </trkpt>
      <trkpt lat="46.51914" lon="5.31283">
        <ele>205</ele>
        <time>2022-04-19T12:30:26Z</time>
      </trkpt>
      <trkpt lat="46.51953" lon="5.31341">
        <ele>204.8</ele>
        <time>2022-04-19T12:30:33Z</time>
      </trkpt>
      <trkpt lat="46.51963" lon="5.31356">
        <ele>204.8</ele>
        <time>2022-04-19T12:30:35Z</time>
      </trkpt>
      <trkpt lat="46.51999" lon="5.31408">
        <ele>205</ele>
        <time>2022-04-19T12:30:42Z</time>
      </trkpt>
      <trkpt lat="46.52036" lon="5.31462">
        <ele>205.2</ele>
        <time>2022-04-19T12:30:50Z</time>
      </trkpt>
      <trkpt lat="46.52065" lon="5.31504">
        <ele>206</ele>
        <time>2022-04-19T12:30:57Z</time>
      </trkpt>
      <trkpt lat="46.52074" lon="5.31516">
        <ele>206.4</ele>
        <time>2022-04-19T12:30:59Z</time>
      </trkpt>
      <trkpt lat="46.52078" lon="5.31522">
        <ele>206.8</ele>
        <time>2022-04-19T12:31:00Z</time>
      </trkpt>
      <trkpt lat="46.52086" lon="5.31535">
        <ele>207</ele>
        <time>2022-04-19T12:31:02Z</time>
      </trkpt>
      <trkpt lat="46.52105" lon="5.31563">
        <ele>207.8</ele>
        <time>2022-04-19T12:31:07Z</time>
      </trkpt>
      <trkpt lat="46.52113" lon="5.31574">
        <ele>208.2</ele>
        <time>2022-04-19T12:31:09Z</time>
      </trkpt>
      <trkpt lat="46.52121" lon="5.31586">
        <ele>208.6</ele>
        <time>2022-04-19T12:31:11Z</time>
      </trkpt>
      <trkpt lat="46.52129" lon="5.31596">
        <ele>208.8</ele>
        <time>2022-04-19T12:31:13Z</time>
      </trkpt>
      <trkpt lat="46.52137" lon="5.31606">
        <ele>209.4</ele>
        <time>2022-04-19T12:31:15Z</time>
      </trkpt>
      <trkpt lat="46.5214" lon="5.31612">
        <ele>209.6</ele>
        <time>2022-04-19T12:31:16Z</time>
      </trkpt>
      <trkpt lat="46.52146" lon="5.31622">
        <ele>209.8</ele>
        <time>2022-04-19T12:31:18Z</time>
      </trkpt>
      <trkpt lat="46.52153" lon="5.31632">
        <ele>210</ele>
        <time>2022-04-19T12:31:20Z</time>
      </trkpt>
      <trkpt lat="46.52165" lon="5.31647">
        <ele>210.8</ele>
        <time>2022-04-19T12:31:23Z</time>
      </trkpt>
      <trkpt lat="46.52175" lon="5.31664">
        <ele>211.6</ele>
        <time>2022-04-19T12:31:26Z</time>
      </trkpt>
      <trkpt lat="46.52182" lon="5.31675">
        <ele>212</ele>
        <time>2022-04-19T12:31:28Z</time>
      </trkpt>
      <trkpt lat="46.522" lon="5.31702">
        <ele>212.6</ele>
        <time>2022-04-19T12:31:33Z</time>
      </trkpt>
      <trkpt lat="46.52211" lon="5.31718">
        <ele>213</ele>
        <time>2022-04-19T12:31:36Z</time>
      </trkpt>
      <trkpt lat="46.5223" lon="5.31743">
        <ele>214</ele>
        <time>2022-04-19T12:31:41Z</time>
      </trkpt>
      <trkpt lat="46.52233" lon="5.31753">
        <ele>214.2</ele>
        <time>2022-04-19T12:31:43Z</time>
      </trkpt>
      <trkpt lat="46.52237" lon="5.31758">
        <ele>214.4</ele>
        <time>2022-04-19T12:31:44Z</time>
      </trkpt>
      <trkpt lat="46.52244" lon="5.31767">
        <ele>214.4</ele>
        <time>2022-04-19T12:31:46Z</time>
      </trkpt>
      <trkpt lat="46.52251" lon="5.31777">
        <ele>215.4</ele>
        <time>2022-04-19T12:31:49Z</time>
      </trkpt>
      <trkpt lat="46.52275" lon="5.31808">
        <ele>216.2</ele>
        <time>2022-04-19T12:31:54Z</time>
      </trkpt>
      <trkpt lat="46.52287" lon="5.31823">
        <ele>216.4</ele>
        <time>2022-04-19T12:31:57Z</time>
      </trkpt>
      <trkpt lat="46.52305" lon="5.31845">
        <ele>216.8</ele>
        <time>2022-04-19T12:32:02Z</time>
      </trkpt>
      <trkpt lat="46.52318" lon="5.31865">
        <ele>217.6</ele>
        <time>2022-04-19T12:32:07Z</time>
      </trkpt>
      <trkpt lat="46.52334" lon="5.31889">
        <ele>218.2</ele>
        <time>2022-04-19T12:32:11Z</time>
      </trkpt>
      <trkpt lat="46.5234" lon="5.31899">
        <ele>218.6</ele>
        <time>2022-04-19T12:32:13Z</time>
      </trkpt>
      <trkpt lat="46.52367" lon="5.31938">
        <ele>219.2</ele>
        <time>2022-04-19T12:32:20Z</time>
      </trkpt>
      <trkpt lat="46.52393" lon="5.31972">
        <ele>219.4</ele>
        <time>2022-04-19T12:32:25Z</time>
      </trkpt>
      <trkpt lat="46.52432" lon="5.32027">
        <ele>219</ele>
        <time>2022-04-19T12:32:32Z</time>
      </trkpt>
      <trkpt lat="46.52467" lon="5.32076">
        <ele>217.6</ele>
        <time>2022-04-19T12:32:38Z</time>
      </trkpt>
      <trkpt lat="46.52486" lon="5.32103">
        <ele>216.4</ele>
        <time>2022-04-19T12:32:41Z</time>
      </trkpt>
      <trkpt lat="46.52515" lon="5.32144">
        <ele>215</ele>
        <time>2022-04-19T12:32:46Z</time>
      </trkpt>
      <trkpt lat="46.52543" lon="5.32175">
        <ele>213.8</ele>
        <time>2022-04-19T12:32:50Z</time>
      </trkpt>
      <trkpt lat="46.52573" lon="5.32197">
        <ele>212.4</ele>
        <time>2022-04-19T12:32:54Z</time>
      </trkpt>
      <trkpt lat="46.52581" lon="5.32202">
        <ele>212</ele>
        <time>2022-04-19T12:32:55Z</time>
      </trkpt>
      <trkpt lat="46.526" lon="5.3221">
        <ele>211.2</ele>
        <time>2022-04-19T12:32:57Z</time>
      </trkpt>
      <trkpt lat="46.52628" lon="5.32223">
        <ele>210.2</ele>
        <time>2022-04-19T12:33:00Z</time>
      </trkpt>
      <trkpt lat="46.52637" lon="5.32229">
        <ele>209.8</ele>
        <time>2022-04-19T12:33:01Z</time>
      </trkpt>
      <trkpt lat="46.52654" lon="5.32241">
        <ele>208.2</ele>
        <time>2022-04-19T12:33:03Z</time>
      </trkpt>
      <trkpt lat="46.52679" lon="5.32262">
        <ele>207.2</ele>
        <time>2022-04-19T12:33:06Z</time>
      </trkpt>
      <trkpt lat="46.52687" lon="5.3227">
        <ele>206.6</ele>
        <time>2022-04-19T12:33:07Z</time>
      </trkpt>
      <trkpt lat="46.52707" lon="5.32293">
        <ele>205.2</ele>
        <time>2022-04-19T12:33:10Z</time>
      </trkpt>
      <trkpt lat="46.5272" lon="5.32309">
        <ele>205</ele>
        <time>2022-04-19T12:33:12Z</time>
      </trkpt>
      <trkpt lat="46.52761" lon="5.3236">
        <ele>204.6</ele>
        <time>2022-04-19T12:33:19Z</time>
      </trkpt>
      <trkpt lat="46.52772" lon="5.32373">
        <ele>204.4</ele>
        <time>2022-04-19T12:33:21Z</time>
      </trkpt>
      <trkpt lat="46.52783" lon="5.32385">
        <ele>204.4</ele>
        <time>2022-04-19T12:33:23Z</time>
      </trkpt>
      <trkpt lat="46.52789" lon="5.32392">
        <ele>204.4</ele>
        <time>2022-04-19T12:33:24Z</time>
      </trkpt>
      <trkpt lat="46.52834" lon="5.32441">
        <ele>204.4</ele>
        <time>2022-04-19T12:33:32Z</time>
      </trkpt>
      <trkpt lat="46.52839" lon="5.32447">
        <ele>204.4</ele>
        <time>2022-04-19T12:33:33Z</time>
      </trkpt>
      <trkpt lat="46.52888" lon="5.32496">
        <ele>204.4</ele>
        <time>2022-04-19T12:33:42Z</time>
      </trkpt>
      <trkpt lat="46.52893" lon="5.32501">
        <ele>204.2</ele>
        <time>2022-04-19T12:33:43Z</time>
      </trkpt>
      <trkpt lat="46.5294" lon="5.3255">
        <ele>204</ele>
        <time>2022-04-19T12:33:52Z</time>
      </trkpt>
      <trkpt lat="46.52945" lon="5.32555">
        <ele>204.2</ele>
        <time>2022-04-19T12:33:53Z</time>
      </trkpt>
      <trkpt lat="46.52983" lon="5.32592">
        <ele>204.4</ele>
        <time>2022-04-19T12:34:01Z</time>
      </trkpt>
      <trkpt lat="46.53002" lon="5.32613">
        <ele>205.2</ele>
        <time>2022-04-19T12:34:06Z</time>
      </trkpt>
      <trkpt lat="46.53009" lon="5.3262">
        <ele>205.8</ele>
        <time>2022-04-19T12:34:08Z</time>
      </trkpt>
      <trkpt lat="46.53024" lon="5.32637">
        <ele>206.8</ele>
        <time>2022-04-19T12:34:13Z</time>
      </trkpt>
      <trkpt lat="46.53037" lon="5.3265">
        <ele>208</ele>
        <time>2022-04-19T12:34:17Z</time>
      </trkpt>
      <trkpt lat="46.53043" lon="5.32656">
        <ele>208.4</ele>
        <time>2022-04-19T12:34:19Z</time>
      </trkpt>
      <trkpt lat="46.53053" lon="5.32667">
        <ele>209.2</ele>
        <time>2022-04-19T12:34:22Z</time>
      </trkpt>
      <trkpt lat="46.53073" lon="5.3269">
        <ele>210.4</ele>
        <time>2022-04-19T12:34:28Z</time>
      </trkpt>
      <trkpt lat="46.53076" lon="5.32693">
        <ele>210.6</ele>
        <time>2022-04-19T12:34:29Z</time>
      </trkpt>
      <trkpt lat="46.53092" lon="5.32709">
        <ele>211.6</ele>
        <time>2022-04-19T12:34:34Z</time>
      </trkpt>
      <trkpt lat="46.53104" lon="5.32724">
        <ele>212.8</ele>
        <time>2022-04-19T12:34:38Z</time>
      </trkpt>
      <trkpt lat="46.53116" lon="5.32736">
        <ele>213.8</ele>
        <time>2022-04-19T12:34:42Z</time>
      </trkpt>
      <trkpt lat="46.53127" lon="5.32749">
        <ele>214.6</ele>
        <time>2022-04-19T12:34:46Z</time>
      </trkpt>
      <trkpt lat="46.5313" lon="5.32753">
        <ele>214.8</ele>
        <time>2022-04-19T12:34:47Z</time>
      </trkpt>
      <trkpt lat="46.53143" lon="5.32771">
        <ele>216.2</ele>
        <time>2022-04-19T12:34:52Z</time>
      </trkpt>
      <trkpt lat="46.53151" lon="5.32781">
        <ele>216.6</ele>
        <time>2022-04-19T12:34:55Z</time>
      </trkpt>
      <trkpt lat="46.53158" lon="5.32792">
        <ele>217.2</ele>
        <time>2022-04-19T12:34:58Z</time>
      </trkpt>
      <trkpt lat="46.53171" lon="5.32815">
        <ele>218.4</ele>
        <time>2022-04-19T12:35:04Z</time>
      </trkpt>
      <trkpt lat="46.53183" lon="5.32839">
        <ele>219.4</ele>
        <time>2022-04-19T12:35:10Z</time>
      </trkpt>
      <trkpt lat="46.53192" lon="5.32855">
        <ele>220</ele>
        <time>2022-04-19T12:35:14Z</time>
      </trkpt>
      <trkpt lat="46.532" lon="5.32872">
        <ele>220.6</ele>
        <time>2022-04-19T12:35:18Z</time>
      </trkpt>
      <trkpt lat="46.53209" lon="5.32889">
        <ele>221.8</ele>
        <time>2022-04-19T12:35:22Z</time>
      </trkpt>
      <trkpt lat="46.53215" lon="5.32901">
        <ele>222.2</ele>
        <time>2022-04-19T12:35:25Z</time>
      </trkpt>
      <trkpt lat="46.53224" lon="5.3292">
        <ele>222.8</ele>
        <time>2022-04-19T12:35:29Z</time>
      </trkpt>
      <trkpt lat="46.53233" lon="5.32938">
        <ele>223.6</ele>
        <time>2022-04-19T12:35:33Z</time>
      </trkpt>
      <trkpt lat="46.53235" lon="5.32942">
        <ele>224</ele>
        <time>2022-04-19T12:35:34Z</time>
      </trkpt>
      <trkpt lat="46.53249" lon="5.3297">
        <ele>225</ele>
        <time>2022-04-19T12:35:40Z</time>
      </trkpt>
      <trkpt lat="46.53254" lon="5.32979">
        <ele>225.4</ele>
        <time>2022-04-19T12:35:42Z</time>
      </trkpt>
      <trkpt lat="46.53264" lon="5.32999">
        <ele>226</ele>
        <time>2022-04-19T12:35:46Z</time>
      </trkpt>
      <trkpt lat="46.53279" lon="5.33026">
        <ele>226.8</ele>
        <time>2022-04-19T12:35:51Z</time>
      </trkpt>
      <trkpt lat="46.53294" lon="5.33052">
        <ele>227.2</ele>
        <time>2022-04-19T12:35:56Z</time>
      </trkpt>
      <trkpt lat="46.53313" lon="5.33078">
        <ele>227.6</ele>
        <time>2022-04-19T12:36:01Z</time>
      </trkpt>
      <trkpt lat="46.53348" lon="5.33126">
        <ele>228</ele>
        <time>2022-04-19T12:36:09Z</time>
      </trkpt>
      <trkpt lat="46.53389" lon="5.33182">
        <ele>228</ele>
        <time>2022-04-19T12:36:18Z</time>
      </trkpt>
      <trkpt lat="46.53393" lon="5.33188">
        <ele>228</ele>
        <time>2022-04-19T12:36:19Z</time>
      </trkpt>
      <trkpt lat="46.53437" lon="5.33248">
        <ele>227.8</ele>
        <time>2022-04-19T12:36:28Z</time>
      </trkpt>
      <trkpt lat="46.53451" lon="5.33268">
        <ele>227.8</ele>
        <time>2022-04-19T12:36:31Z</time>
      </trkpt>
      <trkpt lat="46.53493" lon="5.33327">
        <ele>228.4</ele>
        <time>2022-04-19T12:36:40Z</time>
      </trkpt>
      <trkpt lat="46.53534" lon="5.33383">
        <ele>228.4</ele>
        <time>2022-04-19T12:36:48Z</time>
      </trkpt>
      <trkpt lat="46.53578" lon="5.33445">
        <ele>227.6</ele>
        <time>2022-04-19T12:36:56Z</time>
      </trkpt>
      <trkpt lat="46.53606" lon="5.33485">
        <ele>226.4</ele>
        <time>2022-04-19T12:37:01Z</time>
      </trkpt>
      <trkpt lat="46.53621" lon="5.33505">
        <ele>225.8</ele>
        <time>2022-04-19T12:37:04Z</time>
      </trkpt>
      <trkpt lat="46.53627" lon="5.33514">
        <ele>225.4</ele>
        <time>2022-04-19T12:37:06Z</time>
      </trkpt>
      <trkpt lat="46.53629" lon="5.33518">
        <ele>225.4</ele>
        <time>2022-04-19T12:37:07Z</time>
      </trkpt>
      <trkpt lat="46.53631" lon="5.33525">
        <ele>224.4</ele>
        <time>2022-04-19T12:37:10Z</time>
      </trkpt>
      <trkpt lat="46.53633" lon="5.33528">
        <ele>224.2</ele>
        <time>2022-04-19T12:37:11Z</time>
      </trkpt>
      <trkpt lat="46.5364" lon="5.33525">
        <ele>223.6</ele>
        <time>2022-04-19T12:37:13Z</time>
      </trkpt>
      <trkpt lat="46.53657" lon="5.3351">
        <ele>223.4</ele>
        <time>2022-04-19T12:37:17Z</time>
      </trkpt>
      <trkpt lat="46.53696" lon="5.33473">
        <ele>224</ele>
        <time>2022-04-19T12:37:25Z</time>
      </trkpt>
      <trkpt lat="46.53707" lon="5.33473">
        <ele>224.2</ele>
        <time>2022-04-19T12:37:27Z</time>
      </trkpt>
      <trkpt lat="46.53714" lon="5.33475">
        <ele>224.4</ele>
        <time>2022-04-19T12:37:28Z</time>
      </trkpt>
      <trkpt lat="46.53741" lon="5.33487">
        <ele>224.8</ele>
        <time>2022-04-19T12:37:32Z</time>
      </trkpt>
      <trkpt lat="46.53754" lon="5.33496">
        <ele>224.8</ele>
        <time>2022-04-19T12:37:34Z</time>
      </trkpt>
      <trkpt lat="46.53794" lon="5.33524">
        <ele>223.6</ele>
        <time>2022-04-19T12:37:40Z</time>
      </trkpt>
      <trkpt lat="46.53808" lon="5.33532">
        <ele>223.2</ele>
        <time>2022-04-19T12:37:42Z</time>
      </trkpt>
      <trkpt lat="46.5385" lon="5.33556">
        <ele>222.6</ele>
        <time>2022-04-19T12:37:48Z</time>
      </trkpt>
      <trkpt lat="46.53863" lon="5.33561">
        <ele>222.4</ele>
        <time>2022-04-19T12:37:50Z</time>
      </trkpt>
      <trkpt lat="46.53878" lon="5.33564">
        <ele>222</ele>
        <time>2022-04-19T12:37:52Z</time>
      </trkpt>
      <trkpt lat="46.53886" lon="5.33564">
        <ele>221.8</ele>
        <time>2022-04-19T12:37:53Z</time>
      </trkpt>
      <trkpt lat="46.53912" lon="5.33566">
        <ele>221</ele>
        <time>2022-04-19T12:37:56Z</time>
      </trkpt>
      <trkpt lat="46.53936" lon="5.33566">
        <ele>219.8</ele>
        <time>2022-04-19T12:37:59Z</time>
      </trkpt>
      <trkpt lat="46.53963" lon="5.33568">
        <ele>218.4</ele>
        <time>2022-04-19T12:38:02Z</time>
      </trkpt>
      <trkpt lat="46.53982" lon="5.33569">
        <ele>217.6</ele>
        <time>2022-04-19T12:38:04Z</time>
      </trkpt>
      <trkpt lat="46.54002" lon="5.33572">
        <ele>217</ele>
        <time>2022-04-19T12:38:06Z</time>
      </trkpt>
      <trkpt lat="46.54026" lon="5.33581">
        <ele>216</ele>
        <time>2022-04-19T12:38:08Z</time>
      </trkpt>
      <trkpt lat="46.54034" lon="5.33585">
        <ele>215.2</ele>
        <time>2022-04-19T12:38:09Z</time>
      </trkpt>
      <trkpt lat="46.54054" lon="5.33597">
        <ele>214</ele>
        <time>2022-04-19T12:38:11Z</time>
      </trkpt>
      <trkpt lat="46.54075" lon="5.3361">
        <ele>212.6</ele>
        <time>2022-04-19T12:38:13Z</time>
      </trkpt>
      <trkpt lat="46.54082" lon="5.33615">
        <ele>211.6</ele>
        <time>2022-04-19T12:38:14Z</time>
      </trkpt>
      <trkpt lat="46.541" lon="5.33626">
        <ele>210.6</ele>
        <time>2022-04-19T12:38:16Z</time>
      </trkpt>
      <trkpt lat="46.54125" lon="5.33639">
        <ele>210.2</ele>
        <time>2022-04-19T12:38:19Z</time>
      </trkpt>
      <trkpt lat="46.54156" lon="5.33648">
        <ele>210</ele>
        <time>2022-04-19T12:38:23Z</time>
      </trkpt>
      <trkpt lat="46.54194" lon="5.33653">
        <ele>211.4</ele>
        <time>2022-04-19T12:38:29Z</time>
      </trkpt>
      <trkpt lat="46.54212" lon="5.33654">
        <ele>212</ele>
        <time>2022-04-19T12:38:32Z</time>
      </trkpt>
      <trkpt lat="46.54234" lon="5.33656">
        <ele>212.8</ele>
        <time>2022-04-19T12:38:36Z</time>
      </trkpt>
      <trkpt lat="46.5424" lon="5.33656">
        <ele>213.4</ele>
        <time>2022-04-19T12:38:37Z</time>
      </trkpt>
      <trkpt lat="46.54271" lon="5.33658">
        <ele>214.4</ele>
        <time>2022-04-19T12:38:42Z</time>
      </trkpt>
      <trkpt lat="46.54318" lon="5.3366">
        <ele>214.2</ele>
        <time>2022-04-19T12:38:48Z</time>
      </trkpt>
      <trkpt lat="46.54371" lon="5.33671">
        <ele>213.4</ele>
        <time>2022-04-19T12:38:54Z</time>
      </trkpt>
      <trkpt lat="46.54379" lon="5.33675">
        <ele>212.8</ele>
        <time>2022-04-19T12:38:55Z</time>
      </trkpt>
      <trkpt lat="46.54422" lon="5.33694">
        <ele>212.4</ele>
        <time>2022-04-19T12:39:01Z</time>
      </trkpt>
      <trkpt lat="46.54445" lon="5.33705">
        <ele>212.6</ele>
        <time>2022-04-19T12:39:05Z</time>
      </trkpt>
      <trkpt lat="46.54453" lon="5.33709">
        <ele>213.2</ele>
        <time>2022-04-19T12:39:07Z</time>
      </trkpt>
      <trkpt lat="46.54467" lon="5.33714">
        <ele>213.8</ele>
        <time>2022-04-19T12:39:10Z</time>
      </trkpt>
      <trkpt lat="46.54485" lon="5.33722">
        <ele>215</ele>
        <time>2022-04-19T12:39:14Z</time>
      </trkpt>
      <trkpt lat="46.54488" lon="5.33724">
        <ele>215.2</ele>
        <time>2022-04-19T12:39:15Z</time>
      </trkpt>
      <trkpt lat="46.54501" lon="5.33729">
        <ele>216.2</ele>
        <time>2022-04-19T12:39:18Z</time>
      </trkpt>
      <trkpt lat="46.54508" lon="5.33733">
        <ele>217</ele>
        <time>2022-04-19T12:39:20Z</time>
      </trkpt>
      <trkpt lat="46.54516" lon="5.33738">
        <ele>217.2</ele>
        <time>2022-04-19T12:39:22Z</time>
      </trkpt>
      <trkpt lat="46.54519" lon="5.33739">
        <ele>217.6</ele>
        <time>2022-04-19T12:39:23Z</time>
      </trkpt>
      <trkpt lat="46.54526" lon="5.33744">
        <ele>218</ele>
        <time>2022-04-19T12:39:25Z</time>
      </trkpt>
      <trkpt lat="46.54534" lon="5.33747">
        <ele>218.6</ele>
        <time>2022-04-19T12:39:27Z</time>
      </trkpt>
      <trkpt lat="46.54541" lon="5.33751">
        <ele>219</ele>
        <time>2022-04-19T12:39:29Z</time>
      </trkpt>
      <trkpt lat="46.54549" lon="5.33755">
        <ele>219.6</ele>
        <time>2022-04-19T12:39:31Z</time>
      </trkpt>
      <trkpt lat="46.54564" lon="5.33763">
        <ele>220.8</ele>
        <time>2022-04-19T12:39:35Z</time>
      </trkpt>
      <trkpt lat="46.54568" lon="5.33764">
        <ele>220.8</ele>
        <time>2022-04-19T12:39:36Z</time>
      </trkpt>
      <trkpt lat="46.5458" lon="5.33768">
        <ele>221.8</ele>
        <time>2022-04-19T12:39:39Z</time>
      </trkpt>
      <trkpt lat="46.546" lon="5.33775">
        <ele>223</ele>
        <time>2022-04-19T12:39:44Z</time>
      </trkpt>
      <trkpt lat="46.54604" lon="5.33776">
        <ele>223.2</ele>
        <time>2022-04-19T12:39:45Z</time>
      </trkpt>
      <trkpt lat="46.54625" lon="5.33782">
        <ele>224.2</ele>
        <time>2022-04-19T12:39:50Z</time>
      </trkpt>
      <trkpt lat="46.54644" lon="5.33787">
        <ele>224.4</ele>
        <time>2022-04-19T12:39:54Z</time>
      </trkpt>
      <trkpt lat="46.54676" lon="5.33791">
        <ele>224.4</ele>
        <time>2022-04-19T12:39:59Z</time>
      </trkpt>
      <trkpt lat="46.5472" lon="5.33784">
        <ele>223.2</ele>
        <time>2022-04-19T12:40:05Z</time>
      </trkpt>
      <trkpt lat="46.54728" lon="5.33782">
        <ele>223</ele>
        <time>2022-04-19T12:40:06Z</time>
      </trkpt>
      <trkpt lat="46.54771" lon="5.33778">
        <ele>221.6</ele>
        <time>2022-04-19T12:40:11Z</time>
      </trkpt>
      <trkpt lat="46.5478" lon="5.33779">
        <ele>221.2</ele>
        <time>2022-04-19T12:40:12Z</time>
      </trkpt>
      <trkpt lat="46.54795" lon="5.33779">
        <ele>220.6</ele>
        <time>2022-04-19T12:40:14Z</time>
      </trkpt>
      <trkpt lat="46.5484" lon="5.33781">
        <ele>219.4</ele>
        <time>2022-04-19T12:40:19Z</time>
      </trkpt>
      <trkpt lat="46.54848" lon="5.3378">
        <ele>219.4</ele>
        <time>2022-04-19T12:40:20Z</time>
      </trkpt>
      <trkpt lat="46.54856" lon="5.3378">
        <ele>219</ele>
        <time>2022-04-19T12:40:21Z</time>
      </trkpt>
      <trkpt lat="46.54873" lon="5.33777">
        <ele>218.4</ele>
        <time>2022-04-19T12:40:23Z</time>
      </trkpt>
      <trkpt lat="46.54897" lon="5.33773">
        <ele>218</ele>
        <time>2022-04-19T12:40:26Z</time>
      </trkpt>
      <trkpt lat="46.5493" lon="5.33773">
        <ele>217.2</ele>
        <time>2022-04-19T12:40:30Z</time>
      </trkpt>
      <trkpt lat="46.54943" lon="5.33776">
        <ele>217</ele>
        <time>2022-04-19T12:40:32Z</time>
      </trkpt>
      <trkpt lat="46.54999" lon="5.3379">
        <ele>216.4</ele>
        <time>2022-04-19T12:40:40Z</time>
      </trkpt>
      <trkpt lat="46.55038" lon="5.33805">
        <ele>216.2</ele>
        <time>2022-04-19T12:40:46Z</time>
      </trkpt>
      <trkpt lat="46.55042" lon="5.33808">
        <ele>216.4</ele>
        <time>2022-04-19T12:40:47Z</time>
      </trkpt>
      <trkpt lat="46.55073" lon="5.33832">
        <ele>217</ele>
        <time>2022-04-19T12:40:53Z</time>
      </trkpt>
      <trkpt lat="46.55087" lon="5.33846">
        <ele>217.6</ele>
        <time>2022-04-19T12:40:56Z</time>
      </trkpt>
      <trkpt lat="46.55099" lon="5.33861">
        <ele>218</ele>
        <time>2022-04-19T12:40:59Z</time>
      </trkpt>
      <trkpt lat="46.55102" lon="5.33866">
        <ele>218.2</ele>
        <time>2022-04-19T12:41:00Z</time>
      </trkpt>
      <trkpt lat="46.55109" lon="5.33876">
        <ele>218.4</ele>
        <time>2022-04-19T12:41:02Z</time>
      </trkpt>
      <trkpt lat="46.55119" lon="5.33891">
        <ele>218.8</ele>
        <time>2022-04-19T12:41:05Z</time>
      </trkpt>
      <trkpt lat="46.5513" lon="5.33909">
        <ele>219.2</ele>
        <time>2022-04-19T12:41:08Z</time>
      </trkpt>
      <trkpt lat="46.55144" lon="5.3393">
        <ele>219.8</ele>
        <time>2022-04-19T12:41:12Z</time>
      </trkpt>
      <trkpt lat="46.55147" lon="5.33934">
        <ele>219.8</ele>
        <time>2022-04-19T12:41:13Z</time>
      </trkpt>
      <trkpt lat="46.55158" lon="5.33955">
        <ele>221</ele>
        <time>2022-04-19T12:41:17Z</time>
      </trkpt>
      <trkpt lat="46.55161" lon="5.33961">
        <ele>221</ele>
        <time>2022-04-19T12:41:18Z</time>
      </trkpt>
      <trkpt lat="46.5517" lon="5.3398">
        <ele>222</ele>
        <time>2022-04-19T12:41:22Z</time>
      </trkpt>
      <trkpt lat="46.55173" lon="5.33986">
        <ele>222.4</ele>
        <time>2022-04-19T12:41:23Z</time>
      </trkpt>
      <trkpt lat="46.55175" lon="5.3399">
        <ele>222.8</ele>
        <time>2022-04-19T12:41:24Z</time>
      </trkpt>
      <trkpt lat="46.55179" lon="5.34002">
        <ele>223.4</ele>
        <time>2022-04-19T12:41:26Z</time>
      </trkpt>
      <trkpt lat="46.5518" lon="5.34007">
        <ele>223.6</ele>
        <time>2022-04-19T12:41:27Z</time>
      </trkpt>
      <trkpt lat="46.55183" lon="5.34025">
        <ele>224.2</ele>
        <time>2022-04-19T12:41:30Z</time>
      </trkpt>
      <trkpt lat="46.55185" lon="5.34037">
        <ele>224.4</ele>
        <time>2022-04-19T12:41:32Z</time>
      </trkpt>
      <trkpt lat="46.55188" lon="5.34049">
        <ele>224.8</ele>
        <time>2022-04-19T12:41:34Z</time>
      </trkpt>
      <trkpt lat="46.55193" lon="5.34061">
        <ele>225.2</ele>
        <time>2022-04-19T12:41:36Z</time>
      </trkpt>
      <trkpt lat="46.55195" lon="5.34067">
        <ele>225.8</ele>
        <time>2022-04-19T12:41:37Z</time>
      </trkpt>
      <trkpt lat="46.55204" lon="5.34094">
        <ele>226.4</ele>
        <time>2022-04-19T12:41:42Z</time>
      </trkpt>
      <trkpt lat="46.55212" lon="5.34112">
        <ele>226.8</ele>
        <time>2022-04-19T12:41:45Z</time>
      </trkpt>
      <trkpt lat="46.55213" lon="5.34119">
        <ele>227</ele>
        <time>2022-04-19T12:41:46Z</time>
      </trkpt>
      <trkpt lat="46.55217" lon="5.34132">
        <ele>227.4</ele>
        <time>2022-04-19T12:41:48Z</time>
      </trkpt>
      <trkpt lat="46.55224" lon="5.34172">
        <ele>227.8</ele>
        <time>2022-04-19T12:41:53Z</time>
      </trkpt>
      <trkpt lat="46.55226" lon="5.34181">
        <ele>228</ele>
        <time>2022-04-19T12:41:54Z</time>
      </trkpt>
      <trkpt lat="46.55229" lon="5.342">
        <ele>228</ele>
        <time>2022-04-19T12:41:56Z</time>
      </trkpt>
      <trkpt lat="46.55235" lon="5.34219">
        <ele>228</ele>
        <time>2022-04-19T12:41:58Z</time>
      </trkpt>
      <trkpt lat="46.5524" lon="5.34236">
        <ele>228</ele>
        <time>2022-04-19T12:42:00Z</time>
      </trkpt>
      <trkpt lat="46.5525" lon="5.34254">
        <ele>227.8</ele>
        <time>2022-04-19T12:42:02Z</time>
      </trkpt>
      <trkpt lat="46.55268" lon="5.34273">
        <ele>227.4</ele>
        <time>2022-04-19T12:42:05Z</time>
      </trkpt>
      <trkpt lat="46.55274" lon="5.34277">
        <ele>227.4</ele>
        <time>2022-04-19T12:42:06Z</time>
      </trkpt>
      <trkpt lat="46.55287" lon="5.3429">
        <ele>226.8</ele>
        <time>2022-04-19T12:42:08Z</time>
      </trkpt>
      <trkpt lat="46.55295" lon="5.34297">
        <ele>226.8</ele>
        <time>2022-04-19T12:42:09Z</time>
      </trkpt>
      <trkpt lat="46.55303" lon="5.34306">
        <ele>226.6</ele>
        <time>2022-04-19T12:42:10Z</time>
      </trkpt>
      <trkpt lat="46.5531" lon="5.34314">
        <ele>226.4</ele>
        <time>2022-04-19T12:42:11Z</time>
      </trkpt>
      <trkpt lat="46.55322" lon="5.34328">
        <ele>226.2</ele>
        <time>2022-04-19T12:42:13Z</time>
      </trkpt>
      <trkpt lat="46.55344" lon="5.34351">
        <ele>225.8</ele>
        <time>2022-04-19T12:42:16Z</time>
      </trkpt>
      <trkpt lat="46.55364" lon="5.34373">
        <ele>225</ele>
        <time>2022-04-19T12:42:19Z</time>
      </trkpt>
      <trkpt lat="46.55371" lon="5.34379">
        <ele>224.8</ele>
        <time>2022-04-19T12:42:20Z</time>
      </trkpt>
      <trkpt lat="46.55397" lon="5.34407">
        <ele>223.8</ele>
        <time>2022-04-19T12:42:24Z</time>
      </trkpt>
      <trkpt lat="46.55416" lon="5.34428">
        <ele>222.8</ele>
        <time>2022-04-19T12:42:27Z</time>
      </trkpt>
      <trkpt lat="46.55422" lon="5.34435">
        <ele>222.6</ele>
        <time>2022-04-19T12:42:28Z</time>
      </trkpt>
      <trkpt lat="46.55465" lon="5.3448">
        <ele>222.4</ele>
        <time>2022-04-19T12:42:35Z</time>
      </trkpt>
      <trkpt lat="46.55513" lon="5.34525">
        <ele>222.4</ele>
        <time>2022-04-19T12:42:43Z</time>
      </trkpt>
      <trkpt lat="46.55555" lon="5.34548">
        <ele>222.6</ele>
        <time>2022-04-19T12:42:49Z</time>
      </trkpt>
      <trkpt lat="46.55608" lon="5.34567">
        <ele>222.2</ele>
        <time>2022-04-19T12:42:56Z</time>
      </trkpt>
      <trkpt lat="46.55616" lon="5.3457">
        <ele>222</ele>
        <time>2022-04-19T12:42:57Z</time>
      </trkpt>
      <trkpt lat="46.55625" lon="5.34573">
        <ele>221.6</ele>
        <time>2022-04-19T12:42:58Z</time>
      </trkpt>
      <trkpt lat="46.55653" lon="5.34577">
        <ele>220.4</ele>
        <time>2022-04-19T12:43:01Z</time>
      </trkpt>
      <trkpt lat="46.55663" lon="5.34577">
        <ele>220.2</ele>
        <time>2022-04-19T12:43:02Z</time>
      </trkpt>
      <trkpt lat="46.55691" lon="5.34576">
        <ele>219.2</ele>
        <time>2022-04-19T12:43:05Z</time>
      </trkpt>
      <trkpt lat="46.55711" lon="5.34578">
        <ele>218</ele>
        <time>2022-04-19T12:43:07Z</time>
      </trkpt>
      <trkpt lat="46.55722" lon="5.3458">
        <ele>217.4</ele>
        <time>2022-04-19T12:43:08Z</time>
      </trkpt>
      <trkpt lat="46.55732" lon="5.34582">
        <ele>216.8</ele>
        <time>2022-04-19T12:43:09Z</time>
      </trkpt>
      <trkpt lat="46.55742" lon="5.34584">
        <ele>215.6</ele>
        <time>2022-04-19T12:43:10Z</time>
      </trkpt>
      <trkpt lat="46.55763" lon="5.34589">
        <ele>214.6</ele>
        <time>2022-04-19T12:43:12Z</time>
      </trkpt>
      <trkpt lat="46.55774" lon="5.34592">
        <ele>214.4</ele>
        <time>2022-04-19T12:43:13Z</time>
      </trkpt>
      <trkpt lat="46.55794" lon="5.34596">
        <ele>213</ele>
        <time>2022-04-19T12:43:15Z</time>
      </trkpt>
      <trkpt lat="46.55822" lon="5.34603">
        <ele>212</ele>
        <time>2022-04-19T12:43:18Z</time>
      </trkpt>
      <trkpt lat="46.55847" lon="5.34609">
        <ele>211.2</ele>
        <time>2022-04-19T12:43:21Z</time>
      </trkpt>
      <trkpt lat="46.55855" lon="5.34611">
        <ele>210.8</ele>
        <time>2022-04-19T12:43:22Z</time>
      </trkpt>
      <trkpt lat="46.5591" lon="5.34624">
        <ele>204.2</ele>
        <time>2022-04-19T12:43:29Z</time>
      </trkpt>
      <trkpt lat="46.55917" lon="5.34626">
        <ele>210</ele>
        <time>2022-04-19T12:43:30Z</time>
      </trkpt>
      <trkpt lat="46.55933" lon="5.3463">
        <ele>209.8</ele>
        <time>2022-04-19T12:43:32Z</time>
      </trkpt>
      <trkpt lat="46.55977" lon="5.34642">
        <ele>209</ele>
        <time>2022-04-19T12:43:38Z</time>
      </trkpt>
      <trkpt lat="46.5601" lon="5.3465">
        <ele>208.8</ele>
        <time>2022-04-19T12:43:43Z</time>
      </trkpt>
      <trkpt lat="46.56068" lon="5.34665">
        <ele>209.2</ele>
        <time>2022-04-19T12:43:52Z</time>
      </trkpt>
      <trkpt lat="46.56122" lon="5.34678">
        <ele>209.2</ele>
        <time>2022-04-19T12:44:01Z</time>
      </trkpt>
      <trkpt lat="46.56149" lon="5.34681">
        <ele>210.2</ele>
        <time>2022-04-19T12:44:06Z</time>
      </trkpt>
      <trkpt lat="46.56158" lon="5.34681">
        <ele>210.4</ele>
        <time>2022-04-19T12:44:08Z</time>
      </trkpt>
      <trkpt lat="46.56177" lon="5.3468">
        <ele>211</ele>
        <time>2022-04-19T12:44:12Z</time>
      </trkpt>
      <trkpt lat="46.56181" lon="5.34679">
        <ele>211.2</ele>
        <time>2022-04-19T12:44:13Z</time>
      </trkpt>
      <trkpt lat="46.56191" lon="5.34676">
        <ele>211.6</ele>
        <time>2022-04-19T12:44:15Z</time>
      </trkpt>
      <trkpt lat="46.56205" lon="5.34672">
        <ele>212</ele>
        <time>2022-04-19T12:44:18Z</time>
      </trkpt>
      <trkpt lat="46.56217" lon="5.34667">
        <ele>212.2</ele>
        <time>2022-04-19T12:44:21Z</time>
      </trkpt>
      <trkpt lat="46.56245" lon="5.34659">
        <ele>213.4</ele>
        <time>2022-04-19T12:44:27Z</time>
      </trkpt>
      <trkpt lat="46.5625" lon="5.34658">
        <ele>213.6</ele>
        <time>2022-04-19T12:44:28Z</time>
      </trkpt>
      <trkpt lat="46.56255" lon="5.34656">
        <ele>214.2</ele>
        <time>2022-04-19T12:44:29Z</time>
      </trkpt>
      <trkpt lat="46.56273" lon="5.34652">
        <ele>214.8</ele>
        <time>2022-04-19T12:44:33Z</time>
      </trkpt>
      <trkpt lat="46.56295" lon="5.34648">
        <ele>215.8</ele>
        <time>2022-04-19T12:44:38Z</time>
      </trkpt>
      <trkpt lat="46.56299" lon="5.34648">
        <ele>216</ele>
        <time>2022-04-19T12:44:39Z</time>
      </trkpt>
      <trkpt lat="46.56303" lon="5.34648">
        <ele>216.2</ele>
        <time>2022-04-19T12:44:40Z</time>
      </trkpt>
      <trkpt lat="46.56323" lon="5.34651">
        <ele>217</ele>
        <time>2022-04-19T12:44:44Z</time>
      </trkpt>
      <trkpt lat="46.56327" lon="5.34653">
        <ele>217.2</ele>
        <time>2022-04-19T12:44:45Z</time>
      </trkpt>
      <trkpt lat="46.56352" lon="5.34664">
        <ele>218</ele>
        <time>2022-04-19T12:44:50Z</time>
      </trkpt>
      <trkpt lat="46.56363" lon="5.34669">
        <ele>218.4</ele>
        <time>2022-04-19T12:44:52Z</time>
      </trkpt>
      <trkpt lat="46.56399" lon="5.34678">
        <ele>218.8</ele>
        <time>2022-04-19T12:44:58Z</time>
      </trkpt>
      <trkpt lat="46.56407" lon="5.3468">
        <ele>218.8</ele>
        <time>2022-04-19T12:44:59Z</time>
      </trkpt>
      <trkpt lat="46.56433" lon="5.34693">
        <ele>218.4</ele>
        <time>2022-04-19T12:45:03Z</time>
      </trkpt>
      <trkpt lat="46.56475" lon="5.34715">
        <ele>216.8</ele>
        <time>2022-04-19T12:45:09Z</time>
      </trkpt>
      <trkpt lat="46.56496" lon="5.34729">
        <ele>216.4</ele>
        <time>2022-04-19T12:45:12Z</time>
      </trkpt>
      <trkpt lat="46.56527" lon="5.34745">
        <ele>215.6</ele>
        <time>2022-04-19T12:45:16Z</time>
      </trkpt>
      <trkpt lat="46.56542" lon="5.34754">
        <ele>215</ele>
        <time>2022-04-19T12:45:18Z</time>
      </trkpt>
      <trkpt lat="46.56558" lon="5.34763">
        <ele>214.4</ele>
        <time>2022-04-19T12:45:20Z</time>
      </trkpt>
      <trkpt lat="46.56567" lon="5.34768">
        <ele>214.2</ele>
        <time>2022-04-19T12:45:21Z</time>
      </trkpt>
      <trkpt lat="46.56586" lon="5.3477">
        <ele>213.4</ele>
        <time>2022-04-19T12:45:23Z</time>
      </trkpt>
      <trkpt lat="46.56603" lon="5.34761">
        <ele>212.8</ele>
        <time>2022-04-19T12:45:25Z</time>
      </trkpt>
      <trkpt lat="46.56611" lon="5.34752">
        <ele>212.4</ele>
        <time>2022-04-19T12:45:26Z</time>
      </trkpt>
      <trkpt lat="46.56617" lon="5.34742">
        <ele>211.2</ele>
        <time>2022-04-19T12:45:27Z</time>
      </trkpt>
      <trkpt lat="46.56628" lon="5.34718">
        <ele>209.4</ele>
        <time>2022-04-19T12:45:29Z</time>
      </trkpt>
      <trkpt lat="46.56634" lon="5.34706">
        <ele>208.6</ele>
        <time>2022-04-19T12:45:30Z</time>
      </trkpt>
      <trkpt lat="46.56641" lon="5.34693">
        <ele>208.2</ele>
        <time>2022-04-19T12:45:31Z</time>
      </trkpt>
      <trkpt lat="46.56647" lon="5.34684">
        <ele>207.8</ele>
        <time>2022-04-19T12:45:32Z</time>
      </trkpt>
      <trkpt lat="46.56655" lon="5.34671">
        <ele>207.6</ele>
        <time>2022-04-19T12:45:34Z</time>
      </trkpt>
      <trkpt lat="46.56661" lon="5.34666">
        <ele>207.2</ele>
        <time>2022-04-19T12:45:35Z</time>
      </trkpt>
      <trkpt lat="46.56665" lon="5.34662">
        <ele>207</ele>
        <time>2022-04-19T12:45:36Z</time>
      </trkpt>
      <trkpt lat="46.56685" lon="5.34651">
        <ele>206.2</ele>
        <time>2022-04-19T12:45:39Z</time>
      </trkpt>
      <trkpt lat="46.56731" lon="5.34652">
        <ele>205.6</ele>
        <time>2022-04-19T12:45:43Z</time>
      </trkpt>
      <trkpt lat="46.56741" lon="5.34654">
        <ele>205.6</ele>
        <time>2022-04-19T12:45:44Z</time>
      </trkpt>
      <trkpt lat="46.5675" lon="5.34658">
        <ele>205.6</ele>
        <time>2022-04-19T12:45:45Z</time>
      </trkpt>
      <trkpt lat="46.56766" lon="5.34677">
        <ele>205.4</ele>
        <time>2022-04-19T12:45:47Z</time>
      </trkpt>
      <trkpt lat="46.56779" lon="5.34719">
        <ele>205.2</ele>
        <time>2022-04-19T12:45:51Z</time>
      </trkpt>
      <trkpt lat="46.56782" lon="5.34729">
        <ele>205.2</ele>
        <time>2022-04-19T12:45:52Z</time>
      </trkpt>
      <trkpt lat="46.56796" lon="5.34794">
        <ele>205</ele>
        <time>2022-04-19T12:45:58Z</time>
      </trkpt>
      <trkpt lat="46.56813" lon="5.34879">
        <ele>205</ele>
        <time>2022-04-19T12:46:06Z</time>
      </trkpt>
      <trkpt lat="46.56824" lon="5.34937">
        <ele>205</ele>
        <time>2022-04-19T12:46:12Z</time>
      </trkpt>
      <trkpt lat="46.56833" lon="5.34979">
        <ele>205.6</ele>
        <time>2022-04-19T12:46:17Z</time>
      </trkpt>
      <trkpt lat="46.56837" lon="5.34993">
        <ele>205.8</ele>
        <time>2022-04-19T12:46:19Z</time>
      </trkpt>
      <trkpt lat="46.5684" lon="5.34999">
        <ele>206.2</ele>
        <time>2022-04-19T12:46:20Z</time>
      </trkpt>
      <trkpt lat="46.56853" lon="5.35028">
        <ele>207.4</ele>
        <time>2022-04-19T12:46:25Z</time>
      </trkpt>
      <trkpt lat="46.5686" lon="5.35045">
        <ele>208.8</ele>
        <time>2022-04-19T12:46:28Z</time>
      </trkpt>
      <trkpt lat="46.56868" lon="5.35066">
        <ele>209.6</ele>
        <time>2022-04-19T12:46:32Z</time>
      </trkpt>
      <trkpt lat="46.5687" lon="5.35071">
        <ele>209.8</ele>
        <time>2022-04-19T12:46:33Z</time>
      </trkpt>
      <trkpt lat="46.56878" lon="5.35086">
        <ele>211</ele>
        <time>2022-04-19T12:46:36Z</time>
      </trkpt>
      <trkpt lat="46.56883" lon="5.35097">
        <ele>211.6</ele>
        <time>2022-04-19T12:46:38Z</time>
      </trkpt>
      <trkpt lat="46.56888" lon="5.35107">
        <ele>212.2</ele>
        <time>2022-04-19T12:46:40Z</time>
      </trkpt>
      <trkpt lat="46.56894" lon="5.35127">
        <ele>213.4</ele>
        <time>2022-04-19T12:46:44Z</time>
      </trkpt>
      <trkpt lat="46.56905" lon="5.35145">
        <ele>214.8</ele>
        <time>2022-04-19T12:46:48Z</time>
      </trkpt>
      <trkpt lat="46.56909" lon="5.3515">
        <ele>215.2</ele>
        <time>2022-04-19T12:46:49Z</time>
      </trkpt>
      <trkpt lat="46.56918" lon="5.35158">
        <ele>215.4</ele>
        <time>2022-04-19T12:46:51Z</time>
      </trkpt>
      <trkpt lat="46.56927" lon="5.35167">
        <ele>216</ele>
        <time>2022-04-19T12:46:53Z</time>
      </trkpt>
      <trkpt lat="46.56932" lon="5.35171">
        <ele>216</ele>
        <time>2022-04-19T12:46:54Z</time>
      </trkpt>
      <trkpt lat="46.56938" lon="5.35175">
        <ele>216.2</ele>
        <time>2022-04-19T12:46:55Z</time>
      </trkpt>
      <trkpt lat="46.56959" lon="5.35193">
        <ele>216.4</ele>
        <time>2022-04-19T12:46:59Z</time>
      </trkpt>
      <trkpt lat="46.56964" lon="5.35201">
        <ele>216.4</ele>
        <time>2022-04-19T12:47:00Z</time>
      </trkpt>
      <trkpt lat="46.56968" lon="5.35209">
        <ele>216.4</ele>
        <time>2022-04-19T12:47:01Z</time>
      </trkpt>
      <trkpt lat="46.56974" lon="5.35231">
        <ele>216.2</ele>
        <time>2022-04-19T12:47:03Z</time>
      </trkpt>
      <trkpt lat="46.56984" lon="5.35278">
        <ele>215</ele>
        <time>2022-04-19T12:47:07Z</time>
      </trkpt>
      <trkpt lat="46.56987" lon="5.3529">
        <ele>214.6</ele>
        <time>2022-04-19T12:47:08Z</time>
      </trkpt>
      <trkpt lat="46.56997" lon="5.35325">
        <ele>213.2</ele>
        <time>2022-04-19T12:47:11Z</time>
      </trkpt>
      <trkpt lat="46.57008" lon="5.35358">
        <ele>212.4</ele>
        <time>2022-04-19T12:47:14Z</time>
      </trkpt>
      <trkpt lat="46.57018" lon="5.3539">
        <ele>211.6</ele>
        <time>2022-04-19T12:47:17Z</time>
      </trkpt>
      <trkpt lat="46.57025" lon="5.35411">
        <ele>211</ele>
        <time>2022-04-19T12:47:19Z</time>
      </trkpt>
      <trkpt lat="46.57031" lon="5.35433">
        <ele>211.2</ele>
        <time>2022-04-19T12:47:21Z</time>
      </trkpt>
      <trkpt lat="46.57034" lon="5.35455">
        <ele>211</ele>
        <time>2022-04-19T12:47:23Z</time>
      </trkpt>
      <trkpt lat="46.57041" lon="5.35529">
        <ele>210.2</ele>
        <time>2022-04-19T12:47:30Z</time>
      </trkpt>
      <trkpt lat="46.57047" lon="5.35597">
        <ele>209.8</ele>
        <time>2022-04-19T12:47:36Z</time>
      </trkpt>
      <trkpt lat="46.5705" lon="5.35608">
        <ele>209.6</ele>
        <time>2022-04-19T12:47:37Z</time>
      </trkpt>
      <trkpt lat="46.57054" lon="5.35619">
        <ele>209.4</ele>
        <time>2022-04-19T12:47:38Z</time>
      </trkpt>
      <trkpt lat="46.57058" lon="5.35628">
        <ele>209.2</ele>
        <time>2022-04-19T12:47:39Z</time>
      </trkpt>
      <trkpt lat="46.57062" lon="5.35636">
        <ele>209</ele>
        <time>2022-04-19T12:47:40Z</time>
      </trkpt>
      <trkpt lat="46.57067" lon="5.35644">
        <ele>209</ele>
        <time>2022-04-19T12:47:41Z</time>
      </trkpt>
      <trkpt lat="46.57089" lon="5.35672">
        <ele>209</ele>
        <time>2022-04-19T12:47:45Z</time>
      </trkpt>
      <trkpt lat="46.57094" lon="5.35679">
        <ele>209</ele>
        <time>2022-04-19T12:47:46Z</time>
      </trkpt>
      <trkpt lat="46.57121" lon="5.35719">
        <ele>209.2</ele>
        <time>2022-04-19T12:47:52Z</time>
      </trkpt>
      <trkpt lat="46.57126" lon="5.35724">
        <ele>209.4</ele>
        <time>2022-04-19T12:47:53Z</time>
      </trkpt>
      <trkpt lat="46.57138" lon="5.35734">
        <ele>209.6</ele>
        <time>2022-04-19T12:47:55Z</time>
      </trkpt>
      <trkpt lat="46.5719" lon="5.35767">
        <ele>209.8</ele>
        <time>2022-04-19T12:48:03Z</time>
      </trkpt>
      <trkpt lat="46.57203" lon="5.35774">
        <ele>209.6</ele>
        <time>2022-04-19T12:48:05Z</time>
      </trkpt>
      <trkpt lat="46.57256" lon="5.35807">
        <ele>209.8</ele>
        <time>2022-04-19T12:48:14Z</time>
      </trkpt>
      <trkpt lat="46.57261" lon="5.35811">
        <ele>210</ele>
        <time>2022-04-19T12:48:15Z</time>
      </trkpt>
      <trkpt lat="46.57298" lon="5.35835">
        <ele>210.4</ele>
        <time>2022-04-19T12:48:22Z</time>
      </trkpt>
      <trkpt lat="46.57303" lon="5.35836">
        <ele>210.4</ele>
        <time>2022-04-19T12:48:23Z</time>
      </trkpt>
      <trkpt lat="46.57339" lon="5.3584">
        <ele>210.8</ele>
        <time>2022-04-19T12:48:29Z</time>
      </trkpt>
      <trkpt lat="46.57345" lon="5.35838">
        <ele>210.8</ele>
        <time>2022-04-19T12:48:30Z</time>
      </trkpt>
      <trkpt lat="46.5735" lon="5.35835">
        <ele>211</ele>
        <time>2022-04-19T12:48:31Z</time>
      </trkpt>
      <trkpt lat="46.5736" lon="5.35826">
        <ele>211</ele>
        <time>2022-04-19T12:48:33Z</time>
      </trkpt>
      <trkpt lat="46.57364" lon="5.3582">
        <ele>211</ele>
        <time>2022-04-19T12:48:34Z</time>
      </trkpt>
      <trkpt lat="46.57379" lon="5.35799">
        <ele>211.2</ele>
        <time>2022-04-19T12:48:38Z</time>
      </trkpt>
      <trkpt lat="46.57385" lon="5.35788">
        <ele>211.2</ele>
        <time>2022-04-19T12:48:40Z</time>
      </trkpt>
      <trkpt lat="46.57393" lon="5.35769">
        <ele>211.4</ele>
        <time>2022-04-19T12:48:43Z</time>
      </trkpt>
      <trkpt lat="46.57399" lon="5.35758">
        <ele>212</ele>
        <time>2022-04-19T12:48:45Z</time>
      </trkpt>
      <trkpt lat="46.57404" lon="5.35752">
        <ele>212</ele>
        <time>2022-04-19T12:48:46Z</time>
      </trkpt>
      <trkpt lat="46.57414" lon="5.35743">
        <ele>212.4</ele>
        <time>2022-04-19T12:48:48Z</time>
      </trkpt>
      <trkpt lat="46.57434" lon="5.35731">
        <ele>212.6</ele>
        <time>2022-04-19T12:48:51Z</time>
      </trkpt>
      <trkpt lat="46.57467" lon="5.35711">
        <ele>212.4</ele>
        <time>2022-04-19T12:48:55Z</time>
      </trkpt>
      <trkpt lat="46.57485" lon="5.357">
        <ele>211.4</ele>
        <time>2022-04-19T12:48:57Z</time>
      </trkpt>
      <trkpt lat="46.57503" lon="5.35689">
        <ele>209.8</ele>
        <time>2022-04-19T12:48:59Z</time>
      </trkpt>
      <trkpt lat="46.57529" lon="5.35669">
        <ele>208.6</ele>
        <time>2022-04-19T12:49:02Z</time>
      </trkpt>
      <trkpt lat="46.57544" lon="5.35652">
        <ele>207.4</ele>
        <time>2022-04-19T12:49:04Z</time>
      </trkpt>
      <trkpt lat="46.57558" lon="5.35633">
        <ele>206.6</ele>
        <time>2022-04-19T12:49:06Z</time>
      </trkpt>
      <trkpt lat="46.57578" lon="5.35604">
        <ele>206.2</ele>
        <time>2022-04-19T12:49:09Z</time>
      </trkpt>
      <trkpt lat="46.57586" lon="5.35597">
        <ele>205.6</ele>
        <time>2022-04-19T12:49:10Z</time>
      </trkpt>
      <trkpt lat="46.57594" lon="5.3559">
        <ele>205.4</ele>
        <time>2022-04-19T12:49:11Z</time>
      </trkpt>
      <trkpt lat="46.57602" lon="5.35584">
        <ele>204.6</ele>
        <time>2022-04-19T12:49:12Z</time>
      </trkpt>
      <trkpt lat="46.57624" lon="5.35563">
        <ele>203.6</ele>
        <time>2022-04-19T12:49:15Z</time>
      </trkpt>
      <trkpt lat="46.57631" lon="5.35556">
        <ele>203.4</ele>
        <time>2022-04-19T12:49:16Z</time>
      </trkpt>
      <trkpt lat="46.57673" lon="5.35521">
        <ele>202.8</ele>
        <time>2022-04-19T12:49:22Z</time>
      </trkpt>
      <trkpt lat="46.57705" lon="5.35498">
        <ele>203</ele>
        <time>2022-04-19T12:49:27Z</time>
      </trkpt>
      <trkpt lat="46.57736" lon="5.35477">
        <ele>204.4</ele>
        <time>2022-04-19T12:49:33Z</time>
      </trkpt>
      <trkpt lat="46.5774" lon="5.35474">
        <ele>204.6</ele>
        <time>2022-04-19T12:49:34Z</time>
      </trkpt>
      <trkpt lat="46.57761" lon="5.35461">
        <ele>205.6</ele>
        <time>2022-04-19T12:49:39Z</time>
      </trkpt>
      <trkpt lat="46.57764" lon="5.35458">
        <ele>206.4</ele>
        <time>2022-04-19T12:49:40Z</time>
      </trkpt>
      <trkpt lat="46.57768" lon="5.35455">
        <ele>206.6</ele>
        <time>2022-04-19T12:49:41Z</time>
      </trkpt>
      <trkpt lat="46.57779" lon="5.35445">
        <ele>207.2</ele>
        <time>2022-04-19T12:49:44Z</time>
      </trkpt>
      <trkpt lat="46.57787" lon="5.3544">
        <ele>208.2</ele>
        <time>2022-04-19T12:49:46Z</time>
      </trkpt>
      <trkpt lat="46.57794" lon="5.35436">
        <ele>209</ele>
        <time>2022-04-19T12:49:48Z</time>
      </trkpt>
      <trkpt lat="46.57798" lon="5.35433">
        <ele>209.8</ele>
        <time>2022-04-19T12:49:49Z</time>
      </trkpt>
      <trkpt lat="46.57806" lon="5.35428">
        <ele>210.2</ele>
        <time>2022-04-19T12:49:51Z</time>
      </trkpt>
      <trkpt lat="46.57814" lon="5.35429">
        <ele>210.8</ele>
        <time>2022-04-19T12:49:53Z</time>
      </trkpt>
      <trkpt lat="46.57821" lon="5.35437">
        <ele>211.4</ele>
        <time>2022-04-19T12:49:55Z</time>
      </trkpt>
      <trkpt lat="46.57823" lon="5.35443">
        <ele>211.8</ele>
        <time>2022-04-19T12:49:56Z</time>
      </trkpt>
      <trkpt lat="46.57824" lon="5.3545">
        <ele>212</ele>
        <time>2022-04-19T12:49:57Z</time>
      </trkpt>
      <trkpt lat="46.57828" lon="5.35481">
        <ele>212.8</ele>
        <time>2022-04-19T12:50:01Z</time>
      </trkpt>
      <trkpt lat="46.57829" lon="5.3549">
        <ele>212.8</ele>
        <time>2022-04-19T12:50:02Z</time>
      </trkpt>
      <trkpt lat="46.57837" lon="5.35517">
        <ele>212.8</ele>
        <time>2022-04-19T12:50:05Z</time>
      </trkpt>
      <trkpt lat="46.57858" lon="5.35567">
        <ele>212.4</ele>
        <time>2022-04-19T12:50:10Z</time>
      </trkpt>
      <trkpt lat="46.57869" lon="5.35601">
        <ele>211.8</ele>
        <time>2022-04-19T12:50:13Z</time>
      </trkpt>
      <trkpt lat="46.57872" lon="5.35613">
        <ele>211.6</ele>
        <time>2022-04-19T12:50:14Z</time>
      </trkpt>
      <trkpt lat="46.57881" lon="5.35666">
        <ele>211</ele>
        <time>2022-04-19T12:50:19Z</time>
      </trkpt>
      <trkpt lat="46.57883" lon="5.35676">
        <ele>211</ele>
        <time>2022-04-19T12:50:20Z</time>
      </trkpt>
      <trkpt lat="46.57885" lon="5.35685">
        <ele>211</ele>
        <time>2022-04-19T12:50:21Z</time>
      </trkpt>
      <trkpt lat="46.57894" lon="5.35709">
        <ele>211</ele>
        <time>2022-04-19T12:50:24Z</time>
      </trkpt>
      <trkpt lat="46.57921" lon="5.35764">
        <ele>212</ele>
        <time>2022-04-19T12:50:31Z</time>
      </trkpt>
      <trkpt lat="46.57925" lon="5.35772">
        <ele>212</ele>
        <time>2022-04-19T12:50:32Z</time>
      </trkpt>
      <trkpt lat="46.57929" lon="5.3578">
        <ele>212</ele>
        <time>2022-04-19T12:50:33Z</time>
      </trkpt>
      <trkpt lat="46.57936" lon="5.358">
        <ele>212</ele>
        <time>2022-04-19T12:50:35Z</time>
      </trkpt>
      <trkpt lat="46.57938" lon="5.35811">
        <ele>212</ele>
        <time>2022-04-19T12:50:36Z</time>
      </trkpt>
      <trkpt lat="46.57938" lon="5.35823">
        <ele>211.8</ele>
        <time>2022-04-19T12:50:37Z</time>
      </trkpt>
      <trkpt lat="46.57936" lon="5.35846">
        <ele>211.6</ele>
        <time>2022-04-19T12:50:39Z</time>
      </trkpt>
      <trkpt lat="46.5793" lon="5.35867">
        <ele>211</ele>
        <time>2022-04-19T12:50:41Z</time>
      </trkpt>
      <trkpt lat="46.57927" lon="5.35877">
        <ele>211</ele>
        <time>2022-04-19T12:50:42Z</time>
      </trkpt>
      <trkpt lat="46.57924" lon="5.35887">
        <ele>210.8</ele>
        <time>2022-04-19T12:50:43Z</time>
      </trkpt>
      <trkpt lat="46.57911" lon="5.35955">
        <ele>210</ele>
        <time>2022-04-19T12:50:49Z</time>
      </trkpt>
      <trkpt lat="46.57912" lon="5.35968">
        <ele>209.6</ele>
        <time>2022-04-19T12:50:50Z</time>
      </trkpt>
      <trkpt lat="46.57915" lon="5.35981">
        <ele>209.4</ele>
        <time>2022-04-19T12:50:51Z</time>
      </trkpt>
      <trkpt lat="46.57928" lon="5.35999">
        <ele>208.8</ele>
        <time>2022-04-19T12:50:53Z</time>
      </trkpt>
      <trkpt lat="46.57936" lon="5.36005">
        <ele>208.6</ele>
        <time>2022-04-19T12:50:54Z</time>
      </trkpt>
      <trkpt lat="46.57944" lon="5.36011">
        <ele>208.2</ele>
        <time>2022-04-19T12:50:55Z</time>
      </trkpt>
      <trkpt lat="46.5796" lon="5.36024">
        <ele>208</ele>
        <time>2022-04-19T12:50:57Z</time>
      </trkpt>
      <trkpt lat="46.57974" lon="5.36039">
        <ele>207.6</ele>
        <time>2022-04-19T12:50:59Z</time>
      </trkpt>
      <trkpt lat="46.57985" lon="5.36056">
        <ele>207.6</ele>
        <time>2022-04-19T12:51:01Z</time>
      </trkpt>
      <trkpt lat="46.57989" lon="5.36065">
        <ele>207.6</ele>
        <time>2022-04-19T12:51:02Z</time>
      </trkpt>
      <trkpt lat="46.5801" lon="5.36114">
        <ele>207.8</ele>
        <time>2022-04-19T12:51:07Z</time>
      </trkpt>
      <trkpt lat="46.58019" lon="5.36141">
        <ele>208.2</ele>
        <time>2022-04-19T12:51:10Z</time>
      </trkpt>
      <trkpt lat="46.58021" lon="5.3616">
        <ele>208.6</ele>
        <time>2022-04-19T12:51:12Z</time>
      </trkpt>
      <trkpt lat="46.58022" lon="5.3617">
        <ele>208.6</ele>
        <time>2022-04-19T12:51:13Z</time>
      </trkpt>
      <trkpt lat="46.58022" lon="5.3619">
        <ele>209</ele>
        <time>2022-04-19T12:51:15Z</time>
      </trkpt>
      <trkpt lat="46.58021" lon="5.36199">
        <ele>209</ele>
        <time>2022-04-19T12:51:16Z</time>
      </trkpt>
      <trkpt lat="46.58021" lon="5.36229">
        <ele>209.4</ele>
        <time>2022-04-19T12:51:19Z</time>
      </trkpt>
      <trkpt lat="46.58021" lon="5.36248">
        <ele>209.6</ele>
        <time>2022-04-19T12:51:21Z</time>
      </trkpt>
      <trkpt lat="46.58021" lon="5.36285">
        <ele>209.8</ele>
        <time>2022-04-19T12:51:25Z</time>
      </trkpt>
      <trkpt lat="46.58023" lon="5.36305">
        <ele>210</ele>
        <time>2022-04-19T12:51:27Z</time>
      </trkpt>
      <trkpt lat="46.58026" lon="5.36324">
        <ele>210</ele>
        <time>2022-04-19T12:51:29Z</time>
      </trkpt>
      <trkpt lat="46.58029" lon="5.36334">
        <ele>210</ele>
        <time>2022-04-19T12:51:30Z</time>
      </trkpt>
      <trkpt lat="46.58037" lon="5.3635">
        <ele>210.4</ele>
        <time>2022-04-19T12:51:32Z</time>
      </trkpt>
      <trkpt lat="46.58042" lon="5.36358">
        <ele>210.6</ele>
        <time>2022-04-19T12:51:33Z</time>
      </trkpt>
      <trkpt lat="46.58051" lon="5.36372">
        <ele>210.6</ele>
        <time>2022-04-19T12:51:35Z</time>
      </trkpt>
      <trkpt lat="46.58079" lon="5.36414">
        <ele>210.2</ele>
        <time>2022-04-19T12:51:41Z</time>
      </trkpt>
      <trkpt lat="46.58098" lon="5.36452">
        <ele>210.4</ele>
        <time>2022-04-19T12:51:46Z</time>
      </trkpt>
      <trkpt lat="46.58101" lon="5.36458">
        <ele>210.6</ele>
        <time>2022-04-19T12:51:47Z</time>
      </trkpt>
      <trkpt lat="46.58119" lon="5.36497">
        <ele>211</ele>
        <time>2022-04-19T12:51:52Z</time>
      </trkpt>
      <trkpt lat="46.58123" lon="5.36513">
        <ele>211.2</ele>
        <time>2022-04-19T12:51:54Z</time>
      </trkpt>
      <trkpt lat="46.58127" lon="5.3654">
        <ele>211.2</ele>
        <time>2022-04-19T12:51:57Z</time>
      </trkpt>
      <trkpt lat="46.58127" lon="5.36557">
        <ele>211.2</ele>
        <time>2022-04-19T12:51:59Z</time>
      </trkpt>
      <trkpt lat="46.58127" lon="5.36595">
        <ele>211.6</ele>
        <time>2022-04-19T12:52:03Z</time>
      </trkpt>
      <trkpt lat="46.58128" lon="5.36602">
        <ele>211.8</ele>
        <time>2022-04-19T12:52:04Z</time>
      </trkpt>
      <trkpt lat="46.58144" lon="5.36652">
        <ele>212.2</ele>
        <time>2022-04-19T12:52:10Z</time>
      </trkpt>
      <trkpt lat="46.58171" lon="5.36716">
        <ele>212.4</ele>
        <time>2022-04-19T12:52:18Z</time>
      </trkpt>
      <trkpt lat="46.58196" lon="5.36777">
        <ele>212.2</ele>
        <time>2022-04-19T12:52:25Z</time>
      </trkpt>
      <trkpt lat="46.58224" lon="5.36848">
        <ele>212.4</ele>
        <time>2022-04-19T12:52:34Z</time>
      </trkpt>
      <trkpt lat="46.58234" lon="5.36872">
        <ele>212.6</ele>
        <time>2022-04-19T12:52:37Z</time>
      </trkpt>
      <trkpt lat="46.58249" lon="5.3691">
        <ele>212.8</ele>
        <time>2022-04-19T12:52:42Z</time>
      </trkpt>
      <trkpt lat="46.58272" lon="5.36961">
        <ele>213.6</ele>
        <time>2022-04-19T12:52:49Z</time>
      </trkpt>
      <trkpt lat="46.58276" lon="5.36968">
        <ele>213.6</ele>
        <time>2022-04-19T12:52:50Z</time>
      </trkpt>
      <trkpt lat="46.5828" lon="5.36974">
        <ele>213.8</ele>
        <time>2022-04-19T12:52:51Z</time>
      </trkpt>
      <trkpt lat="46.58285" lon="5.3698">
        <ele>213.8</ele>
        <time>2022-04-19T12:52:52Z</time>
      </trkpt>
      <trkpt lat="46.58295" lon="5.3699">
        <ele>214</ele>
        <time>2022-04-19T12:52:54Z</time>
      </trkpt>
      <trkpt lat="46.58329" lon="5.37006">
        <ele>214.6</ele>
        <time>2022-04-19T12:53:00Z</time>
      </trkpt>
      <trkpt lat="46.5834" lon="5.37011">
        <ele>215</ele>
        <time>2022-04-19T12:53:02Z</time>
      </trkpt>
      <trkpt lat="46.58378" lon="5.37028">
        <ele>216.4</ele>
        <time>2022-04-19T12:53:09Z</time>
      </trkpt>
      <trkpt lat="46.58383" lon="5.37031">
        <ele>216.6</ele>
        <time>2022-04-19T12:53:10Z</time>
      </trkpt>
      <trkpt lat="46.58414" lon="5.37045">
        <ele>217.8</ele>
        <time>2022-04-19T12:53:16Z</time>
      </trkpt>
      <trkpt lat="46.58428" lon="5.37051">
        <ele>218.4</ele>
        <time>2022-04-19T12:53:19Z</time>
      </trkpt>
      <trkpt lat="46.58438" lon="5.37056">
        <ele>218.8</ele>
        <time>2022-04-19T12:53:21Z</time>
      </trkpt>
      <trkpt lat="46.5846" lon="5.37068">
        <ele>220</ele>
        <time>2022-04-19T12:53:26Z</time>
      </trkpt>
      <trkpt lat="46.58464" lon="5.37071">
        <ele>220</ele>
        <time>2022-04-19T12:53:27Z</time>
      </trkpt>
      <trkpt lat="46.58482" lon="5.37086">
        <ele>221</ele>
        <time>2022-04-19T12:53:31Z</time>
      </trkpt>
      <trkpt lat="46.58494" lon="5.37096">
        <ele>221.8</ele>
        <time>2022-04-19T12:53:34Z</time>
      </trkpt>
      <trkpt lat="46.58498" lon="5.37101">
        <ele>222</ele>
        <time>2022-04-19T12:53:35Z</time>
      </trkpt>
      <trkpt lat="46.5853" lon="5.37139">
        <ele>223</ele>
        <time>2022-04-19T12:53:42Z</time>
      </trkpt>
      <trkpt lat="46.58555" lon="5.37182">
        <ele>223</ele>
        <time>2022-04-19T12:53:47Z</time>
      </trkpt>
      <trkpt lat="46.58581" lon="5.37248">
        <ele>221.6</ele>
        <time>2022-04-19T12:53:54Z</time>
      </trkpt>
      <trkpt lat="46.5859" lon="5.37277">
        <ele>221.2</ele>
        <time>2022-04-19T12:53:57Z</time>
      </trkpt>
      <trkpt lat="46.58598" lon="5.37315">
        <ele>221</ele>
        <time>2022-04-19T12:54:01Z</time>
      </trkpt>
      <trkpt lat="46.58614" lon="5.37392">
        <ele>221</ele>
        <time>2022-04-19T12:54:09Z</time>
      </trkpt>
      <trkpt lat="46.58619" lon="5.3741">
        <ele>221</ele>
        <time>2022-04-19T12:54:11Z</time>
      </trkpt>
      <trkpt lat="46.58642" lon="5.37474">
        <ele>220.8</ele>
        <time>2022-04-19T12:54:18Z</time>
      </trkpt>
      <trkpt lat="46.58673" lon="5.37525">
        <ele>221.2</ele>
        <time>2022-04-19T12:54:25Z</time>
      </trkpt>
      <trkpt lat="46.58711" lon="5.37574">
        <ele>221.6</ele>
        <time>2022-04-19T12:54:33Z</time>
      </trkpt>
      <trkpt lat="46.58736" lon="5.37604">
        <ele>222.4</ele>
        <time>2022-04-19T12:54:39Z</time>
      </trkpt>
      <trkpt lat="46.58739" lon="5.37609">
        <ele>222.6</ele>
        <time>2022-04-19T12:54:40Z</time>
      </trkpt>
      <trkpt lat="46.58763" lon="5.3764">
        <ele>223.4</ele>
        <time>2022-04-19T12:54:46Z</time>
      </trkpt>
      <trkpt lat="46.58767" lon="5.37646">
        <ele>223.6</ele>
        <time>2022-04-19T12:54:47Z</time>
      </trkpt>
      <trkpt lat="46.58793" lon="5.37692">
        <ele>224.4</ele>
        <time>2022-04-19T12:54:54Z</time>
      </trkpt>
      <trkpt lat="46.588" lon="5.37705">
        <ele>224.8</ele>
        <time>2022-04-19T12:54:56Z</time>
      </trkpt>
      <trkpt lat="46.58828" lon="5.37764">
        <ele>225.6</ele>
        <time>2022-04-19T12:55:04Z</time>
      </trkpt>
      <trkpt lat="46.58835" lon="5.37778">
        <ele>225.8</ele>
        <time>2022-04-19T12:55:06Z</time>
      </trkpt>
      <trkpt lat="46.58861" lon="5.37828">
        <ele>226.2</ele>
        <time>2022-04-19T12:55:13Z</time>
      </trkpt>
      <trkpt lat="46.58889" lon="5.37863">
        <ele>226.2</ele>
        <time>2022-04-19T12:55:19Z</time>
      </trkpt>
      <trkpt lat="46.58929" lon="5.37895">
        <ele>226.2</ele>
        <time>2022-04-19T12:55:26Z</time>
      </trkpt>
      <trkpt lat="46.58947" lon="5.37909">
        <ele>226.2</ele>
        <time>2022-04-19T12:55:29Z</time>
      </trkpt>
      <trkpt lat="46.58957" lon="5.37922">
        <ele>226.2</ele>
        <time>2022-04-19T12:55:31Z</time>
      </trkpt>
      <trkpt lat="46.58977" lon="5.37973">
        <ele>226</ele>
        <time>2022-04-19T12:55:37Z</time>
      </trkpt>
      <trkpt lat="46.59003" lon="5.38045">
        <ele>225.2</ele>
        <time>2022-04-19T12:55:45Z</time>
      </trkpt>
      <trkpt lat="46.59009" lon="5.38063">
        <ele>224.8</ele>
        <time>2022-04-19T12:55:47Z</time>
      </trkpt>
      <trkpt lat="46.59035" lon="5.38136">
        <ele>224.4</ele>
        <time>2022-04-19T12:55:55Z</time>
      </trkpt>
      <trkpt lat="46.59042" lon="5.38155">
        <ele>224.4</ele>
        <time>2022-04-19T12:55:57Z</time>
      </trkpt>
      <trkpt lat="46.59062" lon="5.38211">
        <ele>224.4</ele>
        <time>2022-04-19T12:56:03Z</time>
      </trkpt>
      <trkpt lat="46.59079" lon="5.38258">
        <ele>224.4</ele>
        <time>2022-04-19T12:56:08Z</time>
      </trkpt>
      <trkpt lat="46.59102" lon="5.3833">
        <ele>224.2</ele>
        <time>2022-04-19T12:56:16Z</time>
      </trkpt>
      <trkpt lat="46.59106" lon="5.38341">
        <ele>224</ele>
        <time>2022-04-19T12:56:17Z</time>
      </trkpt>
      <trkpt lat="46.59109" lon="5.38351">
        <ele>223.8</ele>
        <time>2022-04-19T12:56:18Z</time>
      </trkpt>
      <trkpt lat="46.5913" lon="5.38417">
        <ele>223.4</ele>
        <time>2022-04-19T12:56:25Z</time>
      </trkpt>
      <trkpt lat="46.59143" lon="5.38453">
        <ele>223.4</ele>
        <time>2022-04-19T12:56:29Z</time>
      </trkpt>
      <trkpt lat="46.59147" lon="5.38461">
        <ele>223.4</ele>
        <time>2022-04-19T12:56:30Z</time>
      </trkpt>
      <trkpt lat="46.59177" lon="5.38508">
        <ele>224.2</ele>
        <time>2022-04-19T12:56:37Z</time>
      </trkpt>
      <trkpt lat="46.59199" lon="5.38535">
        <ele>225</ele>
        <time>2022-04-19T12:56:42Z</time>
      </trkpt>
      <trkpt lat="46.59203" lon="5.3854">
        <ele>225.4</ele>
        <time>2022-04-19T12:56:43Z</time>
      </trkpt>
      <trkpt lat="46.59231" lon="5.38571">
        <ele>226</ele>
        <time>2022-04-19T12:56:49Z</time>
      </trkpt>
      <trkpt lat="46.59243" lon="5.38583">
        <ele>226.2</ele>
        <time>2022-04-19T12:56:51Z</time>
      </trkpt>
      <trkpt lat="46.59284" lon="5.38626">
        <ele>226.4</ele>
        <time>2022-04-19T12:56:58Z</time>
      </trkpt>
      <trkpt lat="46.59328" lon="5.38674">
        <ele>226.2</ele>
        <time>2022-04-19T12:57:06Z</time>
      </trkpt>
      <trkpt lat="46.59339" lon="5.38685">
        <ele>226.2</ele>
        <time>2022-04-19T12:57:08Z</time>
      </trkpt>
      <trkpt lat="46.59386" lon="5.38735">
        <ele>225.8</ele>
        <time>2022-04-19T12:57:17Z</time>
      </trkpt>
      <trkpt lat="46.59392" lon="5.38741">
        <ele>225.8</ele>
        <time>2022-04-19T12:57:18Z</time>
      </trkpt>
      <trkpt lat="46.59427" lon="5.38782">
        <ele>226.4</ele>
        <time>2022-04-19T12:57:25Z</time>
      </trkpt>
      <trkpt lat="46.59436" lon="5.38797">
        <ele>226.4</ele>
        <time>2022-04-19T12:57:27Z</time>
      </trkpt>
      <trkpt lat="46.59442" lon="5.38815">
        <ele>226.4</ele>
        <time>2022-04-19T12:57:29Z</time>
      </trkpt>
      <trkpt lat="46.59446" lon="5.38833">
        <ele>226.4</ele>
        <time>2022-04-19T12:57:31Z</time>
      </trkpt>
      <trkpt lat="46.59447" lon="5.38852">
        <ele>226.6</ele>
        <time>2022-04-19T12:57:33Z</time>
      </trkpt>
      <trkpt lat="46.59451" lon="5.3889">
        <ele>226.8</ele>
        <time>2022-04-19T12:57:37Z</time>
      </trkpt>
      <trkpt lat="46.59456" lon="5.3891">
        <ele>226.6</ele>
        <time>2022-04-19T12:57:39Z</time>
      </trkpt>
      <trkpt lat="46.59473" lon="5.38958">
        <ele>226.6</ele>
        <time>2022-04-19T12:57:44Z</time>
      </trkpt>
      <trkpt lat="46.59484" lon="5.39021">
        <ele>226.2</ele>
        <time>2022-04-19T12:57:50Z</time>
      </trkpt>
      <trkpt lat="46.59493" lon="5.39105">
        <ele>225.6</ele>
        <time>2022-04-19T12:57:58Z</time>
      </trkpt>
      <trkpt lat="46.59495" lon="5.39125">
        <ele>225.8</ele>
        <time>2022-04-19T12:58:00Z</time>
      </trkpt>
      <trkpt lat="46.595" lon="5.39165">
        <ele>226</ele>
        <time>2022-04-19T12:58:04Z</time>
      </trkpt>
      <trkpt lat="46.59506" lon="5.39185">
        <ele>226.2</ele>
        <time>2022-04-19T12:58:06Z</time>
      </trkpt>
      <trkpt lat="46.59518" lon="5.39204">
        <ele>226.6</ele>
        <time>2022-04-19T12:58:09Z</time>
      </trkpt>
      <trkpt lat="46.59524" lon="5.39208">
        <ele>226.6</ele>
        <time>2022-04-19T12:58:10Z</time>
      </trkpt>
      <trkpt lat="46.5953" lon="5.39211">
        <ele>226.8</ele>
        <time>2022-04-19T12:58:11Z</time>
      </trkpt>
      <trkpt lat="46.59543" lon="5.39212">
        <ele>227</ele>
        <time>2022-04-19T12:58:13Z</time>
      </trkpt>
      <trkpt lat="46.59583" lon="5.39204">
        <ele>227.2</ele>
        <time>2022-04-19T12:58:19Z</time>
      </trkpt>
      <trkpt lat="46.59595" lon="5.39198">
        <ele>227.2</ele>
        <time>2022-04-19T12:58:21Z</time>
      </trkpt>
      <trkpt lat="46.59607" lon="5.39193">
        <ele>227.2</ele>
        <time>2022-04-19T12:58:23Z</time>
      </trkpt>
      <trkpt lat="46.5962" lon="5.39189">
        <ele>227.4</ele>
        <time>2022-04-19T12:58:25Z</time>
      </trkpt>
      <trkpt lat="46.59639" lon="5.39189">
        <ele>227.4</ele>
        <time>2022-04-19T12:58:28Z</time>
      </trkpt>
      <trkpt lat="46.59687" lon="5.39198">
        <ele>227.8</ele>
        <time>2022-04-19T12:58:36Z</time>
      </trkpt>
      <trkpt lat="46.59716" lon="5.39206">
        <ele>228.4</ele>
        <time>2022-04-19T12:58:41Z</time>
      </trkpt>
      <trkpt lat="46.59721" lon="5.3921">
        <ele>228.6</ele>
        <time>2022-04-19T12:58:42Z</time>
      </trkpt>
      <trkpt lat="46.59726" lon="5.39216">
        <ele>228.6</ele>
        <time>2022-04-19T12:58:43Z</time>
      </trkpt>
      <trkpt lat="46.59735" lon="5.39224">
        <ele>228.8</ele>
        <time>2022-04-19T12:58:45Z</time>
      </trkpt>
      <trkpt lat="46.59744" lon="5.3922">
        <ele>229</ele>
        <time>2022-04-19T12:58:47Z</time>
      </trkpt>
      <trkpt lat="46.5975" lon="5.39216">
        <ele>229</ele>
        <time>2022-04-19T12:58:48Z</time>
      </trkpt>
      <trkpt lat="46.59769" lon="5.39202">
        <ele>228.4</ele>
        <time>2022-04-19T12:58:51Z</time>
      </trkpt>
      <trkpt lat="46.59782" lon="5.39197">
        <ele>228</ele>
        <time>2022-04-19T12:58:53Z</time>
      </trkpt>
      <trkpt lat="46.59796" lon="5.39193">
        <ele>227.8</ele>
        <time>2022-04-19T12:58:55Z</time>
      </trkpt>
      <trkpt lat="46.59817" lon="5.39193">
        <ele>227.6</ele>
        <time>2022-04-19T12:58:58Z</time>
      </trkpt>
      <trkpt lat="46.5986" lon="5.39199">
        <ele>227.6</ele>
        <time>2022-04-19T12:59:04Z</time>
      </trkpt>
      <trkpt lat="46.59865" lon="5.39199">
        <ele>227.6</ele>
        <time>2022-04-19T12:59:05Z</time>
      </trkpt>
      <trkpt lat="46.59893" lon="5.39193">
        <ele>227.4</ele>
        <time>2022-04-19T12:59:09Z</time>
      </trkpt>
      <trkpt lat="46.59907" lon="5.39189">
        <ele>227.2</ele>
        <time>2022-04-19T12:59:11Z</time>
      </trkpt>
      <trkpt lat="46.59921" lon="5.39186">
        <ele>227</ele>
        <time>2022-04-19T12:59:13Z</time>
      </trkpt>
      <trkpt lat="46.59943" lon="5.39185">
        <ele>226.8</ele>
        <time>2022-04-19T12:59:16Z</time>
      </trkpt>
      <trkpt lat="46.59974" lon="5.39186">
        <ele>226.4</ele>
        <time>2022-04-19T12:59:20Z</time>
      </trkpt>
      <trkpt lat="46.59981" lon="5.39188">
        <ele>225.8</ele>
        <time>2022-04-19T12:59:21Z</time>
      </trkpt>
      <trkpt lat="46.60002" lon="5.39198">
        <ele>225.2</ele>
        <time>2022-04-19T12:59:24Z</time>
      </trkpt>
      <trkpt lat="46.60016" lon="5.39208">
        <ele>224.8</ele>
        <time>2022-04-19T12:59:26Z</time>
      </trkpt>
      <trkpt lat="46.60028" lon="5.39222">
        <ele>224.6</ele>
        <time>2022-04-19T12:59:28Z</time>
      </trkpt>
      <trkpt lat="46.60039" lon="5.39241">
        <ele>224.2</ele>
        <time>2022-04-19T12:59:30Z</time>
      </trkpt>
      <trkpt lat="46.60043" lon="5.39252">
        <ele>224.2</ele>
        <time>2022-04-19T12:59:31Z</time>
      </trkpt>
      <trkpt lat="46.60046" lon="5.39264">
        <ele>224</ele>
        <time>2022-04-19T12:59:32Z</time>
      </trkpt>
      <trkpt lat="46.60049" lon="5.39277">
        <ele>223.6</ele>
        <time>2022-04-19T12:59:33Z</time>
      </trkpt>
      <trkpt lat="46.60051" lon="5.39291">
        <ele>223.6</ele>
        <time>2022-04-19T12:59:34Z</time>
      </trkpt>
      <trkpt lat="46.60051" lon="5.39305">
        <ele>223</ele>
        <time>2022-04-19T12:59:35Z</time>
      </trkpt>
      <trkpt lat="46.6005" lon="5.39333">
        <ele>222</ele>
        <time>2022-04-19T12:59:37Z</time>
      </trkpt>
      <trkpt lat="46.60049" lon="5.39347">
        <ele>221.6</ele>
        <time>2022-04-19T12:59:38Z</time>
      </trkpt>
      <trkpt lat="46.60047" lon="5.3936">
        <ele>221</ele>
        <time>2022-04-19T12:59:39Z</time>
      </trkpt>
      <trkpt lat="46.60045" lon="5.39373">
        <ele>220.6</ele>
        <time>2022-04-19T12:59:40Z</time>
      </trkpt>
      <trkpt lat="46.6004" lon="5.39397">
        <ele>219.6</ele>
        <time>2022-04-19T12:59:42Z</time>
      </trkpt>
      <trkpt lat="46.60035" lon="5.39419">
        <ele>219.2</ele>
        <time>2022-04-19T12:59:44Z</time>
      </trkpt>
      <trkpt lat="46.60032" lon="5.39438">
        <ele>219.2</ele>
        <time>2022-04-19T12:59:46Z</time>
      </trkpt>
      <trkpt lat="46.60032" lon="5.39449">
        <ele>219</ele>
        <time>2022-04-19T12:59:47Z</time>
      </trkpt>
      <trkpt lat="46.60035" lon="5.39481">
        <ele>219</ele>
        <time>2022-04-19T12:59:50Z</time>
      </trkpt>
      <trkpt lat="46.60037" lon="5.39492">
        <ele>219</ele>
        <time>2022-04-19T12:59:51Z</time>
      </trkpt>
      <trkpt lat="46.60044" lon="5.39513">
        <ele>219</ele>
        <time>2022-04-19T12:59:53Z</time>
      </trkpt>
      <trkpt lat="46.60054" lon="5.39534">
        <ele>219</ele>
        <time>2022-04-19T12:59:55Z</time>
      </trkpt>
      <trkpt lat="46.60069" lon="5.39567">
        <ele>218</ele>
        <time>2022-04-19T12:59:58Z</time>
      </trkpt>
      <trkpt lat="46.60074" lon="5.39579">
        <ele>217.8</ele>
        <time>2022-04-19T12:59:59Z</time>
      </trkpt>
      <trkpt lat="46.60079" lon="5.39591">
        <ele>217.2</ele>
        <time>2022-04-19T13:00:00Z</time>
      </trkpt>
      <trkpt lat="46.60083" lon="5.39603">
        <ele>217</ele>
        <time>2022-04-19T13:00:01Z</time>
      </trkpt>
      <trkpt lat="46.60085" lon="5.39616">
        <ele>216.8</ele>
        <time>2022-04-19T13:00:02Z</time>
      </trkpt>
      <trkpt lat="46.60086" lon="5.39644">
        <ele>216.4</ele>
        <time>2022-04-19T13:00:04Z</time>
      </trkpt>
      <trkpt lat="46.60085" lon="5.39658">
        <ele>215.8</ele>
        <time>2022-04-19T13:00:05Z</time>
      </trkpt>
      <trkpt lat="46.60081" lon="5.39672">
        <ele>215.6</ele>
        <time>2022-04-19T13:00:06Z</time>
      </trkpt>
      <trkpt lat="46.60077" lon="5.39685">
        <ele>215.4</ele>
        <time>2022-04-19T13:00:07Z</time>
      </trkpt>
      <trkpt lat="46.60067" lon="5.39708">
        <ele>214.4</ele>
        <time>2022-04-19T13:00:09Z</time>
      </trkpt>
      <trkpt lat="46.60063" lon="5.3972">
        <ele>213.8</ele>
        <time>2022-04-19T13:00:10Z</time>
      </trkpt>
      <trkpt lat="46.60062" lon="5.39733">
        <ele>213.6</ele>
        <time>2022-04-19T13:00:11Z</time>
      </trkpt>
      <trkpt lat="46.60063" lon="5.39746">
        <ele>213.2</ele>
        <time>2022-04-19T13:00:12Z</time>
      </trkpt>
      <trkpt lat="46.60066" lon="5.39759">
        <ele>213</ele>
        <time>2022-04-19T13:00:13Z</time>
      </trkpt>
      <trkpt lat="46.60079" lon="5.39794">
        <ele>211.8</ele>
        <time>2022-04-19T13:00:16Z</time>
      </trkpt>
      <trkpt lat="46.60084" lon="5.39806">
        <ele>211.6</ele>
        <time>2022-04-19T13:00:17Z</time>
      </trkpt>
      <trkpt lat="46.60089" lon="5.39816">
        <ele>211.6</ele>
        <time>2022-04-19T13:00:18Z</time>
      </trkpt>
      <trkpt lat="46.60103" lon="5.39833">
        <ele>211.2</ele>
        <time>2022-04-19T13:00:20Z</time>
      </trkpt>
      <trkpt lat="46.60132" lon="5.39858">
        <ele>210.8</ele>
        <time>2022-04-19T13:00:24Z</time>
      </trkpt>
      <trkpt lat="46.60139" lon="5.39864">
        <ele>210.8</ele>
        <time>2022-04-19T13:00:25Z</time>
      </trkpt>
      <trkpt lat="46.60169" lon="5.39897">
        <ele>210.4</ele>
        <time>2022-04-19T13:00:30Z</time>
      </trkpt>
      <trkpt lat="46.60179" lon="5.39915">
        <ele>210.4</ele>
        <time>2022-04-19T13:00:32Z</time>
      </trkpt>
      <trkpt lat="46.60183" lon="5.39932">
        <ele>210.4</ele>
        <time>2022-04-19T13:00:34Z</time>
      </trkpt>
      <trkpt lat="46.60188" lon="5.39987">
        <ele>210.4</ele>
        <time>2022-04-19T13:00:40Z</time>
      </trkpt>
      <trkpt lat="46.60188" lon="5.40038">
        <ele>211.2</ele>
        <time>2022-04-19T13:00:46Z</time>
      </trkpt>
      <trkpt lat="46.60189" lon="5.40066">
        <ele>212</ele>
        <time>2022-04-19T13:00:49Z</time>
      </trkpt>
      <trkpt lat="46.60189" lon="5.40094">
        <ele>212.8</ele>
        <time>2022-04-19T13:00:52Z</time>
      </trkpt>
      <trkpt lat="46.60186" lon="5.40135">
        <ele>213.2</ele>
        <time>2022-04-19T13:00:57Z</time>
      </trkpt>
      <trkpt lat="46.60183" lon="5.40151">
        <ele>213.4</ele>
        <time>2022-04-19T13:00:59Z</time>
      </trkpt>
      <trkpt lat="46.60173" lon="5.40195">
        <ele>214</ele>
        <time>2022-04-19T13:01:04Z</time>
      </trkpt>
      <trkpt lat="46.60172" lon="5.40215">
        <ele>214.2</ele>
        <time>2022-04-19T13:01:06Z</time>
      </trkpt>
      <trkpt lat="46.60175" lon="5.40235">
        <ele>214.2</ele>
        <time>2022-04-19T13:01:08Z</time>
      </trkpt>
      <trkpt lat="46.60192" lon="5.4028">
        <ele>214.2</ele>
        <time>2022-04-19T13:01:13Z</time>
      </trkpt>
      <trkpt lat="46.60204" lon="5.40313">
        <ele>214.4</ele>
        <time>2022-04-19T13:01:17Z</time>
      </trkpt>
      <trkpt lat="46.60212" lon="5.40337">
        <ele>214.4</ele>
        <time>2022-04-19T13:01:20Z</time>
      </trkpt>
      <trkpt lat="46.60219" lon="5.4038">
        <ele>214.4</ele>
        <time>2022-04-19T13:01:25Z</time>
      </trkpt>
      <trkpt lat="46.60218" lon="5.40401">
        <ele>214.6</ele>
        <time>2022-04-19T13:01:27Z</time>
      </trkpt>
      <trkpt lat="46.60217" lon="5.40424">
        <ele>214.4</ele>
        <time>2022-04-19T13:01:29Z</time>
      </trkpt>
      <trkpt lat="46.60215" lon="5.40449">
        <ele>214.2</ele>
        <time>2022-04-19T13:01:31Z</time>
      </trkpt>
      <trkpt lat="46.60217" lon="5.40485">
        <ele>213.8</ele>
        <time>2022-04-19T13:01:34Z</time>
      </trkpt>
      <trkpt lat="46.60219" lon="5.40501">
        <ele>213.2</ele>
        <time>2022-04-19T13:01:35Z</time>
      </trkpt>
      <trkpt lat="46.60227" lon="5.40538">
        <ele>211.8</ele>
        <time>2022-04-19T13:01:38Z</time>
      </trkpt>
      <trkpt lat="46.6023" lon="5.40551">
        <ele>211.6</ele>
        <time>2022-04-19T13:01:39Z</time>
      </trkpt>
      <trkpt lat="46.60232" lon="5.40563">
        <ele>211.2</ele>
        <time>2022-04-19T13:01:40Z</time>
      </trkpt>
      <trkpt lat="46.60234" lon="5.40588">
        <ele>210.8</ele>
        <time>2022-04-19T13:01:42Z</time>
      </trkpt>
      <trkpt lat="46.60232" lon="5.406">
        <ele>210.6</ele>
        <time>2022-04-19T13:01:43Z</time>
      </trkpt>
      <trkpt lat="46.60229" lon="5.40612">
        <ele>210.4</ele>
        <time>2022-04-19T13:01:44Z</time>
      </trkpt>
      <trkpt lat="46.60226" lon="5.40621">
        <ele>210.4</ele>
        <time>2022-04-19T13:01:45Z</time>
      </trkpt>
      <trkpt lat="46.60221" lon="5.40631">
        <ele>210.2</ele>
        <time>2022-04-19T13:01:46Z</time>
      </trkpt>
      <trkpt lat="46.60205" lon="5.40661">
        <ele>209.6</ele>
        <time>2022-04-19T13:01:49Z</time>
      </trkpt>
      <trkpt lat="46.602" lon="5.4067">
        <ele>209.4</ele>
        <time>2022-04-19T13:01:50Z</time>
      </trkpt>
      <trkpt lat="46.60176" lon="5.40717">
        <ele>209</ele>
        <time>2022-04-19T13:01:55Z</time>
      </trkpt>
      <trkpt lat="46.60173" lon="5.40728">
        <ele>208.8</ele>
        <time>2022-04-19T13:01:56Z</time>
      </trkpt>
      <trkpt lat="46.6017" lon="5.40751">
        <ele>208.8</ele>
        <time>2022-04-19T13:01:58Z</time>
      </trkpt>
      <trkpt lat="46.60171" lon="5.40774">
        <ele>209</ele>
        <time>2022-04-19T13:02:00Z</time>
      </trkpt>
      <trkpt lat="46.60176" lon="5.40796">
        <ele>208.8</ele>
        <time>2022-04-19T13:02:02Z</time>
      </trkpt>
      <trkpt lat="46.6018" lon="5.40806">
        <ele>208.8</ele>
        <time>2022-04-19T13:02:03Z</time>
      </trkpt>
      <trkpt lat="46.60185" lon="5.40814">
        <ele>208.8</ele>
        <time>2022-04-19T13:02:04Z</time>
      </trkpt>
      <trkpt lat="46.60203" lon="5.40835">
        <ele>208.8</ele>
        <time>2022-04-19T13:02:07Z</time>
      </trkpt>
      <trkpt lat="46.60234" lon="5.4086">
        <ele>208.8</ele>
        <time>2022-04-19T13:02:12Z</time>
      </trkpt>
      <trkpt lat="46.60278" lon="5.40896">
        <ele>209.8</ele>
        <time>2022-04-19T13:02:20Z</time>
      </trkpt>
      <trkpt lat="46.60292" lon="5.4091">
        <ele>210.2</ele>
        <time>2022-04-19T13:02:23Z</time>
      </trkpt>
      <trkpt lat="46.603" lon="5.40921">
        <ele>211</ele>
        <time>2022-04-19T13:02:25Z</time>
      </trkpt>
      <trkpt lat="46.60307" lon="5.40933">
        <ele>211.2</ele>
        <time>2022-04-19T13:02:27Z</time>
      </trkpt>
      <trkpt lat="46.60316" lon="5.4095">
        <ele>212</ele>
        <time>2022-04-19T13:02:30Z</time>
      </trkpt>
      <trkpt lat="46.60319" lon="5.40956">
        <ele>212.2</ele>
        <time>2022-04-19T13:02:31Z</time>
      </trkpt>
      <trkpt lat="46.60334" lon="5.40983">
        <ele>213</ele>
        <time>2022-04-19T13:02:36Z</time>
      </trkpt>
      <trkpt lat="46.60337" lon="5.40987">
        <ele>213.2</ele>
        <time>2022-04-19T13:02:37Z</time>
      </trkpt>
      <trkpt lat="46.60344" lon="5.40996">
        <ele>214</ele>
        <time>2022-04-19T13:02:39Z</time>
      </trkpt>
      <trkpt lat="46.60356" lon="5.41006">
        <ele>215.4</ele>
        <time>2022-04-19T13:02:42Z</time>
      </trkpt>
      <trkpt lat="46.6036" lon="5.41009">
        <ele>216</ele>
        <time>2022-04-19T13:02:43Z</time>
      </trkpt>
      <trkpt lat="46.60369" lon="5.41015">
        <ele>216.6</ele>
        <time>2022-04-19T13:02:45Z</time>
      </trkpt>
      <trkpt lat="46.60374" lon="5.41018">
        <ele>216.8</ele>
        <time>2022-04-19T13:02:46Z</time>
      </trkpt>
      <trkpt lat="46.60382" lon="5.41026">
        <ele>217.8</ele>
        <time>2022-04-19T13:02:48Z</time>
      </trkpt>
      <trkpt lat="46.60386" lon="5.4103">
        <ele>218.2</ele>
        <time>2022-04-19T13:02:49Z</time>
      </trkpt>
      <trkpt lat="46.60389" lon="5.41035">
        <ele>218.6</ele>
        <time>2022-04-19T13:02:50Z</time>
      </trkpt>
      <trkpt lat="46.60396" lon="5.41044">
        <ele>218.8</ele>
        <time>2022-04-19T13:02:52Z</time>
      </trkpt>
      <trkpt lat="46.604" lon="5.4105">
        <ele>219</ele>
        <time>2022-04-19T13:02:53Z</time>
      </trkpt>
      <trkpt lat="46.60403" lon="5.41057">
        <ele>219.2</ele>
        <time>2022-04-19T13:02:54Z</time>
      </trkpt>
      <trkpt lat="46.60418" lon="5.41093">
        <ele>220</ele>
        <time>2022-04-19T13:02:59Z</time>
      </trkpt>
      <trkpt lat="46.60421" lon="5.411">
        <ele>220.4</ele>
        <time>2022-04-19T13:03:00Z</time>
      </trkpt>
      <trkpt lat="46.60425" lon="5.41107">
        <ele>221</ele>
        <time>2022-04-19T13:03:01Z</time>
      </trkpt>
      <trkpt lat="46.6043" lon="5.41114">
        <ele>221.2</ele>
        <time>2022-04-19T13:03:02Z</time>
      </trkpt>
      <trkpt lat="46.6044" lon="5.41125">
        <ele>221.4</ele>
        <time>2022-04-19T13:03:04Z</time>
      </trkpt>
      <trkpt lat="46.60447" lon="5.41129">
        <ele>221.4</ele>
        <time>2022-04-19T13:03:05Z</time>
      </trkpt>
      <trkpt lat="46.60453" lon="5.41133">
        <ele>221.6</ele>
        <time>2022-04-19T13:03:06Z</time>
      </trkpt>
      <trkpt lat="46.60472" lon="5.41138">
        <ele>221.2</ele>
        <time>2022-04-19T13:03:09Z</time>
      </trkpt>
      <trkpt lat="46.60509" lon="5.4114">
        <ele>220.6</ele>
        <time>2022-04-19T13:03:14Z</time>
      </trkpt>
      <trkpt lat="46.60524" lon="5.41141">
        <ele>220.2</ele>
        <time>2022-04-19T13:03:16Z</time>
      </trkpt>
      <trkpt lat="46.60558" lon="5.41144">
        <ele>219.2</ele>
        <time>2022-04-19T13:03:20Z</time>
      </trkpt>
      <trkpt lat="46.60566" lon="5.41146">
        <ele>219</ele>
        <time>2022-04-19T13:03:21Z</time>
      </trkpt>
      <trkpt lat="46.60606" lon="5.41156">
        <ele>218</ele>
        <time>2022-04-19T13:03:26Z</time>
      </trkpt>
      <trkpt lat="46.60637" lon="5.41167">
        <ele>216.8</ele>
        <time>2022-04-19T13:03:30Z</time>
      </trkpt>
      <trkpt lat="46.60653" lon="5.41172">
        <ele>216.2</ele>
        <time>2022-04-19T13:03:32Z</time>
      </trkpt>
      <trkpt lat="46.60669" lon="5.41177">
        <ele>215.4</ele>
        <time>2022-04-19T13:03:34Z</time>
      </trkpt>
      <trkpt lat="46.60676" lon="5.41181">
        <ele>215.2</ele>
        <time>2022-04-19T13:03:35Z</time>
      </trkpt>
      <trkpt lat="46.60691" lon="5.4119">
        <ele>214.8</ele>
        <time>2022-04-19T13:03:37Z</time>
      </trkpt>
      <trkpt lat="46.60698" lon="5.41196">
        <ele>214.8</ele>
        <time>2022-04-19T13:03:38Z</time>
      </trkpt>
      <trkpt lat="46.60704" lon="5.41203">
        <ele>214.6</ele>
        <time>2022-04-19T13:03:39Z</time>
      </trkpt>
      <trkpt lat="46.60725" lon="5.4123">
        <ele>214.4</ele>
        <time>2022-04-19T13:03:43Z</time>
      </trkpt>
      <trkpt lat="46.6073" lon="5.41237">
        <ele>214.2</ele>
        <time>2022-04-19T13:03:44Z</time>
      </trkpt>
      <trkpt lat="46.60754" lon="5.41267">
        <ele>214.4</ele>
        <time>2022-04-19T13:03:49Z</time>
      </trkpt>
      <trkpt lat="46.60795" lon="5.4131">
        <ele>214.2</ele>
        <time>2022-04-19T13:03:56Z</time>
      </trkpt>
      <trkpt lat="46.60816" lon="5.41326">
        <ele>214</ele>
        <time>2022-04-19T13:03:59Z</time>
      </trkpt>
      <trkpt lat="46.60832" lon="5.41333">
        <ele>213.6</ele>
        <time>2022-04-19T13:04:01Z</time>
      </trkpt>
      <trkpt lat="46.6084" lon="5.41334">
        <ele>213.2</ele>
        <time>2022-04-19T13:04:02Z</time>
      </trkpt>
      <trkpt lat="46.60846" lon="5.41333">
        <ele>212.8</ele>
        <time>2022-04-19T13:04:03Z</time>
      </trkpt>
      <trkpt lat="46.60853" lon="5.4133">
        <ele>212.2</ele>
        <time>2022-04-19T13:04:04Z</time>
      </trkpt>
      <trkpt lat="46.60865" lon="5.41321">
        <ele>211.8</ele>
        <time>2022-04-19T13:04:06Z</time>
      </trkpt>
      <trkpt lat="46.60871" lon="5.41315">
        <ele>211</ele>
        <time>2022-04-19T13:04:07Z</time>
      </trkpt>
      <trkpt lat="46.60875" lon="5.41309">
        <ele>210.8</ele>
        <time>2022-04-19T13:04:08Z</time>
      </trkpt>
      <trkpt lat="46.60893" lon="5.41286">
        <ele>210</ele>
        <time>2022-04-19T13:04:11Z</time>
      </trkpt>
      <trkpt lat="46.60917" lon="5.41256">
        <ele>209.6</ele>
        <time>2022-04-19T13:04:15Z</time>
      </trkpt>
      <trkpt lat="46.60956" lon="5.41215">
        <ele>209</ele>
        <time>2022-04-19T13:04:21Z</time>
      </trkpt>
      <trkpt lat="46.60968" lon="5.41203">
        <ele>208.8</ele>
        <time>2022-04-19T13:04:23Z</time>
      </trkpt>
      <trkpt lat="46.61001" lon="5.41172">
        <ele>207.8</ele>
        <time>2022-04-19T13:04:28Z</time>
      </trkpt>
      <trkpt lat="46.61008" lon="5.41166">
        <ele>207.6</ele>
        <time>2022-04-19T13:04:29Z</time>
      </trkpt>
      <trkpt lat="46.61021" lon="5.41158">
        <ele>207.4</ele>
        <time>2022-04-19T13:04:31Z</time>
      </trkpt>
      <trkpt lat="46.61034" lon="5.41154">
        <ele>207.2</ele>
        <time>2022-04-19T13:04:33Z</time>
      </trkpt>
      <trkpt lat="46.6104" lon="5.41154">
        <ele>207.4</ele>
        <time>2022-04-19T13:04:34Z</time>
      </trkpt>
      <trkpt lat="46.61046" lon="5.41158">
        <ele>207.4</ele>
        <time>2022-04-19T13:04:35Z</time>
      </trkpt>
      <trkpt lat="46.61049" lon="5.41163">
        <ele>207.4</ele>
        <time>2022-04-19T13:04:36Z</time>
      </trkpt>
      <trkpt lat="46.61051" lon="5.41171">
        <ele>207.2</ele>
        <time>2022-04-19T13:04:37Z</time>
      </trkpt>
      <trkpt lat="46.61061" lon="5.41207">
        <ele>207</ele>
        <time>2022-04-19T13:04:41Z</time>
      </trkpt>
      <trkpt lat="46.61066" lon="5.41226">
        <ele>207</ele>
        <time>2022-04-19T13:04:43Z</time>
      </trkpt>
      <trkpt lat="46.6108" lon="5.4126">
        <ele>206.8</ele>
        <time>2022-04-19T13:04:47Z</time>
      </trkpt>
      <trkpt lat="46.61084" lon="5.41268">
        <ele>206.8</ele>
        <time>2022-04-19T13:04:48Z</time>
      </trkpt>
      <trkpt lat="46.61105" lon="5.41308">
        <ele>207.4</ele>
        <time>2022-04-19T13:04:53Z</time>
      </trkpt>
      <trkpt lat="46.61112" lon="5.41333">
        <ele>207.4</ele>
        <time>2022-04-19T13:04:56Z</time>
      </trkpt>
      <trkpt lat="46.61115" lon="5.41353">
        <ele>207.4</ele>
        <time>2022-04-19T13:04:58Z</time>
      </trkpt>
      <trkpt lat="46.61121" lon="5.4142">
        <ele>207.2</ele>
        <time>2022-04-19T13:05:05Z</time>
      </trkpt>
      <trkpt lat="46.61137" lon="5.41476">
        <ele>207.2</ele>
        <time>2022-04-19T13:05:11Z</time>
      </trkpt>
      <trkpt lat="46.6116" lon="5.41523">
        <ele>207.2</ele>
        <time>2022-04-19T13:05:17Z</time>
      </trkpt>
      <trkpt lat="46.61192" lon="5.41573">
        <ele>207.2</ele>
        <time>2022-04-19T13:05:24Z</time>
      </trkpt>
      <trkpt lat="46.61221" lon="5.41627">
        <ele>207.6</ele>
        <time>2022-04-19T13:05:31Z</time>
      </trkpt>
      <trkpt lat="46.61253" lon="5.41692">
        <ele>207.8</ele>
        <time>2022-04-19T13:05:39Z</time>
      </trkpt>
      <trkpt lat="46.61262" lon="5.41707">
        <ele>207.8</ele>
        <time>2022-04-19T13:05:41Z</time>
      </trkpt>
      <trkpt lat="46.61297" lon="5.4176">
        <ele>207.8</ele>
        <time>2022-04-19T13:05:48Z</time>
      </trkpt>
      <trkpt lat="46.61324" lon="5.41795">
        <ele>208</ele>
        <time>2022-04-19T13:05:53Z</time>
      </trkpt>
      <trkpt lat="46.61335" lon="5.4181">
        <ele>208.2</ele>
        <time>2022-04-19T13:05:55Z</time>
      </trkpt>
      <trkpt lat="46.6137" lon="5.41855">
        <ele>208.6</ele>
        <time>2022-04-19T13:06:02Z</time>
      </trkpt>
      <trkpt lat="46.61407" lon="5.41901">
        <ele>208.8</ele>
        <time>2022-04-19T13:06:09Z</time>
      </trkpt>
      <trkpt lat="46.61436" lon="5.41959">
        <ele>209</ele>
        <time>2022-04-19T13:06:16Z</time>
      </trkpt>
      <trkpt lat="46.61463" lon="5.4202">
        <ele>209</ele>
        <time>2022-04-19T13:06:23Z</time>
      </trkpt>
      <trkpt lat="46.61476" lon="5.42045">
        <ele>208.8</ele>
        <time>2022-04-19T13:06:26Z</time>
      </trkpt>
      <trkpt lat="46.61486" lon="5.42059">
        <ele>208.8</ele>
        <time>2022-04-19T13:06:28Z</time>
      </trkpt>
      <trkpt lat="46.61503" lon="5.4208">
        <ele>208.8</ele>
        <time>2022-04-19T13:06:31Z</time>
      </trkpt>
      <trkpt lat="46.61511" lon="5.42098">
        <ele>208.8</ele>
        <time>2022-04-19T13:06:33Z</time>
      </trkpt>
      <trkpt lat="46.61536" lon="5.42177">
        <ele>209</ele>
        <time>2022-04-19T13:06:41Z</time>
      </trkpt>
      <trkpt lat="46.61553" lon="5.42246">
        <ele>209.2</ele>
        <time>2022-04-19T13:06:48Z</time>
      </trkpt>
      <trkpt lat="46.61565" lon="5.42325">
        <ele>208.8</ele>
        <time>2022-04-19T13:06:56Z</time>
      </trkpt>
      <trkpt lat="46.61566" lon="5.42338">
        <ele>208.6</ele>
        <time>2022-04-19T13:06:57Z</time>
      </trkpt>
      <trkpt lat="46.61576" lon="5.42416">
        <ele>208.4</ele>
        <time>2022-04-19T13:07:05Z</time>
      </trkpt>
      <trkpt lat="46.61579" lon="5.42427">
        <ele>208.4</ele>
        <time>2022-04-19T13:07:06Z</time>
      </trkpt>
      <trkpt lat="46.61598" lon="5.42478">
        <ele>209.6</ele>
        <time>2022-04-19T13:07:12Z</time>
      </trkpt>
      <trkpt lat="46.61601" lon="5.42486">
        <ele>209.6</ele>
        <time>2022-04-19T13:07:13Z</time>
      </trkpt>
      <trkpt lat="46.61604" lon="5.42494">
        <ele>209.8</ele>
        <time>2022-04-19T13:07:14Z</time>
      </trkpt>
      <trkpt lat="46.61616" lon="5.42514">
        <ele>210.2</ele>
        <time>2022-04-19T13:07:17Z</time>
      </trkpt>
      <trkpt lat="46.6163" lon="5.42527">
        <ele>210.6</ele>
        <time>2022-04-19T13:07:20Z</time>
      </trkpt>
      <trkpt lat="46.61636" lon="5.4253">
        <ele>210.6</ele>
        <time>2022-04-19T13:07:21Z</time>
      </trkpt>
      <trkpt lat="46.61642" lon="5.42534">
        <ele>210.8</ele>
        <time>2022-04-19T13:07:22Z</time>
      </trkpt>
      <trkpt lat="46.61665" lon="5.42551">
        <ele>211.8</ele>
        <time>2022-04-19T13:07:27Z</time>
      </trkpt>
      <trkpt lat="46.61678" lon="5.42562">
        <ele>212.6</ele>
        <time>2022-04-19T13:07:30Z</time>
      </trkpt>
      <trkpt lat="46.61682" lon="5.42565">
        <ele>212.8</ele>
        <time>2022-04-19T13:07:31Z</time>
      </trkpt>
      <trkpt lat="46.6169" lon="5.42573">
        <ele>213.4</ele>
        <time>2022-04-19T13:07:33Z</time>
      </trkpt>
      <trkpt lat="46.61697" lon="5.4258">
        <ele>214</ele>
        <time>2022-04-19T13:07:35Z</time>
      </trkpt>
      <trkpt lat="46.61721" lon="5.42605">
        <ele>215</ele>
        <time>2022-04-19T13:07:41Z</time>
      </trkpt>
      <trkpt lat="46.61724" lon="5.4261">
        <ele>215.4</ele>
        <time>2022-04-19T13:07:42Z</time>
      </trkpt>
      <trkpt lat="46.61736" lon="5.42635">
        <ele>215.8</ele>
        <time>2022-04-19T13:07:46Z</time>
      </trkpt>
      <trkpt lat="46.61736" lon="5.42648">
        <ele>216</ele>
        <time>2022-04-19T13:07:48Z</time>
      </trkpt>
      <trkpt lat="46.61733" lon="5.42653">
        <ele>216.2</ele>
        <time>2022-04-19T13:07:49Z</time>
      </trkpt>
      <trkpt lat="46.61729" lon="5.42657">
        <ele>216.2</ele>
        <time>2022-04-19T13:07:50Z</time>
      </trkpt>
      <trkpt lat="46.61725" lon="5.42658">
        <ele>216.2</ele>
        <time>2022-04-19T13:07:51Z</time>
      </trkpt>
      <trkpt lat="46.6172" lon="5.42659">
        <ele>216.2</ele>
        <time>2022-04-19T13:07:52Z</time>
      </trkpt>
      <trkpt lat="46.61705" lon="5.42658">
        <ele>216.2</ele>
        <time>2022-04-19T13:07:54Z</time>
      </trkpt>
      <trkpt lat="46.61688" lon="5.42662">
        <ele>216.2</ele>
        <time>2022-04-19T13:07:56Z</time>
      </trkpt>
      <trkpt lat="46.61673" lon="5.42671">
        <ele>215.8</ele>
        <time>2022-04-19T13:07:58Z</time>
      </trkpt>
      <trkpt lat="46.61653" lon="5.4269">
        <ele>214.6</ele>
        <time>2022-04-19T13:08:01Z</time>
      </trkpt>
      <trkpt lat="46.61638" lon="5.42704">
        <ele>214</ele>
        <time>2022-04-19T13:08:03Z</time>
      </trkpt>
      <trkpt lat="46.6162" lon="5.42718">
        <ele>213.6</ele>
        <time>2022-04-19T13:08:05Z</time>
      </trkpt>
      <trkpt lat="46.61588" lon="5.42745">
        <ele>212.2</ele>
        <time>2022-04-19T13:08:09Z</time>
      </trkpt>
      <trkpt lat="46.6158" lon="5.42752">
        <ele>211.8</ele>
        <time>2022-04-19T13:08:10Z</time>
      </trkpt>
      <trkpt lat="46.6155" lon="5.42778">
        <ele>211</ele>
        <time>2022-04-19T13:08:14Z</time>
      </trkpt>
      <trkpt lat="46.61527" lon="5.42795">
        <ele>210.8</ele>
        <time>2022-04-19T13:08:17Z</time>
      </trkpt>
      <trkpt lat="46.61477" lon="5.42835">
        <ele>210</ele>
        <time>2022-04-19T13:08:24Z</time>
      </trkpt>
      <trkpt lat="46.6147" lon="5.42841">
        <ele>210</ele>
        <time>2022-04-19T13:08:25Z</time>
      </trkpt>
      <trkpt lat="46.61424" lon="5.42889">
        <ele>209.8</ele>
        <time>2022-04-19T13:08:32Z</time>
      </trkpt>
      <trkpt lat="46.61418" lon="5.42897">
        <ele>209.8</ele>
        <time>2022-04-19T13:08:33Z</time>
      </trkpt>
      <trkpt lat="46.61387" lon="5.42943">
        <ele>210</ele>
        <time>2022-04-19T13:08:39Z</time>
      </trkpt>
      <trkpt lat="46.61367" lon="5.42968">
        <ele>210.4</ele>
        <time>2022-04-19T13:08:43Z</time>
      </trkpt>
      <trkpt lat="46.61364" lon="5.42972">
        <ele>210.6</ele>
        <time>2022-04-19T13:08:44Z</time>
      </trkpt>
      <trkpt lat="46.61355" lon="5.42982">
        <ele>211.2</ele>
        <time>2022-04-19T13:08:46Z</time>
      </trkpt>
      <trkpt lat="46.61343" lon="5.42998">
        <ele>211.8</ele>
        <time>2022-04-19T13:08:49Z</time>
      </trkpt>
      <trkpt lat="46.6134" lon="5.43002">
        <ele>212</ele>
        <time>2022-04-19T13:08:50Z</time>
      </trkpt>
      <trkpt lat="46.61336" lon="5.4301">
        <ele>212.2</ele>
        <time>2022-04-19T13:08:51Z</time>
      </trkpt>
      <trkpt lat="46.61335" lon="5.43016">
        <ele>212.6</ele>
        <time>2022-04-19T13:08:52Z</time>
      </trkpt>
      <trkpt lat="46.61335" lon="5.43023">
        <ele>212.8</ele>
        <time>2022-04-19T13:08:53Z</time>
      </trkpt>
      <trkpt lat="46.61335" lon="5.43032">
        <ele>213</ele>
        <time>2022-04-19T13:08:54Z</time>
      </trkpt>
      <trkpt lat="46.6134" lon="5.43045">
        <ele>213.6</ele>
        <time>2022-04-19T13:08:56Z</time>
      </trkpt>
      <trkpt lat="46.61351" lon="5.43064">
        <ele>214.4</ele>
        <time>2022-04-19T13:08:59Z</time>
      </trkpt>
      <trkpt lat="46.6136" lon="5.43076">
        <ele>214.8</ele>
        <time>2022-04-19T13:09:01Z</time>
      </trkpt>
      <trkpt lat="46.61365" lon="5.43081">
        <ele>215</ele>
        <time>2022-04-19T13:09:02Z</time>
      </trkpt>
      <trkpt lat="46.61392" lon="5.43116">
        <ele>215.4</ele>
        <time>2022-04-19T13:09:07Z</time>
      </trkpt>
      <trkpt lat="46.61419" lon="5.43172">
        <ele>215.2</ele>
        <time>2022-04-19T13:09:13Z</time>
      </trkpt>
      <trkpt lat="46.61421" lon="5.4318">
        <ele>215.2</ele>
        <time>2022-04-19T13:09:14Z</time>
      </trkpt>
      <trkpt lat="46.61423" lon="5.43205">
        <ele>214.8</ele>
        <time>2022-04-19T13:09:16Z</time>
      </trkpt>
      <trkpt lat="46.61416" lon="5.43225">
        <ele>214.6</ele>
        <time>2022-04-19T13:09:18Z</time>
      </trkpt>
      <trkpt lat="46.61412" lon="5.43231">
        <ele>214.2</ele>
        <time>2022-04-19T13:09:19Z</time>
      </trkpt>
      <trkpt lat="46.61396" lon="5.43258">
        <ele>213.8</ele>
        <time>2022-04-19T13:09:22Z</time>
      </trkpt>
      <trkpt lat="46.61378" lon="5.43293">
        <ele>213.2</ele>
        <time>2022-04-19T13:09:26Z</time>
      </trkpt>
      <trkpt lat="46.61356" lon="5.43347">
        <ele>213.4</ele>
        <time>2022-04-19T13:09:32Z</time>
      </trkpt>
      <trkpt lat="46.61352" lon="5.43368">
        <ele>213.2</ele>
        <time>2022-04-19T13:09:34Z</time>
      </trkpt>
      <trkpt lat="46.6135" lon="5.434">
        <ele>213.4</ele>
        <time>2022-04-19T13:09:37Z</time>
      </trkpt>
      <trkpt lat="46.61355" lon="5.43462">
        <ele>213.8</ele>
        <time>2022-04-19T13:09:43Z</time>
      </trkpt>
      <trkpt lat="46.61354" lon="5.43523">
        <ele>214.2</ele>
        <time>2022-04-19T13:09:49Z</time>
      </trkpt>
      <trkpt lat="46.61347" lon="5.43605">
        <ele>214.4</ele>
        <time>2022-04-19T13:09:57Z</time>
      </trkpt>
      <trkpt lat="46.61347" lon="5.43615">
        <ele>214.4</ele>
        <time>2022-04-19T13:09:58Z</time>
      </trkpt>
      <trkpt lat="46.61348" lon="5.43676">
        <ele>214.6</ele>
        <time>2022-04-19T13:10:04Z</time>
      </trkpt>
      <trkpt lat="46.61349" lon="5.43716">
        <ele>214.6</ele>
        <time>2022-04-19T13:10:08Z</time>
      </trkpt>
      <trkpt lat="46.61352" lon="5.43765">
        <ele>215</ele>
        <time>2022-04-19T13:10:13Z</time>
      </trkpt>
      <trkpt lat="46.6136" lon="5.43828">
        <ele>216</ele>
        <time>2022-04-19T13:10:20Z</time>
      </trkpt>
      <trkpt lat="46.61363" lon="5.43846">
        <ele>216.2</ele>
        <time>2022-04-19T13:10:22Z</time>
      </trkpt>
      <trkpt lat="46.61372" lon="5.43884">
        <ele>216.4</ele>
        <time>2022-04-19T13:10:27Z</time>
      </trkpt>
      <trkpt lat="46.61378" lon="5.43914">
        <ele>217.6</ele>
        <time>2022-04-19T13:10:31Z</time>
      </trkpt>
      <trkpt lat="46.61382" lon="5.4395">
        <ele>218</ele>
        <time>2022-04-19T13:10:35Z</time>
      </trkpt>
      <trkpt lat="46.61389" lon="5.44013">
        <ele>218.4</ele>
        <time>2022-04-19T13:10:42Z</time>
      </trkpt>
      <trkpt lat="46.61389" lon="5.44023">
        <ele>218.6</ele>
        <time>2022-04-19T13:10:43Z</time>
      </trkpt>
      <trkpt lat="46.61386" lon="5.44073">
        <ele>218.6</ele>
        <time>2022-04-19T13:10:48Z</time>
      </trkpt>
      <trkpt lat="46.61381" lon="5.44103">
        <ele>218.4</ele>
        <time>2022-04-19T13:10:51Z</time>
      </trkpt>
      <trkpt lat="46.61377" lon="5.44122">
        <ele>218.4</ele>
        <time>2022-04-19T13:10:53Z</time>
      </trkpt>
      <trkpt lat="46.61374" lon="5.44131">
        <ele>218.4</ele>
        <time>2022-04-19T13:10:54Z</time>
      </trkpt>
      <trkpt lat="46.61352" lon="5.44179">
        <ele>218.4</ele>
        <time>2022-04-19T13:11:00Z</time>
      </trkpt>
      <trkpt lat="46.6134" lon="5.44203">
        <ele>218.4</ele>
        <time>2022-04-19T13:11:03Z</time>
      </trkpt>
      <trkpt lat="46.61328" lon="5.44241">
        <ele>218.4</ele>
        <time>2022-04-19T13:11:07Z</time>
      </trkpt>
      <trkpt lat="46.61322" lon="5.44293">
        <ele>218.4</ele>
        <time>2022-04-19T13:11:12Z</time>
      </trkpt>
      <trkpt lat="46.61316" lon="5.44342">
        <ele>218.4</ele>
        <time>2022-04-19T13:11:17Z</time>
      </trkpt>
      <trkpt lat="46.61313" lon="5.4436">
        <ele>218.4</ele>
        <time>2022-04-19T13:11:19Z</time>
      </trkpt>
      <trkpt lat="46.61308" lon="5.44394">
        <ele>219</ele>
        <time>2022-04-19T13:11:23Z</time>
      </trkpt>
      <trkpt lat="46.61302" lon="5.4442">
        <ele>219.2</ele>
        <time>2022-04-19T13:11:26Z</time>
      </trkpt>
      <trkpt lat="46.61286" lon="5.44498">
        <ele>219.6</ele>
        <time>2022-04-19T13:11:35Z</time>
      </trkpt>
      <trkpt lat="46.61284" lon="5.44507">
        <ele>219.8</ele>
        <time>2022-04-19T13:11:36Z</time>
      </trkpt>
      <trkpt lat="46.61278" lon="5.44531">
        <ele>220</ele>
        <time>2022-04-19T13:11:39Z</time>
      </trkpt>
      <trkpt lat="46.6127" lon="5.44565">
        <ele>221.2</ele>
        <time>2022-04-19T13:11:44Z</time>
      </trkpt>
      <trkpt lat="46.61265" lon="5.44581">
        <ele>221.4</ele>
        <time>2022-04-19T13:11:46Z</time>
      </trkpt>
      <trkpt lat="46.61259" lon="5.44609">
        <ele>222.2</ele>
        <time>2022-04-19T13:11:50Z</time>
      </trkpt>
      <trkpt lat="46.61257" lon="5.44616">
        <ele>222.2</ele>
        <time>2022-04-19T13:11:51Z</time>
      </trkpt>
      <trkpt lat="46.61251" lon="5.44646">
        <ele>223.4</ele>
        <time>2022-04-19T13:11:55Z</time>
      </trkpt>
      <trkpt lat="46.61248" lon="5.44658">
        <ele>223.8</ele>
        <time>2022-04-19T13:11:57Z</time>
      </trkpt>
      <trkpt lat="46.61243" lon="5.44684">
        <ele>224.6</ele>
        <time>2022-04-19T13:12:01Z</time>
      </trkpt>
      <trkpt lat="46.6124" lon="5.44711">
        <ele>225.6</ele>
        <time>2022-04-19T13:12:05Z</time>
      </trkpt>
      <trkpt lat="46.61238" lon="5.44732">
        <ele>226.6</ele>
        <time>2022-04-19T13:12:08Z</time>
      </trkpt>
      <trkpt lat="46.61236" lon="5.44759">
        <ele>227.8</ele>
        <time>2022-04-19T13:12:12Z</time>
      </trkpt>
      <trkpt lat="46.61235" lon="5.44767">
        <ele>228</ele>
        <time>2022-04-19T13:12:13Z</time>
      </trkpt>
      <trkpt lat="46.61233" lon="5.44782">
        <ele>228.4</ele>
        <time>2022-04-19T13:12:15Z</time>
      </trkpt>
      <trkpt lat="46.61232" lon="5.44788">
        <ele>228.8</ele>
        <time>2022-04-19T13:12:16Z</time>
      </trkpt>
      <trkpt lat="46.61227" lon="5.4481">
        <ele>229.2</ele>
        <time>2022-04-19T13:12:19Z</time>
      </trkpt>
      <trkpt lat="46.61221" lon="5.44831">
        <ele>229.8</ele>
        <time>2022-04-19T13:12:22Z</time>
      </trkpt>
      <trkpt lat="46.6121" lon="5.44859">
        <ele>230.6</ele>
        <time>2022-04-19T13:12:26Z</time>
      </trkpt>
      <trkpt lat="46.61204" lon="5.4487">
        <ele>231</ele>
        <time>2022-04-19T13:12:28Z</time>
      </trkpt>
      <trkpt lat="46.612" lon="5.44877">
        <ele>231.2</ele>
        <time>2022-04-19T13:12:29Z</time>
      </trkpt>
      <trkpt lat="46.61192" lon="5.44886">
        <ele>231.4</ele>
        <time>2022-04-19T13:12:31Z</time>
      </trkpt>
      <trkpt lat="46.61164" lon="5.44912">
        <ele>231.8</ele>
        <time>2022-04-19T13:12:37Z</time>
      </trkpt>
      <trkpt lat="46.61148" lon="5.44926">
        <ele>232</ele>
        <time>2022-04-19T13:12:40Z</time>
      </trkpt>
      <trkpt lat="46.61126" lon="5.44952">
        <ele>232.2</ele>
        <time>2022-04-19T13:12:45Z</time>
      </trkpt>
      <trkpt lat="46.61122" lon="5.44959">
        <ele>232.2</ele>
        <time>2022-04-19T13:12:46Z</time>
      </trkpt>
      <trkpt lat="46.61108" lon="5.45002">
        <ele>232.6</ele>
        <time>2022-04-19T13:12:52Z</time>
      </trkpt>
      <trkpt lat="46.61104" lon="5.45027">
        <ele>233</ele>
        <time>2022-04-19T13:12:55Z</time>
      </trkpt>
      <trkpt lat="46.61103" lon="5.45044">
        <ele>233.2</ele>
        <time>2022-04-19T13:12:57Z</time>
      </trkpt>
      <trkpt lat="46.61101" lon="5.45061">
        <ele>233.4</ele>
        <time>2022-04-19T13:12:59Z</time>
      </trkpt>
      <trkpt lat="46.61096" lon="5.45112">
        <ele>234.2</ele>
        <time>2022-04-19T13:13:05Z</time>
      </trkpt>
      <trkpt lat="46.61094" lon="5.45137">
        <ele>234.6</ele>
        <time>2022-04-19T13:13:08Z</time>
      </trkpt>
      <trkpt lat="46.61089" lon="5.45171">
        <ele>235.2</ele>
        <time>2022-04-19T13:13:12Z</time>
      </trkpt>
      <trkpt lat="46.61083" lon="5.45204">
        <ele>235.4</ele>
        <time>2022-04-19T13:13:16Z</time>
      </trkpt>
      <trkpt lat="46.61066" lon="5.45268">
        <ele>235.4</ele>
        <time>2022-04-19T13:13:23Z</time>
      </trkpt>
      <trkpt lat="46.61051" lon="5.45332">
        <ele>236</ele>
        <time>2022-04-19T13:13:30Z</time>
      </trkpt>
      <trkpt lat="46.61048" lon="5.45357">
        <ele>236.4</ele>
        <time>2022-04-19T13:13:33Z</time>
      </trkpt>
      <trkpt lat="46.61045" lon="5.45394">
        <ele>236.8</ele>
        <time>2022-04-19T13:13:37Z</time>
      </trkpt>
      <trkpt lat="46.61041" lon="5.4544">
        <ele>237.4</ele>
        <time>2022-04-19T13:13:42Z</time>
      </trkpt>
      <trkpt lat="46.6104" lon="5.45468">
        <ele>237.6</ele>
        <time>2022-04-19T13:13:45Z</time>
      </trkpt>
      <trkpt lat="46.61039" lon="5.45516">
        <ele>238</ele>
        <time>2022-04-19T13:13:50Z</time>
      </trkpt>
      <trkpt lat="46.61037" lon="5.45527">
        <ele>238.2</ele>
        <time>2022-04-19T13:13:51Z</time>
      </trkpt>
      <trkpt lat="46.61024" lon="5.45601">
        <ele>238.4</ele>
        <time>2022-04-19T13:13:58Z</time>
      </trkpt>
      <trkpt lat="46.61011" lon="5.45658">
        <ele>238.6</ele>
        <time>2022-04-19T13:14:04Z</time>
      </trkpt>
      <trkpt lat="46.61004" lon="5.45686">
        <ele>238.8</ele>
        <time>2022-04-19T13:14:07Z</time>
      </trkpt>
      <trkpt lat="46.60986" lon="5.45761">
        <ele>239</ele>
        <time>2022-04-19T13:14:15Z</time>
      </trkpt>
      <trkpt lat="46.60984" lon="5.45768">
        <ele>239</ele>
        <time>2022-04-19T13:14:16Z</time>
      </trkpt>
      <trkpt lat="46.60964" lon="5.45836">
        <ele>239.2</ele>
        <time>2022-04-19T13:14:23Z</time>
      </trkpt>
      <trkpt lat="46.60949" lon="5.45903">
        <ele>239.4</ele>
        <time>2022-04-19T13:14:30Z</time>
      </trkpt>
      <trkpt lat="46.60938" lon="5.45978">
        <ele>239.2</ele>
        <time>2022-04-19T13:14:37Z</time>
      </trkpt>
      <trkpt lat="46.60933" lon="5.46009">
        <ele>238.6</ele>
        <time>2022-04-19T13:14:40Z</time>
      </trkpt>
      <trkpt lat="46.60925" lon="5.46028">
        <ele>238.4</ele>
        <time>2022-04-19T13:14:42Z</time>
      </trkpt>
      <trkpt lat="46.6092" lon="5.46039">
        <ele>238.2</ele>
        <time>2022-04-19T13:14:43Z</time>
      </trkpt>
      <trkpt lat="46.609" lon="5.4607">
        <ele>238</ele>
        <time>2022-04-19T13:14:47Z</time>
      </trkpt>
      <trkpt lat="46.60873" lon="5.4611">
        <ele>237.6</ele>
        <time>2022-04-19T13:14:52Z</time>
      </trkpt>
      <trkpt lat="46.6085" lon="5.46144">
        <ele>236.6</ele>
        <time>2022-04-19T13:14:56Z</time>
      </trkpt>
      <trkpt lat="46.60843" lon="5.46152">
        <ele>236.6</ele>
        <time>2022-04-19T13:14:57Z</time>
      </trkpt>
      <trkpt lat="46.6083" lon="5.46169">
        <ele>235.6</ele>
        <time>2022-04-19T13:14:59Z</time>
      </trkpt>
      <trkpt lat="46.60799" lon="5.46202">
        <ele>235</ele>
        <time>2022-04-19T13:15:03Z</time>
      </trkpt>
      <trkpt lat="46.60784" lon="5.46218">
        <ele>234.4</ele>
        <time>2022-04-19T13:15:05Z</time>
      </trkpt>
      <trkpt lat="46.60762" lon="5.46242">
        <ele>233</ele>
        <time>2022-04-19T13:15:08Z</time>
      </trkpt>
      <trkpt lat="46.60747" lon="5.46264">
        <ele>232.6</ele>
        <time>2022-04-19T13:15:10Z</time>
      </trkpt>
      <trkpt lat="46.60733" lon="5.46281">
        <ele>231.6</ele>
        <time>2022-04-19T13:15:12Z</time>
      </trkpt>
      <trkpt lat="46.60707" lon="5.46308">
        <ele>230</ele>
        <time>2022-04-19T13:15:15Z</time>
      </trkpt>
      <trkpt lat="46.6067" lon="5.46342">
        <ele>228.8</ele>
        <time>2022-04-19T13:15:19Z</time>
      </trkpt>
      <trkpt lat="46.60653" lon="5.46361">
        <ele>228</ele>
        <time>2022-04-19T13:15:21Z</time>
      </trkpt>
      <trkpt lat="46.60646" lon="5.46372">
        <ele>227.2</ele>
        <time>2022-04-19T13:15:22Z</time>
      </trkpt>
      <trkpt lat="46.60632" lon="5.46395">
        <ele>225.8</ele>
        <time>2022-04-19T13:15:24Z</time>
      </trkpt>
      <trkpt lat="46.6062" lon="5.46419">
        <ele>225.2</ele>
        <time>2022-04-19T13:15:26Z</time>
      </trkpt>
      <trkpt lat="46.60615" lon="5.4643">
        <ele>224.8</ele>
        <time>2022-04-19T13:15:27Z</time>
      </trkpt>
      <trkpt lat="46.60596" lon="5.46462">
        <ele>224.4</ele>
        <time>2022-04-19T13:15:30Z</time>
      </trkpt>
      <trkpt lat="46.60589" lon="5.4647">
        <ele>224.2</ele>
        <time>2022-04-19T13:15:31Z</time>
      </trkpt>
      <trkpt lat="46.60581" lon="5.46477">
        <ele>224</ele>
        <time>2022-04-19T13:15:32Z</time>
      </trkpt>
      <trkpt lat="46.60573" lon="5.46483">
        <ele>223.8</ele>
        <time>2022-04-19T13:15:33Z</time>
      </trkpt>
      <trkpt lat="46.60556" lon="5.46491">
        <ele>223.4</ele>
        <time>2022-04-19T13:15:35Z</time>
      </trkpt>
      <trkpt lat="46.60531" lon="5.46503">
        <ele>223.2</ele>
        <time>2022-04-19T13:15:38Z</time>
      </trkpt>
      <trkpt lat="46.60524" lon="5.4651">
        <ele>223.2</ele>
        <time>2022-04-19T13:15:39Z</time>
      </trkpt>
      <trkpt lat="46.60501" lon="5.46543">
        <ele>223</ele>
        <time>2022-04-19T13:15:43Z</time>
      </trkpt>
      <trkpt lat="46.60474" lon="5.46598">
        <ele>223</ele>
        <time>2022-04-19T13:15:49Z</time>
      </trkpt>
      <trkpt lat="46.60452" lon="5.46638">
        <ele>223</ele>
        <time>2022-04-19T13:15:54Z</time>
      </trkpt>
      <trkpt lat="46.60443" lon="5.46647">
        <ele>223</ele>
        <time>2022-04-19T13:15:56Z</time>
      </trkpt>
      <trkpt lat="46.60434" lon="5.46653">
        <ele>223</ele>
        <time>2022-04-19T13:15:58Z</time>
      </trkpt>
      <trkpt lat="46.60428" lon="5.46665">
        <ele>223.2</ele>
        <time>2022-04-19T13:16:00Z</time>
      </trkpt>
      <trkpt lat="46.60425" lon="5.46674">
        <ele>223.4</ele>
        <time>2022-04-19T13:16:01Z</time>
      </trkpt>
      <trkpt lat="46.60421" lon="5.46705">
        <ele>224</ele>
        <time>2022-04-19T13:16:04Z</time>
      </trkpt>
      <trkpt lat="46.6042" lon="5.46715">
        <ele>224</ele>
        <time>2022-04-19T13:16:05Z</time>
      </trkpt>
      <trkpt lat="46.6042" lon="5.46737">
        <ele>224</ele>
        <time>2022-04-19T13:16:07Z</time>
      </trkpt>
      <trkpt lat="46.60421" lon="5.46757">
        <ele>224.4</ele>
        <time>2022-04-19T13:16:09Z</time>
      </trkpt>
      <trkpt lat="46.6042" lon="5.46767">
        <ele>224.4</ele>
        <time>2022-04-19T13:16:10Z</time>
      </trkpt>
      <trkpt lat="46.60411" lon="5.46827">
        <ele>224.6</ele>
        <time>2022-04-19T13:16:16Z</time>
      </trkpt>
      <trkpt lat="46.60402" lon="5.46863">
        <ele>224.8</ele>
        <time>2022-04-19T13:16:20Z</time>
      </trkpt>
      <trkpt lat="46.60394" lon="5.46889">
        <ele>225.4</ele>
        <time>2022-04-19T13:16:23Z</time>
      </trkpt>
      <trkpt lat="46.60378" lon="5.46947">
        <ele>225.6</ele>
        <time>2022-04-19T13:16:30Z</time>
      </trkpt>
      <trkpt lat="46.60373" lon="5.46963">
        <ele>226</ele>
        <time>2022-04-19T13:16:32Z</time>
      </trkpt>
      <trkpt lat="46.60363" lon="5.46995">
        <ele>226.8</ele>
        <time>2022-04-19T13:16:36Z</time>
      </trkpt>
      <trkpt lat="46.60353" lon="5.47034">
        <ele>227.2</ele>
        <time>2022-04-19T13:16:41Z</time>
      </trkpt>
      <trkpt lat="46.60351" lon="5.4705">
        <ele>227.4</ele>
        <time>2022-04-19T13:16:43Z</time>
      </trkpt>
      <trkpt lat="46.60343" lon="5.47097">
        <ele>228.2</ele>
        <time>2022-04-19T13:16:49Z</time>
      </trkpt>
      <trkpt lat="46.6034" lon="5.47113">
        <ele>228.6</ele>
        <time>2022-04-19T13:16:51Z</time>
      </trkpt>
      <trkpt lat="46.60335" lon="5.47144">
        <ele>229.4</ele>
        <time>2022-04-19T13:16:55Z</time>
      </trkpt>
      <trkpt lat="46.60328" lon="5.47181">
        <ele>230.2</ele>
        <time>2022-04-19T13:17:00Z</time>
      </trkpt>
      <trkpt lat="46.60327" lon="5.47196">
        <ele>230.6</ele>
        <time>2022-04-19T13:17:02Z</time>
      </trkpt>
      <trkpt lat="46.6032" lon="5.47234">
        <ele>231.6</ele>
        <time>2022-04-19T13:17:07Z</time>
      </trkpt>
      <trkpt lat="46.6031" lon="5.47271">
        <ele>232.6</ele>
        <time>2022-04-19T13:17:12Z</time>
      </trkpt>
      <trkpt lat="46.60305" lon="5.47292">
        <ele>233</ele>
        <time>2022-04-19T13:17:15Z</time>
      </trkpt>
      <trkpt lat="46.60295" lon="5.47326">
        <ele>233.6</ele>
        <time>2022-04-19T13:17:20Z</time>
      </trkpt>
      <trkpt lat="46.6029" lon="5.47345">
        <ele>234.2</ele>
        <time>2022-04-19T13:17:23Z</time>
      </trkpt>
      <trkpt lat="46.60286" lon="5.47365">
        <ele>234.8</ele>
        <time>2022-04-19T13:17:26Z</time>
      </trkpt>
      <trkpt lat="46.60285" lon="5.47373">
        <ele>235</ele>
        <time>2022-04-19T13:17:27Z</time>
      </trkpt>
      <trkpt lat="46.60285" lon="5.47387">
        <ele>235.2</ele>
        <time>2022-04-19T13:17:29Z</time>
      </trkpt>
      <trkpt lat="46.60288" lon="5.47428">
        <ele>235.8</ele>
        <time>2022-04-19T13:17:34Z</time>
      </trkpt>
      <trkpt lat="46.60288" lon="5.47436">
        <ele>235.8</ele>
        <time>2022-04-19T13:17:35Z</time>
      </trkpt>
      <trkpt lat="46.60287" lon="5.47493">
        <ele>236.4</ele>
        <time>2022-04-19T13:17:42Z</time>
      </trkpt>
      <trkpt lat="46.60287" lon="5.47515">
        <ele>236.8</ele>
        <time>2022-04-19T13:17:45Z</time>
      </trkpt>
      <trkpt lat="46.60284" lon="5.47545">
        <ele>238</ele>
        <time>2022-04-19T13:17:49Z</time>
      </trkpt>
      <trkpt lat="46.60283" lon="5.47553">
        <ele>238</ele>
        <time>2022-04-19T13:17:50Z</time>
      </trkpt>
      <trkpt lat="46.60273" lon="5.47593">
        <ele>238.8</ele>
        <time>2022-04-19T13:17:55Z</time>
      </trkpt>
      <trkpt lat="46.60265" lon="5.47606">
        <ele>238.8</ele>
        <time>2022-04-19T13:17:57Z</time>
      </trkpt>
      <trkpt lat="46.60255" lon="5.47616">
        <ele>239</ele>
        <time>2022-04-19T13:17:59Z</time>
      </trkpt>
      <trkpt lat="46.60237" lon="5.47623">
        <ele>239</ele>
        <time>2022-04-19T13:18:02Z</time>
      </trkpt>
      <trkpt lat="46.60231" lon="5.47624">
        <ele>239</ele>
        <time>2022-04-19T13:18:03Z</time>
      </trkpt>
      <trkpt lat="46.60193" lon="5.47633">
        <ele>238.8</ele>
        <time>2022-04-19T13:18:09Z</time>
      </trkpt>
      <trkpt lat="46.60181" lon="5.47638">
        <ele>238.8</ele>
        <time>2022-04-19T13:18:11Z</time>
      </trkpt>
      <trkpt lat="46.60144" lon="5.4767">
        <ele>239</ele>
        <time>2022-04-19T13:18:18Z</time>
      </trkpt>
      <trkpt lat="46.60121" lon="5.47694">
        <ele>239</ele>
        <time>2022-04-19T13:18:23Z</time>
      </trkpt>
      <trkpt lat="46.60114" lon="5.47704">
        <ele>239</ele>
        <time>2022-04-19T13:18:25Z</time>
      </trkpt>
      <trkpt lat="46.60096" lon="5.47727">
        <ele>239.2</ele>
        <time>2022-04-19T13:18:29Z</time>
      </trkpt>
      <trkpt lat="46.60092" lon="5.47733">
        <ele>239.2</ele>
        <time>2022-04-19T13:18:30Z</time>
      </trkpt>
      <trkpt lat="46.60073" lon="5.47767">
        <ele>239.8</ele>
        <time>2022-04-19T13:18:35Z</time>
      </trkpt>
      <trkpt lat="46.60068" lon="5.47781">
        <ele>240.4</ele>
        <time>2022-04-19T13:18:37Z</time>
      </trkpt>
      <trkpt lat="46.60065" lon="5.47794">
        <ele>241</ele>
        <time>2022-04-19T13:18:39Z</time>
      </trkpt>
      <trkpt lat="46.60064" lon="5.47803">
        <ele>241.4</ele>
        <time>2022-04-19T13:18:40Z</time>
      </trkpt>
      <trkpt lat="46.60064" lon="5.47811">
        <ele>241.4</ele>
        <time>2022-04-19T13:18:41Z</time>
      </trkpt>
      <trkpt lat="46.60063" lon="5.47834">
        <ele>242.4</ele>
        <time>2022-04-19T13:18:44Z</time>
      </trkpt>
      <trkpt lat="46.60062" lon="5.47842">
        <ele>242.8</ele>
        <time>2022-04-19T13:18:45Z</time>
      </trkpt>
      <trkpt lat="46.60062" lon="5.47847">
        <ele>243</ele>
        <time>2022-04-19T13:18:46Z</time>
      </trkpt>
      <trkpt lat="46.60058" lon="5.47868">
        <ele>244</ele>
        <time>2022-04-19T13:18:49Z</time>
      </trkpt>
      <trkpt lat="46.60055" lon="5.47875">
        <ele>244.4</ele>
        <time>2022-04-19T13:18:50Z</time>
      </trkpt>
      <trkpt lat="46.60052" lon="5.47881">
        <ele>245</ele>
        <time>2022-04-19T13:18:51Z</time>
      </trkpt>
      <trkpt lat="46.60047" lon="5.47888">
        <ele>245.2</ele>
        <time>2022-04-19T13:18:52Z</time>
      </trkpt>
      <trkpt lat="46.60042" lon="5.47894">
        <ele>245.4</ele>
        <time>2022-04-19T13:18:53Z</time>
      </trkpt>
      <trkpt lat="46.60037" lon="5.479">
        <ele>245.4</ele>
        <time>2022-04-19T13:18:54Z</time>
      </trkpt>
      <trkpt lat="46.60019" lon="5.47922">
        <ele>245.4</ele>
        <time>2022-04-19T13:18:57Z</time>
      </trkpt>
      <trkpt lat="46.60014" lon="5.47931">
        <ele>245.2</ele>
        <time>2022-04-19T13:18:58Z</time>
      </trkpt>
      <trkpt lat="46.60003" lon="5.4796">
        <ele>244.2</ele>
        <time>2022-04-19T13:19:01Z</time>
      </trkpt>
      <trkpt lat="46.60001" lon="5.47969">
        <ele>244</ele>
        <time>2022-04-19T13:19:02Z</time>
      </trkpt>
      <trkpt lat="46.60002" lon="5.47979">
        <ele>243.8</ele>
        <time>2022-04-19T13:19:03Z</time>
      </trkpt>
      <trkpt lat="46.60007" lon="5.48005">
        <ele>243.8</ele>
        <time>2022-04-19T13:19:06Z</time>
      </trkpt>
      <trkpt lat="46.6001" lon="5.48023">
        <ele>244</ele>
        <time>2022-04-19T13:19:08Z</time>
      </trkpt>
      <trkpt lat="46.60016" lon="5.48038">
        <ele>244.6</ele>
        <time>2022-04-19T13:19:10Z</time>
      </trkpt>
      <trkpt lat="46.60022" lon="5.48053">
        <ele>245</ele>
        <time>2022-04-19T13:19:12Z</time>
      </trkpt>
      <trkpt lat="46.60024" lon="5.48062">
        <ele>245.4</ele>
        <time>2022-04-19T13:19:13Z</time>
      </trkpt>
      <trkpt lat="46.60025" lon="5.48072">
        <ele>245.4</ele>
        <time>2022-04-19T13:19:14Z</time>
      </trkpt>
      <trkpt lat="46.60026" lon="5.48081">
        <ele>245.8</ele>
        <time>2022-04-19T13:19:15Z</time>
      </trkpt>
      <trkpt lat="46.60026" lon="5.48113">
        <ele>246.2</ele>
        <time>2022-04-19T13:19:18Z</time>
      </trkpt>
      <trkpt lat="46.60027" lon="5.48123">
        <ele>246.2</ele>
        <time>2022-04-19T13:19:19Z</time>
      </trkpt>
      <trkpt lat="46.6003" lon="5.48151">
        <ele>246.4</ele>
        <time>2022-04-19T13:19:21Z</time>
      </trkpt>
      <trkpt lat="46.60033" lon="5.48194">
        <ele>245.8</ele>
        <time>2022-04-19T13:19:24Z</time>
      </trkpt>
      <trkpt lat="46.60032" lon="5.48209">
        <ele>245.6</ele>
        <time>2022-04-19T13:19:25Z</time>
      </trkpt>
      <trkpt lat="46.6003" lon="5.48224">
        <ele>244.8</ele>
        <time>2022-04-19T13:19:26Z</time>
      </trkpt>
      <trkpt lat="46.60027" lon="5.48239">
        <ele>244</ele>
        <time>2022-04-19T13:19:27Z</time>
      </trkpt>
      <trkpt lat="46.60023" lon="5.48253">
        <ele>243.8</ele>
        <time>2022-04-19T13:19:28Z</time>
      </trkpt>
      <trkpt lat="46.60019" lon="5.48267">
        <ele>242.8</ele>
        <time>2022-04-19T13:19:29Z</time>
      </trkpt>
      <trkpt lat="46.6001" lon="5.48295">
        <ele>241.4</ele>
        <time>2022-04-19T13:19:31Z</time>
      </trkpt>
      <trkpt lat="46.59999" lon="5.48337">
        <ele>239.8</ele>
        <time>2022-04-19T13:19:34Z</time>
      </trkpt>
      <trkpt lat="46.59987" lon="5.48378">
        <ele>238.8</ele>
        <time>2022-04-19T13:19:37Z</time>
      </trkpt>
      <trkpt lat="46.5997" lon="5.48429">
        <ele>237.8</ele>
        <time>2022-04-19T13:19:41Z</time>
      </trkpt>
      <trkpt lat="46.59966" lon="5.48442">
        <ele>237.6</ele>
        <time>2022-04-19T13:19:42Z</time>
      </trkpt>
      <trkpt lat="46.59947" lon="5.48503">
        <ele>237.2</ele>
        <time>2022-04-19T13:19:47Z</time>
      </trkpt>
      <trkpt lat="46.59932" lon="5.48575">
        <ele>237.6</ele>
        <time>2022-04-19T13:19:53Z</time>
      </trkpt>
      <trkpt lat="46.59927" lon="5.48645">
        <ele>237.8</ele>
        <time>2022-04-19T13:19:59Z</time>
      </trkpt>
      <trkpt lat="46.59924" lon="5.48711">
        <ele>238</ele>
        <time>2022-04-19T13:20:05Z</time>
      </trkpt>
      <trkpt lat="46.59922" lon="5.48763">
        <ele>238.6</ele>
        <time>2022-04-19T13:20:10Z</time>
      </trkpt>
      <trkpt lat="46.59921" lon="5.48773">
        <ele>238.8</ele>
        <time>2022-04-19T13:20:11Z</time>
      </trkpt>
      <trkpt lat="46.59914" lon="5.48805">
        <ele>239</ele>
        <time>2022-04-19T13:20:14Z</time>
      </trkpt>
      <trkpt lat="46.59888" lon="5.48882">
        <ele>239.4</ele>
        <time>2022-04-19T13:20:22Z</time>
      </trkpt>
      <trkpt lat="46.59883" lon="5.48902">
        <ele>239.4</ele>
        <time>2022-04-19T13:20:24Z</time>
      </trkpt>
      <trkpt lat="46.59879" lon="5.48932">
        <ele>239.6</ele>
        <time>2022-04-19T13:20:27Z</time>
      </trkpt>
      <trkpt lat="46.59876" lon="5.48952">
        <ele>239.8</ele>
        <time>2022-04-19T13:20:29Z</time>
      </trkpt>
      <trkpt lat="46.59869" lon="5.48998">
        <ele>240.4</ele>
        <time>2022-04-19T13:20:34Z</time>
      </trkpt>
      <trkpt lat="46.59868" lon="5.49006">
        <ele>240.6</ele>
        <time>2022-04-19T13:20:35Z</time>
      </trkpt>
      <trkpt lat="46.59868" lon="5.49015">
        <ele>241</ele>
        <time>2022-04-19T13:20:36Z</time>
      </trkpt>
      <trkpt lat="46.59868" lon="5.49042">
        <ele>241.4</ele>
        <time>2022-04-19T13:20:39Z</time>
      </trkpt>
      <trkpt lat="46.59871" lon="5.49068">
        <ele>242</ele>
        <time>2022-04-19T13:20:42Z</time>
      </trkpt>
      <trkpt lat="46.59877" lon="5.49114">
        <ele>242.6</ele>
        <time>2022-04-19T13:20:47Z</time>
      </trkpt>
      <trkpt lat="46.59886" lon="5.49176">
        <ele>242.8</ele>
        <time>2022-04-19T13:20:53Z</time>
      </trkpt>
      <trkpt lat="46.59899" lon="5.49233">
        <ele>242.8</ele>
        <time>2022-04-19T13:20:59Z</time>
      </trkpt>
      <trkpt lat="46.59901" lon="5.49253">
        <ele>242.8</ele>
        <time>2022-04-19T13:21:01Z</time>
      </trkpt>
      <trkpt lat="46.599" lon="5.49272">
        <ele>242.8</ele>
        <time>2022-04-19T13:21:03Z</time>
      </trkpt>
      <trkpt lat="46.59898" lon="5.49319">
        <ele>242.8</ele>
        <time>2022-04-19T13:21:08Z</time>
      </trkpt>
      <trkpt lat="46.59899" lon="5.49328">
        <ele>242.8</ele>
        <time>2022-04-19T13:21:09Z</time>
      </trkpt>
      <trkpt lat="46.59914" lon="5.49381">
        <ele>242.8</ele>
        <time>2022-04-19T13:21:15Z</time>
      </trkpt>
      <trkpt lat="46.59921" lon="5.49419">
        <ele>242.8</ele>
        <time>2022-04-19T13:21:19Z</time>
      </trkpt>
      <trkpt lat="46.59922" lon="5.49438">
        <ele>243</ele>
        <time>2022-04-19T13:21:21Z</time>
      </trkpt>
      <trkpt lat="46.5992" lon="5.49485">
        <ele>243</ele>
        <time>2022-04-19T13:21:26Z</time>
      </trkpt>
      <trkpt lat="46.59921" lon="5.49495">
        <ele>243.2</ele>
        <time>2022-04-19T13:21:27Z</time>
      </trkpt>
      <trkpt lat="46.59929" lon="5.49535">
        <ele>244</ele>
        <time>2022-04-19T13:21:32Z</time>
      </trkpt>
      <trkpt lat="46.59933" lon="5.49549">
        <ele>244.4</ele>
        <time>2022-04-19T13:21:34Z</time>
      </trkpt>
      <trkpt lat="46.59939" lon="5.4957">
        <ele>244.8</ele>
        <time>2022-04-19T13:21:37Z</time>
      </trkpt>
      <trkpt lat="46.59941" lon="5.49583">
        <ele>245.4</ele>
        <time>2022-04-19T13:21:39Z</time>
      </trkpt>
      <trkpt lat="46.59945" lon="5.49625">
        <ele>246.4</ele>
        <time>2022-04-19T13:21:44Z</time>
      </trkpt>
      <trkpt lat="46.59947" lon="5.49658">
        <ele>247.2</ele>
        <time>2022-04-19T13:21:48Z</time>
      </trkpt>
      <trkpt lat="46.59947" lon="5.49715">
        <ele>247.6</ele>
        <time>2022-04-19T13:21:55Z</time>
      </trkpt>
      <trkpt lat="46.59947" lon="5.49739">
        <ele>248.2</ele>
        <time>2022-04-19T13:21:58Z</time>
      </trkpt>
      <trkpt lat="46.59944" lon="5.4977">
        <ele>248.6</ele>
        <time>2022-04-19T13:22:02Z</time>
      </trkpt>
      <trkpt lat="46.5994" lon="5.4979">
        <ele>249</ele>
        <time>2022-04-19T13:22:05Z</time>
      </trkpt>
      <trkpt lat="46.5993" lon="5.49839">
        <ele>249.6</ele>
        <time>2022-04-19T13:22:12Z</time>
      </trkpt>
      <trkpt lat="46.59928" lon="5.49846">
        <ele>249.6</ele>
        <time>2022-04-19T13:22:13Z</time>
      </trkpt>
      <trkpt lat="46.5992" lon="5.49899">
        <ele>250.8</ele>
        <time>2022-04-19T13:22:21Z</time>
      </trkpt>
      <trkpt lat="46.59919" lon="5.49948">
        <ele>251.8</ele>
        <time>2022-04-19T13:22:28Z</time>
      </trkpt>
      <trkpt lat="46.59919" lon="5.49957">
        <ele>251.8</ele>
        <time>2022-04-19T13:22:29Z</time>
      </trkpt>
      <trkpt lat="46.59916" lon="5.49994">
        <ele>252.6</ele>
        <time>2022-04-19T13:22:35Z</time>
      </trkpt>
      <trkpt lat="46.59914" lon="5.50004">
        <ele>252.8</ele>
        <time>2022-04-19T13:22:37Z</time>
      </trkpt>
      <trkpt lat="46.59913" lon="5.50011">
        <ele>253</ele>
        <time>2022-04-19T13:22:38Z</time>
      </trkpt>
      <trkpt lat="46.59905" lon="5.50027">
        <ele>253.6</ele>
        <time>2022-04-19T13:22:41Z</time>
      </trkpt>
      <trkpt lat="46.59902" lon="5.50032">
        <ele>254</ele>
        <time>2022-04-19T13:22:42Z</time>
      </trkpt>
      <trkpt lat="46.59899" lon="5.50038">
        <ele>254.2</ele>
        <time>2022-04-19T13:22:43Z</time>
      </trkpt>
      <trkpt lat="46.59888" lon="5.50062">
        <ele>254.4</ele>
        <time>2022-04-19T13:22:47Z</time>
      </trkpt>
      <trkpt lat="46.59873" lon="5.50094">
        <ele>255.2</ele>
        <time>2022-04-19T13:22:53Z</time>
      </trkpt>
      <trkpt lat="46.59869" lon="5.50102">
        <ele>255.6</ele>
        <time>2022-04-19T13:22:55Z</time>
      </trkpt>
      <trkpt lat="46.59866" lon="5.50107">
        <ele>255.8</ele>
        <time>2022-04-19T13:22:56Z</time>
      </trkpt>
      <trkpt lat="46.59861" lon="5.50114">
        <ele>256.4</ele>
        <time>2022-04-19T13:22:58Z</time>
      </trkpt>
      <trkpt lat="46.59852" lon="5.50124">
        <ele>257.2</ele>
        <time>2022-04-19T13:23:01Z</time>
      </trkpt>
      <trkpt lat="46.59847" lon="5.5013">
        <ele>257.4</ele>
        <time>2022-04-19T13:23:03Z</time>
      </trkpt>
      <trkpt lat="46.59839" lon="5.5014">
        <ele>258.2</ele>
        <time>2022-04-19T13:23:06Z</time>
      </trkpt>
      <trkpt lat="46.59838" lon="5.50143">
        <ele>258.6</ele>
        <time>2022-04-19T13:23:07Z</time>
      </trkpt>
      <trkpt lat="46.59824" lon="5.5016">
        <ele>260</ele>
        <time>2022-04-19T13:23:12Z</time>
      </trkpt>
      <trkpt lat="46.59817" lon="5.50168">
        <ele>260.6</ele>
        <time>2022-04-19T13:23:14Z</time>
      </trkpt>
      <trkpt lat="46.5981" lon="5.50176">
        <ele>261</ele>
        <time>2022-04-19T13:23:16Z</time>
      </trkpt>
      <trkpt lat="46.59806" lon="5.50179">
        <ele>261.2</ele>
        <time>2022-04-19T13:23:17Z</time>
      </trkpt>
      <trkpt lat="46.59785" lon="5.50201">
        <ele>261.6</ele>
        <time>2022-04-19T13:23:23Z</time>
      </trkpt>
      <trkpt lat="46.59777" lon="5.50208">
        <ele>262</ele>
        <time>2022-04-19T13:23:25Z</time>
      </trkpt>
      <trkpt lat="46.59773" lon="5.5021">
        <ele>262.4</ele>
        <time>2022-04-19T13:23:26Z</time>
      </trkpt>
      <trkpt lat="46.59753" lon="5.50215">
        <ele>262.8</ele>
        <time>2022-04-19T13:23:30Z</time>
      </trkpt>
      <trkpt lat="46.59749" lon="5.50217">
        <ele>263.2</ele>
        <time>2022-04-19T13:23:31Z</time>
      </trkpt>
      <trkpt lat="46.59722" lon="5.50226">
        <ele>263.6</ele>
        <time>2022-04-19T13:23:36Z</time>
      </trkpt>
      <trkpt lat="46.59686" lon="5.50246">
        <ele>264</ele>
        <time>2022-04-19T13:23:44Z</time>
      </trkpt>
      <trkpt lat="46.59682" lon="5.50256">
        <ele>264.2</ele>
        <time>2022-04-19T13:23:46Z</time>
      </trkpt>
      <trkpt lat="46.59681" lon="5.50263">
        <ele>264.6</ele>
        <time>2022-04-19T13:23:47Z</time>
      </trkpt>
      <trkpt lat="46.59681" lon="5.50269">
        <ele>264.8</ele>
        <time>2022-04-19T13:23:48Z</time>
      </trkpt>
      <trkpt lat="46.59685" lon="5.50287">
        <ele>265.4</ele>
        <time>2022-04-19T13:23:51Z</time>
      </trkpt>
      <trkpt lat="46.59687" lon="5.50292">
        <ele>265.4</ele>
        <time>2022-04-19T13:23:52Z</time>
      </trkpt>
      <trkpt lat="46.59689" lon="5.50296">
        <ele>265.6</ele>
        <time>2022-04-19T13:23:53Z</time>
      </trkpt>
      <trkpt lat="46.59695" lon="5.50301">
        <ele>266.2</ele>
        <time>2022-04-19T13:23:55Z</time>
      </trkpt>
      <trkpt lat="46.59699" lon="5.50302">
        <ele>266.6</ele>
        <time>2022-04-19T13:23:56Z</time>
      </trkpt>
      <trkpt lat="46.59711" lon="5.50298">
        <ele>267.6</ele>
        <time>2022-04-19T13:23:59Z</time>
      </trkpt>
      <trkpt lat="46.59729" lon="5.50287">
        <ele>268.8</ele>
        <time>2022-04-19T13:24:04Z</time>
      </trkpt>
      <trkpt lat="46.59742" lon="5.50278">
        <ele>269.8</ele>
        <time>2022-04-19T13:24:08Z</time>
      </trkpt>
      <trkpt lat="46.59758" lon="5.50267">
        <ele>271.2</ele>
        <time>2022-04-19T13:24:13Z</time>
      </trkpt>
      <trkpt lat="46.59768" lon="5.5026">
        <ele>271.8</ele>
        <time>2022-04-19T13:24:16Z</time>
      </trkpt>
      <trkpt lat="46.59777" lon="5.50254">
        <ele>272.4</ele>
        <time>2022-04-19T13:24:19Z</time>
      </trkpt>
      <trkpt lat="46.59797" lon="5.50241">
        <ele>273.4</ele>
        <time>2022-04-19T13:24:25Z</time>
      </trkpt>
      <trkpt lat="46.59803" lon="5.50236">
        <ele>274.2</ele>
        <time>2022-04-19T13:24:27Z</time>
      </trkpt>
      <trkpt lat="46.59809" lon="5.50232">
        <ele>274.6</ele>
        <time>2022-04-19T13:24:29Z</time>
      </trkpt>
      <trkpt lat="46.59826" lon="5.50222">
        <ele>275.6</ele>
        <time>2022-04-19T13:24:34Z</time>
      </trkpt>
      <trkpt lat="46.59829" lon="5.5022">
        <ele>275.8</ele>
        <time>2022-04-19T13:24:35Z</time>
      </trkpt>
      <trkpt lat="46.59845" lon="5.50211">
        <ele>276.8</ele>
        <time>2022-04-19T13:24:40Z</time>
      </trkpt>
      <trkpt lat="46.59855" lon="5.50205">
        <ele>278</ele>
        <time>2022-04-19T13:24:43Z</time>
      </trkpt>
      <trkpt lat="46.59862" lon="5.50202">
        <ele>278.4</ele>
        <time>2022-04-19T13:24:45Z</time>
      </trkpt>
      <trkpt lat="46.59883" lon="5.50196">
        <ele>279.2</ele>
        <time>2022-04-19T13:24:51Z</time>
      </trkpt>
      <trkpt lat="46.59886" lon="5.50195">
        <ele>279.4</ele>
        <time>2022-04-19T13:24:52Z</time>
      </trkpt>
      <trkpt lat="46.59896" lon="5.50193">
        <ele>280.2</ele>
        <time>2022-04-19T13:24:55Z</time>
      </trkpt>
      <trkpt lat="46.59914" lon="5.50191">
        <ele>281.2</ele>
        <time>2022-04-19T13:25:00Z</time>
      </trkpt>
      <trkpt lat="46.59928" lon="5.5019">
        <ele>282.4</ele>
        <time>2022-04-19T13:25:04Z</time>
      </trkpt>
      <trkpt lat="46.5995" lon="5.50189">
        <ele>283.6</ele>
        <time>2022-04-19T13:25:10Z</time>
      </trkpt>
      <trkpt lat="46.59966" lon="5.50199">
        <ele>284.2</ele>
        <time>2022-04-19T13:25:15Z</time>
      </trkpt>
      <trkpt lat="46.59971" lon="5.50208">
        <ele>284.6</ele>
        <time>2022-04-19T13:25:17Z</time>
      </trkpt>
      <trkpt lat="46.59974" lon="5.50222">
        <ele>285.4</ele>
        <time>2022-04-19T13:25:20Z</time>
      </trkpt>
      <trkpt lat="46.59977" lon="5.50232">
        <ele>285.8</ele>
        <time>2022-04-19T13:25:22Z</time>
      </trkpt>
      <trkpt lat="46.59987" lon="5.50253">
        <ele>286.8</ele>
        <time>2022-04-19T13:25:27Z</time>
      </trkpt>
      <trkpt lat="46.60001" lon="5.50268">
        <ele>288.2</ele>
        <time>2022-04-19T13:25:32Z</time>
      </trkpt>
      <trkpt lat="46.60003" lon="5.50271">
        <ele>288.4</ele>
        <time>2022-04-19T13:25:33Z</time>
      </trkpt>
      <trkpt lat="46.60015" lon="5.50281">
        <ele>289.4</ele>
        <time>2022-04-19T13:25:37Z</time>
      </trkpt>
      <trkpt lat="46.60029" lon="5.50287">
        <ele>290.2</ele>
        <time>2022-04-19T13:25:41Z</time>
      </trkpt>
      <trkpt lat="46.60049" lon="5.50289">
        <ele>291.2</ele>
        <time>2022-04-19T13:25:46Z</time>
      </trkpt>
      <trkpt lat="46.60056" lon="5.5029">
        <ele>291.6</ele>
        <time>2022-04-19T13:25:48Z</time>
      </trkpt>
      <trkpt lat="46.60073" lon="5.50289">
        <ele>292.4</ele>
        <time>2022-04-19T13:25:52Z</time>
      </trkpt>
      <trkpt lat="46.60091" lon="5.50289">
        <ele>293.2</ele>
        <time>2022-04-19T13:25:56Z</time>
      </trkpt>
      <trkpt lat="46.60095" lon="5.5029">
        <ele>293.6</ele>
        <time>2022-04-19T13:25:57Z</time>
      </trkpt>
      <trkpt lat="46.60111" lon="5.50296">
        <ele>294.6</ele>
        <time>2022-04-19T13:26:01Z</time>
      </trkpt>
      <trkpt lat="46.60116" lon="5.50298">
        <ele>295</ele>
        <time>2022-04-19T13:26:02Z</time>
      </trkpt>
      <trkpt lat="46.60132" lon="5.50309">
        <ele>296.2</ele>
        <time>2022-04-19T13:26:07Z</time>
      </trkpt>
      <trkpt lat="46.60146" lon="5.5032">
        <ele>297.2</ele>
        <time>2022-04-19T13:26:11Z</time>
      </trkpt>
      <trkpt lat="46.60157" lon="5.50326">
        <ele>298.2</ele>
        <time>2022-04-19T13:26:14Z</time>
      </trkpt>
      <trkpt lat="46.60161" lon="5.50328">
        <ele>298.2</ele>
        <time>2022-04-19T13:26:15Z</time>
      </trkpt>
      <trkpt lat="46.60178" lon="5.50337">
        <ele>299.4</ele>
        <time>2022-04-19T13:26:20Z</time>
      </trkpt>
      <trkpt lat="46.60181" lon="5.50339">
        <ele>299.8</ele>
        <time>2022-04-19T13:26:21Z</time>
      </trkpt>
      <trkpt lat="46.60193" lon="5.50347">
        <ele>300.4</ele>
        <time>2022-04-19T13:26:25Z</time>
      </trkpt>
      <trkpt lat="46.60207" lon="5.50354">
        <ele>301.4</ele>
        <time>2022-04-19T13:26:29Z</time>
      </trkpt>
      <trkpt lat="46.6021" lon="5.50356">
        <ele>301.8</ele>
        <time>2022-04-19T13:26:30Z</time>
      </trkpt>
      <trkpt lat="46.60231" lon="5.5036">
        <ele>302.8</ele>
        <time>2022-04-19T13:26:36Z</time>
      </trkpt>
      <trkpt lat="46.60251" lon="5.50361">
        <ele>304</ele>
        <time>2022-04-19T13:26:42Z</time>
      </trkpt>
      <trkpt lat="46.60263" lon="5.50362">
        <ele>304.6</ele>
        <time>2022-04-19T13:26:45Z</time>
      </trkpt>
      <trkpt lat="46.6027" lon="5.50364">
        <ele>305</ele>
        <time>2022-04-19T13:26:47Z</time>
      </trkpt>
      <trkpt lat="46.60286" lon="5.50374">
        <ele>305.8</ele>
        <time>2022-04-19T13:26:52Z</time>
      </trkpt>
      <trkpt lat="46.60289" lon="5.50377">
        <ele>306.4</ele>
        <time>2022-04-19T13:26:53Z</time>
      </trkpt>
      <trkpt lat="46.60303" lon="5.50394">
        <ele>307.4</ele>
        <time>2022-04-19T13:26:58Z</time>
      </trkpt>
      <trkpt lat="46.60311" lon="5.50404">
        <ele>307.8</ele>
        <time>2022-04-19T13:27:01Z</time>
      </trkpt>
      <trkpt lat="46.60318" lon="5.50411">
        <ele>308.4</ele>
        <time>2022-04-19T13:27:03Z</time>
      </trkpt>
      <trkpt lat="46.60334" lon="5.50427">
        <ele>309.4</ele>
        <time>2022-04-19T13:27:08Z</time>
      </trkpt>
      <trkpt lat="46.60337" lon="5.5043">
        <ele>309.8</ele>
        <time>2022-04-19T13:27:09Z</time>
      </trkpt>
      <trkpt lat="46.60345" lon="5.50442">
        <ele>310.6</ele>
        <time>2022-04-19T13:27:12Z</time>
      </trkpt>
      <trkpt lat="46.6035" lon="5.50455">
        <ele>311.2</ele>
        <time>2022-04-19T13:27:15Z</time>
      </trkpt>
      <trkpt lat="46.60351" lon="5.5046">
        <ele>311.6</ele>
        <time>2022-04-19T13:27:16Z</time>
      </trkpt>
      <trkpt lat="46.60358" lon="5.50485">
        <ele>313</ele>
        <time>2022-04-19T13:27:21Z</time>
      </trkpt>
      <trkpt lat="46.6036" lon="5.50491">
        <ele>313.2</ele>
        <time>2022-04-19T13:27:22Z</time>
      </trkpt>
      <trkpt lat="46.60373" lon="5.5052">
        <ele>314.2</ele>
        <time>2022-04-19T13:27:28Z</time>
      </trkpt>
      <trkpt lat="46.6038" lon="5.50534">
        <ele>315</ele>
        <time>2022-04-19T13:27:31Z</time>
      </trkpt>
      <trkpt lat="46.60382" lon="5.50538">
        <ele>315.2</ele>
        <time>2022-04-19T13:27:32Z</time>
      </trkpt>
      <trkpt lat="46.60393" lon="5.50553">
        <ele>316.4</ele>
        <time>2022-04-19T13:27:36Z</time>
      </trkpt>
      <trkpt lat="46.60401" lon="5.50564">
        <ele>317.2</ele>
        <time>2022-04-19T13:27:39Z</time>
      </trkpt>
      <trkpt lat="46.60404" lon="5.50567">
        <ele>317.4</ele>
        <time>2022-04-19T13:27:40Z</time>
      </trkpt>
      <trkpt lat="46.60419" lon="5.50582">
        <ele>318.8</ele>
        <time>2022-04-19T13:27:45Z</time>
      </trkpt>
      <trkpt lat="46.60429" lon="5.50591">
        <ele>319.2</ele>
        <time>2022-04-19T13:27:48Z</time>
      </trkpt>
      <trkpt lat="46.60439" lon="5.50599">
        <ele>320</ele>
        <time>2022-04-19T13:27:51Z</time>
      </trkpt>
      <trkpt lat="46.60455" lon="5.50612">
        <ele>321.2</ele>
        <time>2022-04-19T13:27:56Z</time>
      </trkpt>
      <trkpt lat="46.6047" lon="5.50623">
        <ele>322.4</ele>
        <time>2022-04-19T13:28:01Z</time>
      </trkpt>
      <trkpt lat="46.60483" lon="5.50632">
        <ele>323.4</ele>
        <time>2022-04-19T13:28:05Z</time>
      </trkpt>
      <trkpt lat="46.6049" lon="5.50636">
        <ele>324.2</ele>
        <time>2022-04-19T13:28:07Z</time>
      </trkpt>
      <trkpt lat="46.60496" lon="5.5064">
        <ele>324.6</ele>
        <time>2022-04-19T13:28:09Z</time>
      </trkpt>
      <trkpt lat="46.60509" lon="5.50645">
        <ele>325.8</ele>
        <time>2022-04-19T13:28:13Z</time>
      </trkpt>
      <trkpt lat="46.60516" lon="5.50648">
        <ele>326.4</ele>
        <time>2022-04-19T13:28:15Z</time>
      </trkpt>
      <trkpt lat="46.60523" lon="5.5065">
        <ele>326.8</ele>
        <time>2022-04-19T13:28:17Z</time>
      </trkpt>
      <trkpt lat="46.60543" lon="5.50654">
        <ele>327.8</ele>
        <time>2022-04-19T13:28:23Z</time>
      </trkpt>
      <trkpt lat="46.60564" lon="5.50653">
        <ele>329</ele>
        <time>2022-04-19T13:28:29Z</time>
      </trkpt>
      <trkpt lat="46.60571" lon="5.50652">
        <ele>329.4</ele>
        <time>2022-04-19T13:28:31Z</time>
      </trkpt>
      <trkpt lat="46.60588" lon="5.50647">
        <ele>330.2</ele>
        <time>2022-04-19T13:28:36Z</time>
      </trkpt>
      <trkpt lat="46.60602" lon="5.50643">
        <ele>330.8</ele>
        <time>2022-04-19T13:28:40Z</time>
      </trkpt>
      <trkpt lat="46.60613" lon="5.50641">
        <ele>331.4</ele>
        <time>2022-04-19T13:28:43Z</time>
      </trkpt>
      <trkpt lat="46.60634" lon="5.50642">
        <ele>332.4</ele>
        <time>2022-04-19T13:28:49Z</time>
      </trkpt>
      <trkpt lat="46.60638" lon="5.50643">
        <ele>332.8</ele>
        <time>2022-04-19T13:28:50Z</time>
      </trkpt>
      <trkpt lat="46.60656" lon="5.50645">
        <ele>333.8</ele>
        <time>2022-04-19T13:28:55Z</time>
      </trkpt>
      <trkpt lat="46.60669" lon="5.50648">
        <ele>334.6</ele>
        <time>2022-04-19T13:28:59Z</time>
      </trkpt>
      <trkpt lat="46.60676" lon="5.50648">
        <ele>335</ele>
        <time>2022-04-19T13:29:01Z</time>
      </trkpt>
      <trkpt lat="46.60694" lon="5.5065">
        <ele>336.2</ele>
        <time>2022-04-19T13:29:06Z</time>
      </trkpt>
      <trkpt lat="46.60698" lon="5.50651">
        <ele>336.2</ele>
        <time>2022-04-19T13:29:07Z</time>
      </trkpt>
      <trkpt lat="46.60713" lon="5.50651">
        <ele>337.2</ele>
        <time>2022-04-19T13:29:11Z</time>
      </trkpt>
      <trkpt lat="46.60728" lon="5.5065">
        <ele>338.2</ele>
        <time>2022-04-19T13:29:15Z</time>
      </trkpt>
      <trkpt lat="46.60731" lon="5.50649">
        <ele>338.4</ele>
        <time>2022-04-19T13:29:16Z</time>
      </trkpt>
      <trkpt lat="46.60746" lon="5.50646">
        <ele>339.4</ele>
        <time>2022-04-19T13:29:20Z</time>
      </trkpt>
      <trkpt lat="46.60764" lon="5.50647">
        <ele>340.6</ele>
        <time>2022-04-19T13:29:25Z</time>
      </trkpt>
      <trkpt lat="46.60767" lon="5.50648">
        <ele>340.6</ele>
        <time>2022-04-19T13:29:26Z</time>
      </trkpt>
      <trkpt lat="46.60787" lon="5.50657">
        <ele>341.8</ele>
        <time>2022-04-19T13:29:32Z</time>
      </trkpt>
      <trkpt lat="46.60791" lon="5.5066">
        <ele>341.8</ele>
        <time>2022-04-19T13:29:33Z</time>
      </trkpt>
      <trkpt lat="46.60802" lon="5.50671">
        <ele>343</ele>
        <time>2022-04-19T13:29:37Z</time>
      </trkpt>
      <trkpt lat="46.6081" lon="5.50681">
        <ele>343.6</ele>
        <time>2022-04-19T13:29:40Z</time>
      </trkpt>
      <trkpt lat="46.60816" lon="5.5069">
        <ele>344</ele>
        <time>2022-04-19T13:29:42Z</time>
      </trkpt>
      <trkpt lat="46.60818" lon="5.50706">
        <ele>344.8</ele>
        <time>2022-04-19T13:29:45Z</time>
      </trkpt>
      <trkpt lat="46.60817" lon="5.5071">
        <ele>345.2</ele>
        <time>2022-04-19T13:29:46Z</time>
      </trkpt>
      <trkpt lat="46.60815" lon="5.50713">
        <ele>345.4</ele>
        <time>2022-04-19T13:29:47Z</time>
      </trkpt>
      <trkpt lat="46.60811" lon="5.50715">
        <ele>345.6</ele>
        <time>2022-04-19T13:29:48Z</time>
      </trkpt>
      <trkpt lat="46.60801" lon="5.50717">
        <ele>346.2</ele>
        <time>2022-04-19T13:29:51Z</time>
      </trkpt>
      <trkpt lat="46.60792" lon="5.50716">
        <ele>347.2</ele>
        <time>2022-04-19T13:29:53Z</time>
      </trkpt>
      <trkpt lat="46.60788" lon="5.50715">
        <ele>347.4</ele>
        <time>2022-04-19T13:29:54Z</time>
      </trkpt>
      <trkpt lat="46.60765" lon="5.50713">
        <ele>348.6</ele>
        <time>2022-04-19T13:30:00Z</time>
      </trkpt>
      <trkpt lat="46.60756" lon="5.50713">
        <ele>349</ele>
        <time>2022-04-19T13:30:02Z</time>
      </trkpt>
      <trkpt lat="46.60744" lon="5.50713">
        <ele>349.6</ele>
        <time>2022-04-19T13:30:05Z</time>
      </trkpt>
      <trkpt lat="46.60727" lon="5.50716">
        <ele>350.6</ele>
        <time>2022-04-19T13:30:09Z</time>
      </trkpt>
      <trkpt lat="46.60723" lon="5.50717">
        <ele>350.6</ele>
        <time>2022-04-19T13:30:10Z</time>
      </trkpt>
      <trkpt lat="46.60701" lon="5.5073">
        <ele>351.8</ele>
        <time>2022-04-19T13:30:16Z</time>
      </trkpt>
      <trkpt lat="46.60678" lon="5.50743">
        <ele>353</ele>
        <time>2022-04-19T13:30:22Z</time>
      </trkpt>
      <trkpt lat="46.60659" lon="5.50753">
        <ele>353.8</ele>
        <time>2022-04-19T13:30:27Z</time>
      </trkpt>
      <trkpt lat="46.60651" lon="5.50757">
        <ele>354</ele>
        <time>2022-04-19T13:30:29Z</time>
      </trkpt>
      <trkpt lat="46.60626" lon="5.50765">
        <ele>355.2</ele>
        <time>2022-04-19T13:30:35Z</time>
      </trkpt>
      <trkpt lat="46.60607" lon="5.50767">
        <ele>356.2</ele>
        <time>2022-04-19T13:30:40Z</time>
      </trkpt>
      <trkpt lat="46.60583" lon="5.50769">
        <ele>357.4</ele>
        <time>2022-04-19T13:30:46Z</time>
      </trkpt>
      <trkpt lat="46.60554" lon="5.50772">
        <ele>358.6</ele>
        <time>2022-04-19T13:30:53Z</time>
      </trkpt>
      <trkpt lat="46.60542" lon="5.50773">
        <ele>358.8</ele>
        <time>2022-04-19T13:30:56Z</time>
      </trkpt>
      <trkpt lat="46.60526" lon="5.50772">
        <ele>359.8</ele>
        <time>2022-04-19T13:31:00Z</time>
      </trkpt>
      <trkpt lat="46.60506" lon="5.50772">
        <ele>361.2</ele>
        <time>2022-04-19T13:31:05Z</time>
      </trkpt>
      <trkpt lat="46.60481" lon="5.50769">
        <ele>362.2</ele>
        <time>2022-04-19T13:31:11Z</time>
      </trkpt>
      <trkpt lat="46.60473" lon="5.50767">
        <ele>362.6</ele>
        <time>2022-04-19T13:31:13Z</time>
      </trkpt>
      <trkpt lat="46.60452" lon="5.50764">
        <ele>363.6</ele>
        <time>2022-04-19T13:31:18Z</time>
      </trkpt>
      <trkpt lat="46.60432" lon="5.5076">
        <ele>364.6</ele>
        <time>2022-04-19T13:31:23Z</time>
      </trkpt>
      <trkpt lat="46.60428" lon="5.50759">
        <ele>364.8</ele>
        <time>2022-04-19T13:31:24Z</time>
      </trkpt>
      <trkpt lat="46.60412" lon="5.50755">
        <ele>365.8</ele>
        <time>2022-04-19T13:31:28Z</time>
      </trkpt>
      <trkpt lat="46.60391" lon="5.50748">
        <ele>367</ele>
        <time>2022-04-19T13:31:33Z</time>
      </trkpt>
      <trkpt lat="46.60387" lon="5.50746">
        <ele>367.2</ele>
        <time>2022-04-19T13:31:34Z</time>
      </trkpt>
      <trkpt lat="46.60368" lon="5.50738">
        <ele>368.2</ele>
        <time>2022-04-19T13:31:39Z</time>
      </trkpt>
      <trkpt lat="46.60345" lon="5.5073">
        <ele>369.2</ele>
        <time>2022-04-19T13:31:45Z</time>
      </trkpt>
      <trkpt lat="46.6034" lon="5.50729">
        <ele>369.6</ele>
        <time>2022-04-19T13:31:46Z</time>
      </trkpt>
      <trkpt lat="46.6032" lon="5.50726">
        <ele>370.4</ele>
        <time>2022-04-19T13:31:51Z</time>
      </trkpt>
      <trkpt lat="46.60315" lon="5.50726">
        <ele>370.6</ele>
        <time>2022-04-19T13:31:52Z</time>
      </trkpt>
      <trkpt lat="46.6029" lon="5.50726">
        <ele>371.6</ele>
        <time>2022-04-19T13:31:58Z</time>
      </trkpt>
      <trkpt lat="46.60273" lon="5.50727">
        <ele>372</ele>
        <time>2022-04-19T13:32:02Z</time>
      </trkpt>
      <trkpt lat="46.60254" lon="5.50728">
        <ele>372.6</ele>
        <time>2022-04-19T13:32:07Z</time>
      </trkpt>
      <trkpt lat="46.60234" lon="5.50725">
        <ele>373.8</ele>
        <time>2022-04-19T13:32:12Z</time>
      </trkpt>
      <trkpt lat="46.60218" lon="5.5072">
        <ele>375</ele>
        <time>2022-04-19T13:32:16Z</time>
      </trkpt>
      <trkpt lat="46.60202" lon="5.50714">
        <ele>375.6</ele>
        <time>2022-04-19T13:32:20Z</time>
      </trkpt>
      <trkpt lat="46.60198" lon="5.50713">
        <ele>375.8</ele>
        <time>2022-04-19T13:32:21Z</time>
      </trkpt>
      <trkpt lat="46.60194" lon="5.50712">
        <ele>376.2</ele>
        <time>2022-04-19T13:32:22Z</time>
      </trkpt>
      <trkpt lat="46.60186" lon="5.50709">
        <ele>376.6</ele>
        <time>2022-04-19T13:32:24Z</time>
      </trkpt>
      <trkpt lat="46.60182" lon="5.50707">
        <ele>376.6</ele>
        <time>2022-04-19T13:32:25Z</time>
      </trkpt>
      <trkpt lat="46.60171" lon="5.50704">
        <ele>377.6</ele>
        <time>2022-04-19T13:32:28Z</time>
      </trkpt>
      <trkpt lat="46.60163" lon="5.50701">
        <ele>378</ele>
        <time>2022-04-19T13:32:30Z</time>
      </trkpt>
      <trkpt lat="46.60155" lon="5.50696">
        <ele>378.6</ele>
        <time>2022-04-19T13:32:32Z</time>
      </trkpt>
      <trkpt lat="46.6014" lon="5.50687">
        <ele>379.6</ele>
        <time>2022-04-19T13:32:36Z</time>
      </trkpt>
      <trkpt lat="46.60136" lon="5.50684">
        <ele>380</ele>
        <time>2022-04-19T13:32:37Z</time>
      </trkpt>
      <trkpt lat="46.60125" lon="5.50676">
        <ele>380.8</ele>
        <time>2022-04-19T13:32:40Z</time>
      </trkpt>
      <trkpt lat="46.60117" lon="5.50672">
        <ele>381</ele>
        <time>2022-04-19T13:32:42Z</time>
      </trkpt>
      <trkpt lat="46.60106" lon="5.50662">
        <ele>381.8</ele>
        <time>2022-04-19T13:32:45Z</time>
      </trkpt>
      <trkpt lat="46.60099" lon="5.50655">
        <ele>382.4</ele>
        <time>2022-04-19T13:32:47Z</time>
      </trkpt>
      <trkpt lat="46.60092" lon="5.50647">
        <ele>383</ele>
        <time>2022-04-19T13:32:49Z</time>
      </trkpt>
      <trkpt lat="46.6007" lon="5.50624">
        <ele>384</ele>
        <time>2022-04-19T13:32:55Z</time>
      </trkpt>
      <trkpt lat="46.60067" lon="5.50621">
        <ele>383.8</ele>
        <time>2022-04-19T13:32:56Z</time>
      </trkpt>
      <trkpt lat="46.60049" lon="5.50602">
        <ele>384.8</ele>
        <time>2022-04-19T13:33:01Z</time>
      </trkpt>
      <trkpt lat="46.60035" lon="5.50588">
        <ele>385.8</ele>
        <time>2022-04-19T13:33:05Z</time>
      </trkpt>
      <trkpt lat="46.60031" lon="5.50584">
        <ele>386</ele>
        <time>2022-04-19T13:33:06Z</time>
      </trkpt>
      <trkpt lat="46.60009" lon="5.50564">
        <ele>387.6</ele>
        <time>2022-04-19T13:33:12Z</time>
      </trkpt>
      <trkpt lat="46.60006" lon="5.5056">
        <ele>387.8</ele>
        <time>2022-04-19T13:33:13Z</time>
      </trkpt>
      <trkpt lat="46.59999" lon="5.50554">
        <ele>388</ele>
        <time>2022-04-19T13:33:15Z</time>
      </trkpt>
      <trkpt lat="46.59986" lon="5.50548">
        <ele>388.4</ele>
        <time>2022-04-19T13:33:18Z</time>
      </trkpt>
      <trkpt lat="46.59978" lon="5.50545">
        <ele>388.6</ele>
        <time>2022-04-19T13:33:20Z</time>
      </trkpt>
      <trkpt lat="46.59958" lon="5.5054">
        <ele>389.4</ele>
        <time>2022-04-19T13:33:25Z</time>
      </trkpt>
      <trkpt lat="46.59953" lon="5.5054">
        <ele>389.8</ele>
        <time>2022-04-19T13:33:26Z</time>
      </trkpt>
      <trkpt lat="46.59945" lon="5.50543">
        <ele>390.2</ele>
        <time>2022-04-19T13:33:28Z</time>
      </trkpt>
      <trkpt lat="46.59941" lon="5.50546">
        <ele>390.6</ele>
        <time>2022-04-19T13:33:29Z</time>
      </trkpt>
      <trkpt lat="46.59938" lon="5.50549">
        <ele>390.6</ele>
        <time>2022-04-19T13:33:30Z</time>
      </trkpt>
      <trkpt lat="46.59935" lon="5.50554">
        <ele>391</ele>
        <time>2022-04-19T13:33:31Z</time>
      </trkpt>
      <trkpt lat="46.59933" lon="5.5056">
        <ele>391</ele>
        <time>2022-04-19T13:33:32Z</time>
      </trkpt>
      <trkpt lat="46.59932" lon="5.50567">
        <ele>391.4</ele>
        <time>2022-04-19T13:33:33Z</time>
      </trkpt>
      <trkpt lat="46.59932" lon="5.50574">
        <ele>391.6</ele>
        <time>2022-04-19T13:33:34Z</time>
      </trkpt>
      <trkpt lat="46.59937" lon="5.50584">
        <ele>391.8</ele>
        <time>2022-04-19T13:33:36Z</time>
      </trkpt>
      <trkpt lat="46.59945" lon="5.50589">
        <ele>392.2</ele>
        <time>2022-04-19T13:33:38Z</time>
      </trkpt>
      <trkpt lat="46.59949" lon="5.50588">
        <ele>392.4</ele>
        <time>2022-04-19T13:33:39Z</time>
      </trkpt>
      <trkpt lat="46.59953" lon="5.50587">
        <ele>392.8</ele>
        <time>2022-04-19T13:33:40Z</time>
      </trkpt>
      <trkpt lat="46.59957" lon="5.50586">
        <ele>393.2</ele>
        <time>2022-04-19T13:33:41Z</time>
      </trkpt>
      <trkpt lat="46.59974" lon="5.5058">
        <ele>394</ele>
        <time>2022-04-19T13:33:45Z</time>
      </trkpt>
      <trkpt lat="46.59983" lon="5.50581">
        <ele>394.4</ele>
        <time>2022-04-19T13:33:47Z</time>
      </trkpt>
      <trkpt lat="46.59991" lon="5.50586">
        <ele>394.8</ele>
        <time>2022-04-19T13:33:49Z</time>
      </trkpt>
      <trkpt lat="46.60002" lon="5.50596">
        <ele>395.6</ele>
        <time>2022-04-19T13:33:52Z</time>
      </trkpt>
      <trkpt lat="46.60022" lon="5.50613">
        <ele>396.8</ele>
        <time>2022-04-19T13:33:57Z</time>
      </trkpt>
      <trkpt lat="46.6003" lon="5.50621">
        <ele>397.4</ele>
        <time>2022-04-19T13:33:59Z</time>
      </trkpt>
      <trkpt lat="46.60033" lon="5.50625">
        <ele>397.6</ele>
        <time>2022-04-19T13:34:00Z</time>
      </trkpt>
      <trkpt lat="46.60035" lon="5.50631">
        <ele>398.2</ele>
        <time>2022-04-19T13:34:01Z</time>
      </trkpt>
      <trkpt lat="46.60036" lon="5.50638">
        <ele>398.6</ele>
        <time>2022-04-19T13:34:02Z</time>
      </trkpt>
      <trkpt lat="46.60031" lon="5.50651">
        <ele>399</ele>
        <time>2022-04-19T13:34:04Z</time>
      </trkpt>
      <trkpt lat="46.60027" lon="5.50653">
        <ele>399</ele>
        <time>2022-04-19T13:34:05Z</time>
      </trkpt>
      <trkpt lat="46.60024" lon="5.50652">
        <ele>399.2</ele>
        <time>2022-04-19T13:34:06Z</time>
      </trkpt>
      <trkpt lat="46.60019" lon="5.50648">
        <ele>399.4</ele>
        <time>2022-04-19T13:34:07Z</time>
      </trkpt>
      <trkpt lat="46.60016" lon="5.50644">
        <ele>399.6</ele>
        <time>2022-04-19T13:34:08Z</time>
      </trkpt>
      <trkpt lat="46.60006" lon="5.50627">
        <ele>400.6</ele>
        <time>2022-04-19T13:34:11Z</time>
      </trkpt>
      <trkpt lat="46.60002" lon="5.50623">
        <ele>400.8</ele>
        <time>2022-04-19T13:34:12Z</time>
      </trkpt>
      <trkpt lat="46.59993" lon="5.50614">
        <ele>401.2</ele>
        <time>2022-04-19T13:34:14Z</time>
      </trkpt>
      <trkpt lat="46.59988" lon="5.50611">
        <ele>401.6</ele>
        <time>2022-04-19T13:34:15Z</time>
      </trkpt>
      <trkpt lat="46.59979" lon="5.50606">
        <ele>402</ele>
        <time>2022-04-19T13:34:17Z</time>
      </trkpt>
      <trkpt lat="46.59969" lon="5.50605">
        <ele>402.6</ele>
        <time>2022-04-19T13:34:19Z</time>
      </trkpt>
      <trkpt lat="46.59965" lon="5.50606">
        <ele>402.8</ele>
        <time>2022-04-19T13:34:20Z</time>
      </trkpt>
      <trkpt lat="46.5996" lon="5.5061">
        <ele>402.8</ele>
        <time>2022-04-19T13:34:21Z</time>
      </trkpt>
      <trkpt lat="46.59956" lon="5.50614">
        <ele>403</ele>
        <time>2022-04-19T13:34:22Z</time>
      </trkpt>
      <trkpt lat="46.59953" lon="5.5062">
        <ele>403.4</ele>
        <time>2022-04-19T13:34:23Z</time>
      </trkpt>
      <trkpt lat="46.5995" lon="5.50633">
        <ele>403.6</ele>
        <time>2022-04-19T13:34:25Z</time>
      </trkpt>
      <trkpt lat="46.59949" lon="5.5064">
        <ele>403.6</ele>
        <time>2022-04-19T13:34:26Z</time>
      </trkpt>
      <trkpt lat="46.59948" lon="5.50647">
        <ele>403.8</ele>
        <time>2022-04-19T13:34:27Z</time>
      </trkpt>
      <trkpt lat="46.59943" lon="5.50679">
        <ele>405</ele>
        <time>2022-04-19T13:34:32Z</time>
      </trkpt>
      <trkpt lat="46.59939" lon="5.50697">
        <ele>406</ele>
        <time>2022-04-19T13:34:35Z</time>
      </trkpt>
      <trkpt lat="46.59937" lon="5.50703">
        <ele>406.2</ele>
        <time>2022-04-19T13:34:36Z</time>
      </trkpt>
      <trkpt lat="46.59928" lon="5.50728">
        <ele>407.2</ele>
        <time>2022-04-19T13:34:41Z</time>
      </trkpt>
      <trkpt lat="46.59924" lon="5.50738">
        <ele>407.6</ele>
        <time>2022-04-19T13:34:43Z</time>
      </trkpt>
      <trkpt lat="46.59919" lon="5.50748">
        <ele>408.2</ele>
        <time>2022-04-19T13:34:45Z</time>
      </trkpt>
      <trkpt lat="46.59907" lon="5.50773">
        <ele>409.4</ele>
        <time>2022-04-19T13:34:50Z</time>
      </trkpt>
      <trkpt lat="46.59895" lon="5.50796">
        <ele>410.6</ele>
        <time>2022-04-19T13:34:55Z</time>
      </trkpt>
      <trkpt lat="46.59892" lon="5.50801">
        <ele>411</ele>
        <time>2022-04-19T13:34:56Z</time>
      </trkpt>
      <trkpt lat="46.59886" lon="5.50816">
        <ele>412</ele>
        <time>2022-04-19T13:34:59Z</time>
      </trkpt>
      <trkpt lat="46.59881" lon="5.50838">
        <ele>412.6</ele>
        <time>2022-04-19T13:35:03Z</time>
      </trkpt>
      <trkpt lat="46.5988" lon="5.50844">
        <ele>413</ele>
        <time>2022-04-19T13:35:04Z</time>
      </trkpt>
      <trkpt lat="46.5988" lon="5.5085">
        <ele>413</ele>
        <time>2022-04-19T13:35:05Z</time>
      </trkpt>
      <trkpt lat="46.59881" lon="5.50862">
        <ele>413.8</ele>
        <time>2022-04-19T13:35:07Z</time>
      </trkpt>
      <trkpt lat="46.59882" lon="5.50868">
        <ele>414</ele>
        <time>2022-04-19T13:35:08Z</time>
      </trkpt>
      <trkpt lat="46.59884" lon="5.50873">
        <ele>414.4</ele>
        <time>2022-04-19T13:35:09Z</time>
      </trkpt>
      <trkpt lat="46.59894" lon="5.50892">
        <ele>415.2</ele>
        <time>2022-04-19T13:35:13Z</time>
      </trkpt>
      <trkpt lat="46.59897" lon="5.50895">
        <ele>415.4</ele>
        <time>2022-04-19T13:35:14Z</time>
      </trkpt>
      <trkpt lat="46.59913" lon="5.50914">
        <ele>416.8</ele>
        <time>2022-04-19T13:35:19Z</time>
      </trkpt>
      <trkpt lat="46.59916" lon="5.50919">
        <ele>417</ele>
        <time>2022-04-19T13:35:20Z</time>
      </trkpt>
      <trkpt lat="46.59922" lon="5.5094">
        <ele>417.8</ele>
        <time>2022-04-19T13:35:24Z</time>
      </trkpt>
      <trkpt lat="46.59922" lon="5.50943">
        <ele>418</ele>
        <time>2022-04-19T13:35:25Z</time>
      </trkpt>
      <trkpt lat="46.59921" lon="5.50954">
        <ele>418.8</ele>
        <time>2022-04-19T13:35:28Z</time>
      </trkpt>
      <trkpt lat="46.5992" lon="5.50961">
        <ele>419.4</ele>
        <time>2022-04-19T13:35:30Z</time>
      </trkpt>
      <trkpt lat="46.59918" lon="5.50967">
        <ele>420</ele>
        <time>2022-04-19T13:35:32Z</time>
      </trkpt>
      <trkpt lat="46.59911" lon="5.50982">
        <ele>421.2</ele>
        <time>2022-04-19T13:35:36Z</time>
      </trkpt>
      <trkpt lat="46.59901" lon="5.51008">
        <ele>422.2</ele>
        <time>2022-04-19T13:35:41Z</time>
      </trkpt>
      <trkpt lat="46.59898" lon="5.51013">
        <ele>422.6</ele>
        <time>2022-04-19T13:35:42Z</time>
      </trkpt>
      <trkpt lat="46.59883" lon="5.51025">
        <ele>423.4</ele>
        <time>2022-04-19T13:35:46Z</time>
      </trkpt>
      <trkpt lat="46.59879" lon="5.51027">
        <ele>423.6</ele>
        <time>2022-04-19T13:35:47Z</time>
      </trkpt>
      <trkpt lat="46.59864" lon="5.51036">
        <ele>424.4</ele>
        <time>2022-04-19T13:35:51Z</time>
      </trkpt>
      <trkpt lat="46.59851" lon="5.51041">
        <ele>425.2</ele>
        <time>2022-04-19T13:35:54Z</time>
      </trkpt>
      <trkpt lat="46.59842" lon="5.51046">
        <ele>425.4</ele>
        <time>2022-04-19T13:35:56Z</time>
      </trkpt>
      <trkpt lat="46.59819" lon="5.51055">
        <ele>426.4</ele>
        <time>2022-04-19T13:36:02Z</time>
      </trkpt>
      <trkpt lat="46.59815" lon="5.51056">
        <ele>426.6</ele>
        <time>2022-04-19T13:36:03Z</time>
      </trkpt>
      <trkpt lat="46.59791" lon="5.51065">
        <ele>428</ele>
        <time>2022-04-19T13:36:09Z</time>
      </trkpt>
      <trkpt lat="46.59775" lon="5.51065">
        <ele>429</ele>
        <time>2022-04-19T13:36:14Z</time>
      </trkpt>
      <trkpt lat="46.59771" lon="5.51063">
        <ele>429.2</ele>
        <time>2022-04-19T13:36:15Z</time>
      </trkpt>
      <trkpt lat="46.59758" lon="5.51058">
        <ele>430.2</ele>
        <time>2022-04-19T13:36:19Z</time>
      </trkpt>
      <trkpt lat="46.59748" lon="5.51056">
        <ele>431</ele>
        <time>2022-04-19T13:36:22Z</time>
      </trkpt>
      <trkpt lat="46.59745" lon="5.51054">
        <ele>431.4</ele>
        <time>2022-04-19T13:36:23Z</time>
      </trkpt>
      <trkpt lat="46.59727" lon="5.51043">
        <ele>432.6</ele>
        <time>2022-04-19T13:36:28Z</time>
      </trkpt>
      <trkpt lat="46.59724" lon="5.51041">
        <ele>432.8</ele>
        <time>2022-04-19T13:36:29Z</time>
      </trkpt>
      <trkpt lat="46.59709" lon="5.51036">
        <ele>433.8</ele>
        <time>2022-04-19T13:36:33Z</time>
      </trkpt>
      <trkpt lat="46.59696" lon="5.51033">
        <ele>434.4</ele>
        <time>2022-04-19T13:36:36Z</time>
      </trkpt>
      <trkpt lat="46.59689" lon="5.51032">
        <ele>434.8</ele>
        <time>2022-04-19T13:36:38Z</time>
      </trkpt>
      <trkpt lat="46.59674" lon="5.51029">
        <ele>435.8</ele>
        <time>2022-04-19T13:36:42Z</time>
      </trkpt>
      <trkpt lat="46.59667" lon="5.51027">
        <ele>436</ele>
        <time>2022-04-19T13:36:44Z</time>
      </trkpt>
      <trkpt lat="46.59652" lon="5.51022">
        <ele>437</ele>
        <time>2022-04-19T13:36:48Z</time>
      </trkpt>
      <trkpt lat="46.59649" lon="5.51021">
        <ele>437.4</ele>
        <time>2022-04-19T13:36:49Z</time>
      </trkpt>
      <trkpt lat="46.59634" lon="5.51016">
        <ele>438.2</ele>
        <time>2022-04-19T13:36:53Z</time>
      </trkpt>
      <trkpt lat="46.5963" lon="5.51014">
        <ele>438.6</ele>
        <time>2022-04-19T13:36:54Z</time>
      </trkpt>
      <trkpt lat="46.59618" lon="5.51008">
        <ele>439</ele>
        <time>2022-04-19T13:36:57Z</time>
      </trkpt>
      <trkpt lat="46.5961" lon="5.51005">
        <ele>439.4</ele>
        <time>2022-04-19T13:36:59Z</time>
      </trkpt>
      <trkpt lat="46.59596" lon="5.51">
        <ele>440.2</ele>
        <time>2022-04-19T13:37:03Z</time>
      </trkpt>
      <trkpt lat="46.59586" lon="5.50997">
        <ele>440.8</ele>
        <time>2022-04-19T13:37:06Z</time>
      </trkpt>
      <trkpt lat="46.59583" lon="5.50997">
        <ele>441.2</ele>
        <time>2022-04-19T13:37:07Z</time>
      </trkpt>
      <trkpt lat="46.59569" lon="5.50993">
        <ele>442.2</ele>
        <time>2022-04-19T13:37:11Z</time>
      </trkpt>
      <trkpt lat="46.59565" lon="5.50992">
        <ele>442.4</ele>
        <time>2022-04-19T13:37:12Z</time>
      </trkpt>
      <trkpt lat="46.59546" lon="5.50986">
        <ele>443.8</ele>
        <time>2022-04-19T13:37:17Z</time>
      </trkpt>
      <trkpt lat="46.59542" lon="5.50986">
        <ele>443.8</ele>
        <time>2022-04-19T13:37:18Z</time>
      </trkpt>
      <trkpt lat="46.59528" lon="5.50983">
        <ele>445</ele>
        <time>2022-04-19T13:37:22Z</time>
      </trkpt>
      <trkpt lat="46.59523" lon="5.50983">
        <ele>445.4</ele>
        <time>2022-04-19T13:37:23Z</time>
      </trkpt>
      <trkpt lat="46.59508" lon="5.50983">
        <ele>446.2</ele>
        <time>2022-04-19T13:37:27Z</time>
      </trkpt>
      <trkpt lat="46.59491" lon="5.50986">
        <ele>447.2</ele>
        <time>2022-04-19T13:37:31Z</time>
      </trkpt>
      <trkpt lat="46.59487" lon="5.50987">
        <ele>447.2</ele>
        <time>2022-04-19T13:37:32Z</time>
      </trkpt>
      <trkpt lat="46.59467" lon="5.50997">
        <ele>448.2</ele>
        <time>2022-04-19T13:37:37Z</time>
      </trkpt>
      <trkpt lat="46.59462" lon="5.51001">
        <ele>448.4</ele>
        <time>2022-04-19T13:37:38Z</time>
      </trkpt>
      <trkpt lat="46.59447" lon="5.51017">
        <ele>449.4</ele>
        <time>2022-04-19T13:37:42Z</time>
      </trkpt>
      <trkpt lat="46.59437" lon="5.51031">
        <ele>450.2</ele>
        <time>2022-04-19T13:37:45Z</time>
      </trkpt>
      <trkpt lat="46.59435" lon="5.51036">
        <ele>450.4</ele>
        <time>2022-04-19T13:37:46Z</time>
      </trkpt>
      <trkpt lat="46.59434" lon="5.51042">
        <ele>450.6</ele>
        <time>2022-04-19T13:37:47Z</time>
      </trkpt>
      <trkpt lat="46.59428" lon="5.51065">
        <ele>451.6</ele>
        <time>2022-04-19T13:37:51Z</time>
      </trkpt>
      <trkpt lat="46.59422" lon="5.51094">
        <ele>452.8</ele>
        <time>2022-04-19T13:37:56Z</time>
      </trkpt>
      <trkpt lat="46.59419" lon="5.51112">
        <ele>453.6</ele>
        <time>2022-04-19T13:37:59Z</time>
      </trkpt>
      <trkpt lat="46.59418" lon="5.51118">
        <ele>453.6</ele>
        <time>2022-04-19T13:38:00Z</time>
      </trkpt>
      <trkpt lat="46.59418" lon="5.51124">
        <ele>454</ele>
        <time>2022-04-19T13:38:01Z</time>
      </trkpt>
      <trkpt lat="46.59421" lon="5.51154">
        <ele>455.2</ele>
        <time>2022-04-19T13:38:06Z</time>
      </trkpt>
      <trkpt lat="46.59422" lon="5.5116">
        <ele>455.4</ele>
        <time>2022-04-19T13:38:07Z</time>
      </trkpt>
      <trkpt lat="46.59427" lon="5.51183">
        <ele>456.6</ele>
        <time>2022-04-19T13:38:11Z</time>
      </trkpt>
      <trkpt lat="46.59428" lon="5.51189">
        <ele>456.8</ele>
        <time>2022-04-19T13:38:12Z</time>
      </trkpt>
      <trkpt lat="46.59429" lon="5.512">
        <ele>457.4</ele>
        <time>2022-04-19T13:38:14Z</time>
      </trkpt>
      <trkpt lat="46.59428" lon="5.51208">
        <ele>457.8</ele>
        <time>2022-04-19T13:38:15Z</time>
      </trkpt>
      <trkpt lat="46.59424" lon="5.51237">
        <ele>458.8</ele>
        <time>2022-04-19T13:38:20Z</time>
      </trkpt>
      <trkpt lat="46.59422" lon="5.51259">
        <ele>459.8</ele>
        <time>2022-04-19T13:38:24Z</time>
      </trkpt>
      <trkpt lat="46.59425" lon="5.51272">
        <ele>460.4</ele>
        <time>2022-04-19T13:38:26Z</time>
      </trkpt>
      <trkpt lat="46.59427" lon="5.51276">
        <ele>460.8</ele>
        <time>2022-04-19T13:38:27Z</time>
      </trkpt>
      <trkpt lat="46.59432" lon="5.51288">
        <ele>461.4</ele>
        <time>2022-04-19T13:38:29Z</time>
      </trkpt>
      <trkpt lat="46.59439" lon="5.51296">
        <ele>461.8</ele>
        <time>2022-04-19T13:38:31Z</time>
      </trkpt>
      <trkpt lat="46.59443" lon="5.51301">
        <ele>462</ele>
        <time>2022-04-19T13:38:32Z</time>
      </trkpt>
      <trkpt lat="46.59455" lon="5.51317">
        <ele>462.8</ele>
        <time>2022-04-19T13:38:35Z</time>
      </trkpt>
      <trkpt lat="46.59461" lon="5.51328">
        <ele>463.2</ele>
        <time>2022-04-19T13:38:37Z</time>
      </trkpt>
      <trkpt lat="46.59476" lon="5.51352">
        <ele>464</ele>
        <time>2022-04-19T13:38:41Z</time>
      </trkpt>
      <trkpt lat="46.59488" lon="5.51368">
        <ele>464.4</ele>
        <time>2022-04-19T13:38:44Z</time>
      </trkpt>
      <trkpt lat="46.59509" lon="5.51382">
        <ele>465</ele>
        <time>2022-04-19T13:38:48Z</time>
      </trkpt>
      <trkpt lat="46.59515" lon="5.51385">
        <ele>465</ele>
        <time>2022-04-19T13:38:49Z</time>
      </trkpt>
      <trkpt lat="46.59562" lon="5.51396">
        <ele>465</ele>
        <time>2022-04-19T13:38:56Z</time>
      </trkpt>
      <trkpt lat="46.59594" lon="5.51401">
        <ele>464.4</ele>
        <time>2022-04-19T13:39:00Z</time>
      </trkpt>
      <trkpt lat="46.59604" lon="5.51406">
        <ele>464</ele>
        <time>2022-04-19T13:39:01Z</time>
      </trkpt>
      <trkpt lat="46.5961" lon="5.5141">
        <ele>463.6</ele>
        <time>2022-04-19T13:39:02Z</time>
      </trkpt>
      <trkpt lat="46.59636" lon="5.51432">
        <ele>463.4</ele>
        <time>2022-04-19T13:39:06Z</time>
      </trkpt>
      <trkpt lat="46.59662" lon="5.51448">
        <ele>463.8</ele>
        <time>2022-04-19T13:39:11Z</time>
      </trkpt>
      <trkpt lat="46.59678" lon="5.51456">
        <ele>464.8</ele>
        <time>2022-04-19T13:39:14Z</time>
      </trkpt>
      <trkpt lat="46.59699" lon="5.51466">
        <ele>465.8</ele>
        <time>2022-04-19T13:39:18Z</time>
      </trkpt>
      <trkpt lat="46.59714" lon="5.51473">
        <ele>466.6</ele>
        <time>2022-04-19T13:39:21Z</time>
      </trkpt>
      <trkpt lat="46.59724" lon="5.51477">
        <ele>467.2</ele>
        <time>2022-04-19T13:39:23Z</time>
      </trkpt>
      <trkpt lat="46.59735" lon="5.51482">
        <ele>467.6</ele>
        <time>2022-04-19T13:39:25Z</time>
      </trkpt>
      <trkpt lat="46.59754" lon="5.51488">
        <ele>468.2</ele>
        <time>2022-04-19T13:39:28Z</time>
      </trkpt>
      <trkpt lat="46.59762" lon="5.51487">
        <ele>468.4</ele>
        <time>2022-04-19T13:39:29Z</time>
      </trkpt>
      <trkpt lat="46.59775" lon="5.51481">
        <ele>468.4</ele>
        <time>2022-04-19T13:39:31Z</time>
      </trkpt>
      <trkpt lat="46.59779" lon="5.51477">
        <ele>468.4</ele>
        <time>2022-04-19T13:39:32Z</time>
      </trkpt>
      <trkpt lat="46.59802" lon="5.51456">
        <ele>468.6</ele>
        <time>2022-04-19T13:39:36Z</time>
      </trkpt>
      <trkpt lat="46.59818" lon="5.51447">
        <ele>468.6</ele>
        <time>2022-04-19T13:39:39Z</time>
      </trkpt>
      <trkpt lat="46.59839" lon="5.51437">
        <ele>469.2</ele>
        <time>2022-04-19T13:39:44Z</time>
      </trkpt>
      <trkpt lat="46.59843" lon="5.51435">
        <ele>469.4</ele>
        <time>2022-04-19T13:39:45Z</time>
      </trkpt>
      <trkpt lat="46.59861" lon="5.51427">
        <ele>470.6</ele>
        <time>2022-04-19T13:39:49Z</time>
      </trkpt>
      <trkpt lat="46.59864" lon="5.51425">
        <ele>471</ele>
        <time>2022-04-19T13:39:50Z</time>
      </trkpt>
      <trkpt lat="46.59878" lon="5.51419">
        <ele>471.6</ele>
        <time>2022-04-19T13:39:53Z</time>
      </trkpt>
      <trkpt lat="46.5989" lon="5.51414">
        <ele>472.2</ele>
        <time>2022-04-19T13:39:56Z</time>
      </trkpt>
      <trkpt lat="46.599" lon="5.51412">
        <ele>472.6</ele>
        <time>2022-04-19T13:39:58Z</time>
      </trkpt>
      <trkpt lat="46.59932" lon="5.51414">
        <ele>473.4</ele>
        <time>2022-04-19T13:40:03Z</time>
      </trkpt>
      <trkpt lat="46.59945" lon="5.51422">
        <ele>473.4</ele>
        <time>2022-04-19T13:40:05Z</time>
      </trkpt>
      <trkpt lat="46.59952" lon="5.5143">
        <ele>473.4</ele>
        <time>2022-04-19T13:40:06Z</time>
      </trkpt>
      <trkpt lat="46.59957" lon="5.51436">
        <ele>473.4</ele>
        <time>2022-04-19T13:40:07Z</time>
      </trkpt>
      <trkpt lat="46.59964" lon="5.51456">
        <ele>473.2</ele>
        <time>2022-04-19T13:40:09Z</time>
      </trkpt>
      <trkpt lat="46.59973" lon="5.51504">
        <ele>472.2</ele>
        <time>2022-04-19T13:40:14Z</time>
      </trkpt>
      <trkpt lat="46.59977" lon="5.51544">
        <ele>471.8</ele>
        <time>2022-04-19T13:40:19Z</time>
      </trkpt>
      <trkpt lat="46.59976" lon="5.51589">
        <ele>472.4</ele>
        <time>2022-04-19T13:40:25Z</time>
      </trkpt>
      <trkpt lat="46.59975" lon="5.51594">
        <ele>472.6</ele>
        <time>2022-04-19T13:40:26Z</time>
      </trkpt>
      <trkpt lat="46.59971" lon="5.51613">
        <ele>473</ele>
        <time>2022-04-19T13:40:29Z</time>
      </trkpt>
      <trkpt lat="46.59967" lon="5.51622">
        <ele>473.2</ele>
        <time>2022-04-19T13:40:31Z</time>
      </trkpt>
      <trkpt lat="46.59955" lon="5.51641">
        <ele>474</ele>
        <time>2022-04-19T13:40:35Z</time>
      </trkpt>
      <trkpt lat="46.59952" lon="5.51646">
        <ele>474.8</ele>
        <time>2022-04-19T13:40:36Z</time>
      </trkpt>
      <trkpt lat="46.59949" lon="5.5165">
        <ele>475.2</ele>
        <time>2022-04-19T13:40:37Z</time>
      </trkpt>
      <trkpt lat="46.59937" lon="5.51667">
        <ele>476.4</ele>
        <time>2022-04-19T13:40:41Z</time>
      </trkpt>
      <trkpt lat="46.59929" lon="5.5168">
        <ele>477.4</ele>
        <time>2022-04-19T13:40:44Z</time>
      </trkpt>
      <trkpt lat="46.59926" lon="5.51686">
        <ele>477.4</ele>
        <time>2022-04-19T13:40:45Z</time>
      </trkpt>
      <trkpt lat="46.59924" lon="5.51691">
        <ele>477.8</ele>
        <time>2022-04-19T13:40:46Z</time>
      </trkpt>
      <trkpt lat="46.59919" lon="5.51711">
        <ele>478.8</ele>
        <time>2022-04-19T13:40:50Z</time>
      </trkpt>
      <trkpt lat="46.59914" lon="5.51738">
        <ele>480</ele>
        <time>2022-04-19T13:40:55Z</time>
      </trkpt>
      <trkpt lat="46.59909" lon="5.51755">
        <ele>481.4</ele>
        <time>2022-04-19T13:40:58Z</time>
      </trkpt>
      <trkpt lat="46.59907" lon="5.51762">
        <ele>481.8</ele>
        <time>2022-04-19T13:40:59Z</time>
      </trkpt>
      <trkpt lat="46.59904" lon="5.51773">
        <ele>482.4</ele>
        <time>2022-04-19T13:41:01Z</time>
      </trkpt>
      <trkpt lat="46.59902" lon="5.51777">
        <ele>482.8</ele>
        <time>2022-04-19T13:41:02Z</time>
      </trkpt>
      <trkpt lat="46.59893" lon="5.51795">
        <ele>483.2</ele>
        <time>2022-04-19T13:41:05Z</time>
      </trkpt>
      <trkpt lat="46.59891" lon="5.51798">
        <ele>483.4</ele>
        <time>2022-04-19T13:41:06Z</time>
      </trkpt>
      <trkpt lat="46.59884" lon="5.51807">
        <ele>483.6</ele>
        <time>2022-04-19T13:41:08Z</time>
      </trkpt>
      <trkpt lat="46.59877" lon="5.51816">
        <ele>483.8</ele>
        <time>2022-04-19T13:41:10Z</time>
      </trkpt>
      <trkpt lat="46.59863" lon="5.51834">
        <ele>484.6</ele>
        <time>2022-04-19T13:41:14Z</time>
      </trkpt>
      <trkpt lat="46.59855" lon="5.51843">
        <ele>484.8</ele>
        <time>2022-04-19T13:41:16Z</time>
      </trkpt>
      <trkpt lat="46.59844" lon="5.51853">
        <ele>485.8</ele>
        <time>2022-04-19T13:41:19Z</time>
      </trkpt>
      <trkpt lat="46.59809" lon="5.5188">
        <ele>486.8</ele>
        <time>2022-04-19T13:41:27Z</time>
      </trkpt>
      <trkpt lat="46.59783" lon="5.51893">
        <ele>487.8</ele>
        <time>2022-04-19T13:41:33Z</time>
      </trkpt>
      <trkpt lat="46.59769" lon="5.51899">
        <ele>488.4</ele>
        <time>2022-04-19T13:41:36Z</time>
      </trkpt>
      <trkpt lat="46.5976" lon="5.51903">
        <ele>489</ele>
        <time>2022-04-19T13:41:38Z</time>
      </trkpt>
      <trkpt lat="46.59731" lon="5.51917">
        <ele>490</ele>
        <time>2022-04-19T13:41:44Z</time>
      </trkpt>
      <trkpt lat="46.59727" lon="5.51919">
        <ele>490.2</ele>
        <time>2022-04-19T13:41:45Z</time>
      </trkpt>
      <trkpt lat="46.59712" lon="5.51925">
        <ele>490.6</ele>
        <time>2022-04-19T13:41:48Z</time>
      </trkpt>
      <trkpt lat="46.59702" lon="5.51924">
        <ele>490.8</ele>
        <time>2022-04-19T13:41:50Z</time>
      </trkpt>
      <trkpt lat="46.59687" lon="5.51917">
        <ele>491.2</ele>
        <time>2022-04-19T13:41:53Z</time>
      </trkpt>
      <trkpt lat="46.59679" lon="5.51916">
        <ele>491.2</ele>
        <time>2022-04-19T13:41:55Z</time>
      </trkpt>
      <trkpt lat="46.59669" lon="5.51922">
        <ele>491.6</ele>
        <time>2022-04-19T13:41:57Z</time>
      </trkpt>
      <trkpt lat="46.59666" lon="5.51928">
        <ele>491.8</ele>
        <time>2022-04-19T13:41:58Z</time>
      </trkpt>
      <trkpt lat="46.59663" lon="5.51934">
        <ele>491.8</ele>
        <time>2022-04-19T13:41:59Z</time>
      </trkpt>
      <trkpt lat="46.5966" lon="5.51948">
        <ele>492.2</ele>
        <time>2022-04-19T13:42:01Z</time>
      </trkpt>
      <trkpt lat="46.59657" lon="5.51954">
        <ele>492.4</ele>
        <time>2022-04-19T13:42:02Z</time>
      </trkpt>
      <trkpt lat="46.59653" lon="5.5196">
        <ele>492.6</ele>
        <time>2022-04-19T13:42:03Z</time>
      </trkpt>
      <trkpt lat="46.59642" lon="5.51966">
        <ele>492.8</ele>
        <time>2022-04-19T13:42:05Z</time>
      </trkpt>
      <trkpt lat="46.59607" lon="5.5197">
        <ele>492.8</ele>
        <time>2022-04-19T13:42:10Z</time>
      </trkpt>
      <trkpt lat="46.59557" lon="5.51974">
        <ele>492.2</ele>
        <time>2022-04-19T13:42:16Z</time>
      </trkpt>
      <trkpt lat="46.5951" lon="5.51978">
        <ele>491.2</ele>
        <time>2022-04-19T13:42:21Z</time>
      </trkpt>
      <trkpt lat="46.5949" lon="5.5198">
        <ele>490.6</ele>
        <time>2022-04-19T13:42:23Z</time>
      </trkpt>
      <trkpt lat="46.59459" lon="5.51983">
        <ele>490</ele>
        <time>2022-04-19T13:42:26Z</time>
      </trkpt>
      <trkpt lat="46.59416" lon="5.51986">
        <ele>489</ele>
        <time>2022-04-19T13:42:30Z</time>
      </trkpt>
      <trkpt lat="46.59406" lon="5.51987">
        <ele>488.8</ele>
        <time>2022-04-19T13:42:31Z</time>
      </trkpt>
      <trkpt lat="46.59376" lon="5.51988">
        <ele>487.6</ele>
        <time>2022-04-19T13:42:34Z</time>
      </trkpt>
      <trkpt lat="46.59338" lon="5.51988">
        <ele>487.2</ele>
        <time>2022-04-19T13:42:38Z</time>
      </trkpt>
      <trkpt lat="46.59283" lon="5.51984">
        <ele>486.8</ele>
        <time>2022-04-19T13:42:44Z</time>
      </trkpt>
      <trkpt lat="46.59224" lon="5.51977">
        <ele>486.8</ele>
        <time>2022-04-19T13:42:51Z</time>
      </trkpt>
      <trkpt lat="46.59207" lon="5.51975">
        <ele>486.8</ele>
        <time>2022-04-19T13:42:53Z</time>
      </trkpt>
      <trkpt lat="46.59157" lon="5.51965">
        <ele>487</ele>
        <time>2022-04-19T13:42:59Z</time>
      </trkpt>
      <trkpt lat="46.59103" lon="5.51954">
        <ele>487.8</ele>
        <time>2022-04-19T13:43:06Z</time>
      </trkpt>
      <trkpt lat="46.59093" lon="5.51952">
        <ele>488</ele>
        <time>2022-04-19T13:43:07Z</time>
      </trkpt>
      <trkpt lat="46.59086" lon="5.5195">
        <ele>488.2</ele>
        <time>2022-04-19T13:43:08Z</time>
      </trkpt>
      <trkpt lat="46.5907" lon="5.51947">
        <ele>488.8</ele>
        <time>2022-04-19T13:43:10Z</time>
      </trkpt>
      <trkpt lat="46.59018" lon="5.51943">
        <ele>489.4</ele>
        <time>2022-04-19T13:43:17Z</time>
      </trkpt>
      <trkpt lat="46.58958" lon="5.51942">
        <ele>489.6</ele>
        <time>2022-04-19T13:43:25Z</time>
      </trkpt>
      <trkpt lat="46.58902" lon="5.51932">
        <ele>489.2</ele>
        <time>2022-04-19T13:43:32Z</time>
      </trkpt>
      <trkpt lat="46.58843" lon="5.5192">
        <ele>489.6</ele>
        <time>2022-04-19T13:43:40Z</time>
      </trkpt>
      <trkpt lat="46.58829" lon="5.51918">
        <ele>489.8</ele>
        <time>2022-04-19T13:43:42Z</time>
      </trkpt>
      <trkpt lat="46.58801" lon="5.51917">
        <ele>490.2</ele>
        <time>2022-04-19T13:43:46Z</time>
      </trkpt>
      <trkpt lat="46.58772" lon="5.51916">
        <ele>490.2</ele>
        <time>2022-04-19T13:43:50Z</time>
      </trkpt>
      <trkpt lat="46.5875" lon="5.51913">
        <ele>490.4</ele>
        <time>2022-04-19T13:43:53Z</time>
      </trkpt>
      <trkpt lat="46.58699" lon="5.51893">
        <ele>490</ele>
        <time>2022-04-19T13:44:00Z</time>
      </trkpt>
      <trkpt lat="46.58644" lon="5.51857">
        <ele>489.2</ele>
        <time>2022-04-19T13:44:08Z</time>
      </trkpt>
      <trkpt lat="46.58598" lon="5.51835">
        <ele>488.8</ele>
        <time>2022-04-19T13:44:14Z</time>
      </trkpt>
      <trkpt lat="46.5859" lon="5.51832">
        <ele>488.6</ele>
        <time>2022-04-19T13:44:15Z</time>
      </trkpt>
      <trkpt lat="46.58554" lon="5.51819">
        <ele>488</ele>
        <time>2022-04-19T13:44:19Z</time>
      </trkpt>
      <trkpt lat="46.58545" lon="5.51815">
        <ele>487.4</ele>
        <time>2022-04-19T13:44:20Z</time>
      </trkpt>
      <trkpt lat="46.58498" lon="5.51797">
        <ele>486.4</ele>
        <time>2022-04-19T13:44:25Z</time>
      </trkpt>
      <trkpt lat="46.58488" lon="5.51793">
        <ele>486</ele>
        <time>2022-04-19T13:44:26Z</time>
      </trkpt>
      <trkpt lat="46.58437" lon="5.51777">
        <ele>485</ele>
        <time>2022-04-19T13:44:31Z</time>
      </trkpt>
      <trkpt lat="46.58405" lon="5.51769">
        <ele>484.4</ele>
        <time>2022-04-19T13:44:34Z</time>
      </trkpt>
      <trkpt lat="46.58384" lon="5.51762">
        <ele>484</ele>
        <time>2022-04-19T13:44:36Z</time>
      </trkpt>
      <trkpt lat="46.5834" lon="5.51741">
        <ele>483</ele>
        <time>2022-04-19T13:44:40Z</time>
      </trkpt>
      <trkpt lat="46.5833" lon="5.51735">
        <ele>482.8</ele>
        <time>2022-04-19T13:44:41Z</time>
      </trkpt>
      <trkpt lat="46.58301" lon="5.51712">
        <ele>481.4</ele>
        <time>2022-04-19T13:44:44Z</time>
      </trkpt>
      <trkpt lat="46.58282" lon="5.51697">
        <ele>480.4</ele>
        <time>2022-04-19T13:44:46Z</time>
      </trkpt>
      <trkpt lat="46.58272" lon="5.5169">
        <ele>480</ele>
        <time>2022-04-19T13:44:47Z</time>
      </trkpt>
      <trkpt lat="46.58224" lon="5.51658">
        <ele>479.4</ele>
        <time>2022-04-19T13:44:52Z</time>
      </trkpt>
      <trkpt lat="46.58172" lon="5.51638">
        <ele>479.2</ele>
        <time>2022-04-19T13:44:57Z</time>
      </trkpt>
      <trkpt lat="46.58162" lon="5.51636">
        <ele>479</ele>
        <time>2022-04-19T13:44:58Z</time>
      </trkpt>
      <trkpt lat="46.581" lon="5.51621">
        <ele>477.8</ele>
        <time>2022-04-19T13:45:04Z</time>
      </trkpt>
      <trkpt lat="46.58087" lon="5.51618">
        <ele>477.6</ele>
        <time>2022-04-19T13:45:05Z</time>
      </trkpt>
      <trkpt lat="46.58032" lon="5.51605">
        <ele>476.4</ele>
        <time>2022-04-19T13:45:10Z</time>
      </trkpt>
      <trkpt lat="46.58017" lon="5.51602">
        <ele>475.8</ele>
        <time>2022-04-19T13:45:11Z</time>
      </trkpt>
      <trkpt lat="46.57996" lon="5.51596">
        <ele>475</ele>
        <time>2022-04-19T13:45:13Z</time>
      </trkpt>
      <trkpt lat="46.5796" lon="5.51584">
        <ele>473.8</ele>
        <time>2022-04-19T13:45:16Z</time>
      </trkpt>
      <trkpt lat="46.57937" lon="5.51575">
        <ele>472.8</ele>
        <time>2022-04-19T13:45:18Z</time>
      </trkpt>
      <trkpt lat="46.5789" lon="5.51558">
        <ele>471.6</ele>
        <time>2022-04-19T13:45:22Z</time>
      </trkpt>
      <trkpt lat="46.57854" lon="5.51544">
        <ele>470.2</ele>
        <time>2022-04-19T13:45:25Z</time>
      </trkpt>
      <trkpt lat="46.57831" lon="5.51536">
        <ele>469</ele>
        <time>2022-04-19T13:45:27Z</time>
      </trkpt>
      <trkpt lat="46.578" lon="5.51524">
        <ele>467.6</ele>
        <time>2022-04-19T13:45:30Z</time>
      </trkpt>
      <trkpt lat="46.57775" lon="5.51515">
        <ele>466.4</ele>
        <time>2022-04-19T13:45:32Z</time>
      </trkpt>
      <trkpt lat="46.57742" lon="5.51503">
        <ele>465.4</ele>
        <time>2022-04-19T13:45:35Z</time>
      </trkpt>
      <trkpt lat="46.57731" lon="5.51499">
        <ele>464.4</ele>
        <time>2022-04-19T13:45:36Z</time>
      </trkpt>
      <trkpt lat="46.57709" lon="5.51491">
        <ele>463.2</ele>
        <time>2022-04-19T13:45:38Z</time>
      </trkpt>
      <trkpt lat="46.57686" lon="5.51481">
        <ele>461.4</ele>
        <time>2022-04-19T13:45:40Z</time>
      </trkpt>
      <trkpt lat="46.57675" lon="5.51475">
        <ele>460.4</ele>
        <time>2022-04-19T13:45:41Z</time>
      </trkpt>
      <trkpt lat="46.57665" lon="5.51467">
        <ele>460</ele>
        <time>2022-04-19T13:45:42Z</time>
      </trkpt>
      <trkpt lat="46.57655" lon="5.51457">
        <ele>459.2</ele>
        <time>2022-04-19T13:45:43Z</time>
      </trkpt>
      <trkpt lat="46.5763" lon="5.51426">
        <ele>458.2</ele>
        <time>2022-04-19T13:45:46Z</time>
      </trkpt>
      <trkpt lat="46.57623" lon="5.51415">
        <ele>458.2</ele>
        <time>2022-04-19T13:45:47Z</time>
      </trkpt>
      <trkpt lat="46.57597" lon="5.51375">
        <ele>458</ele>
        <time>2022-04-19T13:45:51Z</time>
      </trkpt>
      <trkpt lat="46.5757" lon="5.51335">
        <ele>458.4</ele>
        <time>2022-04-19T13:45:56Z</time>
      </trkpt>
      <trkpt lat="46.57552" lon="5.51308">
        <ele>459.4</ele>
        <time>2022-04-19T13:46:00Z</time>
      </trkpt>
      <trkpt lat="46.57543" lon="5.51296">
        <ele>460</ele>
        <time>2022-04-19T13:46:02Z</time>
      </trkpt>
      <trkpt lat="46.57535" lon="5.51284">
        <ele>460.6</ele>
        <time>2022-04-19T13:46:04Z</time>
      </trkpt>
      <trkpt lat="46.57517" lon="5.51265">
        <ele>461.2</ele>
        <time>2022-04-19T13:46:08Z</time>
      </trkpt>
      <trkpt lat="46.57512" lon="5.51261">
        <ele>461.6</ele>
        <time>2022-04-19T13:46:09Z</time>
      </trkpt>
      <trkpt lat="46.57488" lon="5.51242">
        <ele>462.8</ele>
        <time>2022-04-19T13:46:14Z</time>
      </trkpt>
      <trkpt lat="46.57478" lon="5.51235">
        <ele>463.4</ele>
        <time>2022-04-19T13:46:16Z</time>
      </trkpt>
      <trkpt lat="46.57468" lon="5.51228">
        <ele>463.8</ele>
        <time>2022-04-19T13:46:18Z</time>
      </trkpt>
      <trkpt lat="46.57448" lon="5.51217">
        <ele>465</ele>
        <time>2022-04-19T13:46:22Z</time>
      </trkpt>
      <trkpt lat="46.57438" lon="5.51211">
        <ele>465.6</ele>
        <time>2022-04-19T13:46:24Z</time>
      </trkpt>
      <trkpt lat="46.57428" lon="5.51205">
        <ele>466</ele>
        <time>2022-04-19T13:46:26Z</time>
      </trkpt>
      <trkpt lat="46.57401" lon="5.51189">
        <ele>467.4</ele>
        <time>2022-04-19T13:46:32Z</time>
      </trkpt>
      <trkpt lat="46.57393" lon="5.51183">
        <ele>468</ele>
        <time>2022-04-19T13:46:34Z</time>
      </trkpt>
      <trkpt lat="46.57384" lon="5.51178">
        <ele>468.6</ele>
        <time>2022-04-19T13:46:36Z</time>
      </trkpt>
      <trkpt lat="46.57363" lon="5.51166">
        <ele>469.6</ele>
        <time>2022-04-19T13:46:41Z</time>
      </trkpt>
      <trkpt lat="46.57354" lon="5.51161">
        <ele>470.2</ele>
        <time>2022-04-19T13:46:43Z</time>
      </trkpt>
      <trkpt lat="46.57346" lon="5.51156">
        <ele>470.6</ele>
        <time>2022-04-19T13:46:45Z</time>
      </trkpt>
      <trkpt lat="46.57326" lon="5.51146">
        <ele>471.6</ele>
        <time>2022-04-19T13:46:50Z</time>
      </trkpt>
      <trkpt lat="46.57306" lon="5.51138">
        <ele>472.6</ele>
        <time>2022-04-19T13:46:55Z</time>
      </trkpt>
      <trkpt lat="46.57302" lon="5.51136">
        <ele>472.8</ele>
        <time>2022-04-19T13:46:56Z</time>
      </trkpt>
      <trkpt lat="46.57289" lon="5.51132">
        <ele>473.8</ele>
        <time>2022-04-19T13:46:59Z</time>
      </trkpt>
      <trkpt lat="46.57267" lon="5.51126">
        <ele>474.8</ele>
        <time>2022-04-19T13:47:04Z</time>
      </trkpt>
      <trkpt lat="46.57251" lon="5.51117">
        <ele>476</ele>
        <time>2022-04-19T13:47:08Z</time>
      </trkpt>
      <trkpt lat="46.57247" lon="5.51115">
        <ele>476.2</ele>
        <time>2022-04-19T13:47:09Z</time>
      </trkpt>
      <trkpt lat="46.57236" lon="5.51106">
        <ele>477</ele>
        <time>2022-04-19T13:47:12Z</time>
      </trkpt>
      <trkpt lat="46.57218" lon="5.51086">
        <ele>478</ele>
        <time>2022-04-19T13:47:17Z</time>
      </trkpt>
      <trkpt lat="46.57215" lon="5.51082">
        <ele>478.2</ele>
        <time>2022-04-19T13:47:18Z</time>
      </trkpt>
      <trkpt lat="46.57193" lon="5.51052">
        <ele>479.6</ele>
        <time>2022-04-19T13:47:25Z</time>
      </trkpt>
      <trkpt lat="46.57189" lon="5.51048">
        <ele>480</ele>
        <time>2022-04-19T13:47:26Z</time>
      </trkpt>
      <trkpt lat="46.57175" lon="5.51032">
        <ele>480.6</ele>
        <time>2022-04-19T13:47:30Z</time>
      </trkpt>
      <trkpt lat="46.57159" lon="5.5102">
        <ele>481.8</ele>
        <time>2022-04-19T13:47:34Z</time>
      </trkpt>
      <trkpt lat="46.5713" lon="5.51003">
        <ele>483</ele>
        <time>2022-04-19T13:47:41Z</time>
      </trkpt>
      <trkpt lat="46.57126" lon="5.51001">
        <ele>483.4</ele>
        <time>2022-04-19T13:47:42Z</time>
      </trkpt>
      <trkpt lat="46.57108" lon="5.50994">
        <ele>484</ele>
        <time>2022-04-19T13:47:46Z</time>
      </trkpt>
      <trkpt lat="46.57085" lon="5.50985">
        <ele>485.2</ele>
        <time>2022-04-19T13:47:51Z</time>
      </trkpt>
      <trkpt lat="46.57076" lon="5.50981">
        <ele>485.4</ele>
        <time>2022-04-19T13:47:53Z</time>
      </trkpt>
      <trkpt lat="46.57063" lon="5.50974">
        <ele>486.2</ele>
        <time>2022-04-19T13:47:56Z</time>
      </trkpt>
      <trkpt lat="46.57046" lon="5.50962">
        <ele>487.2</ele>
        <time>2022-04-19T13:48:00Z</time>
      </trkpt>
      <trkpt lat="46.57042" lon="5.50959">
        <ele>487.4</ele>
        <time>2022-04-19T13:48:01Z</time>
      </trkpt>
      <trkpt lat="46.57031" lon="5.50948">
        <ele>488.2</ele>
        <time>2022-04-19T13:48:04Z</time>
      </trkpt>
      <trkpt lat="46.5702" lon="5.50936">
        <ele>488.8</ele>
        <time>2022-04-19T13:48:07Z</time>
      </trkpt>
      <trkpt lat="46.56998" lon="5.50902">
        <ele>489.8</ele>
        <time>2022-04-19T13:48:14Z</time>
      </trkpt>
      <trkpt lat="46.56992" lon="5.50891">
        <ele>490.2</ele>
        <time>2022-04-19T13:48:16Z</time>
      </trkpt>
      <trkpt lat="46.56985" lon="5.50875">
        <ele>491.2</ele>
        <time>2022-04-19T13:48:19Z</time>
      </trkpt>
      <trkpt lat="46.56976" lon="5.50847">
        <ele>492.2</ele>
        <time>2022-04-19T13:48:24Z</time>
      </trkpt>
      <trkpt lat="46.56975" lon="5.50841">
        <ele>492.4</ele>
        <time>2022-04-19T13:48:25Z</time>
      </trkpt>
      <trkpt lat="46.5697" lon="5.50823">
        <ele>493.6</ele>
        <time>2022-04-19T13:48:28Z</time>
      </trkpt>
      <trkpt lat="46.56963" lon="5.5079">
        <ele>494.8</ele>
        <time>2022-04-19T13:48:33Z</time>
      </trkpt>
      <trkpt lat="46.56959" lon="5.5077">
        <ele>495.4</ele>
        <time>2022-04-19T13:48:36Z</time>
      </trkpt>
      <trkpt lat="46.56954" lon="5.5075">
        <ele>495.6</ele>
        <time>2022-04-19T13:48:39Z</time>
      </trkpt>
      <trkpt lat="46.56948" lon="5.50726">
        <ele>496.4</ele>
        <time>2022-04-19T13:48:43Z</time>
      </trkpt>
      <trkpt lat="46.56947" lon="5.50719">
        <ele>496.8</ele>
        <time>2022-04-19T13:48:44Z</time>
      </trkpt>
      <trkpt lat="46.56941" lon="5.50701">
        <ele>497.4</ele>
        <time>2022-04-19T13:48:47Z</time>
      </trkpt>
      <trkpt lat="46.56934" lon="5.50685">
        <ele>497.8</ele>
        <time>2022-04-19T13:48:50Z</time>
      </trkpt>
      <trkpt lat="46.56931" lon="5.50679">
        <ele>498.4</ele>
        <time>2022-04-19T13:48:51Z</time>
      </trkpt>
      <trkpt lat="46.56926" lon="5.50669">
        <ele>499</ele>
        <time>2022-04-19T13:48:53Z</time>
      </trkpt>
      <trkpt lat="46.56917" lon="5.50653">
        <ele>499.8</ele>
        <time>2022-04-19T13:48:56Z</time>
      </trkpt>
      <trkpt lat="46.56914" lon="5.50649">
        <ele>500.2</ele>
        <time>2022-04-19T13:48:57Z</time>
      </trkpt>
      <trkpt lat="46.56904" lon="5.50635">
        <ele>500.6</ele>
        <time>2022-04-19T13:49:00Z</time>
      </trkpt>
      <trkpt lat="46.56884" lon="5.50614">
        <ele>501.6</ele>
        <time>2022-04-19T13:49:05Z</time>
      </trkpt>
      <trkpt lat="46.5687" lon="5.50603">
        <ele>502.6</ele>
        <time>2022-04-19T13:49:08Z</time>
      </trkpt>
      <trkpt lat="46.56825" lon="5.5058">
        <ele>503.8</ele>
        <time>2022-04-19T13:49:17Z</time>
      </trkpt>
      <trkpt lat="46.56774" lon="5.50558">
        <ele>504.2</ele>
        <time>2022-04-19T13:49:26Z</time>
      </trkpt>
      <trkpt lat="46.56721" lon="5.50535">
        <ele>504.4</ele>
        <time>2022-04-19T13:49:34Z</time>
      </trkpt>
      <trkpt lat="46.56663" lon="5.50511">
        <ele>504.6</ele>
        <time>2022-04-19T13:49:42Z</time>
      </trkpt>
      <trkpt lat="46.56656" lon="5.50508">
        <ele>504.6</ele>
        <time>2022-04-19T13:49:43Z</time>
      </trkpt>
      <trkpt lat="46.56628" lon="5.50496">
        <ele>504.8</ele>
        <time>2022-04-19T13:49:47Z</time>
      </trkpt>
      <trkpt lat="46.56586" lon="5.50479">
        <ele>504.8</ele>
        <time>2022-04-19T13:49:53Z</time>
      </trkpt>
      <trkpt lat="46.56534" lon="5.50458">
        <ele>505.2</ele>
        <time>2022-04-19T13:50:01Z</time>
      </trkpt>
      <trkpt lat="46.56479" lon="5.5043">
        <ele>505.2</ele>
        <time>2022-04-19T13:50:09Z</time>
      </trkpt>
      <trkpt lat="46.56431" lon="5.50395">
        <ele>504.8</ele>
        <time>2022-04-19T13:50:16Z</time>
      </trkpt>
      <trkpt lat="46.56424" lon="5.50389">
        <ele>504.8</ele>
        <time>2022-04-19T13:50:17Z</time>
      </trkpt>
      <trkpt lat="46.56387" lon="5.50357">
        <ele>503.6</ele>
        <time>2022-04-19T13:50:22Z</time>
      </trkpt>
      <trkpt lat="46.56372" lon="5.50344">
        <ele>503.2</ele>
        <time>2022-04-19T13:50:24Z</time>
      </trkpt>
      <trkpt lat="46.56351" lon="5.50325">
        <ele>502.6</ele>
        <time>2022-04-19T13:50:27Z</time>
      </trkpt>
      <trkpt lat="46.56319" lon="5.50297">
        <ele>501.8</ele>
        <time>2022-04-19T13:50:31Z</time>
      </trkpt>
      <trkpt lat="46.56312" lon="5.5029">
        <ele>501.6</ele>
        <time>2022-04-19T13:50:32Z</time>
      </trkpt>
      <trkpt lat="46.56286" lon="5.50267">
        <ele>500.2</ele>
        <time>2022-04-19T13:50:35Z</time>
      </trkpt>
      <trkpt lat="46.56269" lon="5.50252">
        <ele>499.2</ele>
        <time>2022-04-19T13:50:37Z</time>
      </trkpt>
      <trkpt lat="46.56244" lon="5.50229">
        <ele>498.4</ele>
        <time>2022-04-19T13:50:40Z</time>
      </trkpt>
      <trkpt lat="46.56235" lon="5.50222">
        <ele>498</ele>
        <time>2022-04-19T13:50:41Z</time>
      </trkpt>
      <trkpt lat="46.56208" lon="5.50199">
        <ele>497</ele>
        <time>2022-04-19T13:50:44Z</time>
      </trkpt>
      <trkpt lat="46.5619" lon="5.50184">
        <ele>496.4</ele>
        <time>2022-04-19T13:50:46Z</time>
      </trkpt>
      <trkpt lat="46.56181" lon="5.50177">
        <ele>495.8</ele>
        <time>2022-04-19T13:50:47Z</time>
      </trkpt>
      <trkpt lat="46.56146" lon="5.50152">
        <ele>494.8</ele>
        <time>2022-04-19T13:50:51Z</time>
      </trkpt>
      <trkpt lat="46.56126" lon="5.5014">
        <ele>494.4</ele>
        <time>2022-04-19T13:50:53Z</time>
      </trkpt>
      <trkpt lat="46.5608" lon="5.50115">
        <ele>493.8</ele>
        <time>2022-04-19T13:50:58Z</time>
      </trkpt>
      <trkpt lat="46.56054" lon="5.50101">
        <ele>493.4</ele>
        <time>2022-04-19T13:51:01Z</time>
      </trkpt>
      <trkpt lat="46.55997" lon="5.50072">
        <ele>493.2</ele>
        <time>2022-04-19T13:51:08Z</time>
      </trkpt>
      <trkpt lat="46.5594" lon="5.5005">
        <ele>493.2</ele>
        <time>2022-04-19T13:51:15Z</time>
      </trkpt>
      <trkpt lat="46.55932" lon="5.50047">
        <ele>493.6</ele>
        <time>2022-04-19T13:51:16Z</time>
      </trkpt>
      <trkpt lat="46.55894" lon="5.50024">
        <ele>493.2</ele>
        <time>2022-04-19T13:51:21Z</time>
      </trkpt>
      <trkpt lat="46.55862" lon="5.49989">
        <ele>493.2</ele>
        <time>2022-04-19T13:51:26Z</time>
      </trkpt>
      <trkpt lat="46.55811" lon="5.49934">
        <ele>493.4</ele>
        <time>2022-04-19T13:51:34Z</time>
      </trkpt>
      <trkpt lat="46.55806" lon="5.49928">
        <ele>493.4</ele>
        <time>2022-04-19T13:51:35Z</time>
      </trkpt>
      <trkpt lat="46.55763" lon="5.49877">
        <ele>493.6</ele>
        <time>2022-04-19T13:51:42Z</time>
      </trkpt>
      <trkpt lat="46.55752" lon="5.49861">
        <ele>493.8</ele>
        <time>2022-04-19T13:51:44Z</time>
      </trkpt>
      <trkpt lat="46.55715" lon="5.498">
        <ele>494.2</ele>
        <time>2022-04-19T13:51:52Z</time>
      </trkpt>
      <trkpt lat="46.5571" lon="5.49792">
        <ele>494.6</ele>
        <time>2022-04-19T13:51:53Z</time>
      </trkpt>
      <trkpt lat="46.55675" lon="5.49734">
        <ele>494.8</ele>
        <time>2022-04-19T13:52:01Z</time>
      </trkpt>
      <trkpt lat="46.55661" lon="5.4971">
        <ele>495</ele>
        <time>2022-04-19T13:52:04Z</time>
      </trkpt>
      <trkpt lat="46.55628" lon="5.49663">
        <ele>495.6</ele>
        <time>2022-04-19T13:52:10Z</time>
      </trkpt>
      <trkpt lat="46.55585" lon="5.49603">
        <ele>496</ele>
        <time>2022-04-19T13:52:18Z</time>
      </trkpt>
      <trkpt lat="46.5557" lon="5.49582">
        <ele>496</ele>
        <time>2022-04-19T13:52:21Z</time>
      </trkpt>
      <trkpt lat="46.55529" lon="5.4953">
        <ele>496.8</ele>
        <time>2022-04-19T13:52:29Z</time>
      </trkpt>
      <trkpt lat="46.55515" lon="5.49511">
        <ele>497</ele>
        <time>2022-04-19T13:52:32Z</time>
      </trkpt>
      <trkpt lat="46.5549" lon="5.4948">
        <ele>497.8</ele>
        <time>2022-04-19T13:52:37Z</time>
      </trkpt>
      <trkpt lat="46.55467" lon="5.49451">
        <ele>498.2</ele>
        <time>2022-04-19T13:52:42Z</time>
      </trkpt>
      <trkpt lat="46.55454" lon="5.49435">
        <ele>498.6</ele>
        <time>2022-04-19T13:52:45Z</time>
      </trkpt>
      <trkpt lat="46.55428" lon="5.49405">
        <ele>499.6</ele>
        <time>2022-04-19T13:52:51Z</time>
      </trkpt>
      <trkpt lat="46.5542" lon="5.49396">
        <ele>500</ele>
        <time>2022-04-19T13:52:53Z</time>
      </trkpt>
      <trkpt lat="46.55403" lon="5.49382">
        <ele>500.6</ele>
        <time>2022-04-19T13:52:57Z</time>
      </trkpt>
      <trkpt lat="46.55389" lon="5.4937">
        <ele>501.4</ele>
        <time>2022-04-19T13:53:00Z</time>
      </trkpt>
      <trkpt lat="46.55378" lon="5.49361">
        <ele>502</ele>
        <time>2022-04-19T13:53:02Z</time>
      </trkpt>
      <trkpt lat="46.55351" lon="5.49347">
        <ele>502.8</ele>
        <time>2022-04-19T13:53:07Z</time>
      </trkpt>
      <trkpt lat="46.55322" lon="5.49339">
        <ele>503</ele>
        <time>2022-04-19T13:53:12Z</time>
      </trkpt>
      <trkpt lat="46.55316" lon="5.49338">
        <ele>503</ele>
        <time>2022-04-19T13:53:13Z</time>
      </trkpt>
      <trkpt lat="46.55273" lon="5.49322">
        <ele>503.2</ele>
        <time>2022-04-19T13:53:20Z</time>
      </trkpt>
      <trkpt lat="46.55268" lon="5.49318">
        <ele>503.4</ele>
        <time>2022-04-19T13:53:21Z</time>
      </trkpt>
      <trkpt lat="46.55249" lon="5.49297">
        <ele>503.8</ele>
        <time>2022-04-19T13:53:25Z</time>
      </trkpt>
      <trkpt lat="46.55235" lon="5.49281">
        <ele>504</ele>
        <time>2022-04-19T13:53:28Z</time>
      </trkpt>
      <trkpt lat="46.55201" lon="5.4924">
        <ele>504.8</ele>
        <time>2022-04-19T13:53:36Z</time>
      </trkpt>
      <trkpt lat="46.55197" lon="5.49235">
        <ele>505.2</ele>
        <time>2022-04-19T13:53:37Z</time>
      </trkpt>
      <trkpt lat="46.55174" lon="5.49204">
        <ele>506.2</ele>
        <time>2022-04-19T13:53:43Z</time>
      </trkpt>
      <trkpt lat="46.55167" lon="5.49194">
        <ele>506.6</ele>
        <time>2022-04-19T13:53:45Z</time>
      </trkpt>
      <trkpt lat="46.5516" lon="5.49184">
        <ele>506.8</ele>
        <time>2022-04-19T13:53:47Z</time>
      </trkpt>
      <trkpt lat="46.55155" lon="5.49171">
        <ele>507.2</ele>
        <time>2022-04-19T13:53:49Z</time>
      </trkpt>
      <trkpt lat="46.55154" lon="5.49165">
        <ele>507.2</ele>
        <time>2022-04-19T13:53:50Z</time>
      </trkpt>
      <trkpt lat="46.55152" lon="5.49125">
        <ele>507.6</ele>
        <time>2022-04-19T13:53:55Z</time>
      </trkpt>
      <trkpt lat="46.55152" lon="5.4906">
        <ele>507.8</ele>
        <time>2022-04-19T13:54:02Z</time>
      </trkpt>
      <trkpt lat="46.55153" lon="5.48981">
        <ele>508</ele>
        <time>2022-04-19T13:54:10Z</time>
      </trkpt>
      <trkpt lat="46.55154" lon="5.48948">
        <ele>508.2</ele>
        <time>2022-04-19T13:54:14Z</time>
      </trkpt>
      <trkpt lat="46.55153" lon="5.48939">
        <ele>508.6</ele>
        <time>2022-04-19T13:54:15Z</time>
      </trkpt>
      <trkpt lat="46.55153" lon="5.48893">
        <ele>509.8</ele>
        <time>2022-04-19T13:54:21Z</time>
      </trkpt>
      <trkpt lat="46.55154" lon="5.48885">
        <ele>510</ele>
        <time>2022-04-19T13:54:22Z</time>
      </trkpt>
      <trkpt lat="46.55154" lon="5.48856">
        <ele>510.8</ele>
        <time>2022-04-19T13:54:26Z</time>
      </trkpt>
      <trkpt lat="46.55155" lon="5.48836">
        <ele>511.6</ele>
        <time>2022-04-19T13:54:29Z</time>
      </trkpt>
      <trkpt lat="46.55154" lon="5.48822">
        <ele>512</ele>
        <time>2022-04-19T13:54:31Z</time>
      </trkpt>
      <trkpt lat="46.55151" lon="5.48793">
        <ele>513</ele>
        <time>2022-04-19T13:54:35Z</time>
      </trkpt>
      <trkpt lat="46.55149" lon="5.48785">
        <ele>513.2</ele>
        <time>2022-04-19T13:54:36Z</time>
      </trkpt>
      <trkpt lat="46.55136" lon="5.48747">
        <ele>513.8</ele>
        <time>2022-04-19T13:54:41Z</time>
      </trkpt>
      <trkpt lat="46.55119" lon="5.48718">
        <ele>514.2</ele>
        <time>2022-04-19T13:54:45Z</time>
      </trkpt>
      <trkpt lat="46.55114" lon="5.48711">
        <ele>514.2</ele>
        <time>2022-04-19T13:54:46Z</time>
      </trkpt>
      <trkpt lat="46.55086" lon="5.48681">
        <ele>514.6</ele>
        <time>2022-04-19T13:54:51Z</time>
      </trkpt>
      <trkpt lat="46.55041" lon="5.48646">
        <ele>514.6</ele>
        <time>2022-04-19T13:54:58Z</time>
      </trkpt>
      <trkpt lat="46.54993" lon="5.48601">
        <ele>514.8</ele>
        <time>2022-04-19T13:55:06Z</time>
      </trkpt>
      <trkpt lat="46.5495" lon="5.48548">
        <ele>514.8</ele>
        <time>2022-04-19T13:55:14Z</time>
      </trkpt>
      <trkpt lat="46.54916" lon="5.48512">
        <ele>514.4</ele>
        <time>2022-04-19T13:55:19Z</time>
      </trkpt>
      <trkpt lat="46.54876" lon="5.48478">
        <ele>513.4</ele>
        <time>2022-04-19T13:55:24Z</time>
      </trkpt>
      <trkpt lat="46.54858" lon="5.48468">
        <ele>513</ele>
        <time>2022-04-19T13:55:26Z</time>
      </trkpt>
      <trkpt lat="46.54831" lon="5.48453">
        <ele>512</ele>
        <time>2022-04-19T13:55:29Z</time>
      </trkpt>
      <trkpt lat="46.54821" lon="5.48447">
        <ele>511.8</ele>
        <time>2022-04-19T13:55:30Z</time>
      </trkpt>
      <trkpt lat="46.54783" lon="5.48428">
        <ele>510.6</ele>
        <time>2022-04-19T13:55:34Z</time>
      </trkpt>
      <trkpt lat="46.54774" lon="5.48424">
        <ele>510.4</ele>
        <time>2022-04-19T13:55:35Z</time>
      </trkpt>
      <trkpt lat="46.54745" lon="5.48412">
        <ele>509.4</ele>
        <time>2022-04-19T13:55:38Z</time>
      </trkpt>
      <trkpt lat="46.54696" lon="5.48392">
        <ele>508.4</ele>
        <time>2022-04-19T13:55:43Z</time>
      </trkpt>
      <trkpt lat="46.54646" lon="5.48372">
        <ele>507</ele>
        <time>2022-04-19T13:55:48Z</time>
      </trkpt>
      <trkpt lat="46.54617" lon="5.4836">
        <ele>505.8</ele>
        <time>2022-04-19T13:55:51Z</time>
      </trkpt>
      <trkpt lat="46.54608" lon="5.48355">
        <ele>505.4</ele>
        <time>2022-04-19T13:55:52Z</time>
      </trkpt>
      <trkpt lat="46.54589" lon="5.48345">
        <ele>504.6</ele>
        <time>2022-04-19T13:55:54Z</time>
      </trkpt>
      <trkpt lat="46.54554" lon="5.4832">
        <ele>503.4</ele>
        <time>2022-04-19T13:55:58Z</time>
      </trkpt>
      <trkpt lat="46.54528" lon="5.48298">
        <ele>502.2</ele>
        <time>2022-04-19T13:56:01Z</time>
      </trkpt>
      <trkpt lat="46.54492" lon="5.48267">
        <ele>501.6</ele>
        <time>2022-04-19T13:56:05Z</time>
      </trkpt>
      <trkpt lat="46.54483" lon="5.4826">
        <ele>501</ele>
        <time>2022-04-19T13:56:06Z</time>
      </trkpt>
      <trkpt lat="46.54456" lon="5.48238">
        <ele>499.6</ele>
        <time>2022-04-19T13:56:09Z</time>
      </trkpt>
      <trkpt lat="46.54428" lon="5.48215">
        <ele>498.8</ele>
        <time>2022-04-19T13:56:12Z</time>
      </trkpt>
      <trkpt lat="46.54419" lon="5.48209">
        <ele>498.4</ele>
        <time>2022-04-19T13:56:13Z</time>
      </trkpt>
      <trkpt lat="46.54369" lon="5.4818">
        <ele>497.4</ele>
        <time>2022-04-19T13:56:18Z</time>
      </trkpt>
      <trkpt lat="46.54309" lon="5.48149">
        <ele>496.4</ele>
        <time>2022-04-19T13:56:24Z</time>
      </trkpt>
      <trkpt lat="46.5429" lon="5.48138">
        <ele>495.4</ele>
        <time>2022-04-19T13:56:26Z</time>
      </trkpt>
      <trkpt lat="46.5428" lon="5.48132">
        <ele>495.2</ele>
        <time>2022-04-19T13:56:27Z</time>
      </trkpt>
      <trkpt lat="46.54252" lon="5.48111">
        <ele>494.2</ele>
        <time>2022-04-19T13:56:30Z</time>
      </trkpt>
      <trkpt lat="46.54234" lon="5.48092">
        <ele>493.6</ele>
        <time>2022-04-19T13:56:32Z</time>
      </trkpt>
      <trkpt lat="46.54217" lon="5.48071">
        <ele>493</ele>
        <time>2022-04-19T13:56:34Z</time>
      </trkpt>
      <trkpt lat="46.54192" lon="5.48037">
        <ele>492.2</ele>
        <time>2022-04-19T13:56:37Z</time>
      </trkpt>
      <trkpt lat="46.54185" lon="5.48025">
        <ele>491.8</ele>
        <time>2022-04-19T13:56:38Z</time>
      </trkpt>
      <trkpt lat="46.54143" lon="5.47969">
        <ele>490.8</ele>
        <time>2022-04-19T13:56:43Z</time>
      </trkpt>
      <trkpt lat="46.54114" lon="5.47942">
        <ele>489.6</ele>
        <time>2022-04-19T13:56:46Z</time>
      </trkpt>
      <trkpt lat="46.54104" lon="5.47935">
        <ele>489.4</ele>
        <time>2022-04-19T13:56:47Z</time>
      </trkpt>
      <trkpt lat="46.54052" lon="5.47906">
        <ele>488.2</ele>
        <time>2022-04-19T13:56:52Z</time>
      </trkpt>
      <trkpt lat="46.54041" lon="5.479">
        <ele>488</ele>
        <time>2022-04-19T13:56:53Z</time>
      </trkpt>
      <trkpt lat="46.54007" lon="5.47886">
        <ele>487.2</ele>
        <time>2022-04-19T13:56:56Z</time>
      </trkpt>
      <trkpt lat="46.53974" lon="5.47871">
        <ele>485.6</ele>
        <time>2022-04-19T13:56:59Z</time>
      </trkpt>
      <trkpt lat="46.53963" lon="5.47865">
        <ele>485.2</ele>
        <time>2022-04-19T13:57:00Z</time>
      </trkpt>
      <trkpt lat="46.5394" lon="5.47855">
        <ele>484.6</ele>
        <time>2022-04-19T13:57:02Z</time>
      </trkpt>
      <trkpt lat="46.53906" lon="5.4784">
        <ele>483.4</ele>
        <time>2022-04-19T13:57:05Z</time>
      </trkpt>
      <trkpt lat="46.53862" lon="5.47819">
        <ele>482.4</ele>
        <time>2022-04-19T13:57:09Z</time>
      </trkpt>
      <trkpt lat="46.53808" lon="5.47796">
        <ele>481.4</ele>
        <time>2022-04-19T13:57:14Z</time>
      </trkpt>
      <trkpt lat="46.53753" lon="5.47789">
        <ele>480.4</ele>
        <time>2022-04-19T13:57:19Z</time>
      </trkpt>
      <trkpt lat="46.53707" lon="5.47789">
        <ele>479.2</ele>
        <time>2022-04-19T13:57:23Z</time>
      </trkpt>
      <trkpt lat="46.5366" lon="5.47791">
        <ele>478.2</ele>
        <time>2022-04-19T13:57:27Z</time>
      </trkpt>
      <trkpt lat="46.53648" lon="5.47792">
        <ele>477.4</ele>
        <time>2022-04-19T13:57:28Z</time>
      </trkpt>
      <trkpt lat="46.53624" lon="5.47797">
        <ele>477</ele>
        <time>2022-04-19T13:57:30Z</time>
      </trkpt>
      <trkpt lat="46.5359" lon="5.47808">
        <ele>475.8</ele>
        <time>2022-04-19T13:57:33Z</time>
      </trkpt>
      <trkpt lat="46.53567" lon="5.47819">
        <ele>474.6</ele>
        <time>2022-04-19T13:57:35Z</time>
      </trkpt>
      <trkpt lat="46.53533" lon="5.47835">
        <ele>473.6</ele>
        <time>2022-04-19T13:57:38Z</time>
      </trkpt>
      <trkpt lat="46.53521" lon="5.47841">
        <ele>473</ele>
        <time>2022-04-19T13:57:39Z</time>
      </trkpt>
      <trkpt lat="46.53487" lon="5.47857">
        <ele>472.4</ele>
        <time>2022-04-19T13:57:42Z</time>
      </trkpt>
      <trkpt lat="46.53464" lon="5.47867">
        <ele>471.2</ele>
        <time>2022-04-19T13:57:44Z</time>
      </trkpt>
      <trkpt lat="46.53433" lon="5.47882">
        <ele>470.4</ele>
        <time>2022-04-19T13:57:47Z</time>
      </trkpt>
      <trkpt lat="46.53422" lon="5.47888">
        <ele>469.6</ele>
        <time>2022-04-19T13:57:48Z</time>
      </trkpt>
      <trkpt lat="46.53409" lon="5.47894">
        <ele>468.8</ele>
        <time>2022-04-19T13:57:49Z</time>
      </trkpt>
      <trkpt lat="46.53366" lon="5.47915">
        <ele>467.6</ele>
        <time>2022-04-19T13:57:53Z</time>
      </trkpt>
      <trkpt lat="46.53325" lon="5.47934">
        <ele>466.8</ele>
        <time>2022-04-19T13:57:57Z</time>
      </trkpt>
      <trkpt lat="46.53315" lon="5.47939">
        <ele>466.6</ele>
        <time>2022-04-19T13:57:58Z</time>
      </trkpt>
      <trkpt lat="46.53266" lon="5.47963">
        <ele>465.2</ele>
        <time>2022-04-19T13:58:03Z</time>
      </trkpt>
      <trkpt lat="46.53256" lon="5.47967">
        <ele>465.2</ele>
        <time>2022-04-19T13:58:04Z</time>
      </trkpt>
      <trkpt lat="46.53199" lon="5.47985">
        <ele>464.4</ele>
        <time>2022-04-19T13:58:10Z</time>
      </trkpt>
      <trkpt lat="46.53177" lon="5.47989">
        <ele>464.2</ele>
        <time>2022-04-19T13:58:12Z</time>
      </trkpt>
      <trkpt lat="46.53157" lon="5.47992">
        <ele>464</ele>
        <time>2022-04-19T13:58:14Z</time>
      </trkpt>
      <trkpt lat="46.5311" lon="5.47998">
        <ele>463</ele>
        <time>2022-04-19T13:58:19Z</time>
      </trkpt>
      <trkpt lat="46.53098" lon="5.48">
        <ele>463</ele>
        <time>2022-04-19T13:58:20Z</time>
      </trkpt>
      <trkpt lat="46.53039" lon="5.48007">
        <ele>462.2</ele>
        <time>2022-04-19T13:58:26Z</time>
      </trkpt>
      <trkpt lat="46.53013" lon="5.48007">
        <ele>462.2</ele>
        <time>2022-04-19T13:58:29Z</time>
      </trkpt>
      <trkpt lat="46.52974" lon="5.47995">
        <ele>462</ele>
        <time>2022-04-19T13:58:34Z</time>
      </trkpt>
      <trkpt lat="46.52934" lon="5.47972">
        <ele>462.6</ele>
        <time>2022-04-19T13:58:39Z</time>
      </trkpt>
      <trkpt lat="46.52882" lon="5.47943">
        <ele>463.2</ele>
        <time>2022-04-19T13:58:46Z</time>
      </trkpt>
      <trkpt lat="46.52875" lon="5.4794">
        <ele>463.2</ele>
        <time>2022-04-19T13:58:47Z</time>
      </trkpt>
      <trkpt lat="46.52846" lon="5.4793">
        <ele>463.2</ele>
        <time>2022-04-19T13:58:51Z</time>
      </trkpt>
      <trkpt lat="46.52792" lon="5.47911">
        <ele>463.2</ele>
        <time>2022-04-19T13:58:58Z</time>
      </trkpt>
      <trkpt lat="46.52777" lon="5.47906">
        <ele>463.2</ele>
        <time>2022-04-19T13:59:00Z</time>
      </trkpt>
      <trkpt lat="46.52724" lon="5.47886">
        <ele>463</ele>
        <time>2022-04-19T13:59:07Z</time>
      </trkpt>
      <trkpt lat="46.52716" lon="5.47883">
        <ele>462.6</ele>
        <time>2022-04-19T13:59:08Z</time>
      </trkpt>
      <trkpt lat="46.52662" lon="5.47863">
        <ele>462.6</ele>
        <time>2022-04-19T13:59:15Z</time>
      </trkpt>
      <trkpt lat="46.52613" lon="5.47845">
        <ele>462.2</ele>
        <time>2022-04-19T13:59:21Z</time>
      </trkpt>
      <trkpt lat="46.52572" lon="5.4783">
        <ele>462.2</ele>
        <time>2022-04-19T13:59:26Z</time>
      </trkpt>
      <trkpt lat="46.52529" lon="5.47815">
        <ele>461</ele>
        <time>2022-04-19T13:59:31Z</time>
      </trkpt>
      <trkpt lat="46.52505" lon="5.47807">
        <ele>460.8</ele>
        <time>2022-04-19T13:59:34Z</time>
      </trkpt>
      <trkpt lat="46.52463" lon="5.47793">
        <ele>460</ele>
        <time>2022-04-19T13:59:39Z</time>
      </trkpt>
      <trkpt lat="46.52446" lon="5.47786">
        <ele>459.8</ele>
        <time>2022-04-19T13:59:41Z</time>
      </trkpt>
      <trkpt lat="46.52403" lon="5.47767">
        <ele>458.8</ele>
        <time>2022-04-19T13:59:46Z</time>
      </trkpt>
      <trkpt lat="46.52378" lon="5.47756">
        <ele>458.4</ele>
        <time>2022-04-19T13:59:49Z</time>
      </trkpt>
      <trkpt lat="46.52355" lon="5.47746">
        <ele>458</ele>
        <time>2022-04-19T13:59:52Z</time>
      </trkpt>
      <trkpt lat="46.52337" lon="5.47738">
        <ele>457.8</ele>
        <time>2022-04-19T13:59:54Z</time>
      </trkpt>
      <trkpt lat="46.52304" lon="5.47723">
        <ele>457.6</ele>
        <time>2022-04-19T13:59:58Z</time>
      </trkpt>
      <trkpt lat="46.52247" lon="5.47696">
        <ele>457</ele>
        <time>2022-04-19T14:00:05Z</time>
      </trkpt>
      <trkpt lat="46.52233" lon="5.47688">
        <ele>457</ele>
        <time>2022-04-19T14:00:07Z</time>
      </trkpt>
      <trkpt lat="46.5219" lon="5.47668">
        <ele>456.8</ele>
        <time>2022-04-19T14:00:12Z</time>
      </trkpt>
      <trkpt lat="46.52158" lon="5.47651">
        <ele>456.8</ele>
        <time>2022-04-19T14:00:16Z</time>
      </trkpt>
      <trkpt lat="46.52103" lon="5.47622">
        <ele>456.8</ele>
        <time>2022-04-19T14:00:23Z</time>
      </trkpt>
      <trkpt lat="46.52097" lon="5.47619">
        <ele>456.8</ele>
        <time>2022-04-19T14:00:24Z</time>
      </trkpt>
      <trkpt lat="46.52036" lon="5.47597">
        <ele>457</ele>
        <time>2022-04-19T14:00:31Z</time>
      </trkpt>
      <trkpt lat="46.52027" lon="5.47594">
        <ele>457</ele>
        <time>2022-04-19T14:00:32Z</time>
      </trkpt>
      <trkpt lat="46.51986" lon="5.47575">
        <ele>456.8</ele>
        <time>2022-04-19T14:00:37Z</time>
      </trkpt>
      <trkpt lat="46.51932" lon="5.47555">
        <ele>456.6</ele>
        <time>2022-04-19T14:00:43Z</time>
      </trkpt>
      <trkpt lat="46.51915" lon="5.47548">
        <ele>456.4</ele>
        <time>2022-04-19T14:00:45Z</time>
      </trkpt>
      <trkpt lat="46.51861" lon="5.47526">
        <ele>456.2</ele>
        <time>2022-04-19T14:00:51Z</time>
      </trkpt>
      <trkpt lat="46.51834" lon="5.47515">
        <ele>456.2</ele>
        <time>2022-04-19T14:00:54Z</time>
      </trkpt>
      <trkpt lat="46.51774" lon="5.47491">
        <ele>456.2</ele>
        <time>2022-04-19T14:01:01Z</time>
      </trkpt>
      <trkpt lat="46.51718" lon="5.47469">
        <ele>456</ele>
        <time>2022-04-19T14:01:07Z</time>
      </trkpt>
      <trkpt lat="46.51702" lon="5.47463">
        <ele>455.8</ele>
        <time>2022-04-19T14:01:09Z</time>
      </trkpt>
      <trkpt lat="46.51667" lon="5.47448">
        <ele>455.4</ele>
        <time>2022-04-19T14:01:13Z</time>
      </trkpt>
      <trkpt lat="46.51612" lon="5.47426">
        <ele>455.2</ele>
        <time>2022-04-19T14:01:19Z</time>
      </trkpt>
      <trkpt lat="46.51587" lon="5.47416">
        <ele>455</ele>
        <time>2022-04-19T14:01:22Z</time>
      </trkpt>
      <trkpt lat="46.5155" lon="5.474">
        <ele>454.6</ele>
        <time>2022-04-19T14:01:26Z</time>
      </trkpt>
      <trkpt lat="46.51515" lon="5.47386">
        <ele>454.4</ele>
        <time>2022-04-19T14:01:30Z</time>
      </trkpt>
      <trkpt lat="46.51455" lon="5.47362">
        <ele>454</ele>
        <time>2022-04-19T14:01:37Z</time>
      </trkpt>
      <trkpt lat="46.51423" lon="5.47349">
        <ele>453.6</ele>
        <time>2022-04-19T14:01:41Z</time>
      </trkpt>
      <trkpt lat="46.51403" lon="5.47341">
        <ele>453.4</ele>
        <time>2022-04-19T14:01:43Z</time>
      </trkpt>
      <trkpt lat="46.5135" lon="5.47319">
        <ele>453.4</ele>
        <time>2022-04-19T14:01:49Z</time>
      </trkpt>
      <trkpt lat="46.51341" lon="5.47316">
        <ele>453.4</ele>
        <time>2022-04-19T14:01:50Z</time>
      </trkpt>
      <trkpt lat="46.51287" lon="5.47295">
        <ele>453.2</ele>
        <time>2022-04-19T14:01:56Z</time>
      </trkpt>
      <trkpt lat="46.51271" lon="5.47288">
        <ele>453.2</ele>
        <time>2022-04-19T14:01:58Z</time>
      </trkpt>
      <trkpt lat="46.51218" lon="5.47266">
        <ele>453.2</ele>
        <time>2022-04-19T14:02:04Z</time>
      </trkpt>
      <trkpt lat="46.51192" lon="5.47256">
        <ele>453.2</ele>
        <time>2022-04-19T14:02:07Z</time>
      </trkpt>
      <trkpt lat="46.51135" lon="5.47233">
        <ele>453.2</ele>
        <time>2022-04-19T14:02:14Z</time>
      </trkpt>
      <trkpt lat="46.51118" lon="5.47227">
        <ele>453.2</ele>
        <time>2022-04-19T14:02:16Z</time>
      </trkpt>
      <trkpt lat="46.51064" lon="5.47207">
        <ele>453</ele>
        <time>2022-04-19T14:02:22Z</time>
      </trkpt>
      <trkpt lat="46.51057" lon="5.47204">
        <ele>453</ele>
        <time>2022-04-19T14:02:23Z</time>
      </trkpt>
      <trkpt lat="46.51003" lon="5.47184">
        <ele>453.2</ele>
        <time>2022-04-19T14:02:29Z</time>
      </trkpt>
      <trkpt lat="46.5097" lon="5.4717">
        <ele>453.2</ele>
        <time>2022-04-19T14:02:33Z</time>
      </trkpt>
      <trkpt lat="46.50914" lon="5.47144">
        <ele>453.4</ele>
        <time>2022-04-19T14:02:40Z</time>
      </trkpt>
      <trkpt lat="46.50856" lon="5.47118">
        <ele>453.6</ele>
        <time>2022-04-19T14:02:47Z</time>
      </trkpt>
      <trkpt lat="46.50848" lon="5.47115">
        <ele>453.6</ele>
        <time>2022-04-19T14:02:48Z</time>
      </trkpt>
      <trkpt lat="46.50796" lon="5.47094">
        <ele>453.6</ele>
        <time>2022-04-19T14:02:54Z</time>
      </trkpt>
      <trkpt lat="46.50772" lon="5.47084">
        <ele>453.4</ele>
        <time>2022-04-19T14:02:57Z</time>
      </trkpt>
      <trkpt lat="46.50718" lon="5.47062">
        <ele>452.8</ele>
        <time>2022-04-19T14:03:03Z</time>
      </trkpt>
      <trkpt lat="46.50701" lon="5.47056">
        <ele>452.6</ele>
        <time>2022-04-19T14:03:05Z</time>
      </trkpt>
      <trkpt lat="46.50675" lon="5.47047">
        <ele>452.4</ele>
        <time>2022-04-19T14:03:08Z</time>
      </trkpt>
      <trkpt lat="46.50616" lon="5.47029">
        <ele>451.8</ele>
        <time>2022-04-19T14:03:15Z</time>
      </trkpt>
      <trkpt lat="46.50607" lon="5.47027">
        <ele>451.6</ele>
        <time>2022-04-19T14:03:16Z</time>
      </trkpt>
      <trkpt lat="46.50553" lon="5.47009">
        <ele>451</ele>
        <time>2022-04-19T14:03:22Z</time>
      </trkpt>
      <trkpt lat="46.50513" lon="5.46995">
        <ele>450.6</ele>
        <time>2022-04-19T14:03:27Z</time>
      </trkpt>
      <trkpt lat="46.50458" lon="5.46976">
        <ele>450.8</ele>
        <time>2022-04-19T14:03:34Z</time>
      </trkpt>
      <trkpt lat="46.50408" lon="5.46962">
        <ele>451.4</ele>
        <time>2022-04-19T14:03:41Z</time>
      </trkpt>
      <trkpt lat="46.50363" lon="5.46959">
        <ele>452</ele>
        <time>2022-04-19T14:03:47Z</time>
      </trkpt>
      <trkpt lat="46.50333" lon="5.4696">
        <ele>452.6</ele>
        <time>2022-04-19T14:03:51Z</time>
      </trkpt>
      <trkpt lat="46.50309" lon="5.46961">
        <ele>453</ele>
        <time>2022-04-19T14:03:54Z</time>
      </trkpt>
      <trkpt lat="46.50288" lon="5.46963">
        <ele>453.4</ele>
        <time>2022-04-19T14:03:57Z</time>
      </trkpt>
      <trkpt lat="46.50266" lon="5.46963">
        <ele>453.8</ele>
        <time>2022-04-19T14:04:00Z</time>
      </trkpt>
      <trkpt lat="46.5022" lon="5.46969">
        <ele>454</ele>
        <time>2022-04-19T14:04:06Z</time>
      </trkpt>
      <trkpt lat="46.50194" lon="5.46973">
        <ele>454.2</ele>
        <time>2022-04-19T14:04:09Z</time>
      </trkpt>
      <trkpt lat="46.5017" lon="5.46982">
        <ele>454.2</ele>
        <time>2022-04-19T14:04:12Z</time>
      </trkpt>
      <trkpt lat="46.50111" lon="5.47006">
        <ele>454</ele>
        <time>2022-04-19T14:04:19Z</time>
      </trkpt>
      <trkpt lat="46.50052" lon="5.47022">
        <ele>453.8</ele>
        <time>2022-04-19T14:04:26Z</time>
      </trkpt>
      <trkpt lat="46.50007" lon="5.47022">
        <ele>453.2</ele>
        <time>2022-04-19T14:04:31Z</time>
      </trkpt>
      <trkpt lat="46.49953" lon="5.4701">
        <ele>452.4</ele>
        <time>2022-04-19T14:04:37Z</time>
      </trkpt>
      <trkpt lat="46.49936" lon="5.47006">
        <ele>452.2</ele>
        <time>2022-04-19T14:04:39Z</time>
      </trkpt>
      <trkpt lat="46.49874" lon="5.46992">
        <ele>451.8</ele>
        <time>2022-04-19T14:04:46Z</time>
      </trkpt>
      <trkpt lat="46.49856" lon="5.46988">
        <ele>451.6</ele>
        <time>2022-04-19T14:04:48Z</time>
      </trkpt>
      <trkpt lat="46.49838" lon="5.46985">
        <ele>451.4</ele>
        <time>2022-04-19T14:04:50Z</time>
      </trkpt>
      <trkpt lat="46.49784" lon="5.46975">
        <ele>450.6</ele>
        <time>2022-04-19T14:04:56Z</time>
      </trkpt>
      <trkpt lat="46.49775" lon="5.46973">
        <ele>450.4</ele>
        <time>2022-04-19T14:04:57Z</time>
      </trkpt>
      <trkpt lat="46.49719" lon="5.46963">
        <ele>449.4</ele>
        <time>2022-04-19T14:05:03Z</time>
      </trkpt>
      <trkpt lat="46.49711" lon="5.46962">
        <ele>449.6</ele>
        <time>2022-04-19T14:05:04Z</time>
      </trkpt>
      <trkpt lat="46.49681" lon="5.46957">
        <ele>449</ele>
        <time>2022-04-19T14:05:07Z</time>
      </trkpt>
      <trkpt lat="46.49623" lon="5.46944">
        <ele>448.4</ele>
        <time>2022-04-19T14:05:13Z</time>
      </trkpt>
      <trkpt lat="46.49613" lon="5.46941">
        <ele>448</ele>
        <time>2022-04-19T14:05:14Z</time>
      </trkpt>
      <trkpt lat="46.49574" lon="5.46928">
        <ele>447</ele>
        <time>2022-04-19T14:05:18Z</time>
      </trkpt>
      <trkpt lat="46.49545" lon="5.46916">
        <ele>446.4</ele>
        <time>2022-04-19T14:05:21Z</time>
      </trkpt>
      <trkpt lat="46.49518" lon="5.46904">
        <ele>445.8</ele>
        <time>2022-04-19T14:05:24Z</time>
      </trkpt>
      <trkpt lat="46.49477" lon="5.46884">
        <ele>444.8</ele>
        <time>2022-04-19T14:05:28Z</time>
      </trkpt>
      <trkpt lat="46.49457" lon="5.46873">
        <ele>444</ele>
        <time>2022-04-19T14:05:30Z</time>
      </trkpt>
      <trkpt lat="46.49426" lon="5.46857">
        <ele>443.6</ele>
        <time>2022-04-19T14:05:33Z</time>
      </trkpt>
      <trkpt lat="46.49374" lon="5.4683">
        <ele>442.6</ele>
        <time>2022-04-19T14:05:38Z</time>
      </trkpt>
      <trkpt lat="46.49341" lon="5.46812">
        <ele>441.4</ele>
        <time>2022-04-19T14:05:41Z</time>
      </trkpt>
      <trkpt lat="46.49308" lon="5.46793">
        <ele>440.2</ele>
        <time>2022-04-19T14:05:44Z</time>
      </trkpt>
      <trkpt lat="46.49276" lon="5.46774">
        <ele>439</ele>
        <time>2022-04-19T14:05:47Z</time>
      </trkpt>
      <trkpt lat="46.49253" lon="5.46761">
        <ele>437.8</ele>
        <time>2022-04-19T14:05:49Z</time>
      </trkpt>
      <trkpt lat="46.49228" lon="5.46748">
        <ele>436.2</ele>
        <time>2022-04-19T14:05:51Z</time>
      </trkpt>
      <trkpt lat="46.49216" lon="5.46743">
        <ele>436</ele>
        <time>2022-04-19T14:05:52Z</time>
      </trkpt>
      <trkpt lat="46.49191" lon="5.4674">
        <ele>435.2</ele>
        <time>2022-04-19T14:05:54Z</time>
      </trkpt>
      <trkpt lat="46.49179" lon="5.46741">
        <ele>434.8</ele>
        <time>2022-04-19T14:05:55Z</time>
      </trkpt>
      <trkpt lat="46.49169" lon="5.46743">
        <ele>434.2</ele>
        <time>2022-04-19T14:05:56Z</time>
      </trkpt>
      <trkpt lat="46.49143" lon="5.46755">
        <ele>432.8</ele>
        <time>2022-04-19T14:05:58Z</time>
      </trkpt>
      <trkpt lat="46.49121" lon="5.46771">
        <ele>431.4</ele>
        <time>2022-04-19T14:06:00Z</time>
      </trkpt>
      <trkpt lat="46.491" lon="5.46791">
        <ele>430.2</ele>
        <time>2022-04-19T14:06:02Z</time>
      </trkpt>
      <trkpt lat="46.49078" lon="5.4681">
        <ele>428.6</ele>
        <time>2022-04-19T14:06:04Z</time>
      </trkpt>
      <trkpt lat="46.49056" lon="5.4683">
        <ele>427.4</ele>
        <time>2022-04-19T14:06:06Z</time>
      </trkpt>
      <trkpt lat="46.49034" lon="5.4685">
        <ele>426.6</ele>
        <time>2022-04-19T14:06:08Z</time>
      </trkpt>
      <trkpt lat="46.49023" lon="5.4686">
        <ele>426</ele>
        <time>2022-04-19T14:06:09Z</time>
      </trkpt>
      <trkpt lat="46.49" lon="5.46881">
        <ele>424.6</ele>
        <time>2022-04-19T14:06:11Z</time>
      </trkpt>
      <trkpt lat="46.48988" lon="5.46891">
        <ele>423.2</ele>
        <time>2022-04-19T14:06:12Z</time>
      </trkpt>
      <trkpt lat="46.48967" lon="5.46906">
        <ele>421.8</ele>
        <time>2022-04-19T14:06:14Z</time>
      </trkpt>
      <trkpt lat="46.48937" lon="5.46917">
        <ele>420.8</ele>
        <time>2022-04-19T14:06:16Z</time>
      </trkpt>
      <trkpt lat="46.48923" lon="5.46918">
        <ele>420.4</ele>
        <time>2022-04-19T14:06:17Z</time>
      </trkpt>
      <trkpt lat="46.48909" lon="5.46917">
        <ele>419.2</ele>
        <time>2022-04-19T14:06:18Z</time>
      </trkpt>
      <trkpt lat="46.48884" lon="5.46912">
        <ele>417.2</ele>
        <time>2022-04-19T14:06:20Z</time>
      </trkpt>
      <trkpt lat="46.4887" lon="5.46908">
        <ele>415</ele>
        <time>2022-04-19T14:06:21Z</time>
      </trkpt>
      <trkpt lat="46.48843" lon="5.46897">
        <ele>413.2</ele>
        <time>2022-04-19T14:06:23Z</time>
      </trkpt>
      <trkpt lat="46.48817" lon="5.46884">
        <ele>412</ele>
        <time>2022-04-19T14:06:25Z</time>
      </trkpt>
      <trkpt lat="46.48791" lon="5.46869">
        <ele>410.6</ele>
        <time>2022-04-19T14:06:27Z</time>
      </trkpt>
      <trkpt lat="46.48779" lon="5.46862">
        <ele>409.2</ele>
        <time>2022-04-19T14:06:28Z</time>
      </trkpt>
      <trkpt lat="46.48754" lon="5.46846">
        <ele>408</ele>
        <time>2022-04-19T14:06:30Z</time>
      </trkpt>
      <trkpt lat="46.48728" lon="5.4683">
        <ele>406.6</ele>
        <time>2022-04-19T14:06:32Z</time>
      </trkpt>
      <trkpt lat="46.48715" lon="5.46822">
        <ele>406.2</ele>
        <time>2022-04-19T14:06:33Z</time>
      </trkpt>
      <trkpt lat="46.4869" lon="5.46807">
        <ele>404.8</ele>
        <time>2022-04-19T14:06:35Z</time>
      </trkpt>
      <trkpt lat="46.48665" lon="5.46793">
        <ele>403.4</ele>
        <time>2022-04-19T14:06:37Z</time>
      </trkpt>
      <trkpt lat="46.48641" lon="5.46778">
        <ele>402.4</ele>
        <time>2022-04-19T14:06:39Z</time>
      </trkpt>
      <trkpt lat="46.48617" lon="5.46764">
        <ele>401.2</ele>
        <time>2022-04-19T14:06:41Z</time>
      </trkpt>
      <trkpt lat="46.48593" lon="5.4675">
        <ele>400.4</ele>
        <time>2022-04-19T14:06:43Z</time>
      </trkpt>
      <trkpt lat="46.48582" lon="5.46743">
        <ele>400</ele>
        <time>2022-04-19T14:06:44Z</time>
      </trkpt>
      <trkpt lat="46.48538" lon="5.46717">
        <ele>398.6</ele>
        <time>2022-04-19T14:06:48Z</time>
      </trkpt>
      <trkpt lat="46.48495" lon="5.46692">
        <ele>397.4</ele>
        <time>2022-04-19T14:06:52Z</time>
      </trkpt>
      <trkpt lat="46.48464" lon="5.46672">
        <ele>396</ele>
        <time>2022-04-19T14:06:55Z</time>
      </trkpt>
      <trkpt lat="46.4841" lon="5.4664">
        <ele>395</ele>
        <time>2022-04-19T14:07:00Z</time>
      </trkpt>
      <trkpt lat="46.4837" lon="5.46616">
        <ele>394.8</ele>
        <time>2022-04-19T14:07:04Z</time>
      </trkpt>
      <trkpt lat="46.48311" lon="5.4659">
        <ele>394.4</ele>
        <time>2022-04-19T14:07:10Z</time>
      </trkpt>
      <trkpt lat="46.48253" lon="5.46579">
        <ele>394.4</ele>
        <time>2022-04-19T14:07:16Z</time>
      </trkpt>
      <trkpt lat="46.48222" lon="5.46574">
        <ele>394.4</ele>
        <time>2022-04-19T14:07:19Z</time>
      </trkpt>
      <trkpt lat="46.48165" lon="5.46564">
        <ele>394.8</ele>
        <time>2022-04-19T14:07:25Z</time>
      </trkpt>
      <trkpt lat="46.48127" lon="5.46557">
        <ele>395</ele>
        <time>2022-04-19T14:07:29Z</time>
      </trkpt>
      <trkpt lat="46.48072" lon="5.46547">
        <ele>395.2</ele>
        <time>2022-04-19T14:07:35Z</time>
      </trkpt>
      <trkpt lat="46.48063" lon="5.46545">
        <ele>395.2</ele>
        <time>2022-04-19T14:07:36Z</time>
      </trkpt>
      <trkpt lat="46.48008" lon="5.46536">
        <ele>395.2</ele>
        <time>2022-04-19T14:07:42Z</time>
      </trkpt>
      <trkpt lat="46.47962" lon="5.46527">
        <ele>395.2</ele>
        <time>2022-04-19T14:07:47Z</time>
      </trkpt>
      <trkpt lat="46.47915" lon="5.46519">
        <ele>395.4</ele>
        <time>2022-04-19T14:07:52Z</time>
      </trkpt>
      <trkpt lat="46.47887" lon="5.46514">
        <ele>395.4</ele>
        <time>2022-04-19T14:07:55Z</time>
      </trkpt>
      <trkpt lat="46.47832" lon="5.46504">
        <ele>395</ele>
        <time>2022-04-19T14:08:01Z</time>
      </trkpt>
      <trkpt lat="46.47793" lon="5.46497">
        <ele>395</ele>
        <time>2022-04-19T14:08:05Z</time>
      </trkpt>
      <trkpt lat="46.47735" lon="5.46487">
        <ele>395</ele>
        <time>2022-04-19T14:08:11Z</time>
      </trkpt>
      <trkpt lat="46.47706" lon="5.46481">
        <ele>394.6</ele>
        <time>2022-04-19T14:08:14Z</time>
      </trkpt>
      <trkpt lat="46.47648" lon="5.46471">
        <ele>394.6</ele>
        <time>2022-04-19T14:08:20Z</time>
      </trkpt>
      <trkpt lat="46.47598" lon="5.46462">
        <ele>394.6</ele>
        <time>2022-04-19T14:08:25Z</time>
      </trkpt>
      <trkpt lat="46.47588" lon="5.4646">
        <ele>394.4</ele>
        <time>2022-04-19T14:08:26Z</time>
      </trkpt>
      <trkpt lat="46.47527" lon="5.46449">
        <ele>394.2</ele>
        <time>2022-04-19T14:08:32Z</time>
      </trkpt>
      <trkpt lat="46.47506" lon="5.46445">
        <ele>394</ele>
        <time>2022-04-19T14:08:34Z</time>
      </trkpt>
      <trkpt lat="46.47474" lon="5.46439">
        <ele>393.6</ele>
        <time>2022-04-19T14:08:37Z</time>
      </trkpt>
      <trkpt lat="46.47463" lon="5.46437">
        <ele>393.4</ele>
        <time>2022-04-19T14:08:38Z</time>
      </trkpt>
      <trkpt lat="46.47409" lon="5.46427">
        <ele>392.8</ele>
        <time>2022-04-19T14:08:43Z</time>
      </trkpt>
      <trkpt lat="46.47387" lon="5.46423">
        <ele>392.4</ele>
        <time>2022-04-19T14:08:45Z</time>
      </trkpt>
      <trkpt lat="46.47378" lon="5.46421">
        <ele>392.2</ele>
        <time>2022-04-19T14:08:46Z</time>
      </trkpt>
      <trkpt lat="46.47322" lon="5.46412">
        <ele>391.8</ele>
        <time>2022-04-19T14:08:51Z</time>
      </trkpt>
      <trkpt lat="46.47288" lon="5.46406">
        <ele>391.6</ele>
        <time>2022-04-19T14:08:54Z</time>
      </trkpt>
      <trkpt lat="46.47263" lon="5.46401">
        <ele>391</ele>
        <time>2022-04-19T14:08:56Z</time>
      </trkpt>
      <trkpt lat="46.47208" lon="5.46392">
        <ele>390</ele>
        <time>2022-04-19T14:09:01Z</time>
      </trkpt>
      <trkpt lat="46.47194" lon="5.4639">
        <ele>390</ele>
        <time>2022-04-19T14:09:02Z</time>
      </trkpt>
      <trkpt lat="46.47183" lon="5.46387">
        <ele>389.8</ele>
        <time>2022-04-19T14:09:03Z</time>
      </trkpt>
      <trkpt lat="46.47128" lon="5.46377">
        <ele>389</ele>
        <time>2022-04-19T14:09:08Z</time>
      </trkpt>
      <trkpt lat="46.47106" lon="5.46373">
        <ele>388.8</ele>
        <time>2022-04-19T14:09:10Z</time>
      </trkpt>
      <trkpt lat="46.47096" lon="5.46371">
        <ele>388.8</ele>
        <time>2022-04-19T14:09:11Z</time>
      </trkpt>
      <trkpt lat="46.47033" lon="5.4636">
        <ele>388.4</ele>
        <time>2022-04-19T14:09:17Z</time>
      </trkpt>
      <trkpt lat="46.47023" lon="5.46358">
        <ele>388.2</ele>
        <time>2022-04-19T14:09:18Z</time>
      </trkpt>
      <trkpt lat="46.46993" lon="5.46353">
        <ele>388.2</ele>
        <time>2022-04-19T14:09:21Z</time>
      </trkpt>
      <trkpt lat="46.46933" lon="5.46342">
        <ele>387.8</ele>
        <time>2022-04-19T14:09:27Z</time>
      </trkpt>
      <trkpt lat="46.46876" lon="5.46332">
        <ele>388</ele>
        <time>2022-04-19T14:09:33Z</time>
      </trkpt>
      <trkpt lat="46.46848" lon="5.46327">
        <ele>388</ele>
        <time>2022-04-19T14:09:36Z</time>
      </trkpt>
      <trkpt lat="46.46792" lon="5.46316">
        <ele>387.6</ele>
        <time>2022-04-19T14:09:42Z</time>
      </trkpt>
      <trkpt lat="46.46765" lon="5.46312">
        <ele>387.6</ele>
        <time>2022-04-19T14:09:46Z</time>
      </trkpt>
      <trkpt lat="46.46711" lon="5.46302">
        <ele>387.4</ele>
        <time>2022-04-19T14:09:52Z</time>
      </trkpt>
      <trkpt lat="46.46686" lon="5.46298">
        <ele>386.8</ele>
        <time>2022-04-19T14:09:55Z</time>
      </trkpt>
      <trkpt lat="46.46666" lon="5.46294">
        <ele>386.8</ele>
        <time>2022-04-19T14:09:57Z</time>
      </trkpt>
      <trkpt lat="46.46605" lon="5.46283">
        <ele>386.6</ele>
        <time>2022-04-19T14:10:04Z</time>
      </trkpt>
      <trkpt lat="46.46587" lon="5.4628">
        <ele>386.6</ele>
        <time>2022-04-19T14:10:06Z</time>
      </trkpt>
      <trkpt lat="46.46525" lon="5.46269">
        <ele>386.6</ele>
        <time>2022-04-19T14:10:13Z</time>
      </trkpt>
      <trkpt lat="46.46498" lon="5.46263">
        <ele>386.4</ele>
        <time>2022-04-19T14:10:16Z</time>
      </trkpt>
      <trkpt lat="46.46444" lon="5.46254">
        <ele>386.2</ele>
        <time>2022-04-19T14:10:22Z</time>
      </trkpt>
      <trkpt lat="46.4639" lon="5.46245">
        <ele>386.6</ele>
        <time>2022-04-19T14:10:28Z</time>
      </trkpt>
      <trkpt lat="46.46328" lon="5.46234">
        <ele>386.2</ele>
        <time>2022-04-19T14:10:35Z</time>
      </trkpt>
      <trkpt lat="46.4631" lon="5.46231">
        <ele>386.2</ele>
        <time>2022-04-19T14:10:37Z</time>
      </trkpt>
      <trkpt lat="46.46248" lon="5.4622">
        <ele>386.2</ele>
        <time>2022-04-19T14:10:44Z</time>
      </trkpt>
      <trkpt lat="46.4624" lon="5.46219">
        <ele>386.4</ele>
        <time>2022-04-19T14:10:45Z</time>
      </trkpt>
      <trkpt lat="46.46178" lon="5.46208">
        <ele>386.6</ele>
        <time>2022-04-19T14:10:52Z</time>
      </trkpt>
      <trkpt lat="46.46162" lon="5.46205">
        <ele>386.6</ele>
        <time>2022-04-19T14:10:54Z</time>
      </trkpt>
      <trkpt lat="46.46101" lon="5.46193">
        <ele>386.6</ele>
        <time>2022-04-19T14:11:01Z</time>
      </trkpt>
      <trkpt lat="46.46082" lon="5.4619">
        <ele>386.6</ele>
        <time>2022-04-19T14:11:03Z</time>
      </trkpt>
      <trkpt lat="46.46059" lon="5.46186">
        <ele>386.6</ele>
        <time>2022-04-19T14:11:06Z</time>
      </trkpt>
      <trkpt lat="46.45999" lon="5.46175">
        <ele>386.6</ele>
        <time>2022-04-19T14:11:13Z</time>
      </trkpt>
      <trkpt lat="46.45945" lon="5.46165">
        <ele>386.8</ele>
        <time>2022-04-19T14:11:19Z</time>
      </trkpt>
      <trkpt lat="46.45918" lon="5.4616">
        <ele>386.6</ele>
        <time>2022-04-19T14:11:22Z</time>
      </trkpt>
      <trkpt lat="46.45858" lon="5.46149">
        <ele>386.2</ele>
        <time>2022-04-19T14:11:29Z</time>
      </trkpt>
      <trkpt lat="46.45831" lon="5.46145">
        <ele>386.2</ele>
        <time>2022-04-19T14:11:32Z</time>
      </trkpt>
      <trkpt lat="46.45822" lon="5.46143">
        <ele>386.2</ele>
        <time>2022-04-19T14:11:33Z</time>
      </trkpt>
      <trkpt lat="46.45761" lon="5.46132">
        <ele>386.2</ele>
        <time>2022-04-19T14:11:40Z</time>
      </trkpt>
      <trkpt lat="46.45753" lon="5.4613">
        <ele>386.2</ele>
        <time>2022-04-19T14:11:41Z</time>
      </trkpt>
      <trkpt lat="46.45695" lon="5.46121">
        <ele>386.4</ele>
        <time>2022-04-19T14:11:48Z</time>
      </trkpt>
      <trkpt lat="46.45687" lon="5.46119">
        <ele>386.4</ele>
        <time>2022-04-19T14:11:49Z</time>
      </trkpt>
      <trkpt lat="46.4563" lon="5.4611">
        <ele>386.4</ele>
        <time>2022-04-19T14:11:56Z</time>
      </trkpt>
      <trkpt lat="46.45616" lon="5.46108">
        <ele>386.4</ele>
        <time>2022-04-19T14:11:58Z</time>
      </trkpt>
      <trkpt lat="46.45558" lon="5.46097">
        <ele>387.4</ele>
        <time>2022-04-19T14:12:05Z</time>
      </trkpt>
      <trkpt lat="46.4555" lon="5.46095">
        <ele>387.4</ele>
        <time>2022-04-19T14:12:06Z</time>
      </trkpt>
      <trkpt lat="46.45502" lon="5.46087">
        <ele>388.6</ele>
        <time>2022-04-19T14:12:12Z</time>
      </trkpt>
      <trkpt lat="46.45454" lon="5.46079">
        <ele>389.8</ele>
        <time>2022-04-19T14:12:18Z</time>
      </trkpt>
      <trkpt lat="46.45399" lon="5.46069">
        <ele>390.6</ele>
        <time>2022-04-19T14:12:25Z</time>
      </trkpt>
      <trkpt lat="46.45391" lon="5.46068">
        <ele>391</ele>
        <time>2022-04-19T14:12:26Z</time>
      </trkpt>
      <trkpt lat="46.45342" lon="5.46059">
        <ele>392</ele>
        <time>2022-04-19T14:12:32Z</time>
      </trkpt>
      <trkpt lat="46.45318" lon="5.46054">
        <ele>392.2</ele>
        <time>2022-04-19T14:12:35Z</time>
      </trkpt>
      <trkpt lat="46.45263" lon="5.46045">
        <ele>392.8</ele>
        <time>2022-04-19T14:12:42Z</time>
      </trkpt>
      <trkpt lat="46.4523" lon="5.46037">
        <ele>393</ele>
        <time>2022-04-19T14:12:46Z</time>
      </trkpt>
      <trkpt lat="46.45197" lon="5.4601">
        <ele>392.8</ele>
        <time>2022-04-19T14:12:50Z</time>
      </trkpt>
      <trkpt lat="46.45144" lon="5.45971">
        <ele>391</ele>
        <time>2022-04-19T14:12:56Z</time>
      </trkpt>
      <trkpt lat="46.45099" lon="5.45938">
        <ele>389.8</ele>
        <time>2022-04-19T14:13:01Z</time>
      </trkpt>
      <trkpt lat="46.4509" lon="5.45934">
        <ele>389.8</ele>
        <time>2022-04-19T14:13:02Z</time>
      </trkpt>
      <trkpt lat="46.45062" lon="5.45921">
        <ele>389</ele>
        <time>2022-04-19T14:13:05Z</time>
      </trkpt>
      <trkpt lat="46.45037" lon="5.45903">
        <ele>388.8</ele>
        <time>2022-04-19T14:13:08Z</time>
      </trkpt>
      <trkpt lat="46.44989" lon="5.45875">
        <ele>388.6</ele>
        <time>2022-04-19T14:13:14Z</time>
      </trkpt>
      <trkpt lat="46.44938" lon="5.45844">
        <ele>389.6</ele>
        <time>2022-04-19T14:13:21Z</time>
      </trkpt>
      <trkpt lat="46.44924" lon="5.45836">
        <ele>389.8</ele>
        <time>2022-04-19T14:13:23Z</time>
      </trkpt>
      <trkpt lat="46.4489" lon="5.45815">
        <ele>390.6</ele>
        <time>2022-04-19T14:13:28Z</time>
      </trkpt>
      <trkpt lat="46.44869" lon="5.45803">
        <ele>390.8</ele>
        <time>2022-04-19T14:13:31Z</time>
      </trkpt>
      <trkpt lat="46.44819" lon="5.45774">
        <ele>391.6</ele>
        <time>2022-04-19T14:13:38Z</time>
      </trkpt>
      <trkpt lat="46.44811" lon="5.4577">
        <ele>391.6</ele>
        <time>2022-04-19T14:13:39Z</time>
      </trkpt>
      <trkpt lat="46.44757" lon="5.4574">
        <ele>391.6</ele>
        <time>2022-04-19T14:13:46Z</time>
      </trkpt>
      <trkpt lat="46.4474" lon="5.45732">
        <ele>391.4</ele>
        <time>2022-04-19T14:13:48Z</time>
      </trkpt>
      <trkpt lat="46.44689" lon="5.4571">
        <ele>391</ele>
        <time>2022-04-19T14:13:54Z</time>
      </trkpt>
      <trkpt lat="46.44636" lon="5.4569">
        <ele>390.2</ele>
        <time>2022-04-19T14:14:00Z</time>
      </trkpt>
      <trkpt lat="46.44583" lon="5.45672">
        <ele>390.4</ele>
        <time>2022-04-19T14:14:06Z</time>
      </trkpt>
      <trkpt lat="46.44557" lon="5.45663">
        <ele>390.2</ele>
        <time>2022-04-19T14:14:09Z</time>
      </trkpt>
      <trkpt lat="46.44498" lon="5.45646">
        <ele>390.6</ele>
        <time>2022-04-19T14:14:16Z</time>
      </trkpt>
      <trkpt lat="46.44481" lon="5.45643">
        <ele>390.8</ele>
        <time>2022-04-19T14:14:18Z</time>
      </trkpt>
      <trkpt lat="46.44425" lon="5.45637">
        <ele>390.8</ele>
        <time>2022-04-19T14:14:24Z</time>
      </trkpt>
      <trkpt lat="46.44415" lon="5.45636">
        <ele>390.8</ele>
        <time>2022-04-19T14:14:25Z</time>
      </trkpt>
      <trkpt lat="46.44352" lon="5.45629">
        <ele>390</ele>
        <time>2022-04-19T14:14:31Z</time>
      </trkpt>
      <trkpt lat="46.44331" lon="5.45627">
        <ele>389.6</ele>
        <time>2022-04-19T14:14:33Z</time>
      </trkpt>
      <trkpt lat="46.44299" lon="5.45624">
        <ele>388.6</ele>
        <time>2022-04-19T14:14:36Z</time>
      </trkpt>
      <trkpt lat="46.44237" lon="5.45624">
        <ele>387.6</ele>
        <time>2022-04-19T14:14:42Z</time>
      </trkpt>
      <trkpt lat="46.44226" lon="5.45626">
        <ele>387.4</ele>
        <time>2022-04-19T14:14:43Z</time>
      </trkpt>
      <trkpt lat="46.44164" lon="5.45638">
        <ele>386.6</ele>
        <time>2022-04-19T14:14:49Z</time>
      </trkpt>
      <trkpt lat="46.44153" lon="5.4564">
        <ele>386.4</ele>
        <time>2022-04-19T14:14:50Z</time>
      </trkpt>
      <trkpt lat="46.44122" lon="5.45646">
        <ele>385.4</ele>
        <time>2022-04-19T14:14:53Z</time>
      </trkpt>
      <trkpt lat="46.44062" lon="5.45657">
        <ele>384.6</ele>
        <time>2022-04-19T14:14:59Z</time>
      </trkpt>
      <trkpt lat="46.44051" lon="5.45659">
        <ele>384.8</ele>
        <time>2022-04-19T14:15:00Z</time>
      </trkpt>
      <trkpt lat="46.44011" lon="5.45668">
        <ele>384.2</ele>
        <time>2022-04-19T14:15:04Z</time>
      </trkpt>
      <trkpt lat="46.44002" lon="5.45669">
        <ele>384.2</ele>
        <time>2022-04-19T14:15:05Z</time>
      </trkpt>
      <trkpt lat="46.43939" lon="5.4568">
        <ele>384</ele>
        <time>2022-04-19T14:15:11Z</time>
      </trkpt>
      <trkpt lat="46.43879" lon="5.45692">
        <ele>383.8</ele>
        <time>2022-04-19T14:15:17Z</time>
      </trkpt>
      <trkpt lat="46.4385" lon="5.45696">
        <ele>383.8</ele>
        <time>2022-04-19T14:15:20Z</time>
      </trkpt>
      <trkpt lat="46.43791" lon="5.45695">
        <ele>383.8</ele>
        <time>2022-04-19T14:15:26Z</time>
      </trkpt>
      <trkpt lat="46.4378" lon="5.45695">
        <ele>383.6</ele>
        <time>2022-04-19T14:15:27Z</time>
      </trkpt>
      <trkpt lat="46.4375" lon="5.45694">
        <ele>383.4</ele>
        <time>2022-04-19T14:15:30Z</time>
      </trkpt>
      <trkpt lat="46.437" lon="5.45693">
        <ele>383</ele>
        <time>2022-04-19T14:15:35Z</time>
      </trkpt>
      <trkpt lat="46.4364" lon="5.45692">
        <ele>382.6</ele>
        <time>2022-04-19T14:15:41Z</time>
      </trkpt>
      <trkpt lat="46.4362" lon="5.45691">
        <ele>382.4</ele>
        <time>2022-04-19T14:15:43Z</time>
      </trkpt>
      <trkpt lat="46.43591" lon="5.4569">
        <ele>382.2</ele>
        <time>2022-04-19T14:15:46Z</time>
      </trkpt>
      <trkpt lat="46.43533" lon="5.45689">
        <ele>382</ele>
        <time>2022-04-19T14:15:52Z</time>
      </trkpt>
      <trkpt lat="46.43523" lon="5.45689">
        <ele>382.2</ele>
        <time>2022-04-19T14:15:53Z</time>
      </trkpt>
      <trkpt lat="46.43467" lon="5.45687">
        <ele>382.2</ele>
        <time>2022-04-19T14:15:59Z</time>
      </trkpt>
      <trkpt lat="46.4343" lon="5.45687">
        <ele>382.2</ele>
        <time>2022-04-19T14:16:03Z</time>
      </trkpt>
      <trkpt lat="46.43373" lon="5.45687">
        <ele>382</ele>
        <time>2022-04-19T14:16:09Z</time>
      </trkpt>
      <trkpt lat="46.43364" lon="5.45686">
        <ele>382</ele>
        <time>2022-04-19T14:16:10Z</time>
      </trkpt>
      <trkpt lat="46.43305" lon="5.45684">
        <ele>381.8</ele>
        <time>2022-04-19T14:16:16Z</time>
      </trkpt>
      <trkpt lat="46.43285" lon="5.45683">
        <ele>381.8</ele>
        <time>2022-04-19T14:16:18Z</time>
      </trkpt>
      <trkpt lat="46.43225" lon="5.45682">
        <ele>381.6</ele>
        <time>2022-04-19T14:16:24Z</time>
      </trkpt>
      <trkpt lat="46.43195" lon="5.45681">
        <ele>381.6</ele>
        <time>2022-04-19T14:16:27Z</time>
      </trkpt>
      <trkpt lat="46.43135" lon="5.4568">
        <ele>381.6</ele>
        <time>2022-04-19T14:16:33Z</time>
      </trkpt>
      <trkpt lat="46.43098" lon="5.4568">
        <ele>382</ele>
        <time>2022-04-19T14:16:37Z</time>
      </trkpt>
      <trkpt lat="46.43046" lon="5.45678">
        <ele>383.6</ele>
        <time>2022-04-19T14:16:43Z</time>
      </trkpt>
      <trkpt lat="46.43022" lon="5.45678">
        <ele>384.6</ele>
        <time>2022-04-19T14:16:46Z</time>
      </trkpt>
      <trkpt lat="46.42997" lon="5.45677">
        <ele>385.6</ele>
        <time>2022-04-19T14:16:49Z</time>
      </trkpt>
      <trkpt lat="46.42989" lon="5.45677">
        <ele>385.8</ele>
        <time>2022-04-19T14:16:50Z</time>
      </trkpt>
      <trkpt lat="46.42931" lon="5.45676">
        <ele>386.4</ele>
        <time>2022-04-19T14:16:57Z</time>
      </trkpt>
      <trkpt lat="46.42923" lon="5.45675">
        <ele>386.6</ele>
        <time>2022-04-19T14:16:58Z</time>
      </trkpt>
      <trkpt lat="46.42898" lon="5.45676">
        <ele>386.8</ele>
        <time>2022-04-19T14:17:01Z</time>
      </trkpt>
      <trkpt lat="46.42867" lon="5.45675">
        <ele>387.6</ele>
        <time>2022-04-19T14:17:05Z</time>
      </trkpt>
      <trkpt lat="46.42843" lon="5.45674">
        <ele>388.8</ele>
        <time>2022-04-19T14:17:08Z</time>
      </trkpt>
      <trkpt lat="46.42835" lon="5.45673">
        <ele>389</ele>
        <time>2022-04-19T14:17:09Z</time>
      </trkpt>
      <trkpt lat="46.42794" lon="5.45671">
        <ele>390.2</ele>
        <time>2022-04-19T14:17:14Z</time>
      </trkpt>
      <trkpt lat="46.42761" lon="5.45666">
        <ele>390.6</ele>
        <time>2022-04-19T14:17:18Z</time>
      </trkpt>
      <trkpt lat="46.42701" lon="5.4565">
        <ele>390.8</ele>
        <time>2022-04-19T14:17:25Z</time>
      </trkpt>
      <trkpt lat="46.42683" lon="5.45645">
        <ele>390.8</ele>
        <time>2022-04-19T14:17:27Z</time>
      </trkpt>
      <trkpt lat="46.42628" lon="5.45627">
        <ele>391</ele>
        <time>2022-04-19T14:17:33Z</time>
      </trkpt>
      <trkpt lat="46.42608" lon="5.45621">
        <ele>391</ele>
        <time>2022-04-19T14:17:35Z</time>
      </trkpt>
      <trkpt lat="46.4255" lon="5.45602">
        <ele>390.4</ele>
        <time>2022-04-19T14:17:41Z</time>
      </trkpt>
      <trkpt lat="46.4253" lon="5.45595">
        <ele>390.2</ele>
        <time>2022-04-19T14:17:43Z</time>
      </trkpt>
      <trkpt lat="46.42472" lon="5.45577">
        <ele>390</ele>
        <time>2022-04-19T14:17:49Z</time>
      </trkpt>
      <trkpt lat="46.42426" lon="5.45562">
        <ele>390.2</ele>
        <time>2022-04-19T14:17:54Z</time>
      </trkpt>
      <trkpt lat="46.42373" lon="5.45546">
        <ele>391</ele>
        <time>2022-04-19T14:18:00Z</time>
      </trkpt>
      <trkpt lat="46.42364" lon="5.45543">
        <ele>391.2</ele>
        <time>2022-04-19T14:18:01Z</time>
      </trkpt>
      <trkpt lat="46.42322" lon="5.45529">
        <ele>392.4</ele>
        <time>2022-04-19T14:18:06Z</time>
      </trkpt>
      <trkpt lat="46.42286" lon="5.45519">
        <ele>393.6</ele>
        <time>2022-04-19T14:18:10Z</time>
      </trkpt>
      <trkpt lat="46.42277" lon="5.45516">
        <ele>393.6</ele>
        <time>2022-04-19T14:18:11Z</time>
      </trkpt>
      <trkpt lat="46.42221" lon="5.45498">
        <ele>394.4</ele>
        <time>2022-04-19T14:18:17Z</time>
      </trkpt>
      <trkpt lat="46.42203" lon="5.45491">
        <ele>394.6</ele>
        <time>2022-04-19T14:18:19Z</time>
      </trkpt>
      <trkpt lat="46.42177" lon="5.45482">
        <ele>394.8</ele>
        <time>2022-04-19T14:18:22Z</time>
      </trkpt>
      <trkpt lat="46.42124" lon="5.45462">
        <ele>394.8</ele>
        <time>2022-04-19T14:18:28Z</time>
      </trkpt>
      <trkpt lat="46.42115" lon="5.45458">
        <ele>394.8</ele>
        <time>2022-04-19T14:18:29Z</time>
      </trkpt>
      <trkpt lat="46.42063" lon="5.45437">
        <ele>395</ele>
        <time>2022-04-19T14:18:35Z</time>
      </trkpt>
      <trkpt lat="46.42039" lon="5.45427">
        <ele>395.2</ele>
        <time>2022-04-19T14:18:38Z</time>
      </trkpt>
      <trkpt lat="46.41985" lon="5.45404">
        <ele>395.4</ele>
        <time>2022-04-19T14:18:44Z</time>
      </trkpt>
      <trkpt lat="46.41966" lon="5.45396">
        <ele>395.4</ele>
        <time>2022-04-19T14:18:46Z</time>
      </trkpt>
      <trkpt lat="46.41906" lon="5.45376">
        <ele>394.8</ele>
        <time>2022-04-19T14:18:52Z</time>
      </trkpt>
      <trkpt lat="46.41895" lon="5.45374">
        <ele>394.6</ele>
        <time>2022-04-19T14:18:53Z</time>
      </trkpt>
      <trkpt lat="46.41835" lon="5.45359">
        <ele>393.8</ele>
        <time>2022-04-19T14:18:59Z</time>
      </trkpt>
      <trkpt lat="46.41824" lon="5.45357">
        <ele>393.6</ele>
        <time>2022-04-19T14:19:00Z</time>
      </trkpt>
      <trkpt lat="46.41764" lon="5.45343">
        <ele>393.4</ele>
        <time>2022-04-19T14:19:06Z</time>
      </trkpt>
      <trkpt lat="46.41704" lon="5.45329">
        <ele>393.4</ele>
        <time>2022-04-19T14:19:12Z</time>
      </trkpt>
      <trkpt lat="46.41649" lon="5.45315">
        <ele>393</ele>
        <time>2022-04-19T14:19:17Z</time>
      </trkpt>
      <trkpt lat="46.41626" lon="5.4531">
        <ele>392.4</ele>
        <time>2022-04-19T14:19:19Z</time>
      </trkpt>
      <trkpt lat="46.41567" lon="5.45296">
        <ele>391.6</ele>
        <time>2022-04-19T14:19:24Z</time>
      </trkpt>
      <trkpt lat="46.41544" lon="5.4529">
        <ele>391.2</ele>
        <time>2022-04-19T14:19:26Z</time>
      </trkpt>
      <trkpt lat="46.41509" lon="5.45282">
        <ele>390.2</ele>
        <time>2022-04-19T14:19:29Z</time>
      </trkpt>
      <trkpt lat="46.41464" lon="5.4527">
        <ele>389.6</ele>
        <time>2022-04-19T14:19:33Z</time>
      </trkpt>
      <trkpt lat="46.41408" lon="5.45256">
        <ele>389.2</ele>
        <time>2022-04-19T14:19:38Z</time>
      </trkpt>
      <trkpt lat="46.41397" lon="5.45253">
        <ele>389</ele>
        <time>2022-04-19T14:19:39Z</time>
      </trkpt>
      <trkpt lat="46.41374" lon="5.45247">
        <ele>389</ele>
        <time>2022-04-19T14:19:41Z</time>
      </trkpt>
      <trkpt lat="46.41321" lon="5.45235">
        <ele>388.8</ele>
        <time>2022-04-19T14:19:46Z</time>
      </trkpt>
      <trkpt lat="46.4128" lon="5.45226">
        <ele>388.8</ele>
        <time>2022-04-19T14:19:50Z</time>
      </trkpt>
      <trkpt lat="46.41221" lon="5.45213">
        <ele>388.6</ele>
        <time>2022-04-19T14:19:56Z</time>
      </trkpt>
      <trkpt lat="46.41202" lon="5.4521">
        <ele>388.4</ele>
        <time>2022-04-19T14:19:58Z</time>
      </trkpt>
      <trkpt lat="46.41154" lon="5.45201">
        <ele>388.6</ele>
        <time>2022-04-19T14:20:03Z</time>
      </trkpt>
      <trkpt lat="46.41096" lon="5.45189">
        <ele>388.2</ele>
        <time>2022-04-19T14:20:09Z</time>
      </trkpt>
      <trkpt lat="46.41076" lon="5.45184">
        <ele>388.2</ele>
        <time>2022-04-19T14:20:11Z</time>
      </trkpt>
      <trkpt lat="46.41014" lon="5.45165">
        <ele>387.6</ele>
        <time>2022-04-19T14:20:17Z</time>
      </trkpt>
      <trkpt lat="46.41003" lon="5.4516">
        <ele>387.2</ele>
        <time>2022-04-19T14:20:18Z</time>
      </trkpt>
      <trkpt lat="46.40983" lon="5.4515">
        <ele>386.8</ele>
        <time>2022-04-19T14:20:20Z</time>
      </trkpt>
      <trkpt lat="46.40953" lon="5.45132">
        <ele>386.2</ele>
        <time>2022-04-19T14:20:23Z</time>
      </trkpt>
      <trkpt lat="46.40944" lon="5.45125">
        <ele>385.8</ele>
        <time>2022-04-19T14:20:24Z</time>
      </trkpt>
      <trkpt lat="46.40897" lon="5.45087">
        <ele>384.8</ele>
        <time>2022-04-19T14:20:29Z</time>
      </trkpt>
      <trkpt lat="46.40868" lon="5.45064">
        <ele>384.2</ele>
        <time>2022-04-19T14:20:32Z</time>
      </trkpt>
      <trkpt lat="46.40837" lon="5.45041">
        <ele>383.6</ele>
        <time>2022-04-19T14:20:35Z</time>
      </trkpt>
      <trkpt lat="46.40815" lon="5.45028">
        <ele>383</ele>
        <time>2022-04-19T14:20:37Z</time>
      </trkpt>
      <trkpt lat="46.40793" lon="5.45017">
        <ele>382</ele>
        <time>2022-04-19T14:20:39Z</time>
      </trkpt>
      <trkpt lat="46.40759" lon="5.45005">
        <ele>381.4</ele>
        <time>2022-04-19T14:20:42Z</time>
      </trkpt>
      <trkpt lat="46.40726" lon="5.44994">
        <ele>381</ele>
        <time>2022-04-19T14:20:45Z</time>
      </trkpt>
      <trkpt lat="46.40694" lon="5.44988">
        <ele>380.8</ele>
        <time>2022-04-19T14:20:48Z</time>
      </trkpt>
      <trkpt lat="46.40653" lon="5.44994">
        <ele>380.4</ele>
        <time>2022-04-19T14:20:52Z</time>
      </trkpt>
      <trkpt lat="46.40608" lon="5.45016">
        <ele>379.8</ele>
        <time>2022-04-19T14:20:57Z</time>
      </trkpt>
      <trkpt lat="46.40552" lon="5.45047">
        <ele>379</ele>
        <time>2022-04-19T14:21:03Z</time>
      </trkpt>
      <trkpt lat="46.40544" lon="5.45051">
        <ele>378.8</ele>
        <time>2022-04-19T14:21:04Z</time>
      </trkpt>
      <trkpt lat="46.40528" lon="5.45061">
        <ele>378.6</ele>
        <time>2022-04-19T14:21:06Z</time>
      </trkpt>
      <trkpt lat="46.40473" lon="5.4509">
        <ele>378.4</ele>
        <time>2022-04-19T14:21:12Z</time>
      </trkpt>
      <trkpt lat="46.40454" lon="5.451">
        <ele>378.2</ele>
        <time>2022-04-19T14:21:14Z</time>
      </trkpt>
      <trkpt lat="46.40398" lon="5.45129">
        <ele>377.8</ele>
        <time>2022-04-19T14:21:20Z</time>
      </trkpt>
      <trkpt lat="46.40377" lon="5.4514">
        <ele>377.6</ele>
        <time>2022-04-19T14:21:22Z</time>
      </trkpt>
      <trkpt lat="46.40367" lon="5.45144">
        <ele>377.4</ele>
        <time>2022-04-19T14:21:23Z</time>
      </trkpt>
      <trkpt lat="46.40348" lon="5.45141">
        <ele>376.8</ele>
        <time>2022-04-19T14:21:25Z</time>
      </trkpt>
      <trkpt lat="46.40335" lon="5.45122">
        <ele>376.2</ele>
        <time>2022-04-19T14:21:27Z</time>
      </trkpt>
      <trkpt lat="46.40326" lon="5.45078">
        <ele>375.6</ele>
        <time>2022-04-19T14:21:30Z</time>
      </trkpt>
      <trkpt lat="46.40308" lon="5.4499">
        <ele>374.6</ele>
        <time>2022-04-19T14:21:36Z</time>
      </trkpt>
      <trkpt lat="46.40303" lon="5.44964">
        <ele>374.6</ele>
        <time>2022-04-19T14:21:38Z</time>
      </trkpt>
      <trkpt lat="46.4029" lon="5.44885">
        <ele>374.8</ele>
        <time>2022-04-19T14:21:44Z</time>
      </trkpt>
      <trkpt lat="46.40286" lon="5.44834">
        <ele>375.2</ele>
        <time>2022-04-19T14:21:49Z</time>
      </trkpt>
      <trkpt lat="46.40286" lon="5.4481">
        <ele>375.4</ele>
        <time>2022-04-19T14:21:52Z</time>
      </trkpt>
      <trkpt lat="46.40287" lon="5.44795">
        <ele>376</ele>
        <time>2022-04-19T14:21:54Z</time>
      </trkpt>
      <trkpt lat="46.40288" lon="5.44781">
        <ele>376.6</ele>
        <time>2022-04-19T14:21:56Z</time>
      </trkpt>
      <trkpt lat="46.40287" lon="5.44768">
        <ele>377.8</ele>
        <time>2022-04-19T14:21:58Z</time>
      </trkpt>
      <trkpt lat="46.40286" lon="5.44761">
        <ele>378</ele>
        <time>2022-04-19T14:21:59Z</time>
      </trkpt>
      <trkpt lat="46.40284" lon="5.44736">
        <ele>379</ele>
        <time>2022-04-19T14:22:03Z</time>
      </trkpt>
      <trkpt lat="46.40283" lon="5.44721">
        <ele>379.6</ele>
        <time>2022-04-19T14:22:05Z</time>
      </trkpt>
      <trkpt lat="46.40279" lon="5.44671">
        <ele>380</ele>
        <time>2022-04-19T14:22:11Z</time>
      </trkpt>
      <trkpt lat="46.40278" lon="5.44662">
        <ele>380</ele>
        <time>2022-04-19T14:22:12Z</time>
      </trkpt>
      <trkpt lat="46.40275" lon="5.44603">
        <ele>380</ele>
        <time>2022-04-19T14:22:19Z</time>
      </trkpt>
      <trkpt lat="46.40274" lon="5.44554">
        <ele>381</ele>
        <time>2022-04-19T14:22:25Z</time>
      </trkpt>
      <trkpt lat="46.40273" lon="5.4453">
        <ele>381.4</ele>
        <time>2022-04-19T14:22:28Z</time>
      </trkpt>
      <trkpt lat="46.40273" lon="5.44499">
        <ele>382</ele>
        <time>2022-04-19T14:22:32Z</time>
      </trkpt>
      <trkpt lat="46.40272" lon="5.44451">
        <ele>382.4</ele>
        <time>2022-04-19T14:22:38Z</time>
      </trkpt>
      <trkpt lat="46.40264" lon="5.44411">
        <ele>382.2</ele>
        <time>2022-04-19T14:22:44Z</time>
      </trkpt>
      <trkpt lat="46.40263" lon="5.44402">
        <ele>381.8</ele>
        <time>2022-04-19T14:22:48Z</time>
      </trkpt>
      <trkpt lat="46.40263" lon="5.44402">
        <ele>381.4</ele>
        <time>2022-04-19T14:22:50Z</time>
      </trkpt>
      <trkpt lat="46.4026" lon="5.44398">
        <ele>380.8</ele>
        <time>2022-04-19T14:23:46Z</time>
      </trkpt>
      <trkpt lat="46.40258" lon="5.44394">
        <ele>380.8</ele>
        <time>2022-04-19T14:23:47Z</time>
      </trkpt>
      <trkpt lat="46.40246" lon="5.44371">
        <ele>380.6</ele>
        <time>2022-04-19T14:23:51Z</time>
      </trkpt>
      <trkpt lat="46.40243" lon="5.44364">
        <ele>380.4</ele>
        <time>2022-04-19T14:23:52Z</time>
      </trkpt>
      <trkpt lat="46.40239" lon="5.44348">
        <ele>380.2</ele>
        <time>2022-04-19T14:23:54Z</time>
      </trkpt>
      <trkpt lat="46.40239" lon="5.44337">
        <ele>380.2</ele>
        <time>2022-04-19T14:23:55Z</time>
      </trkpt>
      <trkpt lat="46.40241" lon="5.44294">
        <ele>380</ele>
        <time>2022-04-19T14:24:00Z</time>
      </trkpt>
      <trkpt lat="46.40235" lon="5.44235">
        <ele>381</ele>
        <time>2022-04-19T14:24:07Z</time>
      </trkpt>
      <trkpt lat="46.40229" lon="5.44195">
        <ele>381.8</ele>
        <time>2022-04-19T14:24:12Z</time>
      </trkpt>
      <trkpt lat="46.40224" lon="5.44156">
        <ele>383</ele>
        <time>2022-04-19T14:24:17Z</time>
      </trkpt>
      <trkpt lat="46.40223" lon="5.44148">
        <ele>383</ele>
        <time>2022-04-19T14:24:18Z</time>
      </trkpt>
      <trkpt lat="46.40224" lon="5.44109">
        <ele>383.4</ele>
        <time>2022-04-19T14:24:23Z</time>
      </trkpt>
      <trkpt lat="46.40228" lon="5.4408">
        <ele>383.8</ele>
        <time>2022-04-19T14:24:27Z</time>
      </trkpt>
      <trkpt lat="46.4023" lon="5.44074">
        <ele>384.2</ele>
        <time>2022-04-19T14:24:28Z</time>
      </trkpt>
      <trkpt lat="46.40232" lon="5.44067">
        <ele>384.6</ele>
        <time>2022-04-19T14:24:29Z</time>
      </trkpt>
      <trkpt lat="46.40237" lon="5.44056">
        <ele>385.4</ele>
        <time>2022-04-19T14:24:31Z</time>
      </trkpt>
      <trkpt lat="46.40243" lon="5.44045">
        <ele>385.8</ele>
        <time>2022-04-19T14:24:33Z</time>
      </trkpt>
      <trkpt lat="46.40247" lon="5.4404">
        <ele>386</ele>
        <time>2022-04-19T14:24:34Z</time>
      </trkpt>
      <trkpt lat="46.40262" lon="5.44022">
        <ele>386.4</ele>
        <time>2022-04-19T14:24:38Z</time>
      </trkpt>
      <trkpt lat="46.40274" lon="5.44008">
        <ele>386.6</ele>
        <time>2022-04-19T14:24:41Z</time>
      </trkpt>
      <trkpt lat="46.40304" lon="5.43969">
        <ele>387</ele>
        <time>2022-04-19T14:24:48Z</time>
      </trkpt>
      <trkpt lat="46.40332" lon="5.4393">
        <ele>386.8</ele>
        <time>2022-04-19T14:24:54Z</time>
      </trkpt>
      <trkpt lat="46.40356" lon="5.43896">
        <ele>386.2</ele>
        <time>2022-04-19T14:24:59Z</time>
      </trkpt>
      <trkpt lat="46.40372" lon="5.43878">
        <ele>386.2</ele>
        <time>2022-04-19T14:25:02Z</time>
      </trkpt>
      <trkpt lat="46.40377" lon="5.43872">
        <ele>386.2</ele>
        <time>2022-04-19T14:25:03Z</time>
      </trkpt>
      <trkpt lat="46.40399" lon="5.43847">
        <ele>386.4</ele>
        <time>2022-04-19T14:25:07Z</time>
      </trkpt>
      <trkpt lat="46.40436" lon="5.43803">
        <ele>386.2</ele>
        <time>2022-04-19T14:25:14Z</time>
      </trkpt>
      <trkpt lat="46.40477" lon="5.43752">
        <ele>385.6</ele>
        <time>2022-04-19T14:25:22Z</time>
      </trkpt>
      <trkpt lat="46.40482" lon="5.43745">
        <ele>385.8</ele>
        <time>2022-04-19T14:25:23Z</time>
      </trkpt>
      <trkpt lat="46.40503" lon="5.4372">
        <ele>386.4</ele>
        <time>2022-04-19T14:25:27Z</time>
      </trkpt>
      <trkpt lat="46.40514" lon="5.4371">
        <ele>386.4</ele>
        <time>2022-04-19T14:25:29Z</time>
      </trkpt>
      <trkpt lat="46.40537" lon="5.43695">
        <ele>386.4</ele>
        <time>2022-04-19T14:25:33Z</time>
      </trkpt>
      <trkpt lat="46.40543" lon="5.43692">
        <ele>386.4</ele>
        <time>2022-04-19T14:25:34Z</time>
      </trkpt>
      <trkpt lat="46.40588" lon="5.43682">
        <ele>386.2</ele>
        <time>2022-04-19T14:25:41Z</time>
      </trkpt>
      <trkpt lat="46.4063" lon="5.4368">
        <ele>386.6</ele>
        <time>2022-04-19T14:25:48Z</time>
      </trkpt>
      <trkpt lat="46.40671" lon="5.43676">
        <ele>387.2</ele>
        <time>2022-04-19T14:25:55Z</time>
      </trkpt>
      <trkpt lat="46.40681" lon="5.43677">
        <ele>387.4</ele>
        <time>2022-04-19T14:25:57Z</time>
      </trkpt>
      <trkpt lat="46.40699" lon="5.43681">
        <ele>388.6</ele>
        <time>2022-04-19T14:26:01Z</time>
      </trkpt>
      <trkpt lat="46.4072" lon="5.43686">
        <ele>389.6</ele>
        <time>2022-04-19T14:26:05Z</time>
      </trkpt>
      <trkpt lat="46.40732" lon="5.43687">
        <ele>389.8</ele>
        <time>2022-04-19T14:26:07Z</time>
      </trkpt>
      <trkpt lat="46.40771" lon="5.43687">
        <ele>390.2</ele>
        <time>2022-04-19T14:26:13Z</time>
      </trkpt>
      <trkpt lat="46.40776" lon="5.43686">
        <ele>390.2</ele>
        <time>2022-04-19T14:26:14Z</time>
      </trkpt>
      <trkpt lat="46.40812" lon="5.43678">
        <ele>390.6</ele>
        <time>2022-04-19T14:26:19Z</time>
      </trkpt>
      <trkpt lat="46.40818" lon="5.43677">
        <ele>390.6</ele>
        <time>2022-04-19T14:26:20Z</time>
      </trkpt>
      <trkpt lat="46.40839" lon="5.4367">
        <ele>390.4</ele>
        <time>2022-04-19T14:26:23Z</time>
      </trkpt>
      <trkpt lat="46.40871" lon="5.43662">
        <ele>390.2</ele>
        <time>2022-04-19T14:26:28Z</time>
      </trkpt>
      <trkpt lat="46.40914" lon="5.43647">
        <ele>390.2</ele>
        <time>2022-04-19T14:26:35Z</time>
      </trkpt>
      <trkpt lat="46.40948" lon="5.43633">
        <ele>390.2</ele>
        <time>2022-04-19T14:26:41Z</time>
      </trkpt>
      <trkpt lat="46.40994" lon="5.43601">
        <ele>390.2</ele>
        <time>2022-04-19T14:26:49Z</time>
      </trkpt>
      <trkpt lat="46.41023" lon="5.43581">
        <ele>390.4</ele>
        <time>2022-04-19T14:26:54Z</time>
      </trkpt>
      <trkpt lat="46.41042" lon="5.43567">
        <ele>390.8</ele>
        <time>2022-04-19T14:26:57Z</time>
      </trkpt>
      <trkpt lat="46.41094" lon="5.43532">
        <ele>390.6</ele>
        <time>2022-04-19T14:27:06Z</time>
      </trkpt>
      <trkpt lat="46.411" lon="5.43528">
        <ele>390.6</ele>
        <time>2022-04-19T14:27:07Z</time>
      </trkpt>
      <trkpt lat="46.41142" lon="5.43501">
        <ele>390.6</ele>
        <time>2022-04-19T14:27:14Z</time>
      </trkpt>
      <trkpt lat="46.41193" lon="5.43466">
        <ele>391</ele>
        <time>2022-04-19T14:27:23Z</time>
      </trkpt>
      <trkpt lat="46.41226" lon="5.43436">
        <ele>391</ele>
        <time>2022-04-19T14:27:29Z</time>
      </trkpt>
      <trkpt lat="46.41252" lon="5.43394">
        <ele>391.6</ele>
        <time>2022-04-19T14:27:35Z</time>
      </trkpt>
      <trkpt lat="46.41266" lon="5.43361">
        <ele>391.6</ele>
        <time>2022-04-19T14:27:39Z</time>
      </trkpt>
      <trkpt lat="46.41272" lon="5.43344">
        <ele>391.6</ele>
        <time>2022-04-19T14:27:41Z</time>
      </trkpt>
      <trkpt lat="46.41283" lon="5.43312">
        <ele>391.6</ele>
        <time>2022-04-19T14:27:45Z</time>
      </trkpt>
      <trkpt lat="46.41294" lon="5.43288">
        <ele>391.6</ele>
        <time>2022-04-19T14:27:48Z</time>
      </trkpt>
      <trkpt lat="46.41317" lon="5.43251">
        <ele>392.6</ele>
        <time>2022-04-19T14:27:54Z</time>
      </trkpt>
      <trkpt lat="46.41321" lon="5.43248">
        <ele>392.6</ele>
        <time>2022-04-19T14:27:55Z</time>
      </trkpt>
      <trkpt lat="46.41341" lon="5.43234">
        <ele>393.4</ele>
        <time>2022-04-19T14:27:59Z</time>
      </trkpt>
      <trkpt lat="46.41362" lon="5.43227">
        <ele>393.4</ele>
        <time>2022-04-19T14:28:03Z</time>
      </trkpt>
      <trkpt lat="46.41379" lon="5.43224">
        <ele>393.4</ele>
        <time>2022-04-19T14:28:06Z</time>
      </trkpt>
      <trkpt lat="46.41412" lon="5.43219">
        <ele>393.6</ele>
        <time>2022-04-19T14:28:12Z</time>
      </trkpt>
      <trkpt lat="46.41425" lon="5.43218">
        <ele>393.8</ele>
        <time>2022-04-19T14:28:14Z</time>
      </trkpt>
      <trkpt lat="46.4147" lon="5.43215">
        <ele>394.2</ele>
        <time>2022-04-19T14:28:22Z</time>
      </trkpt>
      <trkpt lat="46.41481" lon="5.43213">
        <ele>394.2</ele>
        <time>2022-04-19T14:28:24Z</time>
      </trkpt>
      <trkpt lat="46.4151" lon="5.43208">
        <ele>394.6</ele>
        <time>2022-04-19T14:28:29Z</time>
      </trkpt>
      <trkpt lat="46.41515" lon="5.43207">
        <ele>394.8</ele>
        <time>2022-04-19T14:28:30Z</time>
      </trkpt>
      <trkpt lat="46.41562" lon="5.43196">
        <ele>394.8</ele>
        <time>2022-04-19T14:28:38Z</time>
      </trkpt>
      <trkpt lat="46.41616" lon="5.43183">
        <ele>394.4</ele>
        <time>2022-04-19T14:28:47Z</time>
      </trkpt>
      <trkpt lat="46.41622" lon="5.43182">
        <ele>394.4</ele>
        <time>2022-04-19T14:28:48Z</time>
      </trkpt>
      <trkpt lat="46.41633" lon="5.4318">
        <ele>394.4</ele>
        <time>2022-04-19T14:28:50Z</time>
      </trkpt>
      <trkpt lat="46.41643" lon="5.43182">
        <ele>394.4</ele>
        <time>2022-04-19T14:28:52Z</time>
      </trkpt>
      <trkpt lat="46.41651" lon="5.4319">
        <ele>394.4</ele>
        <time>2022-04-19T14:28:55Z</time>
      </trkpt>
      <trkpt lat="46.41652" lon="5.4319">
        <ele>394.6</ele>
        <time>2022-04-19T14:28:58Z</time>
      </trkpt>
      <trkpt lat="46.41656" lon="5.43191">
        <ele>394.6</ele>
        <time>2022-04-19T14:29:05Z</time>
      </trkpt>
      <trkpt lat="46.41661" lon="5.43187">
        <ele>394.4</ele>
        <time>2022-04-19T14:29:07Z</time>
      </trkpt>
      <trkpt lat="46.41672" lon="5.43172">
        <ele>394.4</ele>
        <time>2022-04-19T14:29:10Z</time>
      </trkpt>
      <trkpt lat="46.41705" lon="5.43125">
        <ele>394</ele>
        <time>2022-04-19T14:29:17Z</time>
      </trkpt>
      <trkpt lat="46.41738" lon="5.43076">
        <ele>395.8</ele>
        <time>2022-04-19T14:29:25Z</time>
      </trkpt>
      <trkpt lat="46.41743" lon="5.4307">
        <ele>396</ele>
        <time>2022-04-19T14:29:26Z</time>
      </trkpt>
      <trkpt lat="46.41773" lon="5.43026">
        <ele>396.6</ele>
        <time>2022-04-19T14:29:33Z</time>
      </trkpt>
      <trkpt lat="46.41793" lon="5.42998">
        <ele>397</ele>
        <time>2022-04-19T14:29:38Z</time>
      </trkpt>
      <trkpt lat="46.41802" lon="5.42986">
        <ele>397.4</ele>
        <time>2022-04-19T14:29:40Z</time>
      </trkpt>
      <trkpt lat="46.41816" lon="5.42968">
        <ele>398.2</ele>
        <time>2022-04-19T14:29:44Z</time>
      </trkpt>
      <trkpt lat="46.41833" lon="5.42943">
        <ele>399.4</ele>
        <time>2022-04-19T14:29:49Z</time>
      </trkpt>
      <trkpt lat="46.41836" lon="5.42938">
        <ele>399.6</ele>
        <time>2022-04-19T14:29:50Z</time>
      </trkpt>
      <trkpt lat="46.41849" lon="5.4292">
        <ele>400.6</ele>
        <time>2022-04-19T14:29:54Z</time>
      </trkpt>
      <trkpt lat="46.41862" lon="5.42902">
        <ele>401.4</ele>
        <time>2022-04-19T14:29:58Z</time>
      </trkpt>
      <trkpt lat="46.41864" lon="5.42898">
        <ele>401.8</ele>
        <time>2022-04-19T14:29:59Z</time>
      </trkpt>
      <trkpt lat="46.41882" lon="5.42874">
        <ele>402.8</ele>
        <time>2022-04-19T14:30:05Z</time>
      </trkpt>
      <trkpt lat="46.41888" lon="5.42866">
        <ele>403.4</ele>
        <time>2022-04-19T14:30:07Z</time>
      </trkpt>
      <trkpt lat="46.41894" lon="5.42858">
        <ele>404</ele>
        <time>2022-04-19T14:30:09Z</time>
      </trkpt>
      <trkpt lat="46.4191" lon="5.42836">
        <ele>405</ele>
        <time>2022-04-19T14:30:15Z</time>
      </trkpt>
      <trkpt lat="46.41924" lon="5.42818">
        <ele>405.6</ele>
        <time>2022-04-19T14:30:20Z</time>
      </trkpt>
      <trkpt lat="46.4193" lon="5.42811">
        <ele>406.4</ele>
        <time>2022-04-19T14:30:22Z</time>
      </trkpt>
      <trkpt lat="46.41944" lon="5.42792">
        <ele>407.4</ele>
        <time>2022-04-19T14:30:27Z</time>
      </trkpt>
      <trkpt lat="46.41949" lon="5.42783">
        <ele>408</ele>
        <time>2022-04-19T14:30:29Z</time>
      </trkpt>
      <trkpt lat="46.4196" lon="5.42767">
        <ele>408.6</ele>
        <time>2022-04-19T14:30:33Z</time>
      </trkpt>
      <trkpt lat="46.41971" lon="5.42748">
        <ele>409.6</ele>
        <time>2022-04-19T14:30:37Z</time>
      </trkpt>
      <trkpt lat="46.41973" lon="5.42744">
        <ele>409.8</ele>
        <time>2022-04-19T14:30:38Z</time>
      </trkpt>
      <trkpt lat="46.4199" lon="5.42713">
        <ele>411</ele>
        <time>2022-04-19T14:30:44Z</time>
      </trkpt>
      <trkpt lat="46.41996" lon="5.42702">
        <ele>411.2</ele>
        <time>2022-04-19T14:30:46Z</time>
      </trkpt>
      <trkpt lat="46.42024" lon="5.42648">
        <ele>411.8</ele>
        <time>2022-04-19T14:30:55Z</time>
      </trkpt>
      <trkpt lat="46.4203" lon="5.42636">
        <ele>412</ele>
        <time>2022-04-19T14:30:57Z</time>
      </trkpt>
      <trkpt lat="46.42055" lon="5.42588">
        <ele>412.2</ele>
        <time>2022-04-19T14:31:05Z</time>
      </trkpt>
      <trkpt lat="46.42078" lon="5.42544">
        <ele>413</ele>
        <time>2022-04-19T14:31:13Z</time>
      </trkpt>
      <trkpt lat="46.42097" lon="5.42507">
        <ele>414.2</ele>
        <time>2022-04-19T14:31:20Z</time>
      </trkpt>
      <trkpt lat="46.42116" lon="5.42474">
        <ele>415.4</ele>
        <time>2022-04-19T14:31:27Z</time>
      </trkpt>
      <trkpt lat="46.42122" lon="5.42465">
        <ele>416</ele>
        <time>2022-04-19T14:31:29Z</time>
      </trkpt>
      <trkpt lat="46.42128" lon="5.42457">
        <ele>416.6</ele>
        <time>2022-04-19T14:31:31Z</time>
      </trkpt>
      <trkpt lat="46.42146" lon="5.42433">
        <ele>417.8</ele>
        <time>2022-04-19T14:31:37Z</time>
      </trkpt>
      <trkpt lat="46.42153" lon="5.42425">
        <ele>418.4</ele>
        <time>2022-04-19T14:31:39Z</time>
      </trkpt>
      <trkpt lat="46.42161" lon="5.4241">
        <ele>418.8</ele>
        <time>2022-04-19T14:31:42Z</time>
      </trkpt>
      <trkpt lat="46.42164" lon="5.42405">
        <ele>419</ele>
        <time>2022-04-19T14:31:43Z</time>
      </trkpt>
      <trkpt lat="46.42169" lon="5.42394">
        <ele>419.6</ele>
        <time>2022-04-19T14:31:45Z</time>
      </trkpt>
      <trkpt lat="46.42175" lon="5.42383">
        <ele>420</ele>
        <time>2022-04-19T14:31:47Z</time>
      </trkpt>
      <trkpt lat="46.42194" lon="5.42341">
        <ele>421</ele>
        <time>2022-04-19T14:31:54Z</time>
      </trkpt>
      <trkpt lat="46.42206" lon="5.42312">
        <ele>421.4</ele>
        <time>2022-04-19T14:31:59Z</time>
      </trkpt>
      <trkpt lat="46.42209" lon="5.42299">
        <ele>421.8</ele>
        <time>2022-04-19T14:32:01Z</time>
      </trkpt>
      <trkpt lat="46.4221" lon="5.42293">
        <ele>422</ele>
        <time>2022-04-19T14:32:02Z</time>
      </trkpt>
      <trkpt lat="46.4221" lon="5.42287">
        <ele>422.2</ele>
        <time>2022-04-19T14:32:03Z</time>
      </trkpt>
      <trkpt lat="46.42208" lon="5.42266">
        <ele>423.2</ele>
        <time>2022-04-19T14:32:06Z</time>
      </trkpt>
      <trkpt lat="46.42196" lon="5.42234">
        <ele>424</ele>
        <time>2022-04-19T14:32:11Z</time>
      </trkpt>
      <trkpt lat="46.42194" lon="5.42228">
        <ele>424.2</ele>
        <time>2022-04-19T14:32:12Z</time>
      </trkpt>
      <trkpt lat="46.42191" lon="5.42222">
        <ele>424.2</ele>
        <time>2022-04-19T14:32:13Z</time>
      </trkpt>
      <trkpt lat="46.42177" lon="5.42194">
        <ele>425.6</ele>
        <time>2022-04-19T14:32:18Z</time>
      </trkpt>
      <trkpt lat="46.42166" lon="5.42172">
        <ele>426.2</ele>
        <time>2022-04-19T14:32:22Z</time>
      </trkpt>
      <trkpt lat="46.42156" lon="5.42157">
        <ele>426.8</ele>
        <time>2022-04-19T14:32:25Z</time>
      </trkpt>
      <trkpt lat="46.42141" lon="5.4213">
        <ele>427.6</ele>
        <time>2022-04-19T14:32:30Z</time>
      </trkpt>
      <trkpt lat="46.42136" lon="5.4212">
        <ele>427.8</ele>
        <time>2022-04-19T14:32:32Z</time>
      </trkpt>
      <trkpt lat="46.42112" lon="5.42078">
        <ele>429</ele>
        <time>2022-04-19T14:32:40Z</time>
      </trkpt>
      <trkpt lat="46.42109" lon="5.42072">
        <ele>429.2</ele>
        <time>2022-04-19T14:32:41Z</time>
      </trkpt>
      <trkpt lat="46.42094" lon="5.42046">
        <ele>430.6</ele>
        <time>2022-04-19T14:32:46Z</time>
      </trkpt>
      <trkpt lat="46.42083" lon="5.42024">
        <ele>431.4</ele>
        <time>2022-04-19T14:32:50Z</time>
      </trkpt>
      <trkpt lat="46.42078" lon="5.42013">
        <ele>431.8</ele>
        <time>2022-04-19T14:32:52Z</time>
      </trkpt>
      <trkpt lat="46.42075" lon="5.42006">
        <ele>432</ele>
        <time>2022-04-19T14:32:53Z</time>
      </trkpt>
      <trkpt lat="46.4207" lon="5.41989">
        <ele>432.6</ele>
        <time>2022-04-19T14:32:56Z</time>
      </trkpt>
      <trkpt lat="46.42068" lon="5.41975">
        <ele>432.8</ele>
        <time>2022-04-19T14:32:58Z</time>
      </trkpt>
      <trkpt lat="46.42067" lon="5.4195">
        <ele>434</ele>
        <time>2022-04-19T14:33:02Z</time>
      </trkpt>
      <trkpt lat="46.42068" lon="5.4193">
        <ele>435</ele>
        <time>2022-04-19T14:33:05Z</time>
      </trkpt>
      <trkpt lat="46.42068" lon="5.41898">
        <ele>436.2</ele>
        <time>2022-04-19T14:33:10Z</time>
      </trkpt>
      <trkpt lat="46.42065" lon="5.41865">
        <ele>437.2</ele>
        <time>2022-04-19T14:33:15Z</time>
      </trkpt>
      <trkpt lat="46.4206" lon="5.41839">
        <ele>438.6</ele>
        <time>2022-04-19T14:33:19Z</time>
      </trkpt>
      <trkpt lat="46.42052" lon="5.41809">
        <ele>439.8</ele>
        <time>2022-04-19T14:33:24Z</time>
      </trkpt>
      <trkpt lat="46.42045" lon="5.41791">
        <ele>440.4</ele>
        <time>2022-04-19T14:33:27Z</time>
      </trkpt>
      <trkpt lat="46.42038" lon="5.41773">
        <ele>441</ele>
        <time>2022-04-19T14:33:30Z</time>
      </trkpt>
      <trkpt lat="46.42024" lon="5.41746">
        <ele>442</ele>
        <time>2022-04-19T14:33:35Z</time>
      </trkpt>
      <trkpt lat="46.42001" lon="5.41709">
        <ele>443.2</ele>
        <time>2022-04-19T14:33:42Z</time>
      </trkpt>
      <trkpt lat="46.41999" lon="5.41703">
        <ele>443.4</ele>
        <time>2022-04-19T14:33:43Z</time>
      </trkpt>
      <trkpt lat="46.41998" lon="5.41696">
        <ele>443.6</ele>
        <time>2022-04-19T14:33:44Z</time>
      </trkpt>
      <trkpt lat="46.41998" lon="5.41684">
        <ele>443.6</ele>
        <time>2022-04-19T14:33:46Z</time>
      </trkpt>
      <trkpt lat="46.41999" lon="5.41678">
        <ele>443.8</ele>
        <time>2022-04-19T14:33:47Z</time>
      </trkpt>
      <trkpt lat="46.42001" lon="5.41672">
        <ele>443.8</ele>
        <time>2022-04-19T14:33:48Z</time>
      </trkpt>
      <trkpt lat="46.42007" lon="5.41661">
        <ele>444</ele>
        <time>2022-04-19T14:33:50Z</time>
      </trkpt>
      <trkpt lat="46.42011" lon="5.41657">
        <ele>444.2</ele>
        <time>2022-04-19T14:33:51Z</time>
      </trkpt>
      <trkpt lat="46.42016" lon="5.41654">
        <ele>444.2</ele>
        <time>2022-04-19T14:33:52Z</time>
      </trkpt>
      <trkpt lat="46.42019" lon="5.41653">
        <ele>444.4</ele>
        <time>2022-04-19T14:33:53Z</time>
      </trkpt>
      <trkpt lat="46.42025" lon="5.41652">
        <ele>444.6</ele>
        <time>2022-04-19T14:33:54Z</time>
      </trkpt>
      <trkpt lat="46.42029" lon="5.41652">
        <ele>444.8</ele>
        <time>2022-04-19T14:33:55Z</time>
      </trkpt>
      <trkpt lat="46.42037" lon="5.41654">
        <ele>445.2</ele>
        <time>2022-04-19T14:33:57Z</time>
      </trkpt>
      <trkpt lat="46.42041" lon="5.41656">
        <ele>445.6</ele>
        <time>2022-04-19T14:33:58Z</time>
      </trkpt>
      <trkpt lat="46.42046" lon="5.41658">
        <ele>445.6</ele>
        <time>2022-04-19T14:33:59Z</time>
      </trkpt>
      <trkpt lat="46.42054" lon="5.4166">
        <ele>446</ele>
        <time>2022-04-19T14:34:01Z</time>
      </trkpt>
      <trkpt lat="46.42062" lon="5.41662">
        <ele>446.6</ele>
        <time>2022-04-19T14:34:03Z</time>
      </trkpt>
      <trkpt lat="46.42089" lon="5.41667">
        <ele>447.6</ele>
        <time>2022-04-19T14:34:10Z</time>
      </trkpt>
      <trkpt lat="46.42094" lon="5.41667">
        <ele>447.6</ele>
        <time>2022-04-19T14:34:11Z</time>
      </trkpt>
      <trkpt lat="46.4211" lon="5.41667">
        <ele>448.8</ele>
        <time>2022-04-19T14:34:15Z</time>
      </trkpt>
      <trkpt lat="46.42119" lon="5.41667">
        <ele>449.6</ele>
        <time>2022-04-19T14:34:17Z</time>
      </trkpt>
      <trkpt lat="46.42128" lon="5.4167">
        <ele>450</ele>
        <time>2022-04-19T14:34:19Z</time>
      </trkpt>
      <trkpt lat="46.42158" lon="5.41684">
        <ele>451.2</ele>
        <time>2022-04-19T14:34:26Z</time>
      </trkpt>
      <trkpt lat="46.4217" lon="5.41693">
        <ele>451.6</ele>
        <time>2022-04-19T14:34:29Z</time>
      </trkpt>
      <trkpt lat="46.42183" lon="5.41702">
        <ele>452.2</ele>
        <time>2022-04-19T14:34:32Z</time>
      </trkpt>
      <trkpt lat="46.42206" lon="5.41715">
        <ele>453.2</ele>
        <time>2022-04-19T14:34:37Z</time>
      </trkpt>
      <trkpt lat="46.42215" lon="5.4172">
        <ele>453.6</ele>
        <time>2022-04-19T14:34:39Z</time>
      </trkpt>
      <trkpt lat="46.42238" lon="5.41735">
        <ele>454.4</ele>
        <time>2022-04-19T14:34:44Z</time>
      </trkpt>
      <trkpt lat="46.42256" lon="5.41747">
        <ele>454.8</ele>
        <time>2022-04-19T14:34:48Z</time>
      </trkpt>
      <trkpt lat="46.42269" lon="5.41755">
        <ele>455.6</ele>
        <time>2022-04-19T14:34:51Z</time>
      </trkpt>
      <trkpt lat="46.42283" lon="5.41763">
        <ele>456.4</ele>
        <time>2022-04-19T14:34:54Z</time>
      </trkpt>
      <trkpt lat="46.42287" lon="5.41765">
        <ele>456.4</ele>
        <time>2022-04-19T14:34:55Z</time>
      </trkpt>
      <trkpt lat="46.42292" lon="5.41767">
        <ele>456.8</ele>
        <time>2022-04-19T14:34:56Z</time>
      </trkpt>
      <trkpt lat="46.42313" lon="5.41779">
        <ele>458.2</ele>
        <time>2022-04-19T14:35:01Z</time>
      </trkpt>
      <trkpt lat="46.42326" lon="5.41783">
        <ele>458.6</ele>
        <time>2022-04-19T14:35:04Z</time>
      </trkpt>
      <trkpt lat="46.42339" lon="5.41788">
        <ele>459.4</ele>
        <time>2022-04-19T14:35:07Z</time>
      </trkpt>
      <trkpt lat="46.42359" lon="5.41793">
        <ele>460.2</ele>
        <time>2022-04-19T14:35:12Z</time>
      </trkpt>
      <trkpt lat="46.42366" lon="5.41795">
        <ele>460.4</ele>
        <time>2022-04-19T14:35:14Z</time>
      </trkpt>
      <trkpt lat="46.42376" lon="5.41799">
        <ele>461.6</ele>
        <time>2022-04-19T14:35:17Z</time>
      </trkpt>
      <trkpt lat="46.4239" lon="5.41803">
        <ele>462.6</ele>
        <time>2022-04-19T14:35:21Z</time>
      </trkpt>
      <trkpt lat="46.42394" lon="5.41803">
        <ele>463</ele>
        <time>2022-04-19T14:35:22Z</time>
      </trkpt>
      <trkpt lat="46.42403" lon="5.41802">
        <ele>463.8</ele>
        <time>2022-04-19T14:35:24Z</time>
      </trkpt>
      <trkpt lat="46.4242" lon="5.41801">
        <ele>464.8</ele>
        <time>2022-04-19T14:35:28Z</time>
      </trkpt>
      <trkpt lat="46.42433" lon="5.41799">
        <ele>465.8</ele>
        <time>2022-04-19T14:35:31Z</time>
      </trkpt>
      <trkpt lat="46.42437" lon="5.41798">
        <ele>466</ele>
        <time>2022-04-19T14:35:32Z</time>
      </trkpt>
      <trkpt lat="46.42462" lon="5.41788">
        <ele>467</ele>
        <time>2022-04-19T14:35:38Z</time>
      </trkpt>
      <trkpt lat="46.4247" lon="5.41785">
        <ele>467.4</ele>
        <time>2022-04-19T14:35:40Z</time>
      </trkpt>
      <trkpt lat="46.4249" lon="5.41776">
        <ele>468</ele>
        <time>2022-04-19T14:35:45Z</time>
      </trkpt>
      <trkpt lat="46.42503" lon="5.41773">
        <ele>468.4</ele>
        <time>2022-04-19T14:35:48Z</time>
      </trkpt>
      <trkpt lat="46.42514" lon="5.41771">
        <ele>469.2</ele>
        <time>2022-04-19T14:35:51Z</time>
      </trkpt>
      <trkpt lat="46.42518" lon="5.41771">
        <ele>469.6</ele>
        <time>2022-04-19T14:35:52Z</time>
      </trkpt>
      <trkpt lat="46.42527" lon="5.41772">
        <ele>469.8</ele>
        <time>2022-04-19T14:35:54Z</time>
      </trkpt>
      <trkpt lat="46.42535" lon="5.41775">
        <ele>470.4</ele>
        <time>2022-04-19T14:35:56Z</time>
      </trkpt>
      <trkpt lat="46.42553" lon="5.41784">
        <ele>472</ele>
        <time>2022-04-19T14:36:01Z</time>
      </trkpt>
      <trkpt lat="46.42556" lon="5.41785">
        <ele>472.2</ele>
        <time>2022-04-19T14:36:02Z</time>
      </trkpt>
      <trkpt lat="46.42569" lon="5.41793">
        <ele>473</ele>
        <time>2022-04-19T14:36:06Z</time>
      </trkpt>
      <trkpt lat="46.42582" lon="5.41797">
        <ele>474</ele>
        <time>2022-04-19T14:36:10Z</time>
      </trkpt>
      <trkpt lat="46.42586" lon="5.41797">
        <ele>474</ele>
        <time>2022-04-19T14:36:11Z</time>
      </trkpt>
      <trkpt lat="46.42601" lon="5.41793">
        <ele>475</ele>
        <time>2022-04-19T14:36:15Z</time>
      </trkpt>
      <trkpt lat="46.42609" lon="5.41788">
        <ele>475.2</ele>
        <time>2022-04-19T14:36:17Z</time>
      </trkpt>
      <trkpt lat="46.42624" lon="5.41772">
        <ele>476</ele>
        <time>2022-04-19T14:36:22Z</time>
      </trkpt>
      <trkpt lat="46.42627" lon="5.41768">
        <ele>476.2</ele>
        <time>2022-04-19T14:36:23Z</time>
      </trkpt>
      <trkpt lat="46.42631" lon="5.41764">
        <ele>476.4</ele>
        <time>2022-04-19T14:36:24Z</time>
      </trkpt>
      <trkpt lat="46.42642" lon="5.41754">
        <ele>477.2</ele>
        <time>2022-04-19T14:36:27Z</time>
      </trkpt>
      <trkpt lat="46.42645" lon="5.4175">
        <ele>477.2</ele>
        <time>2022-04-19T14:36:28Z</time>
      </trkpt>
      <trkpt lat="46.42652" lon="5.41743">
        <ele>477.4</ele>
        <time>2022-04-19T14:36:30Z</time>
      </trkpt>
      <trkpt lat="46.42669" lon="5.41725">
        <ele>477.8</ele>
        <time>2022-04-19T14:36:35Z</time>
      </trkpt>
      <trkpt lat="46.42675" lon="5.41719">
        <ele>478</ele>
        <time>2022-04-19T14:36:37Z</time>
      </trkpt>
      <trkpt lat="46.42678" lon="5.41715">
        <ele>478.2</ele>
        <time>2022-04-19T14:36:38Z</time>
      </trkpt>
      <trkpt lat="46.42694" lon="5.41697">
        <ele>479.4</ele>
        <time>2022-04-19T14:36:43Z</time>
      </trkpt>
      <trkpt lat="46.42697" lon="5.41694">
        <ele>479.6</ele>
        <time>2022-04-19T14:36:44Z</time>
      </trkpt>
      <trkpt lat="46.42706" lon="5.41685">
        <ele>480.6</ele>
        <time>2022-04-19T14:36:47Z</time>
      </trkpt>
      <trkpt lat="46.42716" lon="5.41673">
        <ele>481.6</ele>
        <time>2022-04-19T14:36:51Z</time>
      </trkpt>
      <trkpt lat="46.42718" lon="5.41669">
        <ele>481.8</ele>
        <time>2022-04-19T14:36:52Z</time>
      </trkpt>
      <trkpt lat="46.42718" lon="5.41654">
        <ele>482.4</ele>
        <time>2022-04-19T14:36:55Z</time>
      </trkpt>
      <trkpt lat="46.42713" lon="5.41645">
        <ele>483</ele>
        <time>2022-04-19T14:36:57Z</time>
      </trkpt>
      <trkpt lat="46.42706" lon="5.41639">
        <ele>483.4</ele>
        <time>2022-04-19T14:36:59Z</time>
      </trkpt>
      <trkpt lat="46.42698" lon="5.41637">
        <ele>484</ele>
        <time>2022-04-19T14:37:01Z</time>
      </trkpt>
      <trkpt lat="46.42684" lon="5.41635">
        <ele>484.6</ele>
        <time>2022-04-19T14:37:04Z</time>
      </trkpt>
      <trkpt lat="46.4267" lon="5.4163">
        <ele>485</ele>
        <time>2022-04-19T14:37:07Z</time>
      </trkpt>
      <trkpt lat="46.42658" lon="5.41624">
        <ele>485.8</ele>
        <time>2022-04-19T14:37:10Z</time>
      </trkpt>
      <trkpt lat="46.42654" lon="5.4162">
        <ele>486</ele>
        <time>2022-04-19T14:37:11Z</time>
      </trkpt>
      <trkpt lat="46.42651" lon="5.41617">
        <ele>486.2</ele>
        <time>2022-04-19T14:37:12Z</time>
      </trkpt>
      <trkpt lat="46.42643" lon="5.41614">
        <ele>486.6</ele>
        <time>2022-04-19T14:37:14Z</time>
      </trkpt>
      <trkpt lat="46.42639" lon="5.41613">
        <ele>487</ele>
        <time>2022-04-19T14:37:15Z</time>
      </trkpt>
      <trkpt lat="46.42635" lon="5.41612">
        <ele>487.2</ele>
        <time>2022-04-19T14:37:16Z</time>
      </trkpt>
      <trkpt lat="46.42621" lon="5.41607">
        <ele>488.4</ele>
        <time>2022-04-19T14:37:20Z</time>
      </trkpt>
      <trkpt lat="46.42613" lon="5.41606">
        <ele>489.6</ele>
        <time>2022-04-19T14:37:22Z</time>
      </trkpt>
      <trkpt lat="46.42609" lon="5.41605">
        <ele>490</ele>
        <time>2022-04-19T14:37:23Z</time>
      </trkpt>
      <trkpt lat="46.42602" lon="5.41603">
        <ele>490.6</ele>
        <time>2022-04-19T14:37:25Z</time>
      </trkpt>
      <trkpt lat="46.42587" lon="5.41597">
        <ele>491.8</ele>
        <time>2022-04-19T14:37:29Z</time>
      </trkpt>
      <trkpt lat="46.42579" lon="5.41594">
        <ele>492.2</ele>
        <time>2022-04-19T14:37:31Z</time>
      </trkpt>
      <trkpt lat="46.42571" lon="5.41592">
        <ele>493</ele>
        <time>2022-04-19T14:37:33Z</time>
      </trkpt>
      <trkpt lat="46.42551" lon="5.41586">
        <ele>494.2</ele>
        <time>2022-04-19T14:37:38Z</time>
      </trkpt>
      <trkpt lat="46.42514" lon="5.41581">
        <ele>495.4</ele>
        <time>2022-04-19T14:37:46Z</time>
      </trkpt>
      <trkpt lat="46.42484" lon="5.41575">
        <ele>495.8</ele>
        <time>2022-04-19T14:37:51Z</time>
      </trkpt>
      <trkpt lat="46.42477" lon="5.41573">
        <ele>496</ele>
        <time>2022-04-19T14:37:52Z</time>
      </trkpt>
      <trkpt lat="46.42456" lon="5.41561">
        <ele>495.8</ele>
        <time>2022-04-19T14:37:55Z</time>
      </trkpt>
      <trkpt lat="46.42406" lon="5.41539">
        <ele>495.2</ele>
        <time>2022-04-19T14:38:02Z</time>
      </trkpt>
      <trkpt lat="46.42364" lon="5.41523">
        <ele>495.2</ele>
        <time>2022-04-19T14:38:08Z</time>
      </trkpt>
      <trkpt lat="46.42326" lon="5.41498">
        <ele>495.6</ele>
        <time>2022-04-19T14:38:14Z</time>
      </trkpt>
      <trkpt lat="46.42292" lon="5.41485">
        <ele>496</ele>
        <time>2022-04-19T14:38:19Z</time>
      </trkpt>
      <trkpt lat="46.42279" lon="5.41483">
        <ele>496.4</ele>
        <time>2022-04-19T14:38:21Z</time>
      </trkpt>
      <trkpt lat="46.42267" lon="5.4148">
        <ele>496.8</ele>
        <time>2022-04-19T14:38:23Z</time>
      </trkpt>
      <trkpt lat="46.42261" lon="5.41478">
        <ele>496.8</ele>
        <time>2022-04-19T14:38:24Z</time>
      </trkpt>
      <trkpt lat="46.42244" lon="5.41475">
        <ele>497.2</ele>
        <time>2022-04-19T14:38:27Z</time>
      </trkpt>
      <trkpt lat="46.42233" lon="5.41473">
        <ele>497.4</ele>
        <time>2022-04-19T14:38:29Z</time>
      </trkpt>
      <trkpt lat="46.42216" lon="5.41471">
        <ele>498.2</ele>
        <time>2022-04-19T14:38:32Z</time>
      </trkpt>
      <trkpt lat="46.42211" lon="5.4147">
        <ele>498.4</ele>
        <time>2022-04-19T14:38:33Z</time>
      </trkpt>
      <trkpt lat="46.42184" lon="5.41465">
        <ele>499.8</ele>
        <time>2022-04-19T14:38:38Z</time>
      </trkpt>
      <trkpt lat="46.42173" lon="5.41462">
        <ele>500.4</ele>
        <time>2022-04-19T14:38:40Z</time>
      </trkpt>
      <trkpt lat="46.42162" lon="5.41458">
        <ele>501</ele>
        <time>2022-04-19T14:38:42Z</time>
      </trkpt>
      <trkpt lat="46.42148" lon="5.41452">
        <ele>501.6</ele>
        <time>2022-04-19T14:38:45Z</time>
      </trkpt>
      <trkpt lat="46.42143" lon="5.41449">
        <ele>501.8</ele>
        <time>2022-04-19T14:38:46Z</time>
      </trkpt>
      <trkpt lat="46.42127" lon="5.41443">
        <ele>502.2</ele>
        <time>2022-04-19T14:38:49Z</time>
      </trkpt>
      <trkpt lat="46.42117" lon="5.41438">
        <ele>502.4</ele>
        <time>2022-04-19T14:38:51Z</time>
      </trkpt>
      <trkpt lat="46.42112" lon="5.41436">
        <ele>502.6</ele>
        <time>2022-04-19T14:38:52Z</time>
      </trkpt>
      <trkpt lat="46.42107" lon="5.41434">
        <ele>502.8</ele>
        <time>2022-04-19T14:38:53Z</time>
      </trkpt>
      <trkpt lat="46.42075" lon="5.41422">
        <ele>503.8</ele>
        <time>2022-04-19T14:38:59Z</time>
      </trkpt>
      <trkpt lat="46.42071" lon="5.41419">
        <ele>504.2</ele>
        <time>2022-04-19T14:39:00Z</time>
      </trkpt>
      <trkpt lat="46.42066" lon="5.41417">
        <ele>504.4</ele>
        <time>2022-04-19T14:39:01Z</time>
      </trkpt>
      <trkpt lat="46.42047" lon="5.41409">
        <ele>505.2</ele>
        <time>2022-04-19T14:39:05Z</time>
      </trkpt>
      <trkpt lat="46.42038" lon="5.41405">
        <ele>505.8</ele>
        <time>2022-04-19T14:39:07Z</time>
      </trkpt>
      <trkpt lat="46.42029" lon="5.414">
        <ele>506.2</ele>
        <time>2022-04-19T14:39:09Z</time>
      </trkpt>
      <trkpt lat="46.42012" lon="5.41392">
        <ele>507.4</ele>
        <time>2022-04-19T14:39:13Z</time>
      </trkpt>
      <trkpt lat="46.41996" lon="5.41385">
        <ele>508.4</ele>
        <time>2022-04-19T14:39:17Z</time>
      </trkpt>
      <trkpt lat="46.41992" lon="5.41382">
        <ele>508.8</ele>
        <time>2022-04-19T14:39:18Z</time>
      </trkpt>
      <trkpt lat="46.41982" lon="5.41371">
        <ele>509.4</ele>
        <time>2022-04-19T14:39:21Z</time>
      </trkpt>
      <trkpt lat="46.41976" lon="5.4136">
        <ele>509.8</ele>
        <time>2022-04-19T14:39:23Z</time>
      </trkpt>
      <trkpt lat="46.41968" lon="5.41339">
        <ele>510.4</ele>
        <time>2022-04-19T14:39:26Z</time>
      </trkpt>
      <trkpt lat="46.41966" lon="5.41332">
        <ele>510.8</ele>
        <time>2022-04-19T14:39:27Z</time>
      </trkpt>
      <trkpt lat="46.41964" lon="5.41325">
        <ele>510.8</ele>
        <time>2022-04-19T14:39:28Z</time>
      </trkpt>
      <trkpt lat="46.41959" lon="5.41303">
        <ele>511.8</ele>
        <time>2022-04-19T14:39:31Z</time>
      </trkpt>
      <trkpt lat="46.41956" lon="5.41289">
        <ele>512.2</ele>
        <time>2022-04-19T14:39:33Z</time>
      </trkpt>
      <trkpt lat="46.41955" lon="5.41281">
        <ele>512.6</ele>
        <time>2022-04-19T14:39:34Z</time>
      </trkpt>
      <trkpt lat="46.41953" lon="5.41275">
        <ele>512.8</ele>
        <time>2022-04-19T14:39:35Z</time>
      </trkpt>
      <trkpt lat="46.41952" lon="5.41268">
        <ele>513</ele>
        <time>2022-04-19T14:39:36Z</time>
      </trkpt>
      <trkpt lat="46.4195" lon="5.41241">
        <ele>513.8</ele>
        <time>2022-04-19T14:39:40Z</time>
      </trkpt>
      <trkpt lat="46.41949" lon="5.41234">
        <ele>514.2</ele>
        <time>2022-04-19T14:39:41Z</time>
      </trkpt>
      <trkpt lat="46.41947" lon="5.4122">
        <ele>514.6</ele>
        <time>2022-04-19T14:39:43Z</time>
      </trkpt>
      <trkpt lat="46.41945" lon="5.41206">
        <ele>514.8</ele>
        <time>2022-04-19T14:39:45Z</time>
      </trkpt>
      <trkpt lat="46.41945" lon="5.41199">
        <ele>515.2</ele>
        <time>2022-04-19T14:39:46Z</time>
      </trkpt>
      <trkpt lat="46.41945" lon="5.41193">
        <ele>515.2</ele>
        <time>2022-04-19T14:39:47Z</time>
      </trkpt>
      <trkpt lat="46.41945" lon="5.41167">
        <ele>516</ele>
        <time>2022-04-19T14:39:51Z</time>
      </trkpt>
      <trkpt lat="46.41945" lon="5.41154">
        <ele>516.6</ele>
        <time>2022-04-19T14:39:53Z</time>
      </trkpt>
      <trkpt lat="46.41944" lon="5.4114">
        <ele>517</ele>
        <time>2022-04-19T14:39:55Z</time>
      </trkpt>
      <trkpt lat="46.41943" lon="5.41126">
        <ele>517.6</ele>
        <time>2022-04-19T14:39:57Z</time>
      </trkpt>
      <trkpt lat="46.41943" lon="5.41118">
        <ele>518</ele>
        <time>2022-04-19T14:39:58Z</time>
      </trkpt>
      <trkpt lat="46.41943" lon="5.41097">
        <ele>518.6</ele>
        <time>2022-04-19T14:40:01Z</time>
      </trkpt>
      <trkpt lat="46.41944" lon="5.41076">
        <ele>519</ele>
        <time>2022-04-19T14:40:04Z</time>
      </trkpt>
      <trkpt lat="46.41945" lon="5.41069">
        <ele>519.2</ele>
        <time>2022-04-19T14:40:05Z</time>
      </trkpt>
      <trkpt lat="46.4195" lon="5.41055">
        <ele>519.6</ele>
        <time>2022-04-19T14:40:07Z</time>
      </trkpt>
      <trkpt lat="46.41953" lon="5.41049">
        <ele>519.8</ele>
        <time>2022-04-19T14:40:08Z</time>
      </trkpt>
      <trkpt lat="46.41962" lon="5.4103">
        <ele>520.4</ele>
        <time>2022-04-19T14:40:11Z</time>
      </trkpt>
      <trkpt lat="46.41971" lon="5.41019">
        <ele>520.8</ele>
        <time>2022-04-19T14:40:13Z</time>
      </trkpt>
      <trkpt lat="46.41994" lon="5.4099">
        <ele>522</ele>
        <time>2022-04-19T14:40:18Z</time>
      </trkpt>
      <trkpt lat="46.42003" lon="5.40979">
        <ele>522.2</ele>
        <time>2022-04-19T14:40:20Z</time>
      </trkpt>
      <trkpt lat="46.42011" lon="5.40964">
        <ele>522.2</ele>
        <time>2022-04-19T14:40:22Z</time>
      </trkpt>
      <trkpt lat="46.42017" lon="5.4095">
        <ele>522.6</ele>
        <time>2022-04-19T14:40:24Z</time>
      </trkpt>
      <trkpt lat="46.42022" lon="5.40934">
        <ele>522.8</ele>
        <time>2022-04-19T14:40:26Z</time>
      </trkpt>
      <trkpt lat="46.42023" lon="5.40917">
        <ele>523</ele>
        <time>2022-04-19T14:40:28Z</time>
      </trkpt>
      <trkpt lat="46.42024" lon="5.40899">
        <ele>523</ele>
        <time>2022-04-19T14:40:30Z</time>
      </trkpt>
      <trkpt lat="46.42025" lon="5.40874">
        <ele>523.2</ele>
        <time>2022-04-19T14:40:33Z</time>
      </trkpt>
      <trkpt lat="46.42026" lon="5.40867">
        <ele>523.4</ele>
        <time>2022-04-19T14:40:34Z</time>
      </trkpt>
      <trkpt lat="46.42033" lon="5.40841">
        <ele>524</ele>
        <time>2022-04-19T14:40:37Z</time>
      </trkpt>
      <trkpt lat="46.42037" lon="5.40832">
        <ele>524</ele>
        <time>2022-04-19T14:40:38Z</time>
      </trkpt>
      <trkpt lat="46.42042" lon="5.40823">
        <ele>524.2</ele>
        <time>2022-04-19T14:40:39Z</time>
      </trkpt>
      <trkpt lat="46.4206" lon="5.40803">
        <ele>524.2</ele>
        <time>2022-04-19T14:40:42Z</time>
      </trkpt>
      <trkpt lat="46.42081" lon="5.40791">
        <ele>524.2</ele>
        <time>2022-04-19T14:40:45Z</time>
      </trkpt>
      <trkpt lat="46.42089" lon="5.40789">
        <ele>523.8</ele>
        <time>2022-04-19T14:40:46Z</time>
      </trkpt>
      <trkpt lat="46.42096" lon="5.40789">
        <ele>523.8</ele>
        <time>2022-04-19T14:40:47Z</time>
      </trkpt>
      <trkpt lat="46.4212" lon="5.40791">
        <ele>523</ele>
        <time>2022-04-19T14:40:50Z</time>
      </trkpt>
      <trkpt lat="46.42128" lon="5.40791">
        <ele>522.6</ele>
        <time>2022-04-19T14:40:51Z</time>
      </trkpt>
      <trkpt lat="46.42145" lon="5.4079">
        <ele>522.2</ele>
        <time>2022-04-19T14:40:53Z</time>
      </trkpt>
      <trkpt lat="46.42153" lon="5.40789">
        <ele>521.8</ele>
        <time>2022-04-19T14:40:54Z</time>
      </trkpt>
      <trkpt lat="46.42161" lon="5.40786">
        <ele>521.4</ele>
        <time>2022-04-19T14:40:55Z</time>
      </trkpt>
      <trkpt lat="46.42178" lon="5.40774">
        <ele>520.6</ele>
        <time>2022-04-19T14:40:57Z</time>
      </trkpt>
      <trkpt lat="46.42193" lon="5.40755">
        <ele>520.2</ele>
        <time>2022-04-19T14:40:59Z</time>
      </trkpt>
      <trkpt lat="46.422" lon="5.40745">
        <ele>520</ele>
        <time>2022-04-19T14:41:00Z</time>
      </trkpt>
      <trkpt lat="46.42208" lon="5.40736">
        <ele>519.6</ele>
        <time>2022-04-19T14:41:01Z</time>
      </trkpt>
      <trkpt lat="46.42226" lon="5.40722">
        <ele>518.4</ele>
        <time>2022-04-19T14:41:03Z</time>
      </trkpt>
      <trkpt lat="46.42234" lon="5.40715">
        <ele>517.8</ele>
        <time>2022-04-19T14:41:04Z</time>
      </trkpt>
      <trkpt lat="46.42261" lon="5.40693">
        <ele>517</ele>
        <time>2022-04-19T14:41:07Z</time>
      </trkpt>
      <trkpt lat="46.42278" lon="5.40678">
        <ele>515.6</ele>
        <time>2022-04-19T14:41:09Z</time>
      </trkpt>
      <trkpt lat="46.42287" lon="5.4067">
        <ele>515</ele>
        <time>2022-04-19T14:41:10Z</time>
      </trkpt>
      <trkpt lat="46.42295" lon="5.40661">
        <ele>514.2</ele>
        <time>2022-04-19T14:41:11Z</time>
      </trkpt>
      <trkpt lat="46.4232" lon="5.40631">
        <ele>513</ele>
        <time>2022-04-19T14:41:14Z</time>
      </trkpt>
      <trkpt lat="46.42329" lon="5.40622">
        <ele>512.6</ele>
        <time>2022-04-19T14:41:15Z</time>
      </trkpt>
      <trkpt lat="46.4236" lon="5.40598">
        <ele>511.8</ele>
        <time>2022-04-19T14:41:18Z</time>
      </trkpt>
      <trkpt lat="46.4237" lon="5.4059">
        <ele>510.6</ele>
        <time>2022-04-19T14:41:19Z</time>
      </trkpt>
      <trkpt lat="46.42391" lon="5.40572">
        <ele>509</ele>
        <time>2022-04-19T14:41:21Z</time>
      </trkpt>
      <trkpt lat="46.42411" lon="5.40554">
        <ele>508</ele>
        <time>2022-04-19T14:41:23Z</time>
      </trkpt>
      <trkpt lat="46.4243" lon="5.40536">
        <ele>506.4</ele>
        <time>2022-04-19T14:41:25Z</time>
      </trkpt>
      <trkpt lat="46.42458" lon="5.40507">
        <ele>504.8</ele>
        <time>2022-04-19T14:41:28Z</time>
      </trkpt>
      <trkpt lat="46.42475" lon="5.40485">
        <ele>503.8</ele>
        <time>2022-04-19T14:41:30Z</time>
      </trkpt>
      <trkpt lat="46.42482" lon="5.40473">
        <ele>503.2</ele>
        <time>2022-04-19T14:41:31Z</time>
      </trkpt>
      <trkpt lat="46.42488" lon="5.40461">
        <ele>502.6</ele>
        <time>2022-04-19T14:41:32Z</time>
      </trkpt>
      <trkpt lat="46.42492" lon="5.40448">
        <ele>502.4</ele>
        <time>2022-04-19T14:41:33Z</time>
      </trkpt>
      <trkpt lat="46.42495" lon="5.40433">
        <ele>501.6</ele>
        <time>2022-04-19T14:41:34Z</time>
      </trkpt>
      <trkpt lat="46.42496" lon="5.40418">
        <ele>500.8</ele>
        <time>2022-04-19T14:41:35Z</time>
      </trkpt>
      <trkpt lat="46.42494" lon="5.40402">
        <ele>500.6</ele>
        <time>2022-04-19T14:41:36Z</time>
      </trkpt>
      <trkpt lat="46.4249" lon="5.40387">
        <ele>499.8</ele>
        <time>2022-04-19T14:41:37Z</time>
      </trkpt>
      <trkpt lat="46.42484" lon="5.40374">
        <ele>499.2</ele>
        <time>2022-04-19T14:41:38Z</time>
      </trkpt>
      <trkpt lat="46.42476" lon="5.40362">
        <ele>498.4</ele>
        <time>2022-04-19T14:41:39Z</time>
      </trkpt>
      <trkpt lat="46.42467" lon="5.40351">
        <ele>498.2</ele>
        <time>2022-04-19T14:41:40Z</time>
      </trkpt>
      <trkpt lat="46.42455" lon="5.40343">
        <ele>497.2</ele>
        <time>2022-04-19T14:41:41Z</time>
      </trkpt>
      <trkpt lat="46.42431" lon="5.40324">
        <ele>495.8</ele>
        <time>2022-04-19T14:41:43Z</time>
      </trkpt>
      <trkpt lat="46.42419" lon="5.40314">
        <ele>494.8</ele>
        <time>2022-04-19T14:41:44Z</time>
      </trkpt>
      <trkpt lat="46.42408" lon="5.40302">
        <ele>494</ele>
        <time>2022-04-19T14:41:45Z</time>
      </trkpt>
      <trkpt lat="46.42398" lon="5.40286">
        <ele>491.8</ele>
        <time>2022-04-19T14:41:46Z</time>
      </trkpt>
      <trkpt lat="46.42391" lon="5.40268">
        <ele>491</ele>
        <time>2022-04-19T14:41:47Z</time>
      </trkpt>
      <trkpt lat="46.42386" lon="5.40248">
        <ele>489.6</ele>
        <time>2022-04-19T14:41:48Z</time>
      </trkpt>
      <trkpt lat="46.42384" lon="5.40229">
        <ele>488.6</ele>
        <time>2022-04-19T14:41:49Z</time>
      </trkpt>
      <trkpt lat="46.42385" lon="5.4019">
        <ele>485.2</ele>
        <time>2022-04-19T14:41:51Z</time>
      </trkpt>
      <trkpt lat="46.42386" lon="5.40152">
        <ele>482.8</ele>
        <time>2022-04-19T14:41:53Z</time>
      </trkpt>
      <trkpt lat="46.42388" lon="5.40114">
        <ele>481.6</ele>
        <time>2022-04-19T14:41:55Z</time>
      </trkpt>
      <trkpt lat="46.4239" lon="5.4004">
        <ele>480.4</ele>
        <time>2022-04-19T14:41:59Z</time>
      </trkpt>
      <trkpt lat="46.42392" lon="5.40004">
        <ele>480</ele>
        <time>2022-04-19T14:42:01Z</time>
      </trkpt>
      <trkpt lat="46.42392" lon="5.39987">
        <ele>479.2</ele>
        <time>2022-04-19T14:42:02Z</time>
      </trkpt>
      <trkpt lat="46.42393" lon="5.3997">
        <ele>478.2</ele>
        <time>2022-04-19T14:42:03Z</time>
      </trkpt>
      <trkpt lat="46.42394" lon="5.39936">
        <ele>477</ele>
        <time>2022-04-19T14:42:05Z</time>
      </trkpt>
      <trkpt lat="46.42395" lon="5.39903">
        <ele>476.2</ele>
        <time>2022-04-19T14:42:07Z</time>
      </trkpt>
      <trkpt lat="46.42396" lon="5.39891">
        <ele>475.8</ele>
        <time>2022-04-19T14:42:08Z</time>
      </trkpt>
      <trkpt lat="46.42397" lon="5.3983">
        <ele>474.8</ele>
        <time>2022-04-19T14:42:12Z</time>
      </trkpt>
      <trkpt lat="46.424" lon="5.39804">
        <ele>475.4</ele>
        <time>2022-04-19T14:42:14Z</time>
      </trkpt>
      <trkpt lat="46.42404" lon="5.39795">
        <ele>475.4</ele>
        <time>2022-04-19T14:42:15Z</time>
      </trkpt>
      <trkpt lat="46.4241" lon="5.39788">
        <ele>475.4</ele>
        <time>2022-04-19T14:42:16Z</time>
      </trkpt>
      <trkpt lat="46.42417" lon="5.39787">
        <ele>475.6</ele>
        <time>2022-04-19T14:42:17Z</time>
      </trkpt>
      <trkpt lat="46.42424" lon="5.39788">
        <ele>476.2</ele>
        <time>2022-04-19T14:42:18Z</time>
      </trkpt>
      <trkpt lat="46.42447" lon="5.39798">
        <ele>477</ele>
        <time>2022-04-19T14:42:21Z</time>
      </trkpt>
      <trkpt lat="46.42463" lon="5.3981">
        <ele>477.2</ele>
        <time>2022-04-19T14:42:23Z</time>
      </trkpt>
      <trkpt lat="46.42469" lon="5.39819">
        <ele>477.2</ele>
        <time>2022-04-19T14:42:24Z</time>
      </trkpt>
      <trkpt lat="46.42481" lon="5.39836">
        <ele>477.4</ele>
        <time>2022-04-19T14:42:26Z</time>
      </trkpt>
      <trkpt lat="46.42511" lon="5.39875">
        <ele>477.4</ele>
        <time>2022-04-19T14:42:31Z</time>
      </trkpt>
      <trkpt lat="46.42552" lon="5.39907">
        <ele>477.2</ele>
        <time>2022-04-19T14:42:37Z</time>
      </trkpt>
      <trkpt lat="46.42595" lon="5.3994">
        <ele>477</ele>
        <time>2022-04-19T14:42:44Z</time>
      </trkpt>
      <trkpt lat="46.42629" lon="5.39956">
        <ele>477</ele>
        <time>2022-04-19T14:42:50Z</time>
      </trkpt>
      <trkpt lat="46.42675" lon="5.39978">
        <ele>477.4</ele>
        <time>2022-04-19T14:42:58Z</time>
      </trkpt>
      <trkpt lat="46.42725" lon="5.4">
        <ele>477.4</ele>
        <time>2022-04-19T14:43:06Z</time>
      </trkpt>
      <trkpt lat="46.42767" lon="5.40017">
        <ele>477.6</ele>
        <time>2022-04-19T14:43:13Z</time>
      </trkpt>
      <trkpt lat="46.42812" lon="5.40034">
        <ele>478</ele>
        <time>2022-04-19T14:43:21Z</time>
      </trkpt>
      <trkpt lat="46.42852" lon="5.40047">
        <ele>477.8</ele>
        <time>2022-04-19T14:43:27Z</time>
      </trkpt>
      <trkpt lat="46.42897" lon="5.40056">
        <ele>477.4</ele>
        <time>2022-04-19T14:43:34Z</time>
      </trkpt>
      <trkpt lat="46.42931" lon="5.40058">
        <ele>478</ele>
        <time>2022-04-19T14:43:40Z</time>
      </trkpt>
      <trkpt lat="46.42936" lon="5.40058">
        <ele>478</ele>
        <time>2022-04-19T14:43:41Z</time>
      </trkpt>
      <trkpt lat="46.42963" lon="5.40062">
        <ele>478.4</ele>
        <time>2022-04-19T14:43:46Z</time>
      </trkpt>
      <trkpt lat="46.42973" lon="5.40065">
        <ele>478.8</ele>
        <time>2022-04-19T14:43:48Z</time>
      </trkpt>
      <trkpt lat="46.4299" lon="5.40068">
        <ele>479.6</ele>
        <time>2022-04-19T14:43:51Z</time>
      </trkpt>
      <trkpt lat="46.4303" lon="5.40075">
        <ele>480.6</ele>
        <time>2022-04-19T14:43:58Z</time>
      </trkpt>
      <trkpt lat="46.43077" lon="5.40076">
        <ele>481</ele>
        <time>2022-04-19T14:44:06Z</time>
      </trkpt>
      <trkpt lat="46.43114" lon="5.40084">
        <ele>480.6</ele>
        <time>2022-04-19T14:44:11Z</time>
      </trkpt>
      <trkpt lat="46.43154" lon="5.40091">
        <ele>479.2</ele>
        <time>2022-04-19T14:44:16Z</time>
      </trkpt>
      <trkpt lat="46.43169" lon="5.40093">
        <ele>478.8</ele>
        <time>2022-04-19T14:44:18Z</time>
      </trkpt>
      <trkpt lat="46.43184" lon="5.40097">
        <ele>478.8</ele>
        <time>2022-04-19T14:44:20Z</time>
      </trkpt>
      <trkpt lat="46.43205" lon="5.40108">
        <ele>478.6</ele>
        <time>2022-04-19T14:44:23Z</time>
      </trkpt>
      <trkpt lat="46.43226" lon="5.40119">
        <ele>478.6</ele>
        <time>2022-04-19T14:44:26Z</time>
      </trkpt>
      <trkpt lat="46.43242" lon="5.40122">
        <ele>478.4</ele>
        <time>2022-04-19T14:44:28Z</time>
      </trkpt>
      <trkpt lat="46.43279" lon="5.40119">
        <ele>478.2</ele>
        <time>2022-04-19T14:44:33Z</time>
      </trkpt>
      <trkpt lat="46.4334" lon="5.40116">
        <ele>477.8</ele>
        <time>2022-04-19T14:44:41Z</time>
      </trkpt>
      <trkpt lat="46.43384" lon="5.40122">
        <ele>477.8</ele>
        <time>2022-04-19T14:44:47Z</time>
      </trkpt>
      <trkpt lat="46.43438" lon="5.40143">
        <ele>477.6</ele>
        <time>2022-04-19T14:44:54Z</time>
      </trkpt>
      <trkpt lat="46.43453" lon="5.4015">
        <ele>477.6</ele>
        <time>2022-04-19T14:44:56Z</time>
      </trkpt>
      <trkpt lat="46.43495" lon="5.4017">
        <ele>477.4</ele>
        <time>2022-04-19T14:45:02Z</time>
      </trkpt>
      <trkpt lat="46.43501" lon="5.40171">
        <ele>477.4</ele>
        <time>2022-04-19T14:45:03Z</time>
      </trkpt>
      <trkpt lat="46.43553" lon="5.40177">
        <ele>477.8</ele>
        <time>2022-04-19T14:45:10Z</time>
      </trkpt>
      <trkpt lat="46.43592" lon="5.40185">
        <ele>478</ele>
        <time>2022-04-19T14:45:15Z</time>
      </trkpt>
      <trkpt lat="46.4363" lon="5.40189">
        <ele>478.4</ele>
        <time>2022-04-19T14:45:20Z</time>
      </trkpt>
      <trkpt lat="46.43651" lon="5.40187">
        <ele>478.6</ele>
        <time>2022-04-19T14:45:23Z</time>
      </trkpt>
      <trkpt lat="46.43663" lon="5.40184">
        <ele>478.6</ele>
        <time>2022-04-19T14:45:25Z</time>
      </trkpt>
      <trkpt lat="46.43704" lon="5.40178">
        <ele>479.4</ele>
        <time>2022-04-19T14:45:31Z</time>
      </trkpt>
      <trkpt lat="46.43712" lon="5.40177">
        <ele>479.4</ele>
        <time>2022-04-19T14:45:32Z</time>
      </trkpt>
      <trkpt lat="46.43753" lon="5.40169">
        <ele>480.6</ele>
        <time>2022-04-19T14:45:38Z</time>
      </trkpt>
      <trkpt lat="46.43766" lon="5.40166">
        <ele>480.8</ele>
        <time>2022-04-19T14:45:40Z</time>
      </trkpt>
      <trkpt lat="46.43817" lon="5.4015">
        <ele>481.2</ele>
        <time>2022-04-19T14:45:47Z</time>
      </trkpt>
      <trkpt lat="46.43868" lon="5.40132">
        <ele>481</ele>
        <time>2022-04-19T14:45:54Z</time>
      </trkpt>
      <trkpt lat="46.43884" lon="5.40122">
        <ele>481</ele>
        <time>2022-04-19T14:45:56Z</time>
      </trkpt>
      <trkpt lat="46.43897" lon="5.40109">
        <ele>480.4</ele>
        <time>2022-04-19T14:45:58Z</time>
      </trkpt>
      <trkpt lat="46.43917" lon="5.40093">
        <ele>480.2</ele>
        <time>2022-04-19T14:46:01Z</time>
      </trkpt>
      <trkpt lat="46.43931" lon="5.40087">
        <ele>480.2</ele>
        <time>2022-04-19T14:46:03Z</time>
      </trkpt>
      <trkpt lat="46.43963" lon="5.40086">
        <ele>479.8</ele>
        <time>2022-04-19T14:46:07Z</time>
      </trkpt>
      <trkpt lat="46.4401" lon="5.40081">
        <ele>479.8</ele>
        <time>2022-04-19T14:46:13Z</time>
      </trkpt>
      <trkpt lat="46.44017" lon="5.4008">
        <ele>479.6</ele>
        <time>2022-04-19T14:46:14Z</time>
      </trkpt>
      <trkpt lat="46.44044" lon="5.40073">
        <ele>479.6</ele>
        <time>2022-04-19T14:46:18Z</time>
      </trkpt>
      <trkpt lat="46.44097" lon="5.4006">
        <ele>480.6</ele>
        <time>2022-04-19T14:46:26Z</time>
      </trkpt>
      <trkpt lat="46.44136" lon="5.40045">
        <ele>480.6</ele>
        <time>2022-04-19T14:46:32Z</time>
      </trkpt>
      <trkpt lat="46.44142" lon="5.40041">
        <ele>480.8</ele>
        <time>2022-04-19T14:46:33Z</time>
      </trkpt>
      <trkpt lat="46.44169" lon="5.40017">
        <ele>481</ele>
        <time>2022-04-19T14:46:38Z</time>
      </trkpt>
      <trkpt lat="46.44189" lon="5.39997">
        <ele>481.8</ele>
        <time>2022-04-19T14:46:42Z</time>
      </trkpt>
      <trkpt lat="46.44223" lon="5.39968">
        <ele>482</ele>
        <time>2022-04-19T14:46:48Z</time>
      </trkpt>
      <trkpt lat="46.44251" lon="5.39954">
        <ele>482.2</ele>
        <time>2022-04-19T14:46:52Z</time>
      </trkpt>
      <trkpt lat="46.4428" lon="5.39954">
        <ele>482.2</ele>
        <time>2022-04-19T14:46:56Z</time>
      </trkpt>
      <trkpt lat="46.44316" lon="5.39952">
        <ele>482.4</ele>
        <time>2022-04-19T14:47:02Z</time>
      </trkpt>
      <trkpt lat="46.44328" lon="5.39953">
        <ele>482.6</ele>
        <time>2022-04-19T14:47:04Z</time>
      </trkpt>
      <trkpt lat="46.44333" lon="5.39952">
        <ele>483</ele>
        <time>2022-04-19T14:47:05Z</time>
      </trkpt>
      <trkpt lat="46.44345" lon="5.39951">
        <ele>483.8</ele>
        <time>2022-04-19T14:47:07Z</time>
      </trkpt>
      <trkpt lat="46.4435" lon="5.39951">
        <ele>484.4</ele>
        <time>2022-04-19T14:47:08Z</time>
      </trkpt>
      <trkpt lat="46.4438" lon="5.3995">
        <ele>485.4</ele>
        <time>2022-04-19T14:47:13Z</time>
      </trkpt>
      <trkpt lat="46.44386" lon="5.3995">
        <ele>485.4</ele>
        <time>2022-04-19T14:47:14Z</time>
      </trkpt>
      <trkpt lat="46.4443" lon="5.39946">
        <ele>485.6</ele>
        <time>2022-04-19T14:47:20Z</time>
      </trkpt>
      <trkpt lat="46.44471" lon="5.39929">
        <ele>485.6</ele>
        <time>2022-04-19T14:47:26Z</time>
      </trkpt>
      <trkpt lat="46.44494" lon="5.39917">
        <ele>485.6</ele>
        <time>2022-04-19T14:47:30Z</time>
      </trkpt>
      <trkpt lat="46.44527" lon="5.39901">
        <ele>486.2</ele>
        <time>2022-04-19T14:47:36Z</time>
      </trkpt>
      <trkpt lat="46.44549" lon="5.39891">
        <ele>486.4</ele>
        <time>2022-04-19T14:47:40Z</time>
      </trkpt>
      <trkpt lat="46.44578" lon="5.39878">
        <ele>486.6</ele>
        <time>2022-04-19T14:47:45Z</time>
      </trkpt>
      <trkpt lat="46.44584" lon="5.39875">
        <ele>486.6</ele>
        <time>2022-04-19T14:47:46Z</time>
      </trkpt>
      <trkpt lat="46.44604" lon="5.39858">
        <ele>486.8</ele>
        <time>2022-04-19T14:47:50Z</time>
      </trkpt>
      <trkpt lat="46.4463" lon="5.39824">
        <ele>486.8</ele>
        <time>2022-04-19T14:47:56Z</time>
      </trkpt>
      <trkpt lat="46.44648" lon="5.39808">
        <ele>486.8</ele>
        <time>2022-04-19T14:47:59Z</time>
      </trkpt>
      <trkpt lat="46.44653" lon="5.39805">
        <ele>486.8</ele>
        <time>2022-04-19T14:48:00Z</time>
      </trkpt>
      <trkpt lat="46.44663" lon="5.39801">
        <ele>486.6</ele>
        <time>2022-04-19T14:48:01Z</time>
      </trkpt>
      <trkpt lat="46.44679" lon="5.39797">
        <ele>486.4</ele>
        <time>2022-04-19T14:48:03Z</time>
      </trkpt>
      <trkpt lat="46.44688" lon="5.39797">
        <ele>486.2</ele>
        <time>2022-04-19T14:48:04Z</time>
      </trkpt>
      <trkpt lat="46.4471" lon="5.39797">
        <ele>485.4</ele>
        <time>2022-04-19T14:48:07Z</time>
      </trkpt>
      <trkpt lat="46.44722" lon="5.39798">
        <ele>485.2</ele>
        <time>2022-04-19T14:48:09Z</time>
      </trkpt>
      <trkpt lat="46.44752" lon="5.398">
        <ele>485.6</ele>
        <time>2022-04-19T14:48:14Z</time>
      </trkpt>
      <trkpt lat="46.4478" lon="5.39801">
        <ele>487</ele>
        <time>2022-04-19T14:48:19Z</time>
      </trkpt>
      <trkpt lat="46.44786" lon="5.39801">
        <ele>487.4</ele>
        <time>2022-04-19T14:48:20Z</time>
      </trkpt>
      <trkpt lat="46.44798" lon="5.39799">
        <ele>487.8</ele>
        <time>2022-04-19T14:48:22Z</time>
      </trkpt>
      <trkpt lat="46.44805" lon="5.39796">
        <ele>488</ele>
        <time>2022-04-19T14:48:23Z</time>
      </trkpt>
      <trkpt lat="46.44812" lon="5.39793">
        <ele>488</ele>
        <time>2022-04-19T14:48:24Z</time>
      </trkpt>
      <trkpt lat="46.44847" lon="5.39769">
        <ele>488.2</ele>
        <time>2022-04-19T14:48:29Z</time>
      </trkpt>
      <trkpt lat="46.44861" lon="5.39761">
        <ele>488.2</ele>
        <time>2022-04-19T14:48:31Z</time>
      </trkpt>
      <trkpt lat="46.44877" lon="5.39756">
        <ele>488</ele>
        <time>2022-04-19T14:48:33Z</time>
      </trkpt>
      <trkpt lat="46.44884" lon="5.39754">
        <ele>488</ele>
        <time>2022-04-19T14:48:34Z</time>
      </trkpt>
      <trkpt lat="46.44904" lon="5.39751">
        <ele>488</ele>
        <time>2022-04-19T14:48:37Z</time>
      </trkpt>
      <trkpt lat="46.44942" lon="5.39739">
        <ele>489</ele>
        <time>2022-04-19T14:48:43Z</time>
      </trkpt>
      <trkpt lat="46.44948" lon="5.39738">
        <ele>489.2</ele>
        <time>2022-04-19T14:48:44Z</time>
      </trkpt>
      <trkpt lat="46.44971" lon="5.39732">
        <ele>489.2</ele>
        <time>2022-04-19T14:48:47Z</time>
      </trkpt>
      <trkpt lat="46.44983" lon="5.39725">
        <ele>489.2</ele>
        <time>2022-04-19T14:48:49Z</time>
      </trkpt>
      <trkpt lat="46.4501" lon="5.39697">
        <ele>489</ele>
        <time>2022-04-19T14:48:54Z</time>
      </trkpt>
      <trkpt lat="46.45039" lon="5.39667">
        <ele>489.8</ele>
        <time>2022-04-19T14:49:00Z</time>
      </trkpt>
      <trkpt lat="46.45044" lon="5.39663">
        <ele>490.2</ele>
        <time>2022-04-19T14:49:01Z</time>
      </trkpt>
      <trkpt lat="46.45069" lon="5.39644">
        <ele>491.2</ele>
        <time>2022-04-19T14:49:06Z</time>
      </trkpt>
      <trkpt lat="46.45074" lon="5.3964">
        <ele>491.4</ele>
        <time>2022-04-19T14:49:07Z</time>
      </trkpt>
      <trkpt lat="46.45099" lon="5.39621">
        <ele>492.4</ele>
        <time>2022-04-19T14:49:12Z</time>
      </trkpt>
      <trkpt lat="46.45134" lon="5.39602">
        <ele>493.2</ele>
        <time>2022-04-19T14:49:18Z</time>
      </trkpt>
      <trkpt lat="46.45176" lon="5.39583">
        <ele>493.4</ele>
        <time>2022-04-19T14:49:24Z</time>
      </trkpt>
      <trkpt lat="46.45216" lon="5.39565">
        <ele>492.8</ele>
        <time>2022-04-19T14:49:29Z</time>
      </trkpt>
      <trkpt lat="46.45258" lon="5.39541">
        <ele>491.4</ele>
        <time>2022-04-19T14:49:34Z</time>
      </trkpt>
      <trkpt lat="46.45265" lon="5.39534">
        <ele>491</ele>
        <time>2022-04-19T14:49:35Z</time>
      </trkpt>
      <trkpt lat="46.45286" lon="5.39512">
        <ele>490</ele>
        <time>2022-04-19T14:49:38Z</time>
      </trkpt>
      <trkpt lat="46.4531" lon="5.39479">
        <ele>489.4</ele>
        <time>2022-04-19T14:49:42Z</time>
      </trkpt>
      <trkpt lat="46.45324" lon="5.39451">
        <ele>489</ele>
        <time>2022-04-19T14:49:45Z</time>
      </trkpt>
      <trkpt lat="46.45332" lon="5.39431">
        <ele>488.8</ele>
        <time>2022-04-19T14:49:47Z</time>
      </trkpt>
      <trkpt lat="46.45361" lon="5.39352">
        <ele>487.8</ele>
        <time>2022-04-19T14:49:54Z</time>
      </trkpt>
      <trkpt lat="46.45366" lon="5.3934">
        <ele>487.2</ele>
        <time>2022-04-19T14:49:55Z</time>
      </trkpt>
      <trkpt lat="46.45375" lon="5.39314">
        <ele>486.4</ele>
        <time>2022-04-19T14:49:57Z</time>
      </trkpt>
      <trkpt lat="46.45388" lon="5.39278">
        <ele>485.4</ele>
        <time>2022-04-19T14:50:00Z</time>
      </trkpt>
      <trkpt lat="46.45397" lon="5.39252">
        <ele>484.2</ele>
        <time>2022-04-19T14:50:02Z</time>
      </trkpt>
      <trkpt lat="46.45415" lon="5.39202">
        <ele>483.2</ele>
        <time>2022-04-19T14:50:06Z</time>
      </trkpt>
      <trkpt lat="46.45431" lon="5.39154">
        <ele>482</ele>
        <time>2022-04-19T14:50:10Z</time>
      </trkpt>
      <trkpt lat="46.45445" lon="5.39116">
        <ele>481.6</ele>
        <time>2022-04-19T14:50:14Z</time>
      </trkpt>
      <trkpt lat="46.45448" lon="5.39109">
        <ele>481.4</ele>
        <time>2022-04-19T14:50:15Z</time>
      </trkpt>
      <trkpt lat="46.45457" lon="5.39098">
        <ele>480.8</ele>
        <time>2022-04-19T14:50:17Z</time>
      </trkpt>
      <trkpt lat="46.45463" lon="5.39095">
        <ele>480.2</ele>
        <time>2022-04-19T14:50:18Z</time>
      </trkpt>
      <trkpt lat="46.45469" lon="5.39093">
        <ele>480</ele>
        <time>2022-04-19T14:50:19Z</time>
      </trkpt>
      <trkpt lat="46.45476" lon="5.39094">
        <ele>479.4</ele>
        <time>2022-04-19T14:50:20Z</time>
      </trkpt>
      <trkpt lat="46.45482" lon="5.39097">
        <ele>479.2</ele>
        <time>2022-04-19T14:50:21Z</time>
      </trkpt>
      <trkpt lat="46.45506" lon="5.39121">
        <ele>478.4</ele>
        <time>2022-04-19T14:50:25Z</time>
      </trkpt>
      <trkpt lat="46.45517" lon="5.39131">
        <ele>478.2</ele>
        <time>2022-04-19T14:50:27Z</time>
      </trkpt>
      <trkpt lat="46.4555" lon="5.39164">
        <ele>478.8</ele>
        <time>2022-04-19T14:50:33Z</time>
      </trkpt>
      <trkpt lat="46.45565" lon="5.39179">
        <ele>479.6</ele>
        <time>2022-04-19T14:50:36Z</time>
      </trkpt>
      <trkpt lat="46.45575" lon="5.39188">
        <ele>480</ele>
        <time>2022-04-19T14:50:38Z</time>
      </trkpt>
      <trkpt lat="46.45588" lon="5.39202">
        <ele>480.8</ele>
        <time>2022-04-19T14:50:41Z</time>
      </trkpt>
      <trkpt lat="46.45604" lon="5.39218">
        <ele>482</ele>
        <time>2022-04-19T14:50:45Z</time>
      </trkpt>
      <trkpt lat="46.45622" lon="5.3924">
        <ele>483</ele>
        <time>2022-04-19T14:50:50Z</time>
      </trkpt>
      <trkpt lat="46.45626" lon="5.39244">
        <ele>483.2</ele>
        <time>2022-04-19T14:50:51Z</time>
      </trkpt>
      <trkpt lat="46.45631" lon="5.39248">
        <ele>483.6</ele>
        <time>2022-04-19T14:50:52Z</time>
      </trkpt>
      <trkpt lat="46.45642" lon="5.3926">
        <ele>484.2</ele>
        <time>2022-04-19T14:50:55Z</time>
      </trkpt>
      <trkpt lat="46.45662" lon="5.39282">
        <ele>485.2</ele>
        <time>2022-04-19T14:51:00Z</time>
      </trkpt>
      <trkpt lat="46.45686" lon="5.39307">
        <ele>486.4</ele>
        <time>2022-04-19T14:51:06Z</time>
      </trkpt>
      <trkpt lat="46.45704" lon="5.39326">
        <ele>487.4</ele>
        <time>2022-04-19T14:51:11Z</time>
      </trkpt>
      <trkpt lat="46.45707" lon="5.3933">
        <ele>487.4</ele>
        <time>2022-04-19T14:51:12Z</time>
      </trkpt>
      <trkpt lat="46.45726" lon="5.3935">
        <ele>489</ele>
        <time>2022-04-19T14:51:18Z</time>
      </trkpt>
      <trkpt lat="46.45736" lon="5.39361">
        <ele>489.6</ele>
        <time>2022-04-19T14:51:21Z</time>
      </trkpt>
      <trkpt lat="46.45738" lon="5.39364">
        <ele>490.2</ele>
        <time>2022-04-19T14:51:22Z</time>
      </trkpt>
      <trkpt lat="46.45752" lon="5.39385">
        <ele>491.6</ele>
        <time>2022-04-19T14:51:27Z</time>
      </trkpt>
      <trkpt lat="46.45757" lon="5.39394">
        <ele>492</ele>
        <time>2022-04-19T14:51:29Z</time>
      </trkpt>
      <trkpt lat="46.45761" lon="5.39405">
        <ele>492.6</ele>
        <time>2022-04-19T14:51:31Z</time>
      </trkpt>
      <trkpt lat="46.45769" lon="5.39432">
        <ele>494</ele>
        <time>2022-04-19T14:51:36Z</time>
      </trkpt>
      <trkpt lat="46.4577" lon="5.39438">
        <ele>494.2</ele>
        <time>2022-04-19T14:51:37Z</time>
      </trkpt>
      <trkpt lat="46.45771" lon="5.39444">
        <ele>494.4</ele>
        <time>2022-04-19T14:51:38Z</time>
      </trkpt>
      <trkpt lat="46.45773" lon="5.39456">
        <ele>494.8</ele>
        <time>2022-04-19T14:51:40Z</time>
      </trkpt>
      <trkpt lat="46.45773" lon="5.39468">
        <ele>495</ele>
        <time>2022-04-19T14:51:42Z</time>
      </trkpt>
      <trkpt lat="46.45773" lon="5.39474">
        <ele>495.2</ele>
        <time>2022-04-19T14:51:43Z</time>
      </trkpt>
      <trkpt lat="46.4577" lon="5.39505">
        <ele>496.2</ele>
        <time>2022-04-19T14:51:48Z</time>
      </trkpt>
      <trkpt lat="46.45767" lon="5.39525">
        <ele>496.6</ele>
        <time>2022-04-19T14:51:51Z</time>
      </trkpt>
      <trkpt lat="46.45763" lon="5.39553">
        <ele>497.6</ele>
        <time>2022-04-19T14:51:55Z</time>
      </trkpt>
      <trkpt lat="46.45761" lon="5.39567">
        <ele>498</ele>
        <time>2022-04-19T14:51:57Z</time>
      </trkpt>
      <trkpt lat="46.4576" lon="5.39597">
        <ele>498.6</ele>
        <time>2022-04-19T14:52:01Z</time>
      </trkpt>
      <trkpt lat="46.4576" lon="5.39605">
        <ele>498.6</ele>
        <time>2022-04-19T14:52:02Z</time>
      </trkpt>
      <trkpt lat="46.45761" lon="5.39619">
        <ele>498.8</ele>
        <time>2022-04-19T14:52:04Z</time>
      </trkpt>
      <trkpt lat="46.45763" lon="5.39633">
        <ele>498.8</ele>
        <time>2022-04-19T14:52:06Z</time>
      </trkpt>
      <trkpt lat="46.45769" lon="5.39658">
        <ele>499.4</ele>
        <time>2022-04-19T14:52:10Z</time>
      </trkpt>
      <trkpt lat="46.45771" lon="5.39663">
        <ele>499.8</ele>
        <time>2022-04-19T14:52:11Z</time>
      </trkpt>
      <trkpt lat="46.45773" lon="5.39669">
        <ele>499.8</ele>
        <time>2022-04-19T14:52:12Z</time>
      </trkpt>
      <trkpt lat="46.45783" lon="5.3969">
        <ele>500.8</ele>
        <time>2022-04-19T14:52:16Z</time>
      </trkpt>
      <trkpt lat="46.45806" lon="5.39718">
        <ele>502.2</ele>
        <time>2022-04-19T14:52:22Z</time>
      </trkpt>
      <trkpt lat="46.45815" lon="5.39725">
        <ele>502.8</ele>
        <time>2022-04-19T14:52:24Z</time>
      </trkpt>
      <trkpt lat="46.45819" lon="5.39729">
        <ele>502.8</ele>
        <time>2022-04-19T14:52:25Z</time>
      </trkpt>
      <trkpt lat="46.45838" lon="5.39742">
        <ele>503.2</ele>
        <time>2022-04-19T14:52:29Z</time>
      </trkpt>
      <trkpt lat="46.45851" lon="5.39753">
        <ele>503.4</ele>
        <time>2022-04-19T14:52:32Z</time>
      </trkpt>
      <trkpt lat="46.45861" lon="5.3976">
        <ele>503.6</ele>
        <time>2022-04-19T14:52:34Z</time>
      </trkpt>
      <trkpt lat="46.45875" lon="5.39772">
        <ele>504.2</ele>
        <time>2022-04-19T14:52:37Z</time>
      </trkpt>
      <trkpt lat="46.45879" lon="5.39775">
        <ele>504.2</ele>
        <time>2022-04-19T14:52:38Z</time>
      </trkpt>
      <trkpt lat="46.4589" lon="5.39784">
        <ele>504.6</ele>
        <time>2022-04-19T14:52:40Z</time>
      </trkpt>
      <trkpt lat="46.45938" lon="5.39824">
        <ele>505</ele>
        <time>2022-04-19T14:52:49Z</time>
      </trkpt>
      <trkpt lat="46.45959" lon="5.39842">
        <ele>505.2</ele>
        <time>2022-04-19T14:52:53Z</time>
      </trkpt>
      <trkpt lat="46.45981" lon="5.3986">
        <ele>505.8</ele>
        <time>2022-04-19T14:52:57Z</time>
      </trkpt>
      <trkpt lat="46.4603" lon="5.39901">
        <ele>506.2</ele>
        <time>2022-04-19T14:53:06Z</time>
      </trkpt>
      <trkpt lat="46.46035" lon="5.39906">
        <ele>506.4</ele>
        <time>2022-04-19T14:53:07Z</time>
      </trkpt>
      <trkpt lat="46.46061" lon="5.39928">
        <ele>506.8</ele>
        <time>2022-04-19T14:53:12Z</time>
      </trkpt>
      <trkpt lat="46.46082" lon="5.39946">
        <ele>507.4</ele>
        <time>2022-04-19T14:53:16Z</time>
      </trkpt>
      <trkpt lat="46.46108" lon="5.39969">
        <ele>508</ele>
        <time>2022-04-19T14:53:21Z</time>
      </trkpt>
      <trkpt lat="46.46124" lon="5.39983">
        <ele>508.4</ele>
        <time>2022-04-19T14:53:24Z</time>
      </trkpt>
      <trkpt lat="46.46156" lon="5.40009">
        <ele>509</ele>
        <time>2022-04-19T14:53:30Z</time>
      </trkpt>
      <trkpt lat="46.46166" lon="5.40019">
        <ele>509.4</ele>
        <time>2022-04-19T14:53:32Z</time>
      </trkpt>
      <trkpt lat="46.46174" lon="5.40031">
        <ele>509.4</ele>
        <time>2022-04-19T14:53:34Z</time>
      </trkpt>
      <trkpt lat="46.46178" lon="5.40038">
        <ele>509.4</ele>
        <time>2022-04-19T14:53:35Z</time>
      </trkpt>
      <trkpt lat="46.46181" lon="5.40044">
        <ele>509.4</ele>
        <time>2022-04-19T14:53:36Z</time>
      </trkpt>
      <trkpt lat="46.46184" lon="5.40051">
        <ele>509.4</ele>
        <time>2022-04-19T14:53:37Z</time>
      </trkpt>
      <trkpt lat="46.46191" lon="5.40074">
        <ele>509.6</ele>
        <time>2022-04-19T14:53:40Z</time>
      </trkpt>
      <trkpt lat="46.46198" lon="5.40113">
        <ele>510.2</ele>
        <time>2022-04-19T14:53:45Z</time>
      </trkpt>
      <trkpt lat="46.46198" lon="5.40121">
        <ele>510.4</ele>
        <time>2022-04-19T14:53:46Z</time>
      </trkpt>
      <trkpt lat="46.46198" lon="5.40128">
        <ele>510.6</ele>
        <time>2022-04-19T14:53:47Z</time>
      </trkpt>
      <trkpt lat="46.46205" lon="5.40138">
        <ele>511</ele>
        <time>2022-04-19T14:53:49Z</time>
      </trkpt>
      <trkpt lat="46.46215" lon="5.40139">
        <ele>511.6</ele>
        <time>2022-04-19T14:53:51Z</time>
      </trkpt>
      <trkpt lat="46.46221" lon="5.40135">
        <ele>511.8</ele>
        <time>2022-04-19T14:53:52Z</time>
      </trkpt>
      <trkpt lat="46.46226" lon="5.40131">
        <ele>511.8</ele>
        <time>2022-04-19T14:53:53Z</time>
      </trkpt>
      <trkpt lat="46.46241" lon="5.40114">
        <ele>512</ele>
        <time>2022-04-19T14:53:56Z</time>
      </trkpt>
      <trkpt lat="46.46246" lon="5.40109">
        <ele>512</ele>
        <time>2022-04-19T14:53:57Z</time>
      </trkpt>
      <trkpt lat="46.46257" lon="5.40102">
        <ele>512.2</ele>
        <time>2022-04-19T14:53:59Z</time>
      </trkpt>
      <trkpt lat="46.46263" lon="5.401">
        <ele>512.2</ele>
        <time>2022-04-19T14:54:00Z</time>
      </trkpt>
      <trkpt lat="46.46288" lon="5.40096">
        <ele>512.8</ele>
        <time>2022-04-19T14:54:05Z</time>
      </trkpt>
      <trkpt lat="46.46311" lon="5.40096">
        <ele>514</ele>
        <time>2022-04-19T14:54:10Z</time>
      </trkpt>
      <trkpt lat="46.46315" lon="5.40096">
        <ele>514.2</ele>
        <time>2022-04-19T14:54:11Z</time>
      </trkpt>
      <trkpt lat="46.4633" lon="5.40096">
        <ele>515.2</ele>
        <time>2022-04-19T14:54:14Z</time>
      </trkpt>
      <trkpt lat="46.46351" lon="5.40094">
        <ele>516.2</ele>
        <time>2022-04-19T14:54:18Z</time>
      </trkpt>
      <trkpt lat="46.46373" lon="5.4009">
        <ele>517.2</ele>
        <time>2022-04-19T14:54:22Z</time>
      </trkpt>
      <trkpt lat="46.46394" lon="5.40086">
        <ele>518</ele>
        <time>2022-04-19T14:54:26Z</time>
      </trkpt>
      <trkpt lat="46.464" lon="5.40086">
        <ele>518.4</ele>
        <time>2022-04-19T14:54:27Z</time>
      </trkpt>
      <trkpt lat="46.46425" lon="5.40081">
        <ele>519.6</ele>
        <time>2022-04-19T14:54:32Z</time>
      </trkpt>
      <trkpt lat="46.46451" lon="5.40075">
        <ele>520.6</ele>
        <time>2022-04-19T14:54:37Z</time>
      </trkpt>
      <trkpt lat="46.46455" lon="5.40075">
        <ele>520.8</ele>
        <time>2022-04-19T14:54:38Z</time>
      </trkpt>
      <trkpt lat="46.46497" lon="5.40072">
        <ele>522</ele>
        <time>2022-04-19T14:54:46Z</time>
      </trkpt>
      <trkpt lat="46.46534" lon="5.40087">
        <ele>523</ele>
        <time>2022-04-19T14:54:53Z</time>
      </trkpt>
      <trkpt lat="46.46543" lon="5.40091">
        <ele>523</ele>
        <time>2022-04-19T14:54:55Z</time>
      </trkpt>
      <trkpt lat="46.46573" lon="5.40106">
        <ele>524</ele>
        <time>2022-04-19T14:55:01Z</time>
      </trkpt>
      <trkpt lat="46.46577" lon="5.40109">
        <ele>524.2</ele>
        <time>2022-04-19T14:55:02Z</time>
      </trkpt>
      <trkpt lat="46.46601" lon="5.40121">
        <ele>525.2</ele>
        <time>2022-04-19T14:55:07Z</time>
      </trkpt>
      <trkpt lat="46.46619" lon="5.4013">
        <ele>526.2</ele>
        <time>2022-04-19T14:55:11Z</time>
      </trkpt>
      <trkpt lat="46.46623" lon="5.40133">
        <ele>526.4</ele>
        <time>2022-04-19T14:55:12Z</time>
      </trkpt>
      <trkpt lat="46.4664" lon="5.40142">
        <ele>527.4</ele>
        <time>2022-04-19T14:55:16Z</time>
      </trkpt>
      <trkpt lat="46.46652" lon="5.40148">
        <ele>528.2</ele>
        <time>2022-04-19T14:55:19Z</time>
      </trkpt>
      <trkpt lat="46.46656" lon="5.4015">
        <ele>528.6</ele>
        <time>2022-04-19T14:55:20Z</time>
      </trkpt>
      <trkpt lat="46.46675" lon="5.4016">
        <ele>529.8</ele>
        <time>2022-04-19T14:55:25Z</time>
      </trkpt>
      <trkpt lat="46.46687" lon="5.40166">
        <ele>531</ele>
        <time>2022-04-19T14:55:28Z</time>
      </trkpt>
      <trkpt lat="46.4671" lon="5.40177">
        <ele>532.2</ele>
        <time>2022-04-19T14:55:34Z</time>
      </trkpt>
      <trkpt lat="46.46722" lon="5.40183">
        <ele>533.2</ele>
        <time>2022-04-19T14:55:37Z</time>
      </trkpt>
      <trkpt lat="46.4673" lon="5.40187">
        <ele>533.8</ele>
        <time>2022-04-19T14:55:39Z</time>
      </trkpt>
      <trkpt lat="46.46746" lon="5.40195">
        <ele>534.4</ele>
        <time>2022-04-19T14:55:43Z</time>
      </trkpt>
      <trkpt lat="46.46766" lon="5.40205">
        <ele>535.8</ele>
        <time>2022-04-19T14:55:48Z</time>
      </trkpt>
      <trkpt lat="46.4677" lon="5.40207">
        <ele>536</ele>
        <time>2022-04-19T14:55:49Z</time>
      </trkpt>
      <trkpt lat="46.46785" lon="5.40215">
        <ele>536.8</ele>
        <time>2022-04-19T14:55:53Z</time>
      </trkpt>
      <trkpt lat="46.46804" lon="5.40225">
        <ele>538.2</ele>
        <time>2022-04-19T14:55:58Z</time>
      </trkpt>
      <trkpt lat="46.46812" lon="5.4023">
        <ele>538.6</ele>
        <time>2022-04-19T14:56:00Z</time>
      </trkpt>
      <trkpt lat="46.46824" lon="5.40236">
        <ele>539.2</ele>
        <time>2022-04-19T14:56:03Z</time>
      </trkpt>
      <trkpt lat="46.4684" lon="5.40244">
        <ele>540.6</ele>
        <time>2022-04-19T14:56:07Z</time>
      </trkpt>
      <trkpt lat="46.46852" lon="5.40249">
        <ele>541.2</ele>
        <time>2022-04-19T14:56:10Z</time>
      </trkpt>
      <trkpt lat="46.46856" lon="5.40251">
        <ele>541.6</ele>
        <time>2022-04-19T14:56:11Z</time>
      </trkpt>
      <trkpt lat="46.46879" lon="5.40262">
        <ele>542.8</ele>
        <time>2022-04-19T14:56:16Z</time>
      </trkpt>
      <trkpt lat="46.46889" lon="5.40267">
        <ele>543.4</ele>
        <time>2022-04-19T14:56:18Z</time>
      </trkpt>
      <trkpt lat="46.46899" lon="5.40272">
        <ele>543.8</ele>
        <time>2022-04-19T14:56:20Z</time>
      </trkpt>
      <trkpt lat="46.46919" lon="5.40282">
        <ele>544.6</ele>
        <time>2022-04-19T14:56:24Z</time>
      </trkpt>
      <trkpt lat="46.46934" lon="5.4029">
        <ele>544.8</ele>
        <time>2022-04-19T14:56:27Z</time>
      </trkpt>
      <trkpt lat="46.4695" lon="5.40298">
        <ele>545.4</ele>
        <time>2022-04-19T14:56:30Z</time>
      </trkpt>
      <trkpt lat="46.46961" lon="5.40303">
        <ele>545.8</ele>
        <time>2022-04-19T14:56:32Z</time>
      </trkpt>
      <trkpt lat="46.46966" lon="5.40305">
        <ele>546</ele>
        <time>2022-04-19T14:56:33Z</time>
      </trkpt>
      <trkpt lat="46.46984" lon="5.40311">
        <ele>547</ele>
        <time>2022-04-19T14:56:36Z</time>
      </trkpt>
      <trkpt lat="46.4699" lon="5.40313">
        <ele>547.2</ele>
        <time>2022-04-19T14:56:37Z</time>
      </trkpt>
      <trkpt lat="46.47019" lon="5.40322">
        <ele>548.6</ele>
        <time>2022-04-19T14:56:42Z</time>
      </trkpt>
      <trkpt lat="46.4703" lon="5.40323">
        <ele>549</ele>
        <time>2022-04-19T14:56:44Z</time>
      </trkpt>
      <trkpt lat="46.47072" lon="5.40328">
        <ele>549.4</ele>
        <time>2022-04-19T14:56:50Z</time>
      </trkpt>
      <trkpt lat="46.47118" lon="5.40333">
        <ele>548.8</ele>
        <time>2022-04-19T14:56:55Z</time>
      </trkpt>
      <trkpt lat="46.47156" lon="5.40341">
        <ele>547.2</ele>
        <time>2022-04-19T14:56:59Z</time>
      </trkpt>
      <trkpt lat="46.47165" lon="5.40344">
        <ele>546.4</ele>
        <time>2022-04-19T14:57:00Z</time>
      </trkpt>
      <trkpt lat="46.47175" lon="5.40348">
        <ele>546.2</ele>
        <time>2022-04-19T14:57:01Z</time>
      </trkpt>
      <trkpt lat="46.47184" lon="5.40354">
        <ele>545.4</ele>
        <time>2022-04-19T14:57:02Z</time>
      </trkpt>
      <trkpt lat="46.47204" lon="5.40368">
        <ele>544.4</ele>
        <time>2022-04-19T14:57:04Z</time>
      </trkpt>
      <trkpt lat="46.47211" lon="5.40377">
        <ele>543.6</ele>
        <time>2022-04-19T14:57:05Z</time>
      </trkpt>
      <trkpt lat="46.47227" lon="5.40398">
        <ele>542.4</ele>
        <time>2022-04-19T14:57:07Z</time>
      </trkpt>
      <trkpt lat="46.47235" lon="5.40408">
        <ele>542.2</ele>
        <time>2022-04-19T14:57:08Z</time>
      </trkpt>
      <trkpt lat="46.47245" lon="5.40416">
        <ele>541.6</ele>
        <time>2022-04-19T14:57:09Z</time>
      </trkpt>
      <trkpt lat="46.47255" lon="5.40423">
        <ele>540.4</ele>
        <time>2022-04-19T14:57:10Z</time>
      </trkpt>
      <trkpt lat="46.47289" lon="5.40438">
        <ele>539.2</ele>
        <time>2022-04-19T14:57:13Z</time>
      </trkpt>
      <trkpt lat="46.47309" lon="5.40443">
        <ele>538.2</ele>
        <time>2022-04-19T14:57:15Z</time>
      </trkpt>
      <trkpt lat="46.4732" lon="5.40445">
        <ele>537.2</ele>
        <time>2022-04-19T14:57:16Z</time>
      </trkpt>
      <trkpt lat="46.47344" lon="5.40448">
        <ele>536.2</ele>
        <time>2022-04-19T14:57:18Z</time>
      </trkpt>
      <trkpt lat="46.47353" lon="5.40449">
        <ele>535.6</ele>
        <time>2022-04-19T14:57:19Z</time>
      </trkpt>
      <trkpt lat="46.47387" lon="5.40451">
        <ele>534.4</ele>
        <time>2022-04-19T14:57:22Z</time>
      </trkpt>
      <trkpt lat="46.47409" lon="5.4045">
        <ele>533</ele>
        <time>2022-04-19T14:57:24Z</time>
      </trkpt>
      <trkpt lat="46.47444" lon="5.40449">
        <ele>532</ele>
        <time>2022-04-19T14:57:27Z</time>
      </trkpt>
      <trkpt lat="46.47463" lon="5.40452">
        <ele>531</ele>
        <time>2022-04-19T14:57:29Z</time>
      </trkpt>
      <trkpt lat="46.47474" lon="5.40455">
        <ele>529.6</ele>
        <time>2022-04-19T14:57:30Z</time>
      </trkpt>
      <trkpt lat="46.47495" lon="5.40463">
        <ele>528.4</ele>
        <time>2022-04-19T14:57:32Z</time>
      </trkpt>
      <trkpt lat="46.47504" lon="5.4047">
        <ele>527</ele>
        <time>2022-04-19T14:57:33Z</time>
      </trkpt>
      <trkpt lat="46.47518" lon="5.40486">
        <ele>525.8</ele>
        <time>2022-04-19T14:57:35Z</time>
      </trkpt>
      <trkpt lat="46.4753" lon="5.40497">
        <ele>524.6</ele>
        <time>2022-04-19T14:57:37Z</time>
      </trkpt>
      <trkpt lat="46.47544" lon="5.40502">
        <ele>523.6</ele>
        <time>2022-04-19T14:57:39Z</time>
      </trkpt>
      <trkpt lat="46.47548" lon="5.40494">
        <ele>523</ele>
        <time>2022-04-19T14:57:40Z</time>
      </trkpt>
      <trkpt lat="46.47552" lon="5.40472">
        <ele>522.6</ele>
        <time>2022-04-19T14:57:41Z</time>
      </trkpt>
      <trkpt lat="46.47552" lon="5.40454">
        <ele>522.2</ele>
        <time>2022-04-19T14:57:42Z</time>
      </trkpt>
      <trkpt lat="46.47546" lon="5.40432">
        <ele>521.8</ele>
        <time>2022-04-19T14:57:43Z</time>
      </trkpt>
      <trkpt lat="46.47538" lon="5.40411">
        <ele>521.2</ele>
        <time>2022-04-19T14:57:44Z</time>
      </trkpt>
      <trkpt lat="46.47533" lon="5.40396">
        <ele>520.8</ele>
        <time>2022-04-19T14:57:45Z</time>
      </trkpt>
      <trkpt lat="46.47528" lon="5.40377">
        <ele>519.6</ele>
        <time>2022-04-19T14:57:46Z</time>
      </trkpt>
      <trkpt lat="46.47528" lon="5.40358">
        <ele>519</ele>
        <time>2022-04-19T14:57:47Z</time>
      </trkpt>
      <trkpt lat="46.4753" lon="5.40337">
        <ele>518.6</ele>
        <time>2022-04-19T14:57:48Z</time>
      </trkpt>
      <trkpt lat="46.47534" lon="5.40322">
        <ele>518.2</ele>
        <time>2022-04-19T14:57:49Z</time>
      </trkpt>
      <trkpt lat="46.47543" lon="5.40303">
        <ele>518</ele>
        <time>2022-04-19T14:57:50Z</time>
      </trkpt>
      <trkpt lat="46.47552" lon="5.4029">
        <ele>517.6</ele>
        <time>2022-04-19T14:57:51Z</time>
      </trkpt>
      <trkpt lat="46.47572" lon="5.40269">
        <ele>516.4</ele>
        <time>2022-04-19T14:57:53Z</time>
      </trkpt>
      <trkpt lat="46.47592" lon="5.4026">
        <ele>515.4</ele>
        <time>2022-04-19T14:57:55Z</time>
      </trkpt>
      <trkpt lat="46.47604" lon="5.40257">
        <ele>514.6</ele>
        <time>2022-04-19T14:57:56Z</time>
      </trkpt>
      <trkpt lat="46.4763" lon="5.40251">
        <ele>512.4</ele>
        <time>2022-04-19T14:57:58Z</time>
      </trkpt>
      <trkpt lat="46.47657" lon="5.40246">
        <ele>511</ele>
        <time>2022-04-19T14:58:00Z</time>
      </trkpt>
      <trkpt lat="46.47666" lon="5.40247">
        <ele>510.4</ele>
        <time>2022-04-19T14:58:01Z</time>
      </trkpt>
      <trkpt lat="46.47692" lon="5.40243">
        <ele>509.6</ele>
        <time>2022-04-19T14:58:03Z</time>
      </trkpt>
      <trkpt lat="46.47701" lon="5.40238">
        <ele>509.4</ele>
        <time>2022-04-19T14:58:04Z</time>
      </trkpt>
      <trkpt lat="46.4771" lon="5.40227">
        <ele>509.2</ele>
        <time>2022-04-19T14:58:05Z</time>
      </trkpt>
      <trkpt lat="46.47717" lon="5.40212">
        <ele>508.6</ele>
        <time>2022-04-19T14:58:06Z</time>
      </trkpt>
      <trkpt lat="46.4772" lon="5.40201">
        <ele>507.8</ele>
        <time>2022-04-19T14:58:07Z</time>
      </trkpt>
      <trkpt lat="46.47726" lon="5.40184">
        <ele>507.2</ele>
        <time>2022-04-19T14:58:08Z</time>
      </trkpt>
      <trkpt lat="46.4774" lon="5.40164">
        <ele>506.6</ele>
        <time>2022-04-19T14:58:10Z</time>
      </trkpt>
      <trkpt lat="46.47756" lon="5.40142">
        <ele>505.6</ele>
        <time>2022-04-19T14:58:12Z</time>
      </trkpt>
      <trkpt lat="46.47761" lon="5.40127">
        <ele>505</ele>
        <time>2022-04-19T14:58:13Z</time>
      </trkpt>
      <trkpt lat="46.47765" lon="5.40112">
        <ele>504.4</ele>
        <time>2022-04-19T14:58:14Z</time>
      </trkpt>
      <trkpt lat="46.47767" lon="5.40096">
        <ele>503.6</ele>
        <time>2022-04-19T14:58:15Z</time>
      </trkpt>
      <trkpt lat="46.47767" lon="5.40079">
        <ele>503.2</ele>
        <time>2022-04-19T14:58:16Z</time>
      </trkpt>
      <trkpt lat="46.47765" lon="5.40046">
        <ele>502.4</ele>
        <time>2022-04-19T14:58:18Z</time>
      </trkpt>
      <trkpt lat="46.47767" lon="5.40032">
        <ele>502</ele>
        <time>2022-04-19T14:58:19Z</time>
      </trkpt>
      <trkpt lat="46.4777" lon="5.40019">
        <ele>501.8</ele>
        <time>2022-04-19T14:58:20Z</time>
      </trkpt>
      <trkpt lat="46.47776" lon="5.40006">
        <ele>500.6</ele>
        <time>2022-04-19T14:58:21Z</time>
      </trkpt>
      <trkpt lat="46.47782" lon="5.4">
        <ele>500</ele>
        <time>2022-04-19T14:58:22Z</time>
      </trkpt>
      <trkpt lat="46.47791" lon="5.39994">
        <ele>499.2</ele>
        <time>2022-04-19T14:58:23Z</time>
      </trkpt>
      <trkpt lat="46.47803" lon="5.39988">
        <ele>498.2</ele>
        <time>2022-04-19T14:58:24Z</time>
      </trkpt>
      <trkpt lat="46.47823" lon="5.3998">
        <ele>497.2</ele>
        <time>2022-04-19T14:58:26Z</time>
      </trkpt>
      <trkpt lat="46.47844" lon="5.39968">
        <ele>495.4</ele>
        <time>2022-04-19T14:58:28Z</time>
      </trkpt>
      <trkpt lat="46.47869" lon="5.39954">
        <ele>493.4</ele>
        <time>2022-04-19T14:58:30Z</time>
      </trkpt>
      <trkpt lat="46.479" lon="5.39937">
        <ele>492</ele>
        <time>2022-04-19T14:58:33Z</time>
      </trkpt>
      <trkpt lat="46.47935" lon="5.39918">
        <ele>490.8</ele>
        <time>2022-04-19T14:58:36Z</time>
      </trkpt>
      <trkpt lat="46.47947" lon="5.39912">
        <ele>489.4</ele>
        <time>2022-04-19T14:58:37Z</time>
      </trkpt>
      <trkpt lat="46.47958" lon="5.39906">
        <ele>488.8</ele>
        <time>2022-04-19T14:58:38Z</time>
      </trkpt>
      <trkpt lat="46.47981" lon="5.39895">
        <ele>488</ele>
        <time>2022-04-19T14:58:40Z</time>
      </trkpt>
      <trkpt lat="46.48002" lon="5.39886">
        <ele>486.8</ele>
        <time>2022-04-19T14:58:42Z</time>
      </trkpt>
      <trkpt lat="46.48012" lon="5.39884">
        <ele>486.4</ele>
        <time>2022-04-19T14:58:43Z</time>
      </trkpt>
      <trkpt lat="46.48033" lon="5.39886">
        <ele>486</ele>
        <time>2022-04-19T14:58:45Z</time>
      </trkpt>
      <trkpt lat="46.48045" lon="5.39892">
        <ele>485.8</ele>
        <time>2022-04-19T14:58:46Z</time>
      </trkpt>
      <trkpt lat="46.48052" lon="5.39897">
        <ele>485.6</ele>
        <time>2022-04-19T14:58:47Z</time>
      </trkpt>
      <trkpt lat="46.48063" lon="5.39903">
        <ele>485.6</ele>
        <time>2022-04-19T14:58:48Z</time>
      </trkpt>
      <trkpt lat="46.48079" lon="5.39908">
        <ele>485.4</ele>
        <time>2022-04-19T14:58:50Z</time>
      </trkpt>
      <trkpt lat="46.48116" lon="5.39906">
        <ele>485.4</ele>
        <time>2022-04-19T14:58:54Z</time>
      </trkpt>
      <trkpt lat="46.48161" lon="5.39888">
        <ele>485.6</ele>
        <time>2022-04-19T14:58:59Z</time>
      </trkpt>
      <trkpt lat="46.48193" lon="5.39863">
        <ele>485.6</ele>
        <time>2022-04-19T14:59:03Z</time>
      </trkpt>
      <trkpt lat="46.48199" lon="5.39852">
        <ele>485.6</ele>
        <time>2022-04-19T14:59:04Z</time>
      </trkpt>
      <trkpt lat="46.482" lon="5.39843">
        <ele>485.6</ele>
        <time>2022-04-19T14:59:05Z</time>
      </trkpt>
      <trkpt lat="46.48198" lon="5.39829">
        <ele>485.4</ele>
        <time>2022-04-19T14:59:06Z</time>
      </trkpt>
      <trkpt lat="46.48187" lon="5.39769">
        <ele>484.8</ele>
        <time>2022-04-19T14:59:11Z</time>
      </trkpt>
      <trkpt lat="46.48185" lon="5.39756">
        <ele>484.6</ele>
        <time>2022-04-19T14:59:12Z</time>
      </trkpt>
      <trkpt lat="46.48178" lon="5.39704">
        <ele>484.2</ele>
        <time>2022-04-19T14:59:16Z</time>
      </trkpt>
      <trkpt lat="46.4818" lon="5.39662">
        <ele>483.8</ele>
        <time>2022-04-19T14:59:19Z</time>
      </trkpt>
      <trkpt lat="46.48183" lon="5.39648">
        <ele>483.4</ele>
        <time>2022-04-19T14:59:20Z</time>
      </trkpt>
      <trkpt lat="46.48194" lon="5.39618">
        <ele>482.6</ele>
        <time>2022-04-19T14:59:22Z</time>
      </trkpt>
      <trkpt lat="46.48199" lon="5.39606">
        <ele>482.4</ele>
        <time>2022-04-19T14:59:23Z</time>
      </trkpt>
      <trkpt lat="46.48204" lon="5.39591">
        <ele>482</ele>
        <time>2022-04-19T14:59:24Z</time>
      </trkpt>
      <trkpt lat="46.48209" lon="5.39575">
        <ele>481.8</ele>
        <time>2022-04-19T14:59:25Z</time>
      </trkpt>
      <trkpt lat="46.48213" lon="5.39558">
        <ele>480.6</ele>
        <time>2022-04-19T14:59:26Z</time>
      </trkpt>
      <trkpt lat="46.4822" lon="5.39525">
        <ele>478.8</ele>
        <time>2022-04-19T14:59:28Z</time>
      </trkpt>
      <trkpt lat="46.48224" lon="5.3951">
        <ele>477.6</ele>
        <time>2022-04-19T14:59:29Z</time>
      </trkpt>
      <trkpt lat="46.48236" lon="5.39485">
        <ele>476.6</ele>
        <time>2022-04-19T14:59:31Z</time>
      </trkpt>
      <trkpt lat="46.48242" lon="5.39475">
        <ele>476.4</ele>
        <time>2022-04-19T14:59:32Z</time>
      </trkpt>
      <trkpt lat="46.4825" lon="5.39468">
        <ele>475.2</ele>
        <time>2022-04-19T14:59:33Z</time>
      </trkpt>
      <trkpt lat="46.48258" lon="5.39464">
        <ele>474.6</ele>
        <time>2022-04-19T14:59:34Z</time>
      </trkpt>
      <trkpt lat="46.48268" lon="5.39463">
        <ele>473.2</ele>
        <time>2022-04-19T14:59:35Z</time>
      </trkpt>
      <trkpt lat="46.48276" lon="5.39465">
        <ele>471.4</ele>
        <time>2022-04-19T14:59:36Z</time>
      </trkpt>
      <trkpt lat="46.48284" lon="5.39466">
        <ele>470.6</ele>
        <time>2022-04-19T14:59:37Z</time>
      </trkpt>
      <trkpt lat="46.48291" lon="5.39464">
        <ele>469</ele>
        <time>2022-04-19T14:59:38Z</time>
      </trkpt>
      <trkpt lat="46.48302" lon="5.39455">
        <ele>467</ele>
        <time>2022-04-19T14:59:40Z</time>
      </trkpt>
      <trkpt lat="46.48311" lon="5.39442">
        <ele>465.8</ele>
        <time>2022-04-19T14:59:42Z</time>
      </trkpt>
      <trkpt lat="46.48321" lon="5.39422">
        <ele>465</ele>
        <time>2022-04-19T14:59:44Z</time>
      </trkpt>
      <trkpt lat="46.48326" lon="5.39408">
        <ele>464.6</ele>
        <time>2022-04-19T14:59:45Z</time>
      </trkpt>
      <trkpt lat="46.48332" lon="5.39392">
        <ele>464.4</ele>
        <time>2022-04-19T14:59:46Z</time>
      </trkpt>
      <trkpt lat="46.48337" lon="5.39381">
        <ele>463.4</ele>
        <time>2022-04-19T14:59:47Z</time>
      </trkpt>
      <trkpt lat="46.48352" lon="5.39353">
        <ele>462</ele>
        <time>2022-04-19T14:59:49Z</time>
      </trkpt>
      <trkpt lat="46.48357" lon="5.39344">
        <ele>461</ele>
        <time>2022-04-19T14:59:50Z</time>
      </trkpt>
      <trkpt lat="46.48366" lon="5.39336">
        <ele>460.6</ele>
        <time>2022-04-19T14:59:51Z</time>
      </trkpt>
      <trkpt lat="46.48375" lon="5.39331">
        <ele>459.4</ele>
        <time>2022-04-19T14:59:52Z</time>
      </trkpt>
      <trkpt lat="46.48387" lon="5.3933">
        <ele>458.8</ele>
        <time>2022-04-19T14:59:53Z</time>
      </trkpt>
      <trkpt lat="46.48396" lon="5.3933">
        <ele>457.4</ele>
        <time>2022-04-19T14:59:54Z</time>
      </trkpt>
      <trkpt lat="46.48428" lon="5.39333">
        <ele>455.6</ele>
        <time>2022-04-19T14:59:57Z</time>
      </trkpt>
      <trkpt lat="46.48442" lon="5.39331">
        <ele>455.2</ele>
        <time>2022-04-19T14:59:58Z</time>
      </trkpt>
      <trkpt lat="46.48451" lon="5.39326">
        <ele>453.4</ele>
        <time>2022-04-19T14:59:59Z</time>
      </trkpt>
      <trkpt lat="46.48475" lon="5.39316">
        <ele>451.6</ele>
        <time>2022-04-19T15:00:01Z</time>
      </trkpt>
      <trkpt lat="46.485" lon="5.3931">
        <ele>450.6</ele>
        <time>2022-04-19T15:00:03Z</time>
      </trkpt>
      <trkpt lat="46.48512" lon="5.39307">
        <ele>448.6</ele>
        <time>2022-04-19T15:00:04Z</time>
      </trkpt>
      <trkpt lat="46.48538" lon="5.39299">
        <ele>446.4</ele>
        <time>2022-04-19T15:00:06Z</time>
      </trkpt>
      <trkpt lat="46.48563" lon="5.39293">
        <ele>445</ele>
        <time>2022-04-19T15:00:08Z</time>
      </trkpt>
      <trkpt lat="46.4859" lon="5.39289">
        <ele>443.4</ele>
        <time>2022-04-19T15:00:10Z</time>
      </trkpt>
      <trkpt lat="46.48616" lon="5.39283">
        <ele>441.6</ele>
        <time>2022-04-19T15:00:12Z</time>
      </trkpt>
      <trkpt lat="46.4863" lon="5.3928">
        <ele>440.6</ele>
        <time>2022-04-19T15:00:13Z</time>
      </trkpt>
      <trkpt lat="46.4864" lon="5.39279">
        <ele>440.4</ele>
        <time>2022-04-19T15:00:14Z</time>
      </trkpt>
      <trkpt lat="46.48652" lon="5.39279">
        <ele>438.6</ele>
        <time>2022-04-19T15:00:15Z</time>
      </trkpt>
      <trkpt lat="46.48664" lon="5.3928">
        <ele>437</ele>
        <time>2022-04-19T15:00:16Z</time>
      </trkpt>
      <trkpt lat="46.48675" lon="5.39283">
        <ele>435.2</ele>
        <time>2022-04-19T15:00:17Z</time>
      </trkpt>
      <trkpt lat="46.48695" lon="5.39291">
        <ele>433</ele>
        <time>2022-04-19T15:00:19Z</time>
      </trkpt>
      <trkpt lat="46.48706" lon="5.39298">
        <ele>432.4</ele>
        <time>2022-04-19T15:00:20Z</time>
      </trkpt>
      <trkpt lat="46.4872" lon="5.39308">
        <ele>431</ele>
        <time>2022-04-19T15:00:22Z</time>
      </trkpt>
      <trkpt lat="46.48727" lon="5.3931">
        <ele>430.8</ele>
        <time>2022-04-19T15:00:23Z</time>
      </trkpt>
      <trkpt lat="46.48733" lon="5.39309">
        <ele>429.4</ele>
        <time>2022-04-19T15:00:24Z</time>
      </trkpt>
      <trkpt lat="46.48737" lon="5.39303">
        <ele>428.8</ele>
        <time>2022-04-19T15:00:25Z</time>
      </trkpt>
      <trkpt lat="46.48738" lon="5.39294">
        <ele>427.8</ele>
        <time>2022-04-19T15:00:26Z</time>
      </trkpt>
      <trkpt lat="46.48736" lon="5.39286">
        <ele>426.8</ele>
        <time>2022-04-19T15:00:27Z</time>
      </trkpt>
      <trkpt lat="46.48732" lon="5.39278">
        <ele>426.2</ele>
        <time>2022-04-19T15:00:28Z</time>
      </trkpt>
      <trkpt lat="46.48727" lon="5.3927">
        <ele>425.4</ele>
        <time>2022-04-19T15:00:29Z</time>
      </trkpt>
      <trkpt lat="46.4872" lon="5.39261">
        <ele>424.8</ele>
        <time>2022-04-19T15:00:30Z</time>
      </trkpt>
      <trkpt lat="46.48713" lon="5.39252">
        <ele>423.8</ele>
        <time>2022-04-19T15:00:31Z</time>
      </trkpt>
      <trkpt lat="46.48697" lon="5.39229">
        <ele>422.2</ele>
        <time>2022-04-19T15:00:33Z</time>
      </trkpt>
      <trkpt lat="46.48688" lon="5.39217">
        <ele>420.6</ele>
        <time>2022-04-19T15:00:34Z</time>
      </trkpt>
      <trkpt lat="46.4867" lon="5.39193">
        <ele>419.2</ele>
        <time>2022-04-19T15:00:36Z</time>
      </trkpt>
      <trkpt lat="46.48662" lon="5.39179">
        <ele>419</ele>
        <time>2022-04-19T15:00:37Z</time>
      </trkpt>
      <trkpt lat="46.48644" lon="5.39154">
        <ele>418.4</ele>
        <time>2022-04-19T15:00:39Z</time>
      </trkpt>
      <trkpt lat="46.48633" lon="5.39142">
        <ele>417.4</ele>
        <time>2022-04-19T15:00:40Z</time>
      </trkpt>
      <trkpt lat="46.48622" lon="5.39132">
        <ele>416</ele>
        <time>2022-04-19T15:00:41Z</time>
      </trkpt>
      <trkpt lat="46.48598" lon="5.39114">
        <ele>414.4</ele>
        <time>2022-04-19T15:00:43Z</time>
      </trkpt>
      <trkpt lat="46.48573" lon="5.39095">
        <ele>413</ele>
        <time>2022-04-19T15:00:45Z</time>
      </trkpt>
      <trkpt lat="46.4856" lon="5.39087">
        <ele>412.2</ele>
        <time>2022-04-19T15:00:46Z</time>
      </trkpt>
      <trkpt lat="46.48547" lon="5.39079">
        <ele>410.8</ele>
        <time>2022-04-19T15:00:47Z</time>
      </trkpt>
      <trkpt lat="46.48523" lon="5.39063">
        <ele>409.4</ele>
        <time>2022-04-19T15:00:49Z</time>
      </trkpt>
      <trkpt lat="46.48513" lon="5.39053">
        <ele>407.6</ele>
        <time>2022-04-19T15:00:50Z</time>
      </trkpt>
      <trkpt lat="46.48502" lon="5.39038">
        <ele>406.6</ele>
        <time>2022-04-19T15:00:51Z</time>
      </trkpt>
      <trkpt lat="46.48498" lon="5.39024">
        <ele>404.6</ele>
        <time>2022-04-19T15:00:52Z</time>
      </trkpt>
      <trkpt lat="46.48493" lon="5.39003">
        <ele>403.6</ele>
        <time>2022-04-19T15:00:53Z</time>
      </trkpt>
      <trkpt lat="46.48488" lon="5.38984">
        <ele>402</ele>
        <time>2022-04-19T15:00:54Z</time>
      </trkpt>
      <trkpt lat="46.48482" lon="5.38967">
        <ele>400.4</ele>
        <time>2022-04-19T15:00:55Z</time>
      </trkpt>
      <trkpt lat="46.48473" lon="5.3895">
        <ele>399.8</ele>
        <time>2022-04-19T15:00:56Z</time>
      </trkpt>
      <trkpt lat="46.48468" lon="5.38939">
        <ele>398.8</ele>
        <time>2022-04-19T15:00:57Z</time>
      </trkpt>
      <trkpt lat="46.48457" lon="5.38914">
        <ele>397</ele>
        <time>2022-04-19T15:00:59Z</time>
      </trkpt>
      <trkpt lat="46.48454" lon="5.38899">
        <ele>396.4</ele>
        <time>2022-04-19T15:01:00Z</time>
      </trkpt>
      <trkpt lat="46.48453" lon="5.3889">
        <ele>395</ele>
        <time>2022-04-19T15:01:01Z</time>
      </trkpt>
      <trkpt lat="46.48456" lon="5.38875">
        <ele>394.4</ele>
        <time>2022-04-19T15:01:02Z</time>
      </trkpt>
      <trkpt lat="46.48461" lon="5.38866">
        <ele>393.6</ele>
        <time>2022-04-19T15:01:03Z</time>
      </trkpt>
      <trkpt lat="46.48468" lon="5.38857">
        <ele>392.6</ele>
        <time>2022-04-19T15:01:04Z</time>
      </trkpt>
      <trkpt lat="46.48479" lon="5.38849">
        <ele>392.2</ele>
        <time>2022-04-19T15:01:05Z</time>
      </trkpt>
      <trkpt lat="46.48505" lon="5.38831">
        <ele>390.8</ele>
        <time>2022-04-19T15:01:08Z</time>
      </trkpt>
      <trkpt lat="46.48537" lon="5.38811">
        <ele>389</ele>
        <time>2022-04-19T15:01:11Z</time>
      </trkpt>
      <trkpt lat="46.48556" lon="5.38798">
        <ele>387.4</ele>
        <time>2022-04-19T15:01:13Z</time>
      </trkpt>
      <trkpt lat="46.48576" lon="5.38784">
        <ele>386.2</ele>
        <time>2022-04-19T15:01:15Z</time>
      </trkpt>
      <trkpt lat="46.48583" lon="5.38781">
        <ele>385.6</ele>
        <time>2022-04-19T15:01:16Z</time>
      </trkpt>
      <trkpt lat="46.4859" lon="5.38779">
        <ele>384.8</ele>
        <time>2022-04-19T15:01:17Z</time>
      </trkpt>
      <trkpt lat="46.48604" lon="5.38779">
        <ele>383.2</ele>
        <time>2022-04-19T15:01:19Z</time>
      </trkpt>
      <trkpt lat="46.48611" lon="5.38779">
        <ele>382.2</ele>
        <time>2022-04-19T15:01:20Z</time>
      </trkpt>
      <trkpt lat="46.48623" lon="5.3877">
        <ele>380.8</ele>
        <time>2022-04-19T15:01:22Z</time>
      </trkpt>
      <trkpt lat="46.48634" lon="5.38753">
        <ele>379.4</ele>
        <time>2022-04-19T15:01:24Z</time>
      </trkpt>
      <trkpt lat="46.48638" lon="5.38744">
        <ele>378.2</ele>
        <time>2022-04-19T15:01:25Z</time>
      </trkpt>
      <trkpt lat="46.48642" lon="5.38731">
        <ele>377.6</ele>
        <time>2022-04-19T15:01:26Z</time>
      </trkpt>
      <trkpt lat="46.48644" lon="5.38717">
        <ele>377</ele>
        <time>2022-04-19T15:01:27Z</time>
      </trkpt>
      <trkpt lat="46.48645" lon="5.38702">
        <ele>376.4</ele>
        <time>2022-04-19T15:01:28Z</time>
      </trkpt>
      <trkpt lat="46.48645" lon="5.38686">
        <ele>375.2</ele>
        <time>2022-04-19T15:01:29Z</time>
      </trkpt>
      <trkpt lat="46.48643" lon="5.38671">
        <ele>374.8</ele>
        <time>2022-04-19T15:01:30Z</time>
      </trkpt>
      <trkpt lat="46.48638" lon="5.38639">
        <ele>374</ele>
        <time>2022-04-19T15:01:32Z</time>
      </trkpt>
      <trkpt lat="46.4863" lon="5.38608">
        <ele>372.2</ele>
        <time>2022-04-19T15:01:34Z</time>
      </trkpt>
      <trkpt lat="46.48621" lon="5.38575">
        <ele>371</ele>
        <time>2022-04-19T15:01:36Z</time>
      </trkpt>
      <trkpt lat="46.48612" lon="5.38543">
        <ele>369.8</ele>
        <time>2022-04-19T15:01:38Z</time>
      </trkpt>
      <trkpt lat="46.48603" lon="5.38511">
        <ele>368.8</ele>
        <time>2022-04-19T15:01:40Z</time>
      </trkpt>
      <trkpt lat="46.48597" lon="5.38495">
        <ele>368</ele>
        <time>2022-04-19T15:01:41Z</time>
      </trkpt>
    </trkseg>
  </trk>
</gpx>